# Wetter Temperatur Luftdruck Luftfeuchtigkeit Sichtweite Windgeschwindigkeit Windrichtung Zeit
1 Clouds -2 995 83 10000 1.83 10 14:22 01.02.2023
2 Clouds -1 995 79 10000 1.85 15 13:20 01.02.2023
3 Clouds -1 995 79 10000 1.85 15 12:49 01.02.2023
4 Clouds -2 994 81 10000 1.84 18 11:56 01.02.2023
5 Clouds -2 993 92 10000 1.84 16 08:43 01.02.2023
6 Clouds 0 991 93 10000 0.8 2 00:43 01.02.2023
7 Clouds -2 991 94 10000 1.22 3 21:38 31.01.2023
8 Clouds -2 991 97 10000 1.59 358 19:48 31.01.2023
9 Clouds -1 990 97 10000 1.03 347 18:37 31.01.2023
10 Snow 0 993 92 1901 0.97 4 15:36 31.01.2023
11 Clouds 0 993 92 1901 0.97 4 15:18 31.01.2023
12 Snow 1 994 85 10000 0.06 110 14:19 31.01.2023
13 Snow 0 996 90 10000 0.49 66 12:19 31.01.2023
14 Snow -3 998 86 1878 0.56 272 10:47 31.01.2023
15 Clouds -3 998 86 10000 1.06 340 09:51 31.01.2023
16 Clouds -3 1000 91 10000 1.06 326 08:59 31.01.2023
17 Clouds -3 1000 91 10000 1.06 327 08:35 31.01.2023
18 Clouds -2 1003 85 10000 1.15 298 05:36 31.01.2023
19 Clear 1 1003 84 10000 1.78 306 23:55 30.01.2023
20 Clear 1 1003 82 10000 2.05 300 22:50 30.01.2023
21 Clear 1 1003 82 10000 2.05 300 22:30 30.01.2023
22 Clear 2 1000 80 10000 1.98 298 20:48 30.01.2023
23 Clear 2 1000 89 10000 2.04 305 19:53 30.01.2023
24 Clouds 3 997 77 10000 2.58 307 17:30 30.01.2023
25 Clouds 5 994 76 10000 2.39 316 16:26 30.01.2023
26 Clouds 7 990 73 10000 2.63 319 14:27 30.01.2023
27 Clouds 6 987 64 10000 3.11 319 12:26 30.01.2023
28 Clouds 5 986 72 10000 2.38 313 10:55 30.01.2023
29 Clouds 4 984 66 10000 3.12 310 09:54 30.01.2023
30 Clouds 2 982 74 10000 2.83 281 08:48 30.01.2023
31 Clouds 3 980 61 10000 5.44 269 06:40 30.01.2023
32 Clouds 5 984 62 10000 5.81 258 01:38 30.01.2023
33 Clouds 6 984 64 10000 4.89 257 23:35 29.01.2023
34 Clouds 5 985 66 10000 5.23 259 22:37 29.01.2023
35 Clouds 5 985 81 10000 3.77 250 21:35 29.01.2023
36 Clouds 6 985 83 10000 4.07 228 20:36 29.01.2023
37 Clouds 5 986 82 10000 5.22 225 19:33 29.01.2023
38 Clouds 5 987 84 10000 4.75 210 18:42 29.01.2023
39 Clouds 5 990 91 10000 4.79 196 17:31 29.01.2023
40 Clouds 5 992 90 10000 4.53 199 16:20 29.01.2023
41 Clouds 5 994 91 10000 3.86 198 14:48 29.01.2023
42 Clouds 5 998 91 10000 2.98 209 13:26 29.01.2023
43 Clouds 4 998 91 10000 3.01 209 12:40 29.01.2023
44 Clouds 4 1000 90 10000 2.67 210 12:21 29.01.2023
45 Clouds 4 1000 90 10000 2.67 210 11:45 29.01.2023
46 Clouds 3 1001 91 10000 2.06 213 11:25 29.01.2023
47 Clouds 3 1004 97 10000 0.86 193 08:56 29.01.2023
48 Clouds 2 1006 97 10000 0.28 183 07:19 29.01.2023
49 Clouds 0 1012 96 8249 0.1 265 00:59 29.01.2023
50 Clouds 0 1013 79 10000 2.22 304 21:57 28.01.2023
51 Clouds 0 1013 73 10000 2.83 301 20:38 28.01.2023
52 Clouds 1 1014 76 10000 2.42 290 19:52 28.01.2023
53 Clouds 2 1014 91 10000 1.45 297 18:27 28.01.2023
54 Clouds 2 1015 94 10000 1.26 301 16:59 28.01.2023
55 Clouds 4 1015 94 10000 1.07 295 16:20 28.01.2023
56 Clouds 4 1015 94 10000 1.08 295 16:20 28.01.2023
57 Clouds 5 1015 94 10000 1.07 295 15:49 28.01.2023
58 Clouds 4 1015 88 10000 1.04 278 14:26 28.01.2023
59 Clouds 2 1015 84 10000 0.88 238 12:50 28.01.2023
60 Clouds 0 1016 84 10000 0.81 256 11:54 28.01.2023
61 Clouds 0 1016 84 10000 0.81 256 11:54 28.01.2023
62 Clouds -3 1017 89 10000 1.3 301 10:34 28.01.2023
63 Clouds -5 1017 95 10000 1.59 305 07:21 28.01.2023
64 Clouds -3 1018 97 9495 0.99 288 01:40 28.01.2023
65 Clouds -5 1020 96 10000 0.91 290 00:25 28.01.2023
66 Clouds -5 1023 96 10000 0.63 318 20:59 27.01.2023
67 Clouds -5 1024 97 10000 1.12 327 18:45 27.01.2023
68 Clouds -4 1025 97 10000 1.16 342 17:57 27.01.2023
69 Clouds -3 1026 97 10000 1.4 335 17:19 27.01.2023
70 Clouds -2 1026 96 10000 1.14 334 16:35 27.01.2023
71 Clouds -1 1027 94 10000 0.59 304 14:57 27.01.2023
72 Clouds -1 1028 88 10000 0.48 233 14:25 27.01.2023
73 Clouds -2 1028 85 10000 0.63 204 12:57 27.01.2023
74 Clouds -6 1030 93 10000 0.66 331 08:47 27.01.2023
75 Clouds -6 1031 93 10000 0.99 318 06:20 27.01.2023
76 Clear -4 1032 93 10000 1.68 317 22:59 26.01.2023
77 Clear -3 1032 92 10000 1.79 321 21:42 26.01.2023
78 Clear -3 1032 93 10000 1.71 324 20:39 26.01.2023
79 Clear -2 1032 92 10000 1.89 328 19:54 26.01.2023
80 Clear 0 1030 94 10000 1.88 325 17:55 26.01.2023
81 Clear 1 1029 94 10000 1.8 338 16:29 26.01.2023
82 Clear 2 1029 94 10000 1.8 338 15:58 26.01.2023
83 Clear 3 1028 92 10000 1.54 339 15:32 26.01.2023
84 Clear 2 1028 92 10000 1.54 339 14:59 26.01.2023
85 Clear 3 1027 83 10000 1.56 355 13:32 26.01.2023
86 Clear 3 1027 79 10000 1.83 20 12:24 26.01.2023
87 Clear 1 1026 83 10000 1.75 359 10:33 26.01.2023
88 Clear 0 1026 87 10000 1.87 347 09:44 26.01.2023
89 Clear 0 1025 90 10000 1.95 344 08:40 26.01.2023
90 Clouds 0 1021 91 10000 2 346 06:27 26.01.2023
91 Clouds 2 1016 99 6651 2.23 8 23:41 25.01.2023
92 Clouds 3 1015 99 4336 2.13 17 22:43 25.01.2023
93 Clouds 4 1013 100 50 0.98 300 21:25 25.01.2023
94 Clouds 4 1013 100 50 0.98 300 20:59 25.01.2023
95 Clouds 5 1013 100 33 0.81 272 18:24 25.01.2023
96 Clouds 5 1013 100 53 1.15 225 15:58 25.01.2023
97 Clouds 5 1014 100 2902 2.14 208 14:30 25.01.2023
98 Clouds 5 1014 100 78 3.24 200 12:29 25.01.2023
99 Clouds 5 1016 100 37 2.13 192 09:53 25.01.2023
100 Clouds 5 1017 100 39 2.21 192 09:20 25.01.2023
101 Clouds 4 1019 100 43 1.67 187 06:26 25.01.2023
102 Clouds 3 1024 100 108 0.85 205 00:30 25.01.2023
103 Clouds 3 1025 99 586 0.88 208 21:55 24.01.2023
104 Clouds 3 1025 99 10000 0.87 206 21:27 24.01.2023
105 Clouds 3 1026 99 10000 0.6 212 19:37 24.01.2023
106 Clouds 3 1026 99 10000 0.51 193 18:30 24.01.2023
107 Clouds 3 1027 99 10000 0.65 196 17:18 24.01.2023
108 Clouds 3 1027 99 10000 0.65 196 16:52 24.01.2023
109 Clouds 3 1028 99 10000 0.72 207 14:27 24.01.2023
110 Clouds 2 1029 94 10000 0.39 138 12:24 24.01.2023
111 Snow 1 1029 94 10000 0.62 154 10:30 24.01.2023
112 Clouds 1 1030 94 10000 1.1 247 08:20 24.01.2023
113 Clouds 1 1030 94 10000 1.1 247 07:50 24.01.2023
114 Clouds 1 1031 96 10000 1.03 270 02:57 24.01.2023
115 Clouds 1 1031 94 10000 0.7 261 00:41 24.01.2023
116 Clouds 1 1031 97 7270 0.81 269 23:34 23.01.2023
117 Clouds 0 1032 96 7359 0.62 259 21:50 23.01.2023
118 Clouds -1 1033 96 10000 0.75 244 19:30 23.01.2023
119 Snow -1 1033 93 10000 0.79 233 17:41 23.01.2023
120 Clouds -2 1034 93 10000 0.64 270 15:33 23.01.2023
121 Clouds -2 1034 89 10000 0.68 231 13:58 23.01.2023
122 Clouds -2 1035 89 10000 0.66 214 13:21 23.01.2023
123 Clouds -2 1035 89 10000 0.67 214 12:44 23.01.2023
124 Clouds -2 1035 89 10000 0.44 197 11:42 23.01.2023
125 Clouds -3 1036 94 10000 0.68 307 08:25 23.01.2023
126 Clouds -7 1036 98 4599 1.08 305 02:43 23.01.2023
127 Clouds -8 1037 99 1553 1.21 286 23:22 22.01.2023
128 Clouds -9 1037 97 3727 1.5 249 21:19 22.01.2023
129 Clouds -9 1037 97 3682 1.49 250 20:48 22.01.2023
130 Clouds -9 1037 99 4023 1.22 187 19:47 22.01.2023
131 Clouds -9 1037 98 8918 0.93 194 19:18 22.01.2023
132 Clouds -9 1037 96 10000 1.06 234 17:57 22.01.2023
133 Clouds -9 1037 93 9191 1.72 226 17:26 22.01.2023
134 Clouds -9 1037 94 9036 1.49 228 16:21 22.01.2023
135 Clouds -13 1037 94 8033 1.13 218 14:55 22.01.2023
136 Clouds -14 1038 94 7181 0.94 216 13:48 22.01.2023
137 Clouds -15 1038 93 5736 0.77 224 12:48 22.01.2023
138 Clouds -14 1039 94 2523 0.48 251 11:36 22.01.2023
139 Clouds -13 1039 95 1910 0.58 290 09:36 22.01.2023
140 Clouds -12 1039 98 2048 1.3 356 08:34 22.01.2023
141 Clouds -10 1039 99 5650 1.29 6 02:50 22.01.2023
142 Clouds -13 1040 98 10000 1.2 7 23:36 21.01.2023
143 Clouds -13 1039 98 8677 1.45 4 22:35 21.01.2023
144 Clouds -12 1039 98 6733 1.3 355 20:21 21.01.2023
145 Clouds -11 1039 98 6599 1.38 350 17:59 21.01.2023
146 Clouds -10 1037 96 10000 0.47 30 14:42 21.01.2023
147 Clouds -10 1037 89 10000 0.33 3 12:58 21.01.2023
148 Clouds -10 1037 89 10000 0.33 3 12:36 21.01.2023
149 Clouds -10 1038 90 10000 0.56 355 11:27 21.01.2023
150 Clouds -10 1038 95 10000 1.27 3 09:56 21.01.2023
151 Clouds -12 1034 96 10000 1.46 342 04:41 21.01.2023
152 Clouds -11 1029 95 10000 1.54 343 22:31 20.01.2023
153 Clouds -11 1029 95 10000 1.54 343 22:31 20.01.2023
154 Clouds -10 1029 95 10000 1.54 343 21:58 20.01.2023
155 Clouds -8 1028 95 10000 1.47 347 21:33 20.01.2023
156 Clouds -8 1028 95 10000 1.47 347 20:39 20.01.2023
157 Clouds -8 1024 95 10000 1.55 345 17:54 20.01.2023
158 Clear -3 1020 95 10000 1.14 329 14:47 20.01.2023
159 Clear -2 1019 92 10000 1.08 331 13:51 20.01.2023
160 Clouds -4 1017 91 10000 1.46 339 10:48 20.01.2023
161 Clouds -4 1016 95 10000 1.8 337 08:58 20.01.2023
162 Clouds -4 1013 95 10000 1.86 340 06:40 20.01.2023
163 Clouds -2 1008 95 10000 1.89 343 02:32 20.01.2023
164 Clouds -2 1006 96 10000 1.67 335 22:37 19.01.2023
165 Clouds -1 1005 97 9040 1.63 336 21:39 19.01.2023
166 Snow -1 1004 97 1180 1.53 333 19:38 19.01.2023
167 Snow -1 1003 98 416 1.41 333 18:55 19.01.2023
168 Snow 0 999 98 157 0.78 334 14:26 19.01.2023
169 Clouds 0 997 98 1089 0.64 346 10:26 19.01.2023
170 Clouds 0 997 98 1199 0.65 352 08:58 19.01.2023
171 Clouds 1 994 97 814 0.56 317 22:41 18.01.2023
172 Clouds 1 992 98 10000 1.07 317 20:22 18.01.2023
173 Clouds 1 992 98 10000 1.07 317 19:46 18.01.2023
174 Clouds 1 991 99 8794 1.12 320 19:28 18.01.2023
175 Clouds 1 990 98 5279 0.81 289 16:46 18.01.2023
176 Clouds 1 987 96 1537 0.97 328 14:21 18.01.2023
177 Snow 2 987 95 984 1.19 328 12:43 18.01.2023
178 Snow 1 985 98 172 1.77 337 10:28 18.01.2023
179 Snow 1 983 98 180 1.95 347 06:47 18.01.2023
180 Snow 1 981 97 151 2.61 28 01:25 18.01.2023
181 Snow 1 982 96 353 3.81 41 22:21 17.01.2023
182 Snow 1 982 97 190 4.3 47 19:44 17.01.2023
183 Snow 1 982 97 171 4.32 43 18:53 17.01.2023
184 Clouds 2 982 97 133 3.92 46 17:41 17.01.2023
185 Rain 2 983 92 9028 3.68 73 15:28 17.01.2023
186 Rain 2 983 92 8993 3.68 74 14:50 17.01.2023
187 Rain 2 983 89 9199 4.02 87 13:33 17.01.2023
188 Rain 2 984 88 10000 4.18 94 11:49 17.01.2023
189 Rain 2 984 92 3897 4.19 100 10:34 17.01.2023
190 Rain 2 983 98 70 4.64 113 09:26 17.01.2023
191 Snow 1 983 98 66 5.13 112 07:34 17.01.2023
192 Snow 1 983 98 69 4.84 98 03:49 17.01.2023
193 Snow 0 986 96 3356 3.25 100 00:49 17.01.2023
194 Snow -1 987 92 6234 2.33 105 22:39 16.01.2023
195 Snow -2 987 93 6809 2.13 120 21:44 16.01.2023
196 Snow -2 986 95 2275 0.9 84 19:56 16.01.2023
197 Clouds -3 987 95 8533 0.98 40 19:25 16.01.2023
198 Clouds -3 987 95 8533 0.98 40 18:48 16.01.2023
199 Clouds -3 986 93 10000 0.9 33 18:19 16.01.2023
200 Clouds -4 986 91 10000 0.65 33 17:20 16.01.2023
201 Clouds -1 985 83 10000 0.22 262 14:27 16.01.2023
202 Clouds 0 985 83 10000 0.22 263 13:36 16.01.2023
203 Clouds -3 983 90 10000 0.51 277 10:26 16.01.2023
204 Clouds -3 984 94 10000 0.89 271 08:44 16.01.2023
205 Clouds -1 976 97 10000 1.4 306 22:57 15.01.2023
206 Snow 1 974 98 3535 1.19 340 21:25 15.01.2023
207 Snow 1 974 97 1041 1.71 334 20:31 15.01.2023
208 Snow 1 974 97 1041 1.71 334 19:34 15.01.2023
209 Snow 1 973 98 382 1.35 9 17:38 15.01.2023
210 Snow 1 973 97 1273 1.21 5 14:59 15.01.2023
211 Clouds 1 975 97 10000 0.47 294 12:29 15.01.2023
212 Clouds 1 975 98 10000 0.78 258 11:29 15.01.2023
213 Clouds 1 975 98 10000 0.78 258 11:29 15.01.2023
214 Snow 1 975 99 10000 1.32 225 10:27 15.01.2023
215 Clouds 1 975 98 10000 1.74 224 08:54 15.01.2023
216 Snow 1 984 98 37 4.37 77 00:35 15.01.2023
217 Snow 1 986 98 42 3.65 87 22:44 14.01.2023
218 Snow 1 988 98 44 3.48 87 21:54 14.01.2023
219 Snow 1 990 98 90 2.85 66 21:36 14.01.2023
220 Snow 1 990 98 90 2.85 66 21:36 14.01.2023
221 Snow 1 990 98 90 2.85 66 21:18 14.01.2023
222 Snow 1 990 98 90 2.85 66 21:18 14.01.2023
223 Clouds 1 992 98 1168 1.91 49 20:28 14.01.2023
224 Clouds 1 994 98 9359 1.06 63 18:19 14.01.2023
225 Clouds 1 996 99 10000 0.6 48 15:43 14.01.2023
226 Clouds 2 997 99 10000 0.33 49 15:24 14.01.2023
227 Clouds 2 998 97 5285 0.28 337 14:22 14.01.2023
228 Clouds 2 998 95 6262 0.62 314 13:25 14.01.2023
229 Snow 2 998 95 2494 1.79 336 10:50 14.01.2023
230 Snow 2 998 97 238 1.97 315 09:43 14.01.2023
231 Rain 2 994 97 191 2.8 326 02:39 14.01.2023
232 Rain 2 992 99 37 1.9 329 23:20 13.01.2023
233 Clouds 2 992 99 36 1.9 330 22:41 13.01.2023
234 Clouds 2 991 98 37 1.82 336 21:58 13.01.2023
235 Rain 3 991 99 50 1.6 343 20:49 13.01.2023
236 Clouds 3 990 98 38 1.7 347 19:28 13.01.2023
237 Clouds 3 989 99 75 1.45 348 17:42 13.01.2023
238 Rain 3 989 99 159 1.08 352 16:22 13.01.2023
239 Clouds 3 988 97 2915 1.12 298 12:33 13.01.2023
240 Clouds 4 988 98 4546 1.13 273 11:57 13.01.2023
241 Clouds 3 987 98 905 0.67 144 10:23 13.01.2023
242 Rain 3 987 98 972 0.7 143 09:44 13.01.2023
243 Clouds 3 987 98 3229 0.75 139 08:52 13.01.2023
244 Clouds 3 987 97 3134 1.16 125 07:43 13.01.2023
245 Rain 3 987 99 44 1.86 76 06:49 13.01.2023
246 Rain 2 990 99 266 0.94 34 03:21 13.01.2023
247 Clouds 2 991 98 5024 0.73 339 22:57 12.01.2023
248 Clouds 3 991 99 567 0.55 310 22:31 12.01.2023
249 Clouds 2 991 99 687 0.24 255 20:55 12.01.2023
250 Clouds 3 991 98 10000 0.68 240 18:52 12.01.2023
251 Rain 3 991 97 10000 1.28 216 17:33 12.01.2023
252 Clouds 4 990 95 10000 1.79 199 15:53 12.01.2023
253 Clouds 4 990 94 10000 1.67 196 14:44 12.01.2023
254 Clouds 4 991 92 10000 2.05 203 14:21 12.01.2023
255 Clouds 4 990 94 10000 2.15 193 12:44 12.01.2023
256 Clouds 4 991 95 10000 2.83 180 10:30 12.01.2023
257 Clouds 4 990 90 10000 3.3 187 07:44 12.01.2023
258 Clouds 4 992 88 10000 5.57 196 01:49 12.01.2023
259 Clouds 4 992 82 10000 5.43 196 23:59 11.01.2023
260 Clouds 5 992 82 10000 5.44 196 23:39 11.01.2023
261 Clouds 5 993 79 10000 5.84 196 23:20 11.01.2023
262 Clouds 5 993 81 10000 5.69 200 21:41 11.01.2023
263 Clouds 5 992 90 10000 5.75 200 19:40 11.01.2023
264 Clouds 5 992 83 10000 5.5 197 18:26 11.01.2023
265 Clouds 5 992 85 10000 5.42 198 16:42 11.01.2023
266 Clear 6 992 84 10000 5.13 207 14:44 11.01.2023
267 Clouds 5 991 90 10000 3.65 210 12:38 11.01.2023
268 Clouds 5 990 94 9170 3.17 211 11:54 11.01.2023
269 Clouds 4 989 95 10000 3.54 204 09:49 11.01.2023
270 Rain 2 987 98 198 3.65 159 07:37 11.01.2023
271 Snow 2 988 97 388 5.12 151 07:19 11.01.2023
272 Rain 3 1001 97 471 4.59 174 23:55 10.01.2023
273 Clouds 2 1002 98 444 2.72 170 22:45 10.01.2023
274 Clouds 2 1003 98 1544 1.91 179 21:30 10.01.2023
275 Clouds 2 1004 97 10000 1.57 182 19:57 10.01.2023
276 Clouds 2 1004 96 10000 1.74 187 19:34 10.01.2023
277 Clouds 2 1004 98 6097 1.44 195 18:47 10.01.2023
278 Clouds 2 1004 98 7753 1.49 188 17:54 10.01.2023
279 Clouds 1 1005 99 10000 1.1 176 15:55 10.01.2023
280 Clouds 1 1004 98 10000 1.15 176 15:24 10.01.2023
281 Clouds 1 1004 95 10000 1.48 183 14:25 10.01.2023
282 Clouds 2 1004 88 10000 1.78 207 11:57 10.01.2023
283 Clouds 2 1003 94 10000 0.79 205 08:58 10.01.2023
284 Clouds 2 1002 92 10000 1.28 233 08:28 10.01.2023
285 Clouds 2 1002 96 10000 1.14 235 07:26 10.01.2023
286 Clouds 2 1001 99 279 0.64 299 04:52 10.01.2023
287 Clouds 2 998 99 216 0.93 57 22:55 09.01.2023
288 Rain 3 997 99 281 1.25 70 21:47 09.01.2023
289 Rain 3 997 99 1527 1.64 83 20:43 09.01.2023
290 Rain 3 996 98 1435 2.2 76 18:44 09.01.2023
291 Clouds 3 996 98 4653 2.56 80 17:53 09.01.2023
292 Clouds 3 996 98 6004 2.45 85 16:59 09.01.2023
293 Clouds 3 996 97 8552 2.39 94 16:32 09.01.2023
294 Clouds 3 996 96 9320 2.37 103 15:23 09.01.2023
295 Clouds 3 996 96 9320 2.37 103 14:43 09.01.2023
296 Clouds 3 995 96 8609 2.43 109 12:55 09.01.2023
297 Clouds 3 996 96 8700 2.44 117 12:25 09.01.2023
298 Rain 3 996 95 10000 2.57 115 11:20 09.01.2023
299 Clouds 3 995 96 8521 2.69 116 08:42 09.01.2023
300 Rain 3 995 99 3152 1.56 85 06:34 09.01.2023
301 Rain 3 996 99 103 1.45 117 02:53 09.01.2023
302 Clouds 4 996 99 122 1.64 134 22:43 08.01.2023
303 Clouds 4 996 99 147 1.59 131 21:23 08.01.2023
304 Rain 4 996 99 147 1.59 131 20:57 08.01.2023
305 Rain 4 996 99 172 1.5 136 19:43 08.01.2023
306 Clouds 5 996 99 151 1.8 139 17:40 08.01.2023
307 Rain 5 996 99 148 1.96 144 17:18 08.01.2023
308 Rain 5 996 99 486 1.96 162 15:38 08.01.2023
309 Rain 5 996 98 10000 2.78 179 14:18 08.01.2023
310 Clouds 5 996 96 5800 4.12 182 13:32 08.01.2023
311 Clouds 5 996 96 5801 4.12 182 12:59 08.01.2023
312 Clouds 5 996 98 193 4.24 179 11:37 08.01.2023
313 Rain 5 995 98 199 4.44 170 09:37 08.01.2023
314 Rain 4 995 98 275 4.08 168 08:31 08.01.2023
315 Rain 3 999 99 95 3.14 157 02:43 08.01.2023
316 Snow 2 1002 100 94 1.67 150 22:55 07.01.2023
317 Snow 2 1002 100 94 1.68 150 22:34 07.01.2023
318 Snow 1 1003 99 108 1.45 141 21:51 07.01.2023
319 Clouds 1 1003 99 117 1.16 127 20:59 07.01.2023
320 Snow 1 1004 99 111 1.06 97 20:25 07.01.2023
321 Snow 0 1004 100 172 1.03 78 19:23 07.01.2023
322 Clouds 0 1005 99 3262 0.98 64 18:18 07.01.2023
323 Snow 0 1005 99 3262 0.98 64 17:40 07.01.2023
324 Snow 0 1006 98 2162 1.21 57 16:41 07.01.2023
325 Snow 0 1007 98 1057 1.13 31 16:20 07.01.2023
326 Snow -1 1007 98 1057 1.13 31 15:38 07.01.2023
327 Snow -1 1007 98 579 1.02 37 15:18 07.01.2023
328 Snow -1 1008 97 1050 1.05 34 13:58 07.01.2023
329 Snow -1 1008 97 705 1.18 20 13:40 07.01.2023
330 Clouds -2 1009 96 8729 1.05 12 12:44 07.01.2023
331 Clouds -2 1009 96 8319 0.81 22 12:20 07.01.2023
332 Clouds -2 1010 98 9610 0.51 337 10:28 07.01.2023
333 Clouds -2 1009 99 9933 0.6 322 08:52 07.01.2023
334 Clouds -2 1009 99 9520 0.26 291 07:58 07.01.2023
335 Clouds -2 1010 98 7817 1.02 329 07:40 07.01.2023
336 Clouds -2 1009 97 9002 0.76 320 05:21 07.01.2023
337 Clouds -3 1009 97 268 1.65 40 22:57 06.01.2023
338 Snow -3 1009 97 124 1.63 47 22:20 06.01.2023
339 Snow -3 1009 97 124 1.63 47 21:44 06.01.2023
340 Snow -3 1009 97 124 1.63 47 21:44 06.01.2023
341 Snow -3 1009 97 120 2.13 72 20:33 06.01.2023
342 Snow -3 1009 95 198 2.9 84 19:54 06.01.2023
343 Snow -3 1009 95 198 2.9 84 19:36 06.01.2023
344 Snow -4 1009 96 178 3.15 86 19:18 06.01.2023
345 Snow -4 1010 96 137 2.68 76 17:44 06.01.2023
346 Snow -4 1010 96 134 2.7 89 16:52 06.01.2023
347 Snow -4 1010 95 150 3.24 93 16:21 06.01.2023
348 Snow -4 1010 95 150 3.24 93 15:51 06.01.2023
349 Snow -4 1011 96 143 3.49 98 15:27 06.01.2023
350 Snow -3 1011 96 107 3.3 104 13:31 06.01.2023
351 Snow -4 1012 95 133 4.67 105 11:19 06.01.2023
352 Snow -4 1013 95 139 4.91 103 09:56 06.01.2023
353 Snow -4 1015 95 120 4.08 97 08:30 06.01.2023
354 Snow -5 1019 96 108 2.29 79 03:44 06.01.2023
355 Snow -5 1022 96 165 1.5 68 22:56 05.01.2023
356 Snow -5 1022 96 133 1.51 68 21:56 05.01.2023
357 Clouds -4 1022 96 142 1.71 76 20:20 05.01.2023
358 Snow -4 1021 97 432 1.34 30 17:29 05.01.2023
359 Snow -4 1020 97 235 1.29 24 16:30 05.01.2023
360 Snow -4 1020 97 236 1.29 24 15:48 05.01.2023
361 Snow -4 1020 95 412 1.72 37 14:53 05.01.2023
362 Snow -4 1020 95 412 1.72 37 14:53 05.01.2023
363 Snow -3 1018 93 419 2.51 31 13:19 05.01.2023
364 Snow -3 1018 93 419 2.51 31 12:33 05.01.2023
365 Snow -4 1016 93 280 3.48 25 09:55 05.01.2023
366 Snow -4 1015 94 219 3.66 18 09:32 05.01.2023
367 Snow -4 1012 93 232 4.53 17 07:21 05.01.2023
368 Snow -4 1012 93 232 4.53 17 06:36 05.01.2023
369 Snow -3 1005 94 186 5.39 28 00:25 05.01.2023
370 Snow -3 1004 94 166 5.45 31 21:33 04.01.2023
371 Snow -3 1004 94 156 5.46 34 20:58 04.01.2023
372 Snow -3 1003 94 152 5.36 36 19:57 04.01.2023
373 Snow -4 1004 94 136 5.32 36 19:34 04.01.2023
374 Snow -4 1004 94 137 5.32 35 18:59 04.01.2023
375 Snow -4 1005 94 148 5.8 43 16:32 04.01.2023
376 Snow -4 1005 95 134 5.61 44 15:56 04.01.2023
377 Snow -5 1006 95 135 5.29 45 14:47 04.01.2023
378 Snow -5 1009 94 123 4.49 42 11:45 04.01.2023
379 Snow -5 1010 94 130 3.71 39 11:22 04.01.2023
380 Snow -5 1010 94 129 3.72 39 10:43 04.01.2023
381 Snow -5 1012 94 121 3.32 30 10:23 04.01.2023
382 Snow -6 1013 94 119 3.05 27 08:55 04.01.2023
383 Snow -8 1016 93 132 2.59 33 05:36 04.01.2023
384 Clouds -10 1022 79 10000 1.66 27 00:32 04.01.2023
385 Clouds -11 1022 76 10000 1.51 23 23:35 03.01.2023
386 Clouds -11 1022 77 10000 1.63 16 22:55 03.01.2023
387 Clouds -13 1023 80 10000 1.22 7 20:58 03.01.2023
388 Clouds -13 1023 81 10000 1.24 8 19:50 03.01.2023
389 Clear -13 1022 81 10000 1.16 10 17:38 03.01.2023
390 Clear -13 1022 82 10000 1.18 6 16:39 03.01.2023
391 Clear -9 1021 72 10000 0.66 329 13:56 03.01.2023
392 Clear -9 1020 65 10000 0.57 323 13:31 03.01.2023
393 Clear -10 1020 65 10000 0.57 323 12:58 03.01.2023
394 Clear -10 1020 65 10000 0.57 323 12:30 03.01.2023
395 Clear -12 1020 64 10000 0.65 314 11:32 03.01.2023
396 Clear -13 1018 76 10000 1.21 319 07:50 03.01.2023
397 Clouds -11 1016 76 10000 1.48 327 04:22 03.01.2023
398 Clouds -11 1016 76 10000 1.48 327 03:44 03.01.2023
399 Clouds -10 1015 76 10000 1.65 329 02:50 03.01.2023
400 Clouds -8 1013 82 10000 1.57 332 22:43 02.01.2023
401 Clouds -8 1013 81 10000 1.71 335 22:23 02.01.2023
402 Clouds -7 1012 84 10000 1.64 332 20:40 02.01.2023
403 Clouds -6 1012 82 10000 1.75 333 19:53 02.01.2023
404 Clouds -6 1011 85 10000 1.64 348 17:53 02.01.2023
405 Clouds -5 1011 86 10000 1.74 358 15:24 02.01.2023
406 Clouds -4 1011 80 10000 2 3 13:31 02.01.2023
407 Clouds -4 1011 80 10000 1.78 7 11:59 02.01.2023
408 Clouds -5 1011 82 10000 1.95 3 10:52 02.01.2023
409 Clouds -5 1011 84 10000 1.77 353 07:34 02.01.2023
410 Snow -5 1012 72 10000 1.77 16 00:58 02.01.2023
411 Clouds -5 1012 71 10000 1.66 18 22:38 01.01.2023
412 Clouds -7 1012 77 10000 1.61 13 21:33 01.01.2023
413 Clouds -7 1012 77 10000 1.61 13 20:47 01.01.2023
414 Clouds -7 1011 78 10000 1.91 7 19:45 01.01.2023
415 Clouds -7 1011 80 10000 1.83 8 18:24 01.01.2023
416 Clouds -7 1010 79 10000 1.8 2 17:21 01.01.2023
417 Clouds -6 1010 79 10000 1.8 2 16:33 01.01.2023
418 Clouds -5 1009 79 10000 1.98 15 14:59 01.01.2023
419 Clouds -4 1008 77 10000 1.94 16 13:40 01.01.2023
420 Clouds -3 1008 73 10000 1.99 3 12:40 01.01.2023
421 Clouds -3 1008 71 10000 1.96 3 11:37 01.01.2023
422 Clouds -5 1007 73 10000 1.94 4 10:36 01.01.2023
423 Clear -6 1005 80 10000 1.95 354 08:54 01.01.2023
424 Clear -4 1004 80 10000 2.11 12 08:21 01.01.2023
425 Clouds -5 1003 78 10000 2.01 359 07:21 01.01.2023
426 Clouds -2 1000 86 10000 1.43 314 03:21 01.01.2023
427 Clouds 0 998 86 10000 1.02 308 23:43 31.12.2022
428 Clouds 0 997 88 10000 1.06 329 22:33 31.12.2022
429 Clouds 1 996 87 10000 1.17 341 21:37 31.12.2022
430 Clouds -1 996 90 10000 0.68 309 21:18 31.12.2022
431 Clouds 1 995 91 10000 0.38 260 19:41 31.12.2022
432 Clouds 2 995 89 10000 0.14 301 18:44 31.12.2022
433 Clouds 4 994 84 10000 0.49 180 18:19 31.12.2022
434 Clouds 4 994 84 10000 0.48 182 17:47 31.12.2022
435 Clouds 4 992 74 10000 1.11 231 16:50 31.12.2022
436 Clouds 5 990 52 10000 5.34 280 16:24 31.12.2022
437 Clouds 6 987 51 10000 8.12 266 14:40 31.12.2022
438 Clouds 6 987 51 10000 7.85 249 13:38 31.12.2022
439 Clouds 6 984 61 10000 8.52 233 12:40 31.12.2022
440 Clouds 6 984 61 10000 8.52 233 12:19 31.12.2022
441 Clouds 6 984 61 10000 8.52 233 11:50 31.12.2022
442 Clouds 5 983 68 10000 8.92 218 10:36 31.12.2022
443 Clouds 5 983 69 10000 8.38 208 09:54 31.12.2022
444 Clouds 5 983 69 10000 8.38 208 09:35 31.12.2022
445 Clear 5 984 70 10000 7.43 213 07:49 31.12.2022
446 Rain 3 983 97 119 5.68 162 00:37 31.12.2022
447 Rain 4 985 97 79 6.11 164 23:47 30.12.2022
448 Rain 4 986 97 76 6.33 169 22:49 30.12.2022
449 Rain 4 988 97 88 6.47 170 21:45 30.12.2022
450 Rain 4 989 95 6535 6.03 163 21:26 30.12.2022
451 Clouds 4 992 95 8914 6.43 179 18:59 30.12.2022
452 Clouds 3 993 96 8860 6.6 174 17:51 30.12.2022
453 Clouds 3 994 97 3025 5.01 168 17:32 30.12.2022
454 Clouds 2 996 92 10000 2.94 174 15:57 30.12.2022
455 Clouds 2 996 92 10000 3.14 190 14:38 30.12.2022
456 Clouds 2 994 99 9362 1.08 251 10:25 30.12.2022
457 Clouds 2 991 99 8883 1.09 209 08:21 30.12.2022
458 Clouds 3 988 95 10000 3.16 191 03:39 30.12.2022
459 Clouds 4 987 92 10000 3.62 191 01:53 30.12.2022
460 Clouds 4 985 89 10000 5.31 202 22:54 29.12.2022
461 Clouds 5 984 95 10000 4.9 198 21:31 29.12.2022
462 Clouds 5 984 95 10000 4.9 198 20:54 29.12.2022
463 Clouds 5 984 95 9667 4.58 198 20:25 29.12.2022
464 Clouds 4 985 99 818 1.89 190 18:30 29.12.2022
465 Clouds 4 985 99 937 1.87 189 17:32 29.12.2022
466 Clouds 3 984 99 471 1.83 208 16:55 29.12.2022
467 Snow 2 984 99 686 1.02 217 16:21 29.12.2022
468 Snow 2 984 98 1110 0.33 10 15:29 29.12.2022
469 Snow 2 985 98 3113 0.67 308 13:33 29.12.2022
470 Snow 0 986 98 269 1.59 5 11:29 29.12.2022
471 Snow -1 988 98 87 1.99 39 07:45 29.12.2022
472 Snow -5 1001 94 130 2.28 20 00:18 29.12.2022
473 Snow -5 1002 93 157 2.12 17 23:27 28.12.2022
474 Snow -5 1003 92 518 2.5 19 21:21 28.12.2022
475 Clouds -5 1003 85 875 2.04 13 20:25 28.12.2022
476 Clouds -4 1004 80 10000 1.9 14 19:23 28.12.2022
477 Snow -4 1004 80 10000 2.15 17 16:56 28.12.2022
478 Snow -4 1005 77 10000 2.24 9 14:42 28.12.2022
479 Clouds -4 1005 68 10000 2.45 12 12:55 28.12.2022
480 Clouds -5 1006 66 10000 2.31 19 11:53 28.12.2022
481 Clouds -6 1006 69 10000 2.41 27 10:43 28.12.2022
482 Clouds -7 1007 73 10000 2.36 30 08:43 28.12.2022
483 Clouds -8 1007 73 10000 1.8 27 06:50 28.12.2022
484 Clouds -10 1009 75 10000 1.86 9 03:46 28.12.2022
485 Clouds -5 1009 76 10000 1.35 308 23:35 27.12.2022
486 Clear -3 1006 65 10000 2.18 235 19:58 27.12.2022
487 Clear -3 1006 63 10000 2.44 244 19:27 27.12.2022
488 Clear 0 1005 59 10000 3.71 252 17:26 27.12.2022
489 Clear 0 1005 59 10000 3.71 252 16:39 27.12.2022
490 Clear 0 1004 58 10000 3.74 264 15:28 27.12.2022
491 Clouds 2 1002 59 10000 3.92 268 12:34 27.12.2022
492 Clouds 1 1001 64 10000 3.57 270 11:28 27.12.2022
493 Clouds 1 1000 69 10000 3.35 268 09:46 27.12.2022
494 Clouds 1 999 72 10000 2.64 254 09:23 27.12.2022
495 Clouds 1 997 79 10000 2.46 242 06:49 27.12.2022
496 Clouds 0 996 95 10000 1.58 218 04:29 27.12.2022
497 Snow 1 995 95 10000 1.31 262 22:21 26.12.2022
498 Snow 1 994 96 1224 1.8 284 20:51 26.12.2022
499 Snow 1 994 99 75 0.06 342 20:29 26.12.2022
500 Clouds 3 994 99 82 1.56 116 18:43 26.12.2022
501 Rain 3 996 99 101 2.66 135 17:32 26.12.2022
502 Clouds 3 996 99 74 3.66 155 15:46 26.12.2022
503 Rain 3 998 99 130 3.37 172 13:20 26.12.2022
504 Rain 3 999 99 126 2.78 163 11:46 26.12.2022
505 Clouds 2 1002 99 121 2.5 148 07:28 26.12.2022
506 Snow -1 1006 99 834 0.52 68 23:48 25.12.2022
507 Snow -2 1007 98 441 0.56 353 23:22 25.12.2022
508 Snow -2 1007 98 260 0.85 347 22:26 25.12.2022
509 Snow -2 1007 98 260 0.85 347 21:35 25.12.2022
510 Snow -4 1009 97 1643 1.41 8 18:32 25.12.2022
511 Snow -4 1009 97 102 1.62 15 17:51 25.12.2022
512 Snow -4 1010 97 124 1.87 21 17:33 25.12.2022
513 Snow -5 1011 96 99 1.82 40 14:47 25.12.2022
514 Snow -8 1013 94 147 1.43 46 11:49 25.12.2022
515 Clouds -11 1016 93 1417 1.39 35 06:21 25.12.2022
516 Clouds -11 1016 91 10000 1.51 12 23:25 24.12.2022
517 Clouds -11 1016 89 10000 1.35 16 21:18 24.12.2022
518 Clouds -12 1015 91 10000 1.25 14 17:59 24.12.2022
519 Clouds -11 1015 91 10000 1.3 15 16:32 24.12.2022
520 Clouds -11 1014 93 10000 1.24 13 14:48 24.12.2022
521 Clouds -11 1013 85 10000 1.13 25 12:42 24.12.2022
522 Clouds -13 1013 88 10000 1.04 17 10:39 24.12.2022
523 Clouds -12 1012 93 10000 1.41 6 10:20 24.12.2022
524 Clouds -11 1012 93 10000 1.41 6 09:36 24.12.2022
525 Clouds -15 1011 95 10000 1.38 354 05:46 24.12.2022
526 Clouds -15 1011 95 10000 1.38 355 05:46 24.12.2022
527 Clouds -13 1009 95 10000 1.3 356 00:52 24.12.2022
528 Clouds -13 1008 96 10000 1.23 352 23:35 23.12.2022
529 Clouds -13 1007 96 10000 1.13 342 21:58 23.12.2022
530 Clouds -11 1007 96 10000 1.28 341 20:31 23.12.2022
531 Clouds -10 1006 96 10000 1.29 338 19:39 23.12.2022
532 Clouds -11 1006 97 10000 1.3 341 19:21 23.12.2022
533 Clouds -11 1006 96 10000 1.3 343 18:38 23.12.2022
534 Clouds -9 1005 96 10000 1.37 340 18:19 23.12.2022
535 Clear -8 1005 97 10000 1.28 323 16:33 23.12.2022
536 Clear -6 1004 96 10000 1.36 335 14:51 23.12.2022
537 Clouds -5 1004 87 10000 1.16 303 11:42 23.12.2022
538 Clouds -7 1003 94 10000 1.36 326 09:37 23.12.2022
539 Clouds -6 1002 94 10000 1.46 336 07:52 23.12.2022
540 Clouds -5 1001 93 10000 1.62 331 06:51 23.12.2022
541 Clouds -4 1001 92 10000 1.62 329 05:45 23.12.2022
542 Clouds 0 996 81 10000 3.33 345 23:22 22.12.2022
543 Clouds 0 996 81 10000 3.33 345 22:35 22.12.2022
544 Clouds 0 994 92 10000 2.4 331 20:27 22.12.2022
545 Snow -1 993 95 1970 2.57 346 19:24 22.12.2022
546 Snow 0 994 94 10000 2.04 343 18:38 22.12.2022
547 Clouds 0 993 98 290 1.94 353 17:23 22.12.2022
548 Snow 1 993 98 290 1.94 353 16:38 22.12.2022
549 Snow 1 992 98 183 1.61 347 15:33 22.12.2022
550 Snow 2 992 99 245 1.68 19 14:46 22.12.2022
551 Snow 2 993 1 285 1.63 15 13:32 22.12.2022
552 Snow 2 993 1 2188 1.36 360 12:46 22.12.2022
553 Clouds 2 993 1 922 1.06 354 10:35 22.12.2022
554 Clouds 2 993 1 336 0.9 1 09:59 22.12.2022
555 Clouds 2 993 1 3856 0.97 324 09:20 22.12.2022
556 Snow 2 993 1 417 0.76 324 08:22 22.12.2022
557 Clouds 2 994 1 292 0.9 213 05:27 22.12.2022
558 Clouds 2 994 1 396 0.94 197 04:18 22.12.2022
559 Clouds 2 996 1 413 0.96 229 22:57 21.12.2022
560 Clouds 2 996 1 170 0.97 214 21:54 21.12.2022
561 Clouds 2 996 1 245 1.65 228 21:21 21.12.2022
562 Snow 2 996 1 245 1.65 228 20:49 21.12.2022
563 Snow 1 996 1 146 1.32 198 19:59 21.12.2022
564 Snow 2 996 1 146 1.32 198 19:41 21.12.2022
565 Snow 2 996 1 502 0.8 201 19:22 21.12.2022
566 Snow 1 996 1 502 0.8 201 18:44 21.12.2022
567 Snow 1 997 1 10000 0.51 157 17:35 21.12.2022
568 Clouds 1 999 1 10000 1.18 223 14:32 21.12.2022
569 Clouds 1 999 1 10000 0.73 232 12:49 21.12.2022
570 Clouds 1 1000 1 10000 0.96 221 11:42 21.12.2022
571 Clouds 1 1000 1 4415 0.82 237 11:19 21.12.2022
572 Clouds 1 999 1 768 0.93 236 08:53 21.12.2022
573 Clouds 1 999 1 2200 0.64 260 06:59 21.12.2022
574 Clouds 1 998 1 8141 0.96 263 00:48 21.12.2022
575 Clouds 1 998 1 1317 0.89 322 22:41 20.12.2022
576 Clouds 1 998 1 206 1.13 352 21:19 20.12.2022
577 Snow 1 998 1 180 0.98 29 20:19 20.12.2022
578 Snow 1 999 1 868 1.04 16 18:49 20.12.2022
579 Snow 1 999 1 457 0.8 15 18:28 20.12.2022
580 Snow 1 999 1 457 0.8 15 17:51 20.12.2022
581 Snow 1 999 1 265 0.69 33 17:28 20.12.2022
582 Snow 1 999 1 265 0.69 33 17:28 20.12.2022
583 Clouds 1 1000 1 230 0.19 346 16:32 20.12.2022
584 Clouds 1 1000 1 242 0.09 143 15:27 20.12.2022
585 Clouds 1 1000 1 242 0.09 143 14:36 20.12.2022
586 Clouds 1 1000 1 290 0.61 197 13:56 20.12.2022
587 Clouds 1 1001 1 5352 0.82 217 12:40 20.12.2022
588 Clouds 1 1001 1 10000 0.91 215 11:56 20.12.2022
589 Clouds 0 1001 1 10000 1.07 210 10:47 20.12.2022
590 Clouds 0 1001 1 10000 0.69 260 07:41 20.12.2022
591 Snow -1 1006 1 2210 0.66 36 00:27 20.12.2022
592 Snow -1 1007 1 433 0.79 37 22:36 19.12.2022
593 Snow -1 1007 1 433 0.79 37 22:36 19.12.2022
594 Snow -1 1007 1 785 0.61 65 21:39 19.12.2022
595 Snow -2 1009 1 155 0.72 44 19:53 19.12.2022
596 Snow -2 1010 1 284 0.9 56 19:31 19.12.2022
597 Clouds -2 1011 1 148 0.71 57 18:24 19.12.2022
598 Snow -2 1011 1 136 0.86 68 16:31 19.12.2022
599 Snow -2 1014 1 909 0.8 93 13:24 19.12.2022
600 Snow -2 1015 1 773 1.17 87 11:55 19.12.2022
601 Clouds -2 1017 1 690 1.05 83 08:47 19.12.2022
602 Clouds -2 1019 1 5749 0.89 59 07:32 19.12.2022
603 Clouds -4 1022 1 10000 0.64 25 02:22 19.12.2022
604 Clouds -5 1022 96 10000 0.92 336 21:51 18.12.2022
605 Clouds -5 1022 96 10000 0.68 314 21:31 18.12.2022
606 Clouds -5 1022 95 10000 0.87 341 20:58 18.12.2022
607 Clouds -4 1021 94 10000 0.95 344 19:45 18.12.2022
608 Clouds -4 1021 93 10000 0.84 326 19:24 18.12.2022
609 Clouds -3 1021 92 10000 0.62 305 17:53 18.12.2022
610 Clouds -2 1020 92 10000 0.87 297 16:27 18.12.2022
611 Clouds -1 1020 92 10000 0.87 297 15:39 18.12.2022
612 Clouds -1 1020 93 10000 1.17 259 15:18 18.12.2022
613 Clear 1 1019 90 10000 1.16 232 13:36 18.12.2022
614 Clouds 2 1018 87 10000 1.88 231 12:51 18.12.2022
615 Clouds 1 1017 1 10000 1.71 224 11:54 18.12.2022
616 Clouds 1 1015 1 10000 2.44 212 10:19 18.12.2022
617 Clouds 1 1014 1 10000 3.25 204 08:47 18.12.2022
618 Clouds 1 1013 1 8568 2.54 215 07:20 18.12.2022
619 Clouds 0 1013 1 5338 2.44 214 06:20 18.12.2022
620 Clouds -1 1013 96 7810 2.22 202 02:59 18.12.2022
621 Clouds -4 1014 1 3080 0.75 206 23:40 17.12.2022
622 Clouds -4 1014 1 7267 0.26 351 21:40 17.12.2022
623 Clouds -4 1014 1 4467 0.4 339 18:54 17.12.2022
624 Clouds -4 1014 1 10000 0.71 1 16:41 17.12.2022
625 Snow -4 1014 1 415 0.53 319 14:23 17.12.2022
626 Snow -4 1013 1 2635 0.65 293 11:36 17.12.2022
627 Snow -4 1013 1 2635 0.65 293 10:46 17.12.2022
628 Snow -5 1013 1 142 1.27 290 09:41 17.12.2022
629 Snow -4 1012 1 163 1.24 335 07:28 17.12.2022
630 Snow -5 1012 1 163 1.23 334 06:45 17.12.2022
631 Snow -7 1015 1 141 0.95 36 23:49 16.12.2022
632 Snow -8 1015 1 1067 1.1 31 20:56 16.12.2022
633 Clouds -9 1015 1 882 0.63 33 19:36 16.12.2022
634 Snow -10 1015 1 10000 0.87 61 15:43 16.12.2022
635 Clouds -10 1015 1 10000 0.73 36 14:47 16.12.2022
636 Clouds -11 1015 1 10000 0.82 12 13:45 16.12.2022
637 Clouds -10 1014 1 10000 0.95 11 11:58 16.12.2022
638 Clouds -15 1015 90 10000 1.31 2 09:53 16.12.2022
639 Clouds -13 1014 4 10000 1.27 5 09:24 16.12.2022
640 Clouds -13 1014 11 10000 1.34 2 07:55 16.12.2022
641 Clouds -16 1014 93 10000 1.26 359 07:32 16.12.2022
642 Clear -11 1012 9 10000 1.33 338 23:30 15.12.2022
643 Clear -13 1012 9 10000 1.33 338 23:30 15.12.2022
644 Clear -11 1011 9 10000 1.41 336 22:20 15.12.2022
645 Clouds -10 1010 1 10000 1.51 339 20:33 15.12.2022
646 Clouds -11 1009 1 10000 1.23 325 19:36 15.12.2022
647 Clouds -12 1009 1 10000 1.2 332 18:20 15.12.2022
648 Clouds -13 1008 92 10000 1.25 335 17:24 15.12.2022
649 Clouds -11 1008 1 10000 0.97 310 15:35 15.12.2022
650 Clouds -9 1007 1 10000 0.87 308 13:30 15.12.2022
651 Clouds -9 1007 1 10000 1.02 316 12:25 15.12.2022
652 Clouds -12 1006 16 10000 1.21 332 09:36 15.12.2022
653 Clouds -12 1006 13 10000 1.25 338 08:53 15.12.2022
654 Clouds -10 1004 6 10000 0.82 338 05:50 15.12.2022
655 Snow -11 1004 14 10000 0.9 301 04:40 15.12.2022
656 Clouds -13 1002 28 10000 0.69 288 21:25 14.12.2022
657 Clouds -13 1002 26 10000 0.68 287 20:59 14.12.2022
658 Clouds -13 1001 27 10000 0.8 300 20:29 14.12.2022
659 Clouds -13 1001 30 10000 0.96 300 18:26 14.12.2022
660 Clouds -13 1001 34 10000 0.9 319 16:57 14.12.2022
661 Clouds -12 1001 35 10000 0.97 323 15:40 14.12.2022
662 Clouds -11 1000 37 10000 0.89 330 13:52 14.12.2022
663 Clouds -12 1001 28 10000 1.51 341 11:22 14.12.2022
664 Clouds -12 1001 28 10000 1.51 341 10:33 14.12.2022
665 Clouds -11 1000 82 10000 1.68 346 08:51 14.12.2022
666 Snow -9 1002 2 1490 1.45 31 22:50 13.12.2022
667 Snow -9 1002 1 3456 1.4 26 21:48 13.12.2022
668 Snow -9 1002 1 624 1.27 24 20:48 13.12.2022
669 Snow -9 1003 2 289 1.13 22 20:19 13.12.2022
670 Snow -9 1004 7 2878 0.68 360 17:40 13.12.2022
671 Snow -9 1004 7 2845 0.68 360 17:40 13.12.2022
672 Snow -9 1006 13 326 0.68 269 15:45 13.12.2022
673 Snow -9 1006 16 699 0.45 264 14:44 13.12.2022
674 Snow -9 1010 19 10000 0.9 290 11:18 13.12.2022
675 Clouds -12 1011 89 10000 1.08 319 10:36 13.12.2022
676 Clouds -13 1011 93 10000 1.02 329 09:23 13.12.2022
677 Clouds -10 1014 33 10000 1.43 329 04:35 13.12.2022
678 Clouds -7 1018 52 10000 2.64 346 22:23 12.12.2022
679 Clouds -7 1018 50 10000 2.63 344 21:22 12.12.2022
680 Clouds -8 1018 32 10000 2.65 344 18:33 12.12.2022
681 Clouds -8 1019 40 10000 2.43 339 17:19 12.12.2022
682 Clouds -7 1016 73 10000 2.28 350 15:22 12.12.2022
683 Clouds -7 1020 63 10000 2.12 358 11:51 12.12.2022
684 Clouds -8 1020 63 10000 1.96 352 09:19 12.12.2022
685 Clouds -10 1019 51 10000 1.81 355 04:55 12.12.2022
686 Clouds -9 1020 59 10000 1.73 351 03:21 12.12.2022
687 Clouds -8 1020 55 10000 1.82 5 22:54 11.12.2022
688 Clouds -8 1019 58 10000 1.78 1 20:48 11.12.2022
689 Clouds -7 1014 71 10000 1.71 5 19:43 11.12.2022
690 Clouds -7 1014 71 10000 1.64 12 19:22 11.12.2022
691 Clouds -7 1014 63 10000 1.67 17 18:18 11.12.2022
692 Clouds -7 1014 63 10000 1.67 17 18:18 11.12.2022
693 Clouds -7 1014 62 10000 1.67 17 17:31 11.12.2022
694 Clouds -7 1014 61 8258 1.55 16 16:52 11.12.2022
695 Clouds -7 1014 62 5806 1.37 9 15:46 11.12.2022
696 Clouds -7 1014 62 10000 1.44 13 14:50 11.12.2022
697 Clouds -8 1018 47 7440 1.67 23 12:44 11.12.2022
698 Snow -8 1018 43 1954 1.45 11 11:53 11.12.2022
699 Clouds -9 1017 34 9627 1.2 18 08:25 11.12.2022
700 Clouds -10 1017 42 10000 1.18 344 00:34 11.12.2022
701 Clouds -9 1017 50 10000 1.33 345 22:54 10.12.2022
702 Clouds -9 1017 50 10000 1.31 338 22:33 10.12.2022
703 Clouds -8 1016 47 10000 1.32 338 21:19 10.12.2022
704 Clouds -8 1016 45 10000 1.32 338 20:35 10.12.2022
705 Clouds -8 1016 41 10000 1.49 350 18:49 10.12.2022
706 Clouds -7 1016 43 10000 1.51 342 16:51 10.12.2022
707 Clouds -7 1016 47 10000 1.51 342 16:32 10.12.2022
708 Clouds -7 1016 57 10000 1.43 343 15:38 10.12.2022
709 Clouds -6 1016 59 10000 1.39 348 14:48 10.12.2022
710 Clouds -5 1016 52 10000 1.8 13 12:53 10.12.2022
711 Clouds -5 1016 52 10000 1.8 13 12:53 10.12.2022
712 Clouds -6 1016 45 10000 1.7 2 11:37 10.12.2022
713 Clouds -7 1016 23 10000 1.68 355 10:41 10.12.2022
714 Clouds -8 1016 29 10000 1.52 343 08:58 10.12.2022
715 Clouds -9 1015 41 10000 1.46 344 07:19 10.12.2022
716 Clouds -7 1014 60 10000 1.74 338 00:40 10.12.2022
717 Clouds -6 1014 59 10000 1.92 349 23:18 09.12.2022
718 Clouds -6 1014 55 10000 1.92 349 22:37 09.12.2022
719 Clouds -9 1014 50 10000 2.05 350 21:24 09.12.2022
720 Clouds -8 1014 56 10000 2.05 350 20:41 09.12.2022
721 Clouds -8 1012 63 10000 1.7 350 18:52 09.12.2022
722 Clouds -7 1012 65 10000 1.86 356 17:51 09.12.2022
723 Clouds -6 1011 66 10000 2.11 358 16:31 09.12.2022
724 Clouds -6 1011 66 10000 2.11 358 15:42 09.12.2022
725 Clouds -6 1011 66 10000 2.08 360 15:18 09.12.2022
726 Clouds -5 1010 67 10000 2.12 0 11:32 09.12.2022
727 Clouds -6 1010 67 10000 2.12 0 10:34 09.12.2022
728 Clouds -6 1010 66 10000 2.25 3 08:36 09.12.2022
729 Clouds -4 1007 61 10000 2.81 5 03:19 09.12.2022
730 Clouds -5 1006 58 2632 3.27 8 00:18 09.12.2022
731 Clouds -5 1005 40 8744 3.2 8 21:23 08.12.2022
732 Snow -5 1004 26 10000 3.13 8 20:21 08.12.2022
733 Clouds -6 1003 18 10000 2.66 25 16:52 08.12.2022
734 Snow -6 1003 1 10000 2.23 26 14:46 08.12.2022
735 Snow -6 1003 1 10000 2.21 27 14:21 08.12.2022
736 Snow -7 1003 1 10000 1.63 24 11:18 08.12.2022
737 Clouds -7 1003 1 10000 1.51 29 09:45 08.12.2022
738 Snow -7 1003 1 10000 1.33 21 09:20 08.12.2022
739 Clouds -8 1005 4 10000 0.95 317 22:56 07.12.2022
740 Clouds -8 1006 15 10000 0.84 310 22:19 07.12.2022
741 Clouds -8 1006 15 10000 0.85 310 21:47 07.12.2022
742 Clouds -7 1006 18 10000 0.97 327 20:36 07.12.2022
743 Clouds -7 1007 32 10000 1 291 19:24 07.12.2022
744 Clouds -4 1006 63 10000 1.3 315 16:21 07.12.2022
745 Snow -3 1006 65 10000 1.17 302 14:40 07.12.2022
746 Clouds -5 1010 2 10000 1.39 325 11:38 07.12.2022
747 Clear -6 1011 1 10000 1.23 319 10:38 07.12.2022
748 Clear -7 1011 1 10000 1.37 321 09:37 07.12.2022
749 Clear -7 1011 1 10000 1.39 328 08:44 07.12.2022
750 Clouds -5 1012 1 10000 1.69 335 05:28 07.12.2022
751 Clouds -5 1012 1 10000 1.69 338 03:55 07.12.2022
752 Clouds -3 1010 44 919 1.56 1 22:37 06.12.2022
753 Snow -3 1010 44 10000 1.43 17 20:20 06.12.2022
754 Snow -2 1014 44 10000 0.59 283 17:39 06.12.2022
755 Snow -3 1014 44 10000 0.21 221 16:40 06.12.2022
756 Clouds -3 1014 46 10000 1.1 319 15:40 06.12.2022
757 Clouds -3 1014 50 10000 0.91 331 14:55 06.12.2022
758 Clouds -3 1014 51 10000 0.78 314 14:24 06.12.2022
759 Clouds -3 1014 56 10000 0.9 358 12:51 06.12.2022
760 Clouds -3 1014 48 10000 1.16 350 12:28 06.12.2022
761 Clouds -6 1018 1 10000 1.32 313 07:59 06.12.2022
762 Clouds -5 1019 1 10000 1.14 325 04:54 06.12.2022
763 Clouds -5 1022 1 10000 1.09 348 01:24 06.12.2022
764 Clouds -7 1024 11 10000 0.97 342 22:25 05.12.2022
765 Clouds -6 1025 32 10000 0.88 0 20:55 05.12.2022
766 Clouds -6 1025 37 10000 1.17 3 20:25 05.12.2022
767 Clouds -6 1025 36 10000 1.17 4 19:43 05.12.2022
768 Clouds -4 1026 43 10000 0.84 2 16:57 05.12.2022
769 Clouds -4 1026 43 10000 0.84 2 16:57 05.12.2022
770 Clouds -4 1027 44 10000 0.81 343 16:26 05.12.2022
771 Clouds -4 1027 47 10000 0.27 336 15:22 05.12.2022
772 Clouds -4 1029 48 10000 0.68 333 12:59 05.12.2022
773 Clouds -4 1030 51 10000 0.65 339 12:40 05.12.2022
774 Clouds -4 1030 51 10000 0.65 339 11:46 05.12.2022
775 Clouds -4 1031 52 10000 0.72 351 10:53 05.12.2022
776 Clouds -3 1035 89 10000 1.27 1 00:19 05.12.2022
777 Clouds -3 1036 90 10000 1.42 358 22:44 04.12.2022
778 Clouds -3 1036 90 10000 1.46 359 22:20 04.12.2022
779 Clouds -3 1036 90 10000 1.46 359 21:41 04.12.2022
780 Clouds -2 1035 90 10000 1.39 4 20:30 04.12.2022
781 Clouds -2 1035 90 10000 1.35 7 19:27 04.12.2022
782 Clouds -2 1035 90 10000 1.35 7 18:40 04.12.2022
783 Clouds -2 1035 91 10000 1.46 8 17:23 04.12.2022
784 Clouds -2 1035 91 10000 1.46 8 16:37 04.12.2022
785 Clouds -2 1035 92 10000 1.43 7 16:19 04.12.2022
786 Clouds -2 1035 92 10000 1.43 7 15:57 04.12.2022
787 Clear -2 1035 88 10000 1.24 16 14:43 04.12.2022
788 Clouds -1 1035 57 10000 1.32 21 13:26 04.12.2022
789 Clouds -1 1035 57 10000 1.33 21 12:42 04.12.2022
790 Clouds -1 1035 59 10000 1.36 20 11:46 04.12.2022
791 Clouds -2 1036 89 10000 1.48 10 09:20 04.12.2022
792 Clouds -2 1035 89 10000 1.61 6 07:27 04.12.2022
793 Clouds -1 1036 44 10000 1.71 10 00:45 04.12.2022
794 Clouds -1 1036 48 10000 1.73 9 23:33 03.12.2022
795 Clouds 0 1036 52 10000 1.74 10 21:59 03.12.2022
796 Clouds 0 1036 52 10000 1.81 8 21:21 03.12.2022
797 Clouds 0 1036 50 10000 1.81 7 19:34 03.12.2022
798 Clouds 0 1035 50 10000 1.92 7 18:39 03.12.2022
799 Clouds 0 1036 50 10000 1.91 4 15:54 03.12.2022
800 Clouds 0 1036 52 10000 1.86 7 14:23 03.12.2022
801 Clouds 1 1036 53 10000 1.89 14 12:54 03.12.2022
802 Clouds 1 1037 54 10000 1.84 17 12:22 03.12.2022
803 Clouds 1 1037 56 10000 1.94 7 10:21 03.12.2022
804 Clouds 1 1038 35 10000 1.94 5 07:22 03.12.2022
805 Snow 1 1040 94 7657 2.21 10 01:29 03.12.2022
806 Clouds 1 1040 94 10000 1.84 2 22:41 02.12.2022
807 Clouds 2 1040 93 10000 1.99 1 20:53 02.12.2022
808 Clouds 2 1040 93 10000 2 1 20:53 02.12.2022
809 Clouds 1 1040 91 10000 1.93 7 19:26 02.12.2022
810 Clouds 1 1039 9 10000 1.77 8 15:59 02.12.2022
811 Clouds 2 1039 6 10000 1.81 9 14:43 02.12.2022
812 Clouds 2 1039 6 10000 1.86 10 14:24 02.12.2022
813 Clouds 2 1039 5 10000 1.85 11 12:56 02.12.2022
814 Clouds 1 1039 8 10000 1.97 16 11:40 02.12.2022
815 Clouds 1 1038 1 10000 1.67 4 08:35 02.12.2022
816 Clouds 1 1038 1 10000 1.75 5 07:24 02.12.2022
817 Clouds 0 1038 4 10000 1.6 10 23:49 01.12.2022
818 Clouds 0 1038 14 10000 1.57 9 21:49 01.12.2022
819 Clouds 0 1038 15 10000 1.61 6 21:31 01.12.2022
820 Clouds 0 1037 19 10000 1.59 2 19:48 01.12.2022
821 Clouds 0 1037 15 10000 1.35 2 17:50 01.12.2022
822 Clouds 1 1036 12 10000 1.32 5 15:44 01.12.2022
823 Clouds 1 1036 9 10000 1.16 20 11:41 01.12.2022
824 Clouds 1 1036 1 10000 1.08 20 10:25 01.12.2022
825 Clouds 1 1036 1 10000 1.08 20 09:54 01.12.2022
826 Clouds 1 1036 1 10000 1.07 14 09:36 01.12.2022
827 Clouds 2 1035 1 258 0.98 12 00:18 01.12.2022
828 Clouds 2 1035 1 284 0.68 14 22:38 30.11.2022
829 Clouds 2 1034 1 427 0.57 15 21:19 30.11.2022
830 Clouds 2 1034 1 427 0.57 15 20:45 30.11.2022
831 Clouds 2 1034 1 239 0.54 25 20:22 30.11.2022
832 Clouds 2 1034 1 463 0.81 16 18:33 30.11.2022
833 Clouds 2 1034 1 593 0.72 29 17:36 30.11.2022
834 Clouds 2 1033 1 10000 0.84 31 16:19 30.11.2022
835 Clouds 3 1033 1 10000 0.79 35 14:27 30.11.2022
836 Clouds 3 1033 1 10000 0.79 35 13:39 30.11.2022
837 Clouds 2 1033 1 528 0.97 31 10:42 30.11.2022
838 Snow 2 1032 1 128 1.01 28 08:39 30.11.2022
839 Clouds 2 1031 1 108 0.95 30 07:56 30.11.2022
840 Clouds 2 1030 1 25 0.89 38 23:36 29.11.2022
841 Clouds 2 1030 1 25 0.91 35 22:49 29.11.2022
842 Clouds 2 1030 1 27 0.89 35 21:36 29.11.2022
843 Clouds 2 1030 1 25 0.94 36 20:37 29.11.2022
844 Clouds 2 1030 1 27 0.93 42 18:59 29.11.2022
845 Clouds 2 1029 1 24 1.23 47 17:18 29.11.2022
846 Clouds 3 1029 1 25 1.27 41 16:25 29.11.2022
847 Clouds 3 1029 1 34 1.28 56 14:50 29.11.2022
848 Rain 3 1029 1 25 1.55 45 13:20 29.11.2022
849 Rain 3 1029 1 30 1.55 39 11:44 29.11.2022
850 Rain 3 1029 1 32 1.6 39 10:56 29.11.2022
851 Clouds 3 1028 1 31 1.66 46 09:38 29.11.2022
852 Clouds 3 1028 1 74 1.66 48 08:38 29.11.2022
853 Clouds 4 1026 1 60 2.08 67 00:36 29.11.2022
854 Clouds 4 1026 1 60 2.08 67 00:36 29.11.2022
855 Clouds 4 1026 1 7267 2.29 75 23:35 28.11.2022
856 Clouds 4 1026 1 7267 2.29 75 22:52 28.11.2022
857 Clouds 3 1025 1 8550 2.52 77 21:44 28.11.2022
858 Clouds 3 1025 1 8494 2.65 76 20:50 28.11.2022
859 Clouds 4 1025 1 8698 2.72 79 19:38 28.11.2022
860 Clouds 4 1024 1 8607 2.72 80 18:29 28.11.2022
861 Clouds 4 1024 1 8645 2.72 81 17:50 28.11.2022
862 Clouds 4 1024 1 2959 2.66 75 15:37 28.11.2022
863 Clouds 4 1023 1 41 2.67 72 14:24 28.11.2022
864 Clouds 4 1023 1 42 2.67 72 13:49 28.11.2022
865 Rain 4 1023 1 927 2.57 74 12:35 28.11.2022
866 Rain 3 1022 1 5554 2.37 73 09:27 28.11.2022
867 Clouds 3 1022 1 4217 2.15 71 06:29 28.11.2022
868 Clouds 4 1022 1 4355 1.92 73 04:42 28.11.2022
869 Clouds 4 1022 1 8425 1.9 83 03:23 28.11.2022
870 Rain 4 1022 1 8727 1.92 102 01:27 28.11.2022
871 Clouds 4 1021 1 9164 2.51 109 22:35 27.11.2022
872 Rain 5 1021 1 10000 2.75 113 21:27 27.11.2022
873 Clouds 4 1021 1 10000 2.78 119 19:30 27.11.2022
874 Clouds 4 1021 1 10000 3.07 138 16:47 27.11.2022
875 Clouds 5 1022 1 10000 3.51 140 14:30 27.11.2022
876 Clouds 5 1023 1 10000 3.64 140 12:32 27.11.2022
877 Clouds 5 1023 1 10000 3.3 138 10:40 27.11.2022
878 Clouds 5 1023 1 8457 2.38 130 07:57 27.11.2022
879 Clouds 4 1026 1 193 1.16 43 23:43 26.11.2022
880 Clouds 4 1026 1 233 0.92 30 21:52 26.11.2022
881 Clouds 3 1026 1 258 0.91 46 20:36 26.11.2022
882 Rain 3 1026 1 205 0.96 21 19:21 26.11.2022
883 Clouds 3 1026 1 225 0.95 47 16:50 26.11.2022
884 Clouds 3 1026 1 187 0.83 42 15:38 26.11.2022
885 Clouds 3 1025 1 142 1.03 35 12:55 26.11.2022
886 Rain 3 1025 1 181 1.1 63 11:24 26.11.2022
887 Rain 3 1025 1 124 1.02 69 09:44 26.11.2022
888 Rain 3 1024 1 115 1.26 79 08:45 26.11.2022
889 Clouds 3 1023 1 3301 1.75 65 23:22 25.11.2022
890 Clouds 3 1023 1 4424 1.68 64 21:41 25.11.2022
891 Clouds 3 1022 1 5196 1.74 63 21:19 25.11.2022
892 Clouds 3 1022 1 822 1.7 68 19:36 25.11.2022
893 Clouds 3 1020 1 4285 2.08 81 15:51 25.11.2022
894 Clouds 3 1019 1 4961 2.26 97 12:28 25.11.2022
895 Clouds 3 1018 1 93 2.33 98 08:56 25.11.2022
896 Clouds 3 1018 1 93 2.33 98 08:37 25.11.2022
897 Clouds 3 1017 1 38 1.85 72 06:48 25.11.2022
898 Rain 3 1016 1 47 1.79 59 01:26 25.11.2022
899 Clouds 2 1016 1 54 1.7 59 23:41 24.11.2022
900 Rain 2 1016 1 48 1.61 81 22:37 24.11.2022
901 Clouds 2 1016 1 48 1.61 81 21:42 24.11.2022
902 Clouds 2 1015 1 31 1.81 62 19:48 24.11.2022
903 Clouds 2 1015 1 30 1.69 48 17:48 24.11.2022
904 Clouds 2 1014 1 28 1.66 45 17:24 24.11.2022
905 Clouds 2 1014 1 28 1.66 45 16:40 24.11.2022
906 Clouds 2 1013 1 33 2.07 57 14:24 24.11.2022
907 Rain 2 1013 1 55 2.32 50 12:41 24.11.2022
908 Rain 2 1013 1 61 2.45 54 11:38 24.11.2022
909 Snow 2 1012 1 81 3.27 68 08:59 24.11.2022
910 Snow 1 1011 1 73 3.43 69 06:22 24.11.2022
911 Snow 1 1011 1 96 3.96 79 00:41 24.11.2022
912 Snow 1 1011 1 134 4.02 80 23:32 23.11.2022
913 Snow 1 1011 1 140 3.94 82 21:48 23.11.2022
914 Snow 2 1011 1 147 4.06 83 20:51 23.11.2022
915 Snow 1 1010 1 202 4.09 85 19:40 23.11.2022
916 Snow 2 1010 1 64 4.16 89 18:56 23.11.2022
917 Snow 1 1010 1 78 4.21 89 17:35 23.11.2022
918 Snow 1 1009 1 77 4.2 86 14:19 23.11.2022
919 Snow 1 1009 1 54 4.32 83 13:24 23.11.2022
920 Snow 1 1009 1 57 4.36 80 12:23 23.11.2022
921 Snow 1 1009 1 58 4.36 80 11:46 23.11.2022
922 Snow 1 1009 1 47 4.37 81 10:48 23.11.2022
923 Snow 1 1009 1 41 4.2 83 10:18 23.11.2022
924 Snow 1 1009 1 40 4.14 84 09:28 23.11.2022
925 Snow 1 1009 1 40 4.14 84 08:58 23.11.2022
926 Snow 1 1009 1 40 4.14 84 08:36 23.11.2022
927 Snow 1 1009 1 106 4 78 05:19 23.11.2022
928 Snow 1 1010 1 152 4.83 74 01:42 23.11.2022
929 Snow 1 1010 1 925 4.73 80 22:37 22.11.2022
930 Snow 1 1010 1 2094 3.89 73 21:49 22.11.2022
931 Snow 1 1010 1 3188 3.12 60 21:23 22.11.2022
932 Snow 1 1010 1 3188 3.12 60 20:43 22.11.2022
933 Snow 1 1011 1 4880 3.13 70 19:45 22.11.2022
934 Snow 0 1010 1 1031 3.34 83 17:54 22.11.2022
935 Snow 0 1010 1 204 2.86 71 16:38 22.11.2022
936 Clouds 0 1009 29 10000 2.21 89 14:31 22.11.2022
937 Clouds 0 1009 31 8850 1.03 60 12:51 22.11.2022
938 Snow -1 1006 33 492 1.56 347 09:28 22.11.2022
939 Snow -1 1006 33 492 1.56 347 09:28 22.11.2022
940 Snow -1 1006 38 227 1.99 351 07:59 22.11.2022
941 Snow -1 1006 37 250 2.79 1 06:44 22.11.2022
942 Snow -1 1007 66 10000 4.39 34 00:54 22.11.2022
943 Clouds -1 1007 66 10000 4.49 41 22:52 21.11.2022
944 Clouds -1 1008 66 10000 4.61 44 22:23 21.11.2022
945 Clouds -1 1007 66 10000 4.81 46 21:32 21.11.2022
946 Clouds 0 1007 66 10000 4.87 49 20:31 21.11.2022
947 Clouds 0 1007 65 10000 4.87 49 19:39 21.11.2022
948 Clouds 0 1007 65 10000 5.22 57 18:52 21.11.2022
949 Clouds 0 1009 59 10000 4.07 41 17:32 21.11.2022
950 Clouds 0 1009 56 10000 4.03 43 16:43 21.11.2022
951 Clouds 0 1009 54 10000 4.25 50 15:58 21.11.2022
952 Clouds 0 1009 52 10000 4.38 53 15:23 21.11.2022
953 Snow 0 1009 52 9029 4.35 59 13:53 21.11.2022
954 Snow 0 1009 45 8972 4.14 59 12:50 21.11.2022
955 Clouds -1 1008 61 10000 4.94 40 09:35 21.11.2022
956 Snow -1 1008 65 5285 5.04 28 07:52 21.11.2022
957 Clouds -1 1010 67 10000 5.86 15 00:36 21.11.2022
958 Clouds -1 1011 67 10000 5.89 15 21:39 20.11.2022
959 Clouds -1 1012 67 10000 5.62 14 20:47 20.11.2022
960 Clouds -1 1014 65 10000 5.07 12 19:21 20.11.2022
961 Snow -1 1015 65 10000 4.59 10 17:24 20.11.2022
962 Snow -1 1015 65 10000 4.46 11 15:44 20.11.2022
963 Clouds -1 1015 65 10000 4.27 10 15:21 20.11.2022
964 Clouds -1 1016 66 10000 3.92 12 14:18 20.11.2022
965 Snow -1 1017 66 5510 3.82 11 13:31 20.11.2022
966 Clouds -1 1017 66 5143 3.72 11 11:43 20.11.2022
967 Clouds -1 1018 65 10000 3.86 12 10:58 20.11.2022
968 Clouds -1 1018 65 10000 3.68 7 09:43 20.11.2022
969 Clouds -1 1018 65 10000 3.57 5 08:53 20.11.2022
970 Clouds -1 1019 65 10000 3.2 6 08:20 20.11.2022
971 Clouds -2 1019 65 10000 3.14 3 07:26 20.11.2022
972 Clouds -2 1022 67 10000 3.52 21 01:28 20.11.2022
973 Clouds -2 1022 66 10000 3.52 21 00:48 20.11.2022
974 Clouds -2 1022 66 10000 3.71 21 00:29 20.11.2022
975 Clouds -2 1022 67 10000 3.71 21 23:59 19.11.2022
976 Clouds -1 1022 67 10000 4.09 22 23:26 19.11.2022
977 Clouds -2 1022 67 10000 4.09 22 22:48 19.11.2022
978 Clear -2 1023 67 10000 4.45 25 21:57 19.11.2022
979 Clear -2 1023 67 10000 4.54 28 21:25 19.11.2022
980 Clouds -2 1023 67 10000 4.67 26 20:41 19.11.2022
981 Clear -2 1022 67 10000 4.66 29 19:51 19.11.2022
982 Clear -2 1022 67 10000 4.61 31 18:53 19.11.2022
983 Clear -1 1022 67 10000 4.35 30 17:38 19.11.2022
984 Clear -1 1022 66 10000 4.02 28 17:18 19.11.2022
985 Clear -1 1022 67 10000 3.75 25 14:54 19.11.2022
986 Clear -1 1023 67 10000 3.68 23 13:34 19.11.2022
987 Clear -1 1024 66 10000 4.13 29 11:54 19.11.2022
988 Clouds -1 1025 66 10000 3.76 20 09:45 19.11.2022
989 Clouds -1 1025 66 10000 3.22 9 07:53 19.11.2022
990 Clouds 0 1025 64 10000 3.82 24 04:45 19.11.2022
991 Clouds 1 1025 62 10000 2.48 9 00:48 19.11.2022
992 Clouds 1 1025 63 10000 2.28 11 23:34 18.11.2022
993 Clouds 1 1025 63 10000 2.13 12 22:23 18.11.2022
994 Clouds 1 1025 65 10000 2.13 12 21:35 18.11.2022
995 Clouds 1 1025 65 10000 2.19 13 20:57 18.11.2022
996 Clouds 1 1025 64 10000 2.29 11 20:25 18.11.2022
997 Clouds 1 1025 64 10000 2.29 11 19:36 18.11.2022
998 Clouds 1 1024 55 10000 2.6 12 17:45 18.11.2022
999 Clouds 1 1023 47 10000 2.42 16 16:27 18.11.2022
1000 Clouds 1 1024 37 10000 3.29 26 11:57 18.11.2022
1001 Clouds 0 1023 33 10000 3.24 25 10:22 18.11.2022
1002 Clouds 1 1022 48 10000 3.59 30 07:52 18.11.2022
1003 Clouds 1 1020 45 10000 3.53 30 05:27 18.11.2022
1004 Clouds 1 1020 42 10000 3.85 30 02:40 18.11.2022
1005 Clouds 1 1019 47 10000 3.11 31 23:38 17.11.2022
1006 Clouds 1 1019 47 10000 2.8 26 20:48 17.11.2022
1007 Clouds 2 1018 47 10000 3.06 28 19:54 17.11.2022
1008 Clouds 2 1018 46 10000 3.3 33 19:27 17.11.2022
1009 Clouds 1 1018 29 10000 3.1 40 18:29 17.11.2022
1010 Clouds 1 1018 26 10000 3.1 40 17:30 17.11.2022
1011 Clouds 1 1018 23 10000 3.18 42 16:31 17.11.2022
1012 Clouds 1 1019 1 10000 3.05 45 12:20 17.11.2022
1013 Clouds 1 1020 1 10000 3.2 51 10:35 17.11.2022
1014 Clouds 1 1019 1 10000 3.35 54 07:35 17.11.2022
1015 Clouds 1 1020 1 10000 2.66 51 00:54 17.11.2022
1016 Clouds 2 1020 2 10000 2.37 50 23:31 16.11.2022
1017 Clouds 1 1021 8 10000 2.45 47 22:19 16.11.2022
1018 Clouds 1 1021 8 10000 2.41 56 20:31 16.11.2022
1019 Clouds 2 1020 18 10000 2.65 54 18:49 16.11.2022
1020 Clouds 2 1020 18 10000 2.65 54 18:30 16.11.2022
1021 Clouds 4 1021 23 10000 2.82 76 15:41 16.11.2022
1022 Clouds 3 1021 1 10000 2.64 66 11:23 16.11.2022
1023 Clouds 3 1021 1 10000 2.31 50 07:45 16.11.2022
1024 Clouds 3 1021 35 10000 2.83 61 01:42 16.11.2022
1025 Clouds 4 1022 32 10000 3.83 73 23:36 15.11.2022
1026 Clouds 4 1023 32 10000 3.26 44 21:42 15.11.2022
1027 Clouds 4 1022 33 10000 3.53 49 19:48 15.11.2022
1028 Clouds 4 1022 32 10000 3.58 55 18:53 15.11.2022
1029 Clouds 4 1022 34 10000 3.85 60 17:36 15.11.2022
1030 Clouds 5 1022 1 10000 4.31 58 16:20 15.11.2022
1031 Clouds 5 1022 1 10000 4.31 58 15:37 15.11.2022
1032 Clouds 5 1022 1 10000 4.34 63 14:41 15.11.2022
1033 Clouds 5 1021 1 10000 4.44 51 12:54 15.11.2022
1034 Clouds 4 1021 1 10000 4.29 45 11:22 15.11.2022
1035 Clouds 5 1021 88 10000 3.66 41 09:39 15.11.2022
1036 Clouds 5 1019 1 10000 1.44 7 00:44 15.11.2022
1037 Clouds 5 1019 1 10000 1.26 11 00:23 15.11.2022
1038 Clouds 5 1020 1 10000 1.44 23 22:33 14.11.2022
1039 Clouds 6 1020 1 10000 1.22 19 20:44 14.11.2022
1040 Clouds 6 1021 1 10000 1.26 25 19:46 14.11.2022
1041 Clouds 6 1022 1 10000 1.31 16 18:27 14.11.2022
1042 Clouds 7 1024 1 10000 0.83 15 12:55 14.11.2022
1043 Clouds 7 1024 1 10000 0.83 15 12:55 14.11.2022
1044 Clouds 7 1024 1 10000 0.83 15 12:55 14.11.2022
1045 Clouds 7 1024 1 10000 0.83 15 12:55 14.11.2022
1046 Clouds 7 1025 1 10000 0.92 15 11:47 14.11.2022
1047 Clouds 7 1025 1 10000 0.92 19 10:58 14.11.2022
1048 Clouds 7 1026 1 10000 1.32 9 08:34 14.11.2022
1049 Clouds 7 1026 1 10000 1.41 3 07:52 14.11.2022
1050 Clouds 7 1027 1 10000 0.76 2 02:32 14.11.2022
1051 Clouds 7 1028 1 10000 1.09 15 22:50 13.11.2022
1052 Clouds 7 1028 1 10000 0.91 6 21:41 13.11.2022
1053 Clouds 7 1028 1 10000 0.9 7 20:46 13.11.2022
1054 Clouds 7 1028 1 10000 0.7 354 18:54 13.11.2022
1055 Clouds 7 1028 1 10000 0.72 356 17:50 13.11.2022
1056 Clear 7 1028 1 10000 0.45 15 15:48 13.11.2022
1057 Clear 7 1028 1 10000 0.32 43 14:31 13.11.2022
1058 Clouds 7 1029 1 10000 0.44 50 12:56 13.11.2022
1059 Clouds 7 1029 1 10000 0.52 25 11:43 13.11.2022
1060 Clouds 7 1029 1 10000 0.69 15 10:38 13.11.2022
1061 Clouds 5 1028 1 10000 1.32 15 05:53 13.11.2022
1062 Clouds 6 1028 1 10000 1.3 13 23:55 12.11.2022
1063 Clouds 5 1028 1 10000 1.48 5 21:40 12.11.2022
1064 Clouds 7 1027 22 10000 1.32 359 20:54 12.11.2022
1065 Clouds 8 1026 38 10000 1.23 341 19:28 12.11.2022
1066 Clouds 10 1025 56 10000 1.47 299 16:58 12.11.2022
1067 Clouds 13 1025 62 10000 1.5 291 15:55 12.11.2022
1068 Clouds 15 1025 60 10000 1.35 263 14:25 12.11.2022
1069 Clouds 13 1021 61 10000 1.46 252 09:43 12.11.2022
1070 Clouds 12 1019 59 10000 1.55 252 07:48 12.11.2022
1071 Clear 13 1010 1 10000 4.99 214 00:40 12.11.2022
1072 Clear 13 1008 1 10000 5.06 211 21:21 11.11.2022
1073 Clear 13 1008 1 10000 5.06 211 20:44 11.11.2022
1074 Clouds 13 1008 1 10000 4.68 208 19:27 11.11.2022
1075 Clouds 13 1008 1 10000 4.71 208 18:34 11.11.2022
1076 Clouds 13 1008 1 10000 4.83 203 17:40 11.11.2022
1077 Clouds 13 1008 1 10000 4.83 203 17:40 11.11.2022
1078 Clouds 13 1008 1 10000 4.83 203 17:40 11.11.2022
1079 Clouds 13 1008 1 10000 4.83 203 17:40 11.11.2022
1080 Clouds 13 1008 1 10000 4.83 203 17:40 11.11.2022
1081 Clouds 14 1006 1 10000 5.97 210 14:51 11.11.2022
1082 Clear 15 1006 1 10000 5.16 206 13:57 11.11.2022
1083 Clouds 14 1005 1 10000 4.82 197 12:45 11.11.2022
1084 Clouds 13 1005 1 10000 4.21 200 09:32 11.11.2022
1085 Clouds 13 1004 1 10000 4.22 203 09:32 11.11.2022
1086 Clouds 12 1004 1 10000 4.48 198 08:27 11.11.2022
1087 Clouds 13 1003 1 10000 7.07 202 00:40 11.11.2022
1088 Clouds 12 1004 1 10000 6.86 203 22:54 10.11.2022
1089 Clouds 12 1004 1 10000 6.43 201 21:51 10.11.2022
1090 Clouds 12 1004 1 10000 6.2 200 21:28 10.11.2022
1091 Clouds 12 1004 1 10000 6.2 200 20:46 10.11.2022
1092 Clouds 12 1004 1 10000 5.9 198 20:20 10.11.2022
1093 Clouds 12 1004 1 10000 5.9 198 20:20 10.11.2022
1094 Clouds 11 1005 1 10000 5.52 203 18:59 10.11.2022
1095 Clouds 11 1005 1 10000 4.93 205 17:59 10.11.2022
1096 Clouds 10 1005 1 485 3.85 198 16:25 10.11.2022
1097 Rain 8 1006 1 10000 3.82 182 13:39 10.11.2022
1098 Clouds 6 1005 1 10000 1.56 197 10:26 10.11.2022
1099 Clear 5 1004 1 10000 1.17 185 08:21 10.11.2022
1100 Clouds 7 1001 1 10000 1.76 204 01:25 10.11.2022
1101 Clouds 8 1000 1 10000 1.93 202 23:21 09.11.2022
1102 Clouds 9 1000 1 10000 2.24 201 21:57 09.11.2022
1103 Clouds 9 999 1 10000 2.4 199 20:47 09.11.2022
1104 Clouds 9 999 1 10000 2.54 196 20:28 09.11.2022
1105 Clouds 9 998 1 10000 2.58 191 19:29 09.11.2022
1106 Clouds 10 997 1 10000 2.59 193 18:30 09.11.2022
1107 Clouds 11 996 1 10000 3.18 195 15:45 09.11.2022
1108 Clouds 12 996 1 10000 3.65 199 14:41 09.11.2022
1109 Clouds 12 996 1 10000 3.73 191 14:22 09.11.2022
1110 Clouds 11 997 1 10000 3.71 187 12:57 09.11.2022
1111 Clouds 10 996 1 10000 3.76 200 09:45 09.11.2022
1112 Clouds 11 995 1 10000 3.9 187 07:47 09.11.2022
1113 Rain 10 995 1 8908 3.7 187 06:55 09.11.2022
1114 Clouds 9 997 1 579 2.14 145 23:27 08.11.2022
1115 Rain 7 997 1 1178 1.85 148 21:43 08.11.2022
1116 Rain 7 998 1 2768 1.4 139 21:22 08.11.2022
1117 Rain 7 998 99 2768 1.4 139 20:39 08.11.2022
1118 Clouds 6 999 1 289 0.75 95 19:35 08.11.2022
1119 Clouds 6 1000 1 5719 0.62 82 18:20 08.11.2022
1120 Clouds 6 1000 1 10000 1.18 39 16:19 08.11.2022
1121 Clouds 5 1001 1 10000 0.99 44 14:52 08.11.2022
1122 Clouds 5 1001 1 10000 0.79 9 13:36 08.11.2022
1123 Rain 4 1002 1 10000 0.93 44 12:38 08.11.2022
1124 Clouds 3 1003 1 10000 0.87 18 08:32 08.11.2022
1125 Rain 3 1003 1 10000 0.65 28 06:53 08.11.2022
1126 Clouds 3 1002 1 10000 1.14 302 23:52 07.11.2022
1127 Clouds 5 1000 1 10000 1.11 285 22:24 07.11.2022
1128 Clouds 5 1000 1 10000 1.22 270 21:21 07.11.2022
1129 Clouds 6 999 1 10000 1.02 305 20:18 07.11.2022
1130 Clouds 7 998 1 10000 1.37 276 17:51 07.11.2022
1131 Clouds 8 997 1 10000 1.86 297 16:32 07.11.2022
1132 Clouds 8 997 1 10000 1.86 297 15:34 07.11.2022
1133 Clouds 8 996 1 10000 2.45 329 14:31 07.11.2022
1134 Rain 8 995 1 10000 1.72 34 12:34 07.11.2022
1135 Rain 8 996 1 10000 1.22 17 10:48 07.11.2022
1136 Rain 8 996 1 10000 0.48 123 09:29 07.11.2022
1137 Rain 8 996 1 2328 2.14 124 07:31 07.11.2022
1138 Rain 7 999 1 2210 2.44 33 03:39 07.11.2022
1139 Rain 7 1001 1 6926 1.54 33 01:19 07.11.2022
1140 Clouds 7 1003 1 10000 0.9 100 22:18 06.11.2022
1141 Clouds 7 1002 1 10000 0.51 111 21:19 06.11.2022
1142 Clouds 7 1002 1 10000 0.8 34 20:23 06.11.2022
1143 Clouds 7 1003 1 10000 0.31 306 19:33 06.11.2022
1144 Clouds 8 1003 1 10000 0.31 306 18:39 06.11.2022
1145 Clouds 8 1002 1 10000 0.57 181 18:19 06.11.2022
1146 Clouds 8 1002 1 10000 0.29 278 17:20 06.11.2022
1147 Clouds 8 1002 1 10000 0.29 278 16:40 06.11.2022
1148 Clouds 9 1002 1 10000 1.1 232 15:43 06.11.2022
1149 Clouds 8 1001 1 10000 1.04 263 12:48 06.11.2022
1150 Clouds 8 1000 1 9391 0.64 305 11:58 06.11.2022
1151 Clouds 7 1000 1 7942 0.73 86 10:45 06.11.2022
1152 Rain 6 1001 1 3854 1.28 179 07:45 06.11.2022
1153 Clouds 6 1003 1 10000 1.66 191 00:50 06.11.2022
1154 Clouds 6 1003 1 10000 1.63 204 22:52 05.11.2022
1155 Clouds 7 1002 1 10000 1.28 222 19:28 05.11.2022
1156 Clouds 9 1002 1 10000 1.74 219 17:23 05.11.2022
1157 Clouds 9 1001 1 10000 1.1 217 15:45 05.11.2022
1158 Clouds 10 1001 1 10000 1.02 247 14:33 05.11.2022
1159 Clouds 9 1001 1 10000 1.43 118 12:38 05.11.2022
1160 Clouds 9 1002 1 10000 2.8 138 10:23 05.11.2022
1161 Clouds 9 1002 1 10000 2.79 121 07:58 05.11.2022
1162 Clouds 9 1001 1 10000 4.02 121 06:57 05.11.2022
1163 Clouds 9 1002 1 10000 4.92 122 02:35 05.11.2022
1164 Clouds 9 1004 1 10000 3.2 110 23:33 04.11.2022
1165 Clouds 9 1004 1 10000 3.26 113 22:01 04.11.2022
1166 Clouds 9 1004 1 10000 4.07 113 19:51 04.11.2022
1167 Rain 9 1004 1 10000 3.85 96 17:45 04.11.2022
1168 Rain 9 1005 1 10000 3.24 81 16:30 04.11.2022
1169 Clouds 9 1006 1 10000 3.72 71 13:21 04.11.2022
1170 Clouds 9 1006 1 10000 3.36 74 12:21 04.11.2022
1171 Clouds 8 1006 1 10000 2.01 75 09:31 04.11.2022
1172 Clouds 8 1006 1 10000 1.79 72 08:20 04.11.2022
1173 Clouds 8 1006 1 10000 1.95 104 06:51 04.11.2022
1174 Clouds 10 1005 1 10000 3.2 140 00:57 04.11.2022
1175 Clouds 10 1004 1 10000 4 150 21:52 03.11.2022
1176 Clouds 10 1004 1 10000 4.34 156 20:47 03.11.2022
1177 Rain 10 1004 1 8379 4.4 158 19:42 03.11.2022
1178 Rain 10 1004 1 1831 2.49 147 18:27 03.11.2022
1179 Clouds 10 1004 1 1831 2.49 147 17:38 03.11.2022
1180 Rain 11 1005 1 6102 3.9 171 15:27 03.11.2022
1181 Clouds 11 1005 1 10000 4.63 178 13:37 03.11.2022
1182 Clouds 10 1005 1 8565 5.21 173 12:35 03.11.2022
1183 Clouds 10 1005 1 8673 5.2 173 11:41 03.11.2022
1184 Rain 9 1005 1 5373 5 157 07:49 03.11.2022
1185 Clouds 8 1007 1 10000 1.14 195 22:43 02.11.2022
1186 Clouds 8 1006 1 10000 1.83 185 20:56 02.11.2022
1187 Clouds 8 1006 1 10000 1.91 169 20:25 02.11.2022
1188 Clouds 9 1006 1 10000 1.25 148 18:42 02.11.2022
1189 Rain 9 1005 1 10000 1.33 147 16:28 02.11.2022
1190 Clouds 10 1005 1 10000 1.46 190 15:32 02.11.2022
1191 Rain 10 1005 1 10000 2.29 184 12:58 02.11.2022
1192 Rain 10 1005 1 10000 2.61 195 12:28 02.11.2022
1193 Rain 11 1004 1 10000 3.06 173 10:23 02.11.2022
1194 Clouds 11 1005 1 10000 3.54 174 08:38 02.11.2022
1195 Clouds 12 1006 1 8016 2.81 171 02:40 02.11.2022
1196 Clouds 12 1006 1 9141 4.19 178 22:21 01.11.2022
1197 Clouds 11 1006 1 9141 4.19 178 21:55 01.11.2022
1198 Rain 10 1006 1 10000 3.62 173 20:55 01.11.2022
1199 Rain 10 1006 1 10000 3.71 180 20:23 01.11.2022
1200 Rain 10 1005 1 8821 3.47 175 19:41 01.11.2022
1201 Clouds 10 1006 1 6310 3.53 146 18:26 01.11.2022
1202 Rain 10 1007 1 6022 3.78 113 16:28 01.11.2022
1203 Clouds 10 1008 1 10000 3.89 102 14:45 01.11.2022
1204 Clouds 10 1011 1 10000 1.93 98 12:57 01.11.2022
1205 Clouds 10 1012 1 10000 1.28 96 12:25 01.11.2022
1206 Clouds 9 1013 1 9147 0.93 92 11:20 01.11.2022
1207 Clouds 8 1014 1 10000 0.68 63 09:22 01.11.2022
1208 Clouds 8 1014 1 10000 0.56 24 07:51 01.11.2022
1209 Clouds 8 1014 1 10000 0.78 27 07:28 01.11.2022
1210 Clouds 8 1014 1 10000 0.78 13 06:45 01.11.2022
1211 Clouds 9 1015 1 10000 0.66 53 05:19 01.11.2022
1212 Clouds 9 1015 1 10000 0.32 92 22:44 31.10.2022
1213 Clouds 9 1015 1 10000 0.66 172 21:33 31.10.2022
1214 Clouds 9 1015 1 10000 0.81 174 19:57 31.10.2022
1215 Clouds 11 1015 1 10000 1.78 184 18:36 31.10.2022
1216 Clouds 12 1015 1 10000 1.86 186 16:44 31.10.2022
1217 Clouds 13 1014 1 10000 2.12 197 15:35 31.10.2022
1218 Clouds 13 1014 1 10000 2.18 207 12:30 31.10.2022
1219 Clouds 10 1014 1 10000 1.68 197 09:36 31.10.2022
1220 Clouds 10 1013 1 8500 1.88 201 07:35 31.10.2022
1221 Clouds 8 1012 1 8158 1.4 206 02:46 31.10.2022
1222 Clouds 7 1012 1 10000 1.26 116 01:48 31.10.2022
1223 Clouds 7 1014 1 10000 0.54 159 22:20 30.10.2022
1224 Clouds 7 1014 1 10000 0.8 143 20:39 30.10.2022
1225 Clouds 7 1015 1 10000 0.55 168 19:36 30.10.2022
1226 Rain 7 1015 1 10000 0.69 158 16:37 30.10.2022
1227 Clouds 7 1015 1 10000 0.56 168 14:34 30.10.2022
1228 Clear 5 1015 74 10000 0.44 158 13:50 30.10.2022
1229 Clear 4 1016 75 10000 0.38 152 12:24 30.10.2022
1230 Clear 6 1015 1 10000 0.72 21 10:25 30.10.2022
1231 Clear 4 1015 1 10000 0.98 18 09:24 30.10.2022
1232 Clear 3 1016 1 10000 1.1 16 07:55 30.10.2022
1233 Clear 6 1013 1 10000 1.25 338 00:29 30.10.2022
1234 Clear 6 1013 9 10000 1.25 337 23:47 29.10.2022
1235 Clear 8 1012 28 10000 1.4 335 21:57 29.10.2022
1236 Clear 10 1010 47 10000 0.92 259 19:38 29.10.2022
1237 Clear 13 1009 44 10000 1.89 236 17:23 29.10.2022
1238 Clear 14 1008 47 10000 3.2 247 15:39 29.10.2022
1239 Clear 14 1008 49 10000 3.7 241 14:54 29.10.2022
1240 Clouds 14 1007 43 10000 3.9 236 13:45 29.10.2022
1241 Clouds 12 1007 13 10000 3.32 237 12:32 29.10.2022
1242 Clouds 10 1006 1 10000 2.47 221 09:32 29.10.2022
1243 Clouds 10 1005 1 10000 3.36 233 06:51 29.10.2022
1244 Clouds 11 1004 1 10000 4.19 246 05:54 29.10.2022
1245 Rain 12 1005 1 141 3.29 180 23:44 28.10.2022
1246 Rain 12 1007 1 4365 2 186 21:37 28.10.2022
1247 Clouds 12 1008 1 10000 1.48 196 20:45 28.10.2022
1248 Clouds 12 1008 1 10000 1.48 196 18:39 28.10.2022
1249 Clouds 12 1009 1 10000 1.17 199 18:20 28.10.2022
1250 Clouds 12 1010 1 10000 1.95 206 15:28 28.10.2022
1251 Clouds 12 1011 1 10000 1.24 213 13:44 28.10.2022
1252 Clouds 12 1012 1 10000 0.66 231 11:56 28.10.2022
1253 Clouds 12 1012 1 10000 0.66 231 11:33 28.10.2022
1254 Clouds 12 1012 1 10000 1.07 244 10:45 28.10.2022
1255 Clouds 11 1012 1 10000 0.6 270 09:44 28.10.2022
1256 Clouds 11 1012 1 10000 1.05 253 07:51 28.10.2022
1257 Clouds 11 1013 1 10000 1.67 203 02:58 28.10.2022
1258 Clouds 10 1014 1 10000 1.49 200 23:47 27.10.2022
1259 Clouds 10 1014 1 10000 1.66 196 22:37 27.10.2022
1260 Clouds 11 1014 1 10000 1.69 190 21:21 27.10.2022
1261 Clouds 11 1014 1 10000 2.11 195 18:33 27.10.2022
1262 Clouds 12 1014 1 10000 2.41 201 17:26 27.10.2022
1263 Clouds 12 1014 1 10000 2.03 205 13:32 27.10.2022
1264 Clouds 10 1013 1 10000 2.14 200 08:58 27.10.2022
1265 Clouds 8 1012 99 157 1.69 157 02:59 27.10.2022
1266 Clouds 6 1014 1 5031 0.8 164 23:54 26.10.2022
1267 Rain 6 1014 1 10000 1.11 150 22:46 26.10.2022
1268 Clouds 6 1014 1 10000 1.12 163 21:56 26.10.2022
1269 Clouds 6 1013 1 10000 0.93 179 18:42 26.10.2022
1270 Clouds 6 1013 89 10000 0.93 191 16:31 26.10.2022
1271 Clouds 5 1012 80 10000 0.51 79 13:35 26.10.2022
1272 Clouds 4 1012 83 10000 0.34 345 12:36 26.10.2022
1273 Clouds 4 1011 1 10000 1.13 338 09:31 26.10.2022
1274 Clouds 4 1011 1 10000 1.13 338 08:53 26.10.2022
1275 Clouds 4 1010 1 10000 1.06 348 08:22 26.10.2022
1276 Clouds 5 1008 1 10000 0.55 287 00:45 26.10.2022
1277 Clouds 5 1008 1 10000 0.68 295 00:20 26.10.2022
1278 Clouds 6 1007 1 10000 0.69 308 21:47 25.10.2022
1279 Clouds 7 1006 1 10000 0.65 310 20:50 25.10.2022
1280 Clouds 8 1005 1 10000 0.68 302 18:59 25.10.2022
1281 Clouds 9 1005 1 10000 0.76 301 17:51 25.10.2022
1282 Clouds 9 1003 1 10000 1.37 299 13:57 25.10.2022
1283 Rain 9 1002 1 10000 2.07 343 11:38 25.10.2022
1284 Rain 9 1002 1 10000 2.07 343 10:37 25.10.2022
1285 Rain 8 1001 1 10000 2.34 351 08:44 25.10.2022
1286 Rain 8 1001 1 10000 2.52 359 08:18 25.10.2022
1287 Rain 8 1001 1 10000 2.52 359 07:54 25.10.2022
1288 Clouds 8 1001 1 10000 2.91 3 06:55 25.10.2022
1289 Clouds 8 1001 1 10000 2.92 13 03:41 25.10.2022
1290 Rain 8 1002 1 10000 3.15 19 00:34 25.10.2022
1291 Rain 8 1003 1 7332 3.55 27 23:21 24.10.2022
1292 Rain 8 1003 1 4521 3.29 19 22:18 24.10.2022
1293 Rain 8 1004 1 4704 3.23 30 21:32 24.10.2022
1294 Clouds 7 1003 1 8748 3.59 33 20:41 24.10.2022
1295 Rain 7 1004 1 8277 3.59 40 18:52 24.10.2022
1296 Rain 7 1005 1 6428 3.13 41 17:35 24.10.2022
1297 Rain 7 1005 1 6428 3.13 41 16:32 24.10.2022
1298 Rain 7 1007 1 10000 2.93 31 14:22 24.10.2022
1299 Rain 7 1008 1 10000 2.67 31 13:26 24.10.2022
1300 Clouds 6 1010 1 10000 2.33 39 10:40 24.10.2022
1301 Clouds 5 1010 1 10000 2.02 25 07:57 24.10.2022
1302 Clouds 5 1012 1 10000 1.25 37 00:49 24.10.2022
1303 Clouds 4 1013 1 10000 0.88 42 20:42 23.10.2022
1304 Clouds 4 1012 1 10000 0.94 36 19:41 23.10.2022
1305 Clouds 4 1012 1 10000 0.74 63 17:30 23.10.2022
1306 Clouds 4 1012 1 10000 0.74 63 16:51 23.10.2022
1307 Clouds 5 1012 69 10000 0.98 70 15:19 23.10.2022
1308 Clouds 4 1012 1 10000 1.11 42 12:50 23.10.2022
1309 Clouds 3 1012 1 10000 0.76 30 10:58 23.10.2022
1310 Clouds 2 1011 1 10000 1.35 26 06:59 23.10.2022
1311 Clouds 2 1012 1 10000 0.37 301 23:37 22.10.2022
1312 Clouds 3 1011 1 10000 0.82 336 22:31 22.10.2022
1313 Clouds 3 1011 1 10000 0.82 336 21:41 22.10.2022
1314 Clouds 3 1011 1 10000 0.47 284 20:30 22.10.2022
1315 Clouds 4 1011 1 10000 0.47 321 19:31 22.10.2022
1316 Clouds 5 1011 1 10000 0.47 321 18:45 22.10.2022
1317 Clouds 7 1010 1 10000 0.96 197 17:27 22.10.2022
1318 Clouds 7 1010 1 10000 0.37 271 15:26 22.10.2022
1319 Clouds 7 1010 1 10000 0.24 243 14:36 22.10.2022
1320 Clouds 7 1011 1 10000 0.18 303 12:42 22.10.2022
1321 Clouds 5 1011 1 10000 0.66 32 09:50 22.10.2022
1322 Clouds 5 1011 1 10000 1.06 14 08:51 22.10.2022
1323 Clouds 5 1012 1 10000 0.58 83 06:30 22.10.2022
1324 Clouds 4 1013 1 10000 0.99 17 01:53 22.10.2022
1325 Clouds 4 1014 1 10000 1.44 20 23:33 21.10.2022
1326 Clouds 4 1014 1 10000 1.59 14 21:34 21.10.2022
1327 Clouds 4 1014 1 10000 1.59 14 20:49 21.10.2022
1328 Clouds 4 1015 1 10000 1.44 17 18:32 21.10.2022
1329 Clouds 5 1015 1 10000 1.57 40 14:47 21.10.2022
1330 Clouds 5 1016 1 10000 1.29 27 13:53 21.10.2022
1331 Clouds 4 1016 1 10000 1.31 40 11:56 21.10.2022
1332 Clouds 4 1016 1 10000 1.6 21 10:27 21.10.2022
1333 Clouds 3 1017 1 10000 1.57 24 09:37 21.10.2022
1334 Clouds 3 1017 1 10000 1.4 29 08:26 21.10.2022
1335 Clouds 4 1018 1 10000 1.63 18 05:57 21.10.2022
1336 Clouds 5 1020 1 10000 1.16 29 23:59 20.10.2022
1337 Clouds 5 1019 1 10000 0.93 16 21:50 20.10.2022
1338 Clouds 5 1019 1 10000 0.21 277 20:18 20.10.2022
1339 Clouds 5 1019 89 10000 0.36 304 19:30 20.10.2022
1340 Clouds 5 1020 1 10000 0.82 234 17:51 20.10.2022
1341 Clouds 5 1020 1 10000 1.69 208 16:22 20.10.2022
1342 Clouds 4 1021 80 10000 0.83 170 12:36 20.10.2022
1343 Clouds 4 1022 1 10000 0.51 126 12:18 20.10.2022
1344 Clouds 4 1022 1 10000 0.51 126 12:18 20.10.2022
1345 Clouds 3 1022 1 10000 0.35 87 10:56 20.10.2022
1346 Clouds 3 1023 1 10000 0.46 25 10:24 20.10.2022
1347 Clouds 2 1023 1 10000 0.97 17 07:44 20.10.2022
1348 Clear 2 1024 1 10000 0.74 3 04:29 20.10.2022
1349 Clear 2 1025 1 10000 0.64 337 00:20 20.10.2022
1350 Clear 2 1026 1 10000 0.8 359 22:35 19.10.2022
1351 Clear 2 1026 1 10000 0.82 353 21:48 19.10.2022
1352 Clear 3 1026 1 10000 0.83 341 20:40 19.10.2022
1353 Clouds 6 1026 1 10000 1.11 224 17:55 19.10.2022
1354 Clouds 8 1026 22 10000 1.33 206 16:58 19.10.2022
1355 Clouds 10 1027 45 10000 1.6 213 15:23 19.10.2022
1356 Clouds 7 1028 1 10000 1.11 217 12:45 19.10.2022
1357 Clear 1 1029 1 10000 0.54 310 09:26 19.10.2022
1358 Clear 1 1028 1 10000 0.59 322 07:51 19.10.2022
1359 Clear 2 1027 1 10000 0.66 343 03:49 19.10.2022
1360 Clouds 4 1026 1 10000 1.52 16 00:25 19.10.2022
1361 Clouds 5 1025 1 10000 1.6 18 22:46 18.10.2022
1362 Clouds 5 1024 1 10000 1.53 12 21:36 18.10.2022
1363 Rain 6 1023 1 10000 2.12 1 20:35 18.10.2022
1364 Rain 7 1022 1 10000 2.07 350 19:27 18.10.2022
1365 Clouds 10 1020 1 10000 1.78 344 17:20 18.10.2022
1366 Clear 11 1019 1 10000 2.41 350 16:19 18.10.2022
1367 Clouds 9 1018 1 10000 3.16 356 13:57 18.10.2022
1368 Clouds 9 1017 1 10000 2.44 343 12:21 18.10.2022
1369 Clouds 8 1017 1 10000 2.04 343 11:19 18.10.2022
1370 Clouds 7 1016 1 10000 1.58 347 09:27 18.10.2022
1371 Rain 7 1015 1 10000 2.12 1 07:43 18.10.2022
1372 Clouds 6 1015 1 10000 0.43 251 00:49 18.10.2022
1373 Rain 7 1016 1 10000 0.76 286 21:50 17.10.2022
1374 Clouds 7 1016 1 10000 0.5 15 20:50 17.10.2022
1375 Clouds 7 1016 1 10000 1.02 35 20:30 17.10.2022
1376 Clouds 7 1016 1 10000 1.02 35 19:50 17.10.2022
1377 Rain 7 1016 1 10000 1.28 20 18:42 17.10.2022
1378 Rain 7 1017 1 9571 0.26 153 16:38 17.10.2022
1379 Rain 8 1017 1 10000 0.7 246 15:29 17.10.2022
1380 Rain 7 1017 1 10000 0.24 241 13:59 17.10.2022
1381 Clouds 6 1016 1 10000 1.1 311 10:29 17.10.2022
1382 Clear 7 1012 1 10000 1.57 228 03:55 17.10.2022
1383 Clouds 7 1005 1 10000 2.42 215 23:24 16.10.2022
1384 Clouds 7 1003 1 10000 3.39 213 21:46 16.10.2022
1385 Clouds 7 1002 1 10000 4.51 218 20:33 16.10.2022
1386 Clouds 7 1002 1 10000 4.51 218 19:45 16.10.2022
1387 Clouds 8 999 1 10000 4.5 215 17:50 16.10.2022
1388 Clouds 8 999 1 10000 3.42 206 16:32 16.10.2022
1389 Rain 8 998 1 10000 2.65 207 15:56 16.10.2022
1390 Rain 9 999 1 10000 2.92 159 14:23 16.10.2022
1391 Rain 8 1000 1 10000 2.67 176 12:21 16.10.2022
1392 Clouds 7 1001 1 10000 0.98 161 10:27 16.10.2022
1393 Clouds 5 1001 1 10000 1.1 206 08:35 16.10.2022
1394 Rain 9 998 1 10000 0.76 234 23:50 15.10.2022
1395 Rain 9 998 1 6692 3.32 108 22:38 15.10.2022
1396 Rain 9 1000 1 10000 2.37 99 21:23 15.10.2022
1397 Clouds 9 1001 1 10000 1.52 127 20:23 15.10.2022
1398 Clouds 10 1001 1 10000 1.96 143 18:26 15.10.2022
1399 Clouds 13 1001 9 10000 1.79 159 15:46 15.10.2022
1400 Clouds 13 1001 39 10000 1.87 208 14:22 15.10.2022
1401 Clouds 12 1000 1 10000 2.53 212 11:54 15.10.2022
1402 Clouds 10 999 1 10000 2.91 204 10:31 15.10.2022
1403 Clouds 9 998 1 10000 4.23 184 08:31 15.10.2022
1404 Clouds 9 1001 1 10000 4.94 161 01:55 15.10.2022
1405 Clouds 9 1004 1 10000 4.83 178 23:31 14.10.2022
1406 Clouds 9 1004 1 10000 4.83 178 23:31 14.10.2022
1407 Clouds 10 1004 1 10000 4.51 175 22:23 14.10.2022
1408 Clouds 10 1005 1 10000 3.87 185 21:28 14.10.2022
1409 Clouds 10 1005 1 10000 3.58 185 19:44 14.10.2022
1410 Clouds 10 1006 1 10000 3.9 196 16:26 14.10.2022
1411 Clouds 11 1007 1 10000 3.09 180 13:26 14.10.2022
1412 Clouds 10 1007 1 10000 2.47 173 12:18 14.10.2022
1413 Clouds 9 1008 1 10000 0.99 145 09:29 14.10.2022
1414 Clouds 9 1008 99 8658 0.45 124 06:55 14.10.2022
1415 Clouds 9 1009 98 8904 0.64 134 06:18 14.10.2022
1416 Clouds 9 1009 1 8924 0.64 134 05:42 14.10.2022
1417 Clouds 9 1009 1 10000 0.8 138 03:43 14.10.2022
1418 Clouds 10 1010 1 10000 0.84 194 23:54 13.10.2022
1419 Clouds 10 1010 1 10000 1.27 202 22:22 13.10.2022
1420 Rain 11 1010 1 10000 1.38 185 21:25 13.10.2022
1421 Rain 11 1009 1 10000 1.37 181 19:43 13.10.2022
1422 Clouds 11 1010 1 10000 1.3 175 19:18 13.10.2022
1423 Clouds 11 1010 1 10000 1.3 175 18:41 13.10.2022
1424 Clouds 10 1010 1 10000 2.38 187 16:31 13.10.2022
1425 Clouds 10 1010 1 10000 2.38 187 15:43 13.10.2022
1426 Rain 10 1010 1 7574 2.91 195 14:18 13.10.2022
1427 Rain 10 1010 1 2489 2.23 194 12:49 13.10.2022
1428 Rain 11 1011 1 6866 2.26 189 11:35 13.10.2022
1429 Rain 11 1012 1 10000 3.8 189 09:37 13.10.2022
1430 Rain 10 1012 1 10000 4.27 198 07:39 13.10.2022
1431 Rain 10 1013 1 10000 4.24 205 06:29 13.10.2022
1432 Clouds 11 1014 1 10000 4.41 201 01:47 13.10.2022
1433 Clouds 11 1014 1 10000 4.03 200 00:53 13.10.2022
1434 Rain 11 1015 1 10000 3.74 198 22:46 12.10.2022
1435 Clouds 11 1015 1 10000 3.06 194 21:55 12.10.2022
1436 Clouds 11 1015 1 10000 3.11 197 21:20 12.10.2022
1437 Clouds 11 1015 1 10000 3.11 196 20:51 12.10.2022
1438 Clouds 10 1016 1 10000 2.69 195 19:26 12.10.2022
1439 Clouds 11 1016 1 10000 2.16 196 18:19 12.10.2022
1440 Clouds 11 1016 1 10000 2.15 196 17:45 12.10.2022
1441 Clouds 11 1017 23 10000 2.13 197 14:52 12.10.2022
1442 Clouds 11 1018 40 10000 1.91 188 13:55 12.10.2022
1443 Clouds 10 1018 25 10000 1.55 178 12:34 12.10.2022
1444 Clouds 4 1019 1 10000 0.02 307 09:37 12.10.2022
1445 Clear 2 1019 1 10000 1.09 342 07:42 12.10.2022
1446 Clear 2 1018 1 10000 0.93 349 06:45 12.10.2022
1447 Clear 2 1018 1 10000 1.04 344 06:22 12.10.2022
1448 Clear 4 1017 16 10000 1.05 299 00:55 12.10.2022
1449 Clear 6 1016 43 10000 0.96 274 21:59 11.10.2022
1450 Clear 7 1016 47 10000 1.19 262 20:38 11.10.2022
1451 Clear 9 1014 55 10000 1.2 257 18:28 11.10.2022
1452 Clear 13 1013 47 10000 1.73 277 16:37 11.10.2022
1453 Clear 13 1012 47 10000 4.16 293 14:34 11.10.2022
1454 Clear 10 1010 52 10000 4.08 286 11:52 11.10.2022
1455 Clear 9 1009 42 10000 4.03 271 10:28 11.10.2022
1456 Clear 7 1008 32 10000 3.75 269 09:26 11.10.2022
1457 Clouds 6 1005 1 10000 4.04 270 05:36 11.10.2022
1458 Clouds 6 1004 1 10000 1.86 228 02:19 11.10.2022
1459 Clouds 6 1004 1 10000 1.68 228 00:29 11.10.2022
1460 Clouds 8 1003 1 10000 1.52 220 21:24 10.10.2022
1461 Clouds 9 1002 1 10000 1.96 213 19:46 10.10.2022
1462 Clouds 9 1002 1 10000 1.96 213 19:46 10.10.2022
1463 Clouds 9 1002 1 10000 1.96 213 19:46 10.10.2022
1464 Rain 11 1002 1 6716 3.57 193 18:30 10.10.2022
1465 Rain 12 1003 1 10000 5.09 179 16:51 10.10.2022
1466 Clouds 12 1004 1 10000 6.03 182 15:20 10.10.2022
1467 Clouds 12 1006 1 10000 5.5 187 12:43 10.10.2022
1468 Clouds 12 1006 1 10000 5.91 189 11:56 10.10.2022
1469 Clouds 11 1008 1 10000 5.82 188 08:45 10.10.2022
1470 Clouds 11 1009 1 10000 5.72 193 05:42 10.10.2022
1471 Clouds 11 1010 1 10000 6.61 204 03:48 10.10.2022
1472 Rain 11 1012 1 10000 4.45 202 00:31 10.10.2022
1473 Clouds 11 1013 1 10000 4.85 209 22:37 09.10.2022
1474 Clouds 11 1013 1 10000 5.32 205 22:18 09.10.2022
1475 Clouds 11 1013 1 10000 5.44 203 21:21 09.10.2022
1476 Clouds 12 1013 1 10000 5.05 198 19:59 09.10.2022
1477 Clouds 12 1013 1 10000 5.05 198 19:34 09.10.2022
1478 Clouds 12 1013 1 10000 4.73 197 18:39 09.10.2022
1479 Clouds 13 1013 15 10000 4.86 205 16:56 09.10.2022
1480 Clouds 14 1014 41 10000 4.3 211 16:33 09.10.2022
1481 Clouds 13 1014 47 10000 4.3 211 15:37 09.10.2022
1482 Clouds 13 1014 50 10000 3.72 207 14:31 09.10.2022
1483 Clouds 12 1014 51 10000 2.9 201 13:23 09.10.2022
1484 Clouds 12 1015 51 10000 2.26 203 12:22 09.10.2022
1485 Clouds 9 1015 14 10000 1.86 209 10:48 09.10.2022
1486 Clouds 6 1015 3 10000 1.27 208 08:30 09.10.2022
1487 Clouds 6 1014 3 10000 1.26 205 08:30 09.10.2022
1488 Clouds 5 1013 26 10000 0.92 253 03:38 09.10.2022
1489 Clouds 5 1013 20 10000 1.31 268 02:50 09.10.2022
1490 Clouds 7 1012 44 10000 1.23 267 00:34 09.10.2022
1491 Clouds 8 1011 56 10000 1.4 270 22:56 08.10.2022
1492 Clouds 10 1010 55 10000 1.51 272 21:50 08.10.2022
1493 Clear 9 1008 53 10000 1.44 268 20:27 08.10.2022
1494 Clouds 10 1007 55 10000 1.79 265 18:56 08.10.2022
1495 Clear 14 1005 49 10000 2.32 259 16:52 08.10.2022
1496 Clear 14 1004 49 10000 3.64 282 14:55 08.10.2022
1497 Clouds 14 1003 48 10000 3.9 281 13:30 08.10.2022
1498 Clouds 11 1002 46 10000 2.54 251 10:40 08.10.2022
1499 Clouds 10 1002 42 10000 1.96 232 10:21 08.10.2022
1500 Clouds 6 1002 1 10000 1.45 218 08:48 08.10.2022
1501 Clear 7 1000 1 10000 2.05 207 03:59 08.10.2022
1502 Clouds 10 1000 1 10000 2.33 204 00:43 08.10.2022
1503 Clouds 11 1000 1 10000 3.14 205 23:27 07.10.2022
1504 Clouds 11 1000 1 10000 3.14 205 22:56 07.10.2022
1505 Clouds 11 1000 1 10000 4.1 211 21:38 07.10.2022
1506 Clouds 12 1000 1 10000 4.86 210 19:44 07.10.2022
1507 Clouds 13 1000 1 10000 5.78 210 17:53 07.10.2022
1508 Clouds 13 1000 1 10000 6.37 209 16:42 07.10.2022
1509 Clouds 14 1001 1 10000 6.7 201 15:21 07.10.2022
1510 Clouds 15 1001 1 10000 7.14 205 13:55 07.10.2022
1511 Clouds 14 1002 1 10000 7.03 208 11:28 07.10.2022
1512 Rain 14 1003 1 10000 7.11 201 09:25 07.10.2022
1513 Rain 13 1004 1 10000 7.01 200 08:20 07.10.2022
1514 Clouds 10 1009 1 10000 3.88 198 02:29 07.10.2022
1515 Clouds 9 1009 1 10000 4.84 231 22:53 06.10.2022
1516 Clouds 11 1008 68 10000 4.98 227 21:52 06.10.2022
1517 Clouds 10 1008 18 10000 5.11 230 21:30 06.10.2022
1518 Clouds 10 1008 40 10000 5.11 230 20:38 06.10.2022
1519 Clouds 13 1006 54 10000 5.84 235 18:56 06.10.2022
1520 Clouds 13 1005 54 10000 6.22 234 18:31 06.10.2022
1521 Clouds 14 1004 51 10000 6.81 223 15:38 06.10.2022
1522 Clouds 11 1004 22 10000 5.52 239 12:49 06.10.2022
1523 Clouds 9 1000 1 10000 3.88 211 08:51 06.10.2022
1524 Clouds 10 998 1 10000 2.33 214 04:37 06.10.2022
1525 Clouds 13 994 1 10000 3.27 239 00:50 06.10.2022
1526 Rain 14 993 1 7752 5.31 205 21:54 05.10.2022
1527 Rain 14 993 1 6947 6.78 192 19:44 05.10.2022
1528 Rain 14 994 1 932 6.84 190 17:37 05.10.2022
1529 Clouds 14 994 1 493 6.55 188 16:40 05.10.2022
1530 Clouds 14 996 1 249 5.55 184 14:57 05.10.2022
1531 Clouds 14 997 1 759 4.89 175 14:23 05.10.2022
1532 Rain 14 998 1 143 4.38 183 12:43 05.10.2022
1533 Rain 14 999 1 7707 3.64 178 11:38 05.10.2022
1534 Clouds 13 1001 1 10000 2.65 184 08:23 05.10.2022
1535 Clouds 13 1001 1 9719 2.28 184 06:36 05.10.2022
1536 Clouds 14 1001 1 10000 2.53 190 05:31 05.10.2022
1537 Clouds 14 1002 1 10000 5.24 201 02:29 05.10.2022
1538 Clouds 14 1003 1 10000 5.37 192 00:28 05.10.2022
1539 Rain 14 1004 1 10000 4.96 194 23:21 04.10.2022
1540 Clouds 13 1005 1 10000 4.92 184 21:22 04.10.2022
1541 Rain 13 1006 1 10000 4.92 192 19:49 04.10.2022
1542 Rain 13 1006 1 10000 4.69 191 18:51 04.10.2022
1543 Rain 13 1007 1 10000 5.02 194 17:53 04.10.2022
1544 Clouds 13 1007 1 10000 5.21 202 16:56 04.10.2022
1545 Rain 11 1009 1 10000 3.55 183 14:29 04.10.2022
1546 Clouds 7 1012 90 10000 1.75 158 10:23 04.10.2022
1547 Clouds 6 1013 1 10000 0.71 122 07:50 04.10.2022
1548 Clouds 5 1015 1 10000 0.76 148 04:43 04.10.2022
1549 Clouds 6 1017 1 10000 0.31 159 23:49 03.10.2022
1550 Clouds 7 1018 1 10000 0.55 213 22:28 03.10.2022
1551 Clouds 8 1018 1 10000 0.44 218 21:27 03.10.2022
1552 Clouds 9 1018 1 10000 0.44 218 20:35 03.10.2022
1553 Clear 11 1018 1 10000 0.5 117 18:52 03.10.2022
1554 Clear 14 1017 38 10000 0.31 35 17:32 03.10.2022
1555 Clear 17 1017 51 10000 0.87 359 15:59 03.10.2022
1556 Clear 16 1017 50 10000 1.59 11 14:26 03.10.2022
1557 Clear 14 1017 31 10000 1.99 3 12:36 03.10.2022
1558 Clear 10 1017 1 10000 1.69 337 10:59 03.10.2022
1559 Clear 8 1016 1 10000 1.5 335 09:52 03.10.2022
1560 Clear 5 1016 1 10000 1.5 327 08:46 03.10.2022
1561 Clear 5 1013 1 10000 1.06 312 04:41 03.10.2022
1562 Clouds 7 1011 1 10000 0.7 305 23:27 02.10.2022
1563 Clouds 8 1011 1 10000 0.71 302 21:58 02.10.2022
1564 Clouds 10 1010 1 10000 0.5 306 19:50 02.10.2022
1565 Clouds 12 1008 1 10000 0.4 1 17:56 02.10.2022
1566 Clouds 13 1008 1 10000 0.5 352 16:56 02.10.2022
1567 Clouds 13 1007 1 10000 0.63 342 16:32 02.10.2022
1568 Clouds 13 1007 1 10000 0.63 341 15:34 02.10.2022
1569 Clouds 12 1006 93 10000 0.62 9 13:46 02.10.2022
1570 Clouds 11 1006 1 10000 0.65 29 12:42 02.10.2022
1571 Clouds 11 1005 1 10000 0.7 27 11:53 02.10.2022
1572 Rain 11 1005 1 10000 0.7 27 11:33 02.10.2022
1573 Clouds 10 1004 1 10000 0.92 38 10:19 02.10.2022
1574 Clouds 9 1003 1 10000 1.33 20 08:30 02.10.2022
1575 Clouds 9 1003 1 10000 1.33 20 08:30 02.10.2022
1576 Rain 9 1001 1 10000 1.38 34 05:21 02.10.2022
1577 Rain 9 1001 1 10000 1.12 50 01:20 02.10.2022
1578 Clouds 9 1001 1 10000 1.12 50 00:38 02.10.2022
1579 Clouds 9 1000 1 10000 1.12 66 23:28 01.10.2022
1580 Rain 10 1000 1 10000 1.19 64 21:48 01.10.2022
1581 Clouds 11 999 1 10000 1.11 73 18:54 01.10.2022
1582 Rain 11 999 1 10000 1.21 126 17:46 01.10.2022
1583 Rain 11 999 89 10000 2.92 152 15:32 01.10.2022
1584 Rain 11 999 1 10000 3.15 149 14:18 01.10.2022
1585 Rain 11 999 1 10000 3.53 144 12:34 01.10.2022
1586 Rain 11 999 1 10000 3.85 143 11:23 01.10.2022
1587 Rain 11 999 1 10000 3.85 143 10:53 01.10.2022
1588 Rain 11 999 1 10000 3.55 142 10:30 01.10.2022
1589 Rain 10 999 1 10000 3.34 145 09:25 01.10.2022
1590 Rain 10 999 1 10000 3.29 140 08:27 01.10.2022
1591 Clouds 10 1001 1 10000 2 128 03:47 01.10.2022
1592 Clouds 10 1001 1 10000 2.36 142 03:18 01.10.2022
1593 Clouds 10 1003 1 10000 2.02 109 23:21 30.09.2022
1594 Clouds 9 1004 1 10000 1.82 91 22:19 30.09.2022
1595 Clouds 10 1004 1 10000 1.51 75 20:57 30.09.2022
1596 Clouds 9 1004 1 10000 1.51 75 20:30 30.09.2022
1597 Clouds 10 1005 19 10000 1.07 129 18:45 30.09.2022
1598 Clouds 12 1006 27 10000 2.54 188 16:55 30.09.2022
1599 Clouds 12 1007 1 10000 2.77 174 14:49 30.09.2022
1600 Clouds 10 1008 1 10000 2.82 181 12:51 30.09.2022
1601 Clouds 9 1009 64 10000 2.02 176 11:56 30.09.2022
1602 Clouds 6 1010 1 10000 0.62 120 09:25 30.09.2022
1603 Clouds 5 1010 1 10000 0.49 94 07:58 30.09.2022
1604 Clouds 5 1010 1 10000 0.76 317 04:21 30.09.2022
1605 Clouds 5 1010 1 10000 0.86 318 02:21 30.09.2022
1606 Clouds 7 1010 1 10000 1.54 329 21:53 29.09.2022
1607 Clouds 8 1009 1 10000 1.53 334 21:24 29.09.2022
1608 Clouds 8 1009 1 10000 1.53 28 19:58 29.09.2022
1609 Clouds 10 1009 1 10000 2.48 31 18:30 29.09.2022
1610 Clouds 11 1008 25 10000 3.23 20 16:29 29.09.2022
1611 Clouds 12 1008 30 10000 3.23 20 15:37 29.09.2022
1612 Clouds 12 1009 32 10000 3.41 18 14:59 29.09.2022
1613 Clouds 10 1009 1 10000 3.64 32 12:45 29.09.2022
1614 Clouds 7 1009 1 10000 2.89 14 08:47 29.09.2022
1615 Clouds 8 1009 1 10000 3.32 23 04:46 29.09.2022
1616 Clouds 8 1008 1 10000 3.23 28 02:37 29.09.2022
1617 Clouds 9 1008 1 10000 3.83 37 23:29 28.09.2022
1618 Clouds 10 1008 1 10000 3.96 36 22:22 28.09.2022
1619 Clouds 11 1007 1 10000 4.22 36 21:25 28.09.2022
1620 Clouds 11 1007 1 10000 4.2 34 19:57 28.09.2022
1621 Clouds 14 1005 3 10000 4.88 46 16:52 28.09.2022
1622 Clouds 13 1005 1 10000 4.99 51 14:35 28.09.2022
1623 Clouds 14 1005 1 10000 4.58 58 12:31 28.09.2022
1624 Clouds 12 1004 1 10000 4.58 70 10:22 28.09.2022
1625 Rain 11 1003 1 10000 4.43 60 07:53 28.09.2022
1626 Clouds 11 1002 1 10000 4.02 55 06:27 28.09.2022
1627 Clouds 10 1002 1 10000 3.41 51 01:50 28.09.2022
1628 Clouds 10 1002 1 10000 3.38 59 01:25 28.09.2022
1629 Clouds 11 1002 1 10000 3.59 58 22:49 27.09.2022
1630 Clouds 11 1001 1 10000 3.34 53 21:24 27.09.2022
1631 Clouds 11 1001 1 10000 3.34 53 20:36 27.09.2022
1632 Clouds 11 1001 1 10000 3.81 54 19:47 27.09.2022
1633 Clouds 12 1000 1 10000 3.23 56 17:55 27.09.2022
1634 Clouds 12 1000 1 10000 3.23 56 17:32 27.09.2022
1635 Rain 12 999 1 10000 4.3 89 15:24 27.09.2022
1636 Clouds 12 999 1 10000 4.3 89 14:33 27.09.2022
1637 Clouds 11 997 1 9292 4.14 99 12:39 27.09.2022
1638 Clouds 11 997 1 9292 4.14 99 12:39 27.09.2022
1639 Clouds 11 996 1 7771 4.05 97 10:49 27.09.2022
1640 Rain 10 995 1 10000 4.32 109 08:46 27.09.2022
1641 Rain 10 993 1 4855 4.96 104 05:49 27.09.2022
1642 Rain 11 992 1 10000 5.02 123 01:43 27.09.2022
1643 Rain 11 992 1 7179 5.03 125 00:50 27.09.2022
1644 Rain 11 992 1 2814 4.57 126 23:25 26.09.2022
1645 Rain 11 992 1 4787 4.46 114 22:19 26.09.2022
1646 Rain 11 992 1 4192 4.16 110 20:27 26.09.2022
1647 Rain 10 992 1 4669 4.17 116 19:24 26.09.2022
1648 Rain 10 992 1 4669 4.17 116 18:30 26.09.2022
1649 Rain 10 993 1 7874 4.42 113 15:52 26.09.2022
1650 Rain 10 994 1 10000 3.81 114 13:27 26.09.2022
1651 Rain 9 995 1 10000 3.19 127 11:29 26.09.2022
1652 Rain 9 995 1 10000 3 131 10:37 26.09.2022
1653 Rain 9 995 1 10000 3 131 10:19 26.09.2022
1654 Rain 9 995 1 10000 3 131 09:53 26.09.2022
1655 Rain 9 995 1 10000 2.49 125 09:22 26.09.2022
1656 Rain 8 996 1 6863 3.16 161 06:21 26.09.2022
1657 Rain 10 997 1 4918 3.78 185 02:41 26.09.2022
1658 Clouds 11 1000 1 10000 3.07 205 23:26 25.09.2022
1659 Clouds 11 1000 1 10000 3.21 185 21:48 25.09.2022
1660 Clouds 11 1001 1 10000 3.36 178 21:25 25.09.2022
1661 Clouds 11 1000 1 10000 3.39 182 20:38 25.09.2022
1662 Rain 11 1003 1 10000 3.8 182 19:30 25.09.2022
1663 Clouds 12 1003 1 10000 4.12 178 18:34 25.09.2022
1664 Clouds 13 1003 1 10000 4.12 178 17:41 25.09.2022
1665 Clouds 14 1005 38 10000 3.75 186 16:22 25.09.2022
1666 Clouds 14 1005 14 10000 3.75 186 15:35 25.09.2022
1667 Clouds 14 1007 19 10000 2.44 197 14:20 25.09.2022
1668 Clear 13 1009 1 10000 1.86 192 12:44 25.09.2022
1669 Clear 8 1011 1 10000 0.2 98 10:20 25.09.2022
1670 Clear 6 1013 1 10000 1.1 351 07:47 25.09.2022
1671 Clear 7 1013 1 10000 1.07 33 05:31 25.09.2022
1672 Clouds 8 1015 1 10000 1.81 342 00:36 25.09.2022
1673 Clouds 9 1014 1 10000 1.79 358 22:34 24.09.2022
1674 Clouds 9 1014 1 10000 1.93 359 20:45 24.09.2022
1675 Clouds 12 1015 86 10000 2 356 19:21 24.09.2022
1676 Clouds 14 1014 1 10000 3.06 1 16:59 24.09.2022
1677 Clouds 14 1014 1 10000 3.03 2 16:23 24.09.2022
1678 Clouds 15 1014 1 10000 2.86 6 15:19 24.09.2022
1679 Clouds 14 1013 1 10000 2.74 3 13:23 24.09.2022
1680 Clouds 14 1013 1 10000 2.74 3 12:40 24.09.2022
1681 Clouds 11 1013 1 10000 2.43 4 10:19 24.09.2022
1682 Clouds 10 1013 1 10000 1.72 356 09:23 24.09.2022
1683 Clouds 9 1013 1 10000 1.72 356 08:43 24.09.2022
1684 Clouds 10 1011 1 10000 1.5 341 06:26 24.09.2022
1685 Clouds 10 1011 1 10000 1.2 334 04:34 24.09.2022
1686 Clouds 11 1011 1 8569 1.01 195 23:48 23.09.2022
1687 Clouds 12 1011 1 7045 1.76 186 22:24 23.09.2022
1688 Rain 12 1011 1 7896 2.26 172 21:26 23.09.2022
1689 Rain 12 1011 1 8078 2.27 172 20:55 23.09.2022
1690 Rain 12 1011 1 10000 2.7 174 19:46 23.09.2022
1691 Rain 12 1011 1 10000 3.67 190 18:24 23.09.2022
1692 Rain 13 1011 1 9549 4.52 187 13:44 23.09.2022
1693 Rain 13 1012 1 10000 4.02 183 10:26 23.09.2022
1694 Rain 13 1012 1 10000 3.83 183 08:56 23.09.2022
1695 Clouds 13 1013 1 10000 3.52 192 04:42 23.09.2022
1696 Clouds 13 1015 1 10000 3.29 191 23:30 22.09.2022
1697 Clouds 14 1016 1 10000 3.62 191 22:28 22.09.2022
1698 Clouds 14 1016 1 10000 3.61 191 21:40 22.09.2022
1699 Clouds 14 1016 1 10000 3.64 192 20:44 22.09.2022
1700 Clouds 14 1016 1 10000 4.07 198 19:20 22.09.2022
1701 Clouds 14 1016 1 10000 4.47 198 16:23 22.09.2022
1702 Clouds 10 1019 78 10000 2.22 187 10:56 22.09.2022
1703 Clouds 8 1019 1 10000 1.33 181 10:20 22.09.2022
1704 Clouds 6 1020 1 9386 0.66 142 08:22 22.09.2022
1705 Clouds 5 1021 1 10000 0.59 123 06:21 22.09.2022
1706 Clouds 7 1023 1 10000 0.75 128 02:28 22.09.2022
1707 Clouds 8 1023 1 10000 0.94 173 22:32 21.09.2022
1708 Clouds 8 1023 1 10000 0.94 173 21:38 21.09.2022
1709 Clouds 12 1023 16 10000 1.96 181 19:30 21.09.2022
1710 Clouds 15 1022 18 10000 2.38 180 17:46 21.09.2022
1711 Clouds 16 1023 33 10000 1.89 186 16:22 21.09.2022
1712 Clouds 15 1023 16 10000 1.49 173 13:57 21.09.2022
1713 Clouds 12 1024 1 10000 0.54 145 12:19 21.09.2022
1714 Clouds 10 1024 1 10000 0.01 267 11:28 21.09.2022
1715 Clouds 8 1024 1 10000 0.31 48 09:47 21.09.2022
1716 Clouds 7 1024 1 10000 0.61 32 08:53 21.09.2022
1717 Clouds 6 1024 1 10000 1.08 9 06:20 21.09.2022
1718 Clouds 5 1023 1 10000 0.43 343 02:44 21.09.2022
1719 Clouds 5 1023 1 10000 0.34 358 02:20 21.09.2022
1720 Clear 6 1023 1 10000 0.2 325 00:26 21.09.2022
1721 Clear 7 1023 16 10000 0.57 221 22:30 20.09.2022
1722 Clear 8 1022 22 10000 0.28 277 20:45 20.09.2022
1723 Clouds 10 1021 28 10000 0.71 278 19:30 20.09.2022
1724 Clouds 16 1021 48 10000 1.29 330 16:18 20.09.2022
1725 Clouds 16 1021 49 10000 1.46 346 14:45 20.09.2022
1726 Clear 14 1021 51 10000 1.97 4 12:58 20.09.2022
1727 Clear 9 1021 39 10000 2.46 336 09:19 20.09.2022
1728 Clear 6 1021 1 10000 2.11 328 08:26 20.09.2022
1729 Clear 6 1020 7 10000 2.27 332 04:46 20.09.2022
1730 Clear 7 1019 11 10000 2.24 337 03:48 20.09.2022
1731 Clear 10 1017 43 10000 3.45 356 22:55 19.09.2022
1732 Clear 11 1017 44 10000 4.01 11 21:40 19.09.2022
1733 Clear 11 1016 44 10000 4.08 16 20:47 19.09.2022
1734 Clouds 11 1016 44 10000 3.73 14 20:24 19.09.2022
1735 Clouds 15 1014 53 10000 3.97 14 17:44 19.09.2022
1736 Clouds 15 1013 52 10000 4.37 7 14:54 19.09.2022
1737 Clouds 15 1013 49 10000 4.73 6 13:18 19.09.2022
1738 Clouds 13 1013 51 10000 3.88 344 10:48 19.09.2022
1739 Clouds 10 1013 51 10000 2.3 326 08:51 19.09.2022
1740 Clouds 9 1013 81 10000 2.25 335 06:42 19.09.2022
1741 Clouds 8 1012 2 10000 3.2 355 01:54 19.09.2022
1742 Clouds 11 1011 36 10000 4.38 3 23:22 18.09.2022
1743 Clouds 11 1010 15 10000 4.65 6 21:44 18.09.2022
1744 Clouds 12 1009 1 10000 4.67 15 20:25 18.09.2022
1745 Clouds 14 1007 13 10000 4.82 10 18:18 18.09.2022
1746 Clouds 16 1007 50 10000 4.82 10 17:37 18.09.2022
1747 Clouds 17 1006 51 10000 4.84 1 15:44 18.09.2022
1748 Clouds 17 1006 50 10000 4.4 14 13:51 18.09.2022
1749 Clouds 16 1005 50 10000 4.15 1 12:35 18.09.2022
1750 Clouds 15 1005 50 10000 3.33 359 11:24 18.09.2022
1751 Clouds 9 1002 1 10000 1.8 349 04:26 18.09.2022
1752 Clouds 11 1002 35 10000 1.27 326 01:25 18.09.2022
1753 Clouds 12 1002 37 10000 1.01 327 00:24 18.09.2022
1754 Clouds 12 1001 25 10000 0.73 311 21:44 17.09.2022
1755 Clouds 13 1001 49 10000 1.2 43 19:44 17.09.2022
1756 Clouds 15 1000 52 10000 1.82 56 18:59 17.09.2022
1757 Clouds 16 1000 52 10000 3.16 339 16:22 17.09.2022
1758 Clouds 17 1001 51 10000 3.27 344 13:57 17.09.2022
1759 Clouds 16 1001 49 10000 3.19 325 11:55 17.09.2022
1760 Clouds 13 1001 49 10000 1.97 307 09:37 17.09.2022
1761 Clouds 9 1000 1 10000 1.88 313 06:25 17.09.2022
1762 Clouds 10 1000 15 10000 1.82 331 01:51 17.09.2022
1763 Clouds 12 999 40 10000 1.86 344 22:56 16.09.2022
1764 Clouds 12 998 42 10000 2.02 351 21:29 16.09.2022
1765 Clouds 13 998 48 10000 1.94 349 20:24 16.09.2022
1766 Clouds 17 997 51 10000 3.7 3 17:50 16.09.2022
1767 Clouds 16 996 47 10000 3.79 355 15:34 16.09.2022
1768 Clouds 17 993 50 10000 1.79 187 13:57 16.09.2022
1769 Clouds 16 996 49 10000 5.05 351 11:45 16.09.2022
1770 Clouds 12 995 1 10000 3.42 328 08:53 16.09.2022
1771 Clouds 11 994 1 10000 2.85 323 07:19 16.09.2022
1772 Clouds 11 994 1 10000 2.85 323 06:47 16.09.2022
1773 Clouds 11 993 1 10000 1.9 317 02:52 16.09.2022
1774 Clouds 12 993 5 10000 3.91 2 22:57 15.09.2022
1775 Clouds 13 992 24 10000 1.65 341 21:19 15.09.2022
1776 Clouds 14 992 28 10000 1.66 334 19:57 15.09.2022
1777 Clouds 16 991 51 10000 2.44 6 18:30 15.09.2022
1778 Clouds 17 991 50 10000 2.44 6 17:33 15.09.2022
1779 Clouds 18 991 46 10000 2.73 14 16:43 15.09.2022
1780 Clouds 17 991 47 10000 2.61 331 14:41 15.09.2022
1781 Clouds 16 992 50 10000 2.34 316 12:29 15.09.2022
1782 Clouds 13 993 1 10000 1.61 300 10:21 15.09.2022
1783 Clouds 9 993 1 10000 1.51 321 07:51 15.09.2022
1784 Clouds 8 993 1 10000 1.72 327 03:58 15.09.2022
1785 Clouds 8 993 1 10000 2 5 01:27 15.09.2022
1786 Clouds 11 992 88 10000 1.7 15 21:54 14.09.2022
1787 Clouds 11 992 1 10000 0.37 79 19:59 14.09.2022
1788 Clouds 12 992 74 10000 0.67 158 19:26 14.09.2022
1789 Rain 18 992 55 10000 1.09 208 17:25 14.09.2022
1790 Clouds 16 992 13 10000 1.4 230 15:49 14.09.2022
1791 Clouds 18 993 47 10000 1.37 245 14:34 14.09.2022
1792 Clouds 15 994 38 10000 1.35 261 11:40 14.09.2022
1793 Clouds 12 995 1 10000 1.02 272 09:48 14.09.2022
1794 Clouds 11 995 1 10000 1.41 281 07:38 14.09.2022
1795 Clouds 11 995 1 10000 1.41 281 06:47 14.09.2022
1796 Clouds 11 994 1 10000 1.54 297 04:33 14.09.2022
1797 Clouds 12 994 1 10000 2.26 319 01:48 14.09.2022
1798 Clouds 12 994 1 10000 2.98 321 01:27 14.09.2022
1799 Clouds 12 994 1 10000 2.98 321 00:48 14.09.2022
1800 Clouds 12 994 1 10000 2.67 310 23:54 13.09.2022
1801 Clouds 12 994 1 10000 2.67 310 23:36 13.09.2022
1802 Rain 12 994 1 10000 2.94 317 23:18 13.09.2022
1803 Rain 13 993 1 10000 2.6 323 21:50 13.09.2022
1804 Clouds 13 993 1 10000 2.52 309 19:45 13.09.2022
1805 Clouds 15 992 1 10000 3.08 315 17:44 13.09.2022
1806 Clouds 14 992 1 10000 2.24 281 15:55 13.09.2022
1807 Clouds 14 991 58 10000 0.21 348 14:36 13.09.2022
1808 Clouds 14 991 58 10000 0.21 348 14:36 13.09.2022
1809 Clouds 14 991 64 10000 1.23 158 12:40 13.09.2022
1810 Clouds 13 991 1 10000 1.22 130 08:50 13.09.2022
1811 Rain 13 993 1 10000 4.55 168 06:24 13.09.2022
1812 Rain 14 1001 1 1915 4.95 158 00:22 13.09.2022
1813 Rain 14 1002 1 2175 4.92 165 22:50 12.09.2022
1814 Rain 14 1004 1 2679 4.74 161 21:55 12.09.2022
1815 Rain 14 1006 1 10000 4.41 157 20:25 12.09.2022
1816 Rain 14 1008 1 10000 3.78 161 18:44 12.09.2022
1817 Rain 15 1010 1 10000 4.42 187 17:25 12.09.2022
1818 Rain 16 1011 1 10000 4.91 192 14:37 12.09.2022
1819 Clouds 17 1013 85 10000 2.03 173 11:30 12.09.2022
1820 Clouds 14 1013 1 10000 1.86 166 09:56 12.09.2022
1821 Clouds 13 1014 1 8767 0.93 146 04:54 12.09.2022
1822 Clouds 13 1014 1 7854 1.04 164 04:25 12.09.2022
1823 Clouds 12 1016 1 10000 0.68 165 23:39 11.09.2022
1824 Clouds 13 1016 1 10000 1.07 157 22:43 11.09.2022
1825 Clouds 14 1016 1 10000 1.29 191 20:51 11.09.2022
1826 Clouds 14 1016 1 10000 1.59 185 20:18 11.09.2022
1827 Clouds 17 1015 70 10000 2.41 194 19:25 11.09.2022
1828 Clouds 17 1015 38 10000 2.44 193 18:36 11.09.2022
1829 Clouds 19 1015 34 10000 2.19 199 16:47 11.09.2022
1830 Clouds 17 1016 50 10000 1.78 195 14:53 11.09.2022
1831 Clouds 18 1017 56 10000 1.09 191 12:53 11.09.2022
1832 Clouds 13 1018 1 10000 0.69 341 09:28 11.09.2022
1833 Clouds 10 1018 1 10000 1.1 343 07:21 11.09.2022
1834 Clouds 12 1018 1 10000 1.01 342 01:18 11.09.2022
1835 Clouds 12 1018 1 10000 1 335 23:20 10.09.2022
1836 Clouds 13 1019 1 10000 1.04 346 21:33 10.09.2022
1837 Clouds 14 1018 1 10000 1.14 345 19:49 10.09.2022
1838 Clouds 14 1018 1 10000 1 343 19:29 10.09.2022
1839 Clouds 14 1018 1 10000 1 343 18:58 10.09.2022
1840 Clouds 15 1018 90 10000 0.68 5 16:57 10.09.2022
1841 Clouds 14 1019 1 10000 0.91 358 14:45 10.09.2022
1842 Clouds 13 1019 1 10000 1.26 10 12:53 10.09.2022
1843 Rain 12 1019 1 10000 1.32 22 11:36 10.09.2022
1844 Clouds 12 1019 1 10000 1.62 38 10:24 10.09.2022
1845 Clouds 11 1019 1 10000 1.62 29 08:37 10.09.2022
1846 Clouds 11 1019 1 10000 1.6 15 07:57 10.09.2022
1847 Clouds 12 1019 1 10000 1.96 20 02:47 10.09.2022
1848 Clouds 13 1019 7 10000 1.92 19 23:34 09.09.2022
1849 Clouds 14 1019 19 10000 2.63 31 22:20 09.09.2022
1850 Clouds 14 1019 29 10000 2.57 23 20:48 09.09.2022
1851 Clouds 15 1018 40 10000 1.94 18 19:25 09.09.2022
1852 Clouds 15 1018 44 10000 1.94 18 18:53 09.09.2022
1853 Clouds 16 1018 51 10000 2.36 51 16:33 09.09.2022
1854 Clouds 15 1019 39 10000 3.46 75 14:27 09.09.2022
1855 Clouds 14 1020 24 10000 3.62 78 12:56 09.09.2022
1856 Clouds 13 1020 14 10000 3.53 59 10:22 09.09.2022
1857 Clouds 10 1020 1 10000 2 36 07:18 09.09.2022
1858 Clouds 11 1021 79 10000 1.95 31 03:28 09.09.2022
1859 Clouds 13 1021 31 10000 1.55 30 22:19 08.09.2022
1860 Clouds 13 1021 33 10000 1.56 30 21:43 08.09.2022
1861 Clouds 14 1021 34 10000 1.67 20 20:46 08.09.2022
1862 Clouds 14 1021 37 10000 1.74 13 20:21 08.09.2022
1863 Clouds 14 1021 46 10000 1.46 23 18:34 08.09.2022
1864 Clouds 15 1021 50 10000 1.65 88 16:38 08.09.2022
1865 Clouds 16 1022 50 10000 2.52 110 14:41 08.09.2022
1866 Clouds 15 1023 51 10000 2.64 107 13:27 08.09.2022
1867 Clouds 16 1023 49 10000 2.64 107 12:33 08.09.2022
1868 Clouds 15 1024 7 10000 2.32 108 10:58 08.09.2022
1869 Clouds 15 1024 7 10000 2.32 108 10:58 08.09.2022
1870 Clouds 13 1023 1 10000 1.63 74 08:59 08.09.2022
1871 Clouds 10 1023 1 10000 1.09 51 06:43 08.09.2022
1872 Clouds 11 1022 1 10000 1.4 63 02:37 08.09.2022
1873 Clouds 12 1022 1 10000 1.08 74 02:19 08.09.2022
1874 Clouds 12 1022 1 10000 1.08 74 01:58 08.09.2022
1875 Clouds 12 1021 1 10000 1.05 105 22:55 07.09.2022
1876 Clouds 12 1021 1 10000 1.18 117 21:43 07.09.2022
1877 Clouds 13 1021 1 10000 1.4 125 21:18 07.09.2022
1878 Clouds 16 1020 15 10000 1.35 135 19:54 07.09.2022
1879 Clouds 18 1019 50 10000 1.34 140 18:39 07.09.2022
1880 Clouds 21 1020 49 10000 1.47 129 15:21 07.09.2022
1881 Clear 16 1021 1 10000 1.07 109 10:50 07.09.2022
1882 Clear 15 1021 1 10000 0.77 83 10:24 07.09.2022
1883 Clear 10 1022 1 10000 0.89 37 07:36 07.09.2022
1884 Clear 9 1022 1 10000 0.7 6 04:39 07.09.2022
1885 Clear 12 1022 1 10000 0.23 337 00:25 07.09.2022
1886 Clear 13 1022 1 10000 0.7 195 21:45 06.09.2022
1887 Clear 14 1022 1 10000 1.26 183 21:24 06.09.2022
1888 Clear 18 1022 35 10000 3.04 193 18:55 06.09.2022
1889 Clear 19 1022 42 10000 3.37 194 18:27 06.09.2022
1890 Clear 21 1022 50 10000 0.89 121 17:23 06.09.2022
1891 Clear 21 1022 50 10000 0.89 121 16:40 06.09.2022
1892 Clear 21 1024 49 10000 2.07 207 15:23 06.09.2022
1893 Clear 20 1024 50 10000 1.93 212 13:46 06.09.2022
1894 Clear 20 1025 48 10000 1.99 219 13:25 06.09.2022
1895 Clear 19 1025 1 10000 1.88 225 12:37 06.09.2022
1896 Clear 18 1026 53 10000 1.36 222 10:46 06.09.2022
1897 Clear 11 1026 71 10000 0.66 216 08:53 06.09.2022
1898 Clouds 9 1027 1 10000 0.26 260 07:51 06.09.2022
1899 Clouds 8 1028 1 10000 0.52 240 04:48 06.09.2022
1900 Clouds 11 1028 1 10000 1.15 180 23:42 05.09.2022
1901 Clouds 13 1029 13 10000 1.06 162 22:31 05.09.2022
1902 Clouds 14 1029 15 10000 0.5 176 20:52 05.09.2022
1903 Clouds 16 1029 14 10000 0.69 201 19:50 05.09.2022
1904 Clouds 18 1029 43 10000 0.99 214 18:49 05.09.2022
1905 Clouds 19 1029 63 10000 1.26 211 18:22 05.09.2022
1906 Clouds 19 1030 60 10000 1.32 191 17:30 05.09.2022
1907 Clouds 20 1030 45 10000 0.38 71 15:52 05.09.2022
1908 Clouds 19 1031 37 10000 0.58 108 13:39 05.09.2022
1909 Clouds 18 1032 28 10000 0.86 103 12:29 05.09.2022
1910 Clouds 16 1032 1 10000 0.56 70 10:30 05.09.2022
1911 Clouds 10 1032 1 10000 0.57 39 07:36 05.09.2022
1912 Clouds 11 1032 1 10000 0.81 59 02:50 05.09.2022
1913 Clouds 12 1032 1 10000 0.88 43 23:40 04.09.2022
1914 Clouds 12 1031 1 10000 1.1 43 22:28 04.09.2022
1915 Clouds 13 1031 1 10000 1.1 43 21:40 04.09.2022
1916 Clouds 14 1030 1 10000 0.67 39 19:39 04.09.2022
1917 Clouds 15 1030 1 10000 0.15 89 18:20 04.09.2022
1918 Clouds 15 1030 1 10000 0.31 176 17:22 04.09.2022
1919 Clouds 13 1030 1 10000 0.72 129 14:56 04.09.2022
1920 Clouds 12 1030 1 10000 0.75 87 14:18 04.09.2022
1921 Clouds 12 1030 1 10000 0.88 72 12:24 04.09.2022
1922 Clouds 12 1030 1 10000 0.95 71 10:51 04.09.2022
1923 Clouds 11 1029 1 10000 1.07 70 08:21 04.09.2022
1924 Clouds 11 1028 1 10000 1.11 65 06:21 04.09.2022
1925 Clouds 11 1027 1 10000 0.98 86 01:31 04.09.2022
1926 Clouds 12 1025 1 10000 0.81 86 22:26 03.09.2022
1927 Clouds 12 1025 1 10000 0.76 89 21:24 03.09.2022
1928 Clouds 13 1024 1 10000 1.2 118 20:26 03.09.2022
1929 Clouds 16 1024 1 10000 1.67 111 17:35 03.09.2022
1930 Clouds 16 1024 1 10000 2.27 99 16:33 03.09.2022
1931 Clouds 15 1024 1 10000 2.37 87 14:47 03.09.2022
1932 Clouds 15 1025 5 10000 2.09 73 14:26 03.09.2022
1933 Clouds 15 1025 7 10000 2.09 73 13:39 03.09.2022
1934 Clouds 14 1025 1 10000 1.29 59 11:18 03.09.2022
1935 Clouds 11 1025 1 10000 0.76 50 08:41 03.09.2022
1936 Clouds 10 1024 1 10000 0.62 50 06:59 03.09.2022
1937 Clouds 11 1024 1 10000 0.77 66 04:43 03.09.2022
1938 Rain 12 1025 1 10000 1.13 75 00:46 03.09.2022
1939 Rain 13 1025 1 10000 1.16 75 23:28 02.09.2022
1940 Clouds 14 1024 3 10000 1.1 63 21:33 02.09.2022
1941 Clouds 14 1025 22 10000 0.91 81 20:39 02.09.2022
1942 Clouds 15 1024 48 10000 1.27 118 19:35 02.09.2022
1943 Clouds 16 1024 50 10000 1.28 118 18:43 02.09.2022
1944 Clouds 16 1024 51 10000 1.24 128 18:24 02.09.2022
1945 Clouds 16 1025 47 10000 1.26 135 16:51 02.09.2022
1946 Clouds 15 1025 15 10000 1.26 142 15:40 02.09.2022
1947 Rain 14 1026 1 10000 0.84 104 12:56 02.09.2022
1948 Clouds 13 1025 1 10000 1.09 102 10:25 02.09.2022
1949 Clouds 12 1025 1 10000 1.09 102 09:41 02.09.2022
1950 Clouds 10 1025 1 10000 0.92 95 08:35 02.09.2022
1951 Clouds 9 1025 1 10000 0.86 84 06:43 02.09.2022
1952 Clouds 9 1025 1 10000 1.08 77 04:58 02.09.2022
1953 Clouds 11 1025 1 10000 0.76 155 22:54 01.09.2022
1954 Clear 13 1024 38 10000 0.77 171 21:45 01.09.2022
1955 Clear 13 1024 40 10000 0.95 172 21:26 01.09.2022
1956 Clear 14 1024 43 10000 0.95 172 20:48 01.09.2022
1957 Clear 18 1023 53 10000 1.56 148 19:23 01.09.2022
1958 Clouds 21 1023 49 10000 1.76 164 17:48 01.09.2022
1959 Clouds 21 1024 45 10000 1.6 172 16:41 01.09.2022
1960 Clouds 19 1026 46 10000 0.73 144 14:34 01.09.2022
1961 Clear 18 1026 46 10000 0.89 154 12:59 01.09.2022
1962 Clear 16 1026 52 10000 1.08 116 11:55 01.09.2022
1963 Clear 16 1026 51 10000 1.08 116 11:36 01.09.2022
1964 Clear 15 1027 51 10000 1.32 96 10:45 01.09.2022
1965 Clear 11 1028 12 10000 0.93 54 08:31 01.09.2022
1966 Clear 8 1028 1 10000 1.65 25 06:26 01.09.2022
1967 Clear 10 1028 1 10000 2.06 13 01:45 01.09.2022
1968 Clear 10 1028 1 10000 1.82 29 00:19 01.09.2022
1969 Clear 12 1027 23 10000 0.35 332 21:45 31.08.2022
1970 Clouds 17 1026 43 10000 0.62 139 19:59 31.08.2022
1971 Clouds 21 1026 47 10000 1.39 18 18:19 31.08.2022
1972 Clouds 21 1026 44 10000 1.8 350 16:31 31.08.2022
1973 Clouds 20 1027 48 10000 1.98 343 14:44 31.08.2022
1974 Clouds 18 1028 50 10000 1.51 342 12:25 31.08.2022
1975 Clouds 17 1028 51 10000 1.51 342 11:37 31.08.2022
1976 Clouds 13 1029 1 10000 1.32 345 09:25 31.08.2022
1977 Clouds 7 1030 1 10000 1.46 342 06:19 31.08.2022
1978 Clouds 10 1029 1 10000 2.12 354 23:25 30.08.2022
1979 Clouds 11 1029 16 10000 2.17 355 21:49 30.08.2022
1980 Clouds 13 1028 44 10000 1.97 353 20:59 30.08.2022
1981 Clouds 17 1027 54 10000 1.87 29 18:52 30.08.2022
1982 Clouds 18 1027 51 10000 3.05 30 15:29 30.08.2022
1983 Clouds 17 1027 52 10000 2.32 41 13:25 30.08.2022
1984 Clouds 15 1028 48 10000 1.91 52 11:22 30.08.2022
1985 Clouds 16 1028 47 10000 1.91 52 10:57 30.08.2022
1986 Clouds 11 1028 1 10000 1.21 32 07:50 30.08.2022
1987 Clouds 9 1026 1 10000 1.59 33 02:55 30.08.2022
1988 Clear 11 1025 1 10000 1.57 342 23:28 29.08.2022
1989 Clear 11 1025 1 10000 1.57 342 22:32 29.08.2022
1990 Clouds 13 1024 18 10000 0.93 4 21:27 29.08.2022
1991 Clear 16 1023 46 10000 1.26 50 20:19 29.08.2022
1992 Clear 21 1023 49 10000 3 52 17:58 29.08.2022
1993 Clear 21 1023 47 10000 3.1 47 17:25 29.08.2022
1994 Clear 21 1023 46 10000 3.19 45 16:43 29.08.2022
1995 Clear 20 1023 49 10000 2.73 42 15:18 29.08.2022
1996 Clear 18 1024 52 10000 2.47 39 13:26 29.08.2022
1997 Clouds 16 1024 51 10000 2.23 39 11:30 29.08.2022
1998 Clear 15 1025 50 10000 1.67 47 10:21 29.08.2022
1999 Clear 12 1025 27 10000 1.5 40 08:38 29.08.2022
2000 Clouds 11 1024 1 10000 2.1 22 05:52 29.08.2022
2001 Clouds 13 1021 1 10000 1.34 344 01:25 29.08.2022
2002 Clouds 13 1021 1 10000 1.1 355 22:50 28.08.2022
2003 Clouds 15 1021 1 10000 0.25 8 21:44 28.08.2022
2004 Clouds 16 1020 3 10000 0.59 80 20:56 28.08.2022
2005 Clouds 18 1020 23 10000 1.1 80 19:44 28.08.2022
2006 Clouds 21 1019 32 10000 2.79 75 18:21 28.08.2022
2007 Clouds 21 1019 44 10000 2.79 75 17:40 28.08.2022
2008 Clouds 21 1019 34 10000 3.23 76 16:32 28.08.2022
2009 Clouds 20 1019 34 10000 3.65 71 14:44 28.08.2022
2010 Clouds 18 1019 1 10000 4.19 64 12:48 28.08.2022
2011 Clear 18 1018 1 10000 4.26 52 10:51 28.08.2022
2012 Clear 17 1018 1 10000 4.13 51 09:56 28.08.2022
2013 Clear 16 1018 1 10000 4.01 41 08:38 28.08.2022
2014 Clear 16 1018 1 10000 3.11 33 07:45 28.08.2022
2015 Clear 13 1017 1 10000 2.11 8 03:31 28.08.2022
2016 Clear 15 1015 1 10000 1.44 22 00:31 28.08.2022
2017 Clear 16 1015 1 10000 1.13 26 22:38 27.08.2022
2018 Clear 17 1015 1 10000 0.88 25 21:40 27.08.2022
2019 Clouds 20 1014 1 10000 0.69 63 19:57 27.08.2022
2020 Clouds 20 1014 73 10000 0.9 76 18:41 27.08.2022
2021 Clouds 22 1013 1 10000 1.06 95 15:53 27.08.2022
2022 Clouds 23 1013 12 10000 0.73 125 15:25 27.08.2022
2023 Clouds 21 1014 1 10000 0.66 268 12:31 27.08.2022
2024 Clouds 20 1014 57 10000 0.66 268 11:47 27.08.2022
2025 Clouds 18 1014 1 10000 0.66 232 09:50 27.08.2022
2026 Clouds 17 1014 1 10000 0.5 251 08:45 27.08.2022
2027 Clouds 16 1014 1 10000 0.33 78 03:58 27.08.2022
2028 Clouds 16 1014 1 10000 0.38 250 00:20 27.08.2022
2029 Rain 17 1014 1 10000 0.54 301 23:23 26.08.2022
2030 Rain 18 1014 89 10000 0.95 299 21:39 26.08.2022
2031 Clouds 19 1015 1 10000 0.73 309 19:25 26.08.2022
2032 Clouds 20 1016 1 10000 1.1 220 17:29 26.08.2022
2033 Clouds 21 1017 1 10000 1.44 171 15:35 26.08.2022
2034 Clouds 21 1017 1 10000 1.46 170 14:44 26.08.2022
2035 Clouds 20 1017 8 10000 1.78 182 12:54 26.08.2022
2036 Clouds 19 1018 1 10000 1.68 184 11:42 26.08.2022
2037 Clouds 18 1018 1 10000 1.53 160 11:21 26.08.2022
2038 Clear 14 1019 1 10000 0.83 84 07:37 26.08.2022
2039 Clear 13 1020 1 10000 1.04 47 02:43 26.08.2022
2040 Clear 16 1020 78 10000 0.9 99 23:45 25.08.2022
2041 Clear 21 1021 74 10000 1.03 163 21:46 25.08.2022
2042 Clear 21 1021 70 10000 1.16 175 20:51 25.08.2022
2043 Clear 24 1020 52 10000 1.66 204 19:25 25.08.2022
2044 Clear 26 1021 49 10000 2.56 203 18:28 25.08.2022
2045 Clear 26 1021 47 10000 2.56 203 17:31 25.08.2022
2046 Clear 26 1021 46 10000 3.2 197 16:27 25.08.2022
2047 Clear 26 1022 49 10000 3.09 190 15:28 25.08.2022
2048 Clouds 24 1023 48 10000 2.93 188 12:56 25.08.2022
2049 Clouds 21 1024 43 10000 2.19 177 10:49 25.08.2022
2050 Clouds 19 1024 1 10000 1.73 160 09:44 25.08.2022
2051 Clouds 14 1025 1 10000 0.39 142 07:31 25.08.2022
2052 Clouds 14 1025 1 10000 0.45 162 02:29 25.08.2022
2053 Clouds 15 1025 1 10000 0.53 181 23:29 24.08.2022
2054 Clouds 15 1025 1 10000 0.53 181 22:46 24.08.2022
2055 Clouds 16 1025 1 10000 0.92 199 21:37 24.08.2022
2056 Clouds 17 1024 1 10000 1.33 195 21:19 24.08.2022
2057 Clouds 19 1023 1 10000 1.4 183 19:43 24.08.2022
2058 Clouds 21 1024 4 10000 2.61 206 16:50 24.08.2022
2059 Clouds 21 1024 28 10000 2.55 201 15:52 24.08.2022
2060 Clouds 22 1023 25 10000 3.26 211 13:49 24.08.2022
2061 Clouds 21 1023 36 10000 2.11 185 12:24 24.08.2022
2062 Clouds 19 1024 22 10000 1.69 193 11:18 24.08.2022
2063 Clouds 14 1024 1 10000 0.37 103 08:28 24.08.2022
2064 Clouds 11 1023 1 10000 0.6 22 03:44 24.08.2022
2065 Clear 12 1023 1 10000 0.15 6 23:47 23.08.2022
2066 Clear 13 1022 1 10000 0.31 322 22:35 23.08.2022
2067 Clear 14 1022 1 10000 0.31 322 21:46 23.08.2022
2068 Clouds 17 1021 1 10000 0.73 234 20:33 23.08.2022
2069 Clouds 21 1021 52 10000 1.24 218 18:53 23.08.2022
2070 Clouds 22 1021 52 10000 1.59 202 17:53 23.08.2022
2071 Clouds 22 1021 49 10000 1.6 189 17:18 23.08.2022
2072 Clouds 22 1021 49 10000 1.6 189 17:18 23.08.2022
2073 Clouds 21 1021 49 10000 1.54 183 15:52 23.08.2022
2074 Clouds 21 1021 48 10000 1.62 183 13:50 23.08.2022
2075 Clouds 19 1022 47 10000 1.47 182 12:45 23.08.2022
2076 Clouds 17 1022 1 10000 1.19 165 10:53 23.08.2022
2077 Clouds 17 1022 1 10000 0.69 153 10:32 23.08.2022
2078 Clouds 17 1022 1 10000 0.69 153 10:32 23.08.2022
2079 Clouds 13 1022 1 10000 0.52 133 08:55 23.08.2022
2080 Clouds 12 1022 1 10000 0.46 101 08:22 23.08.2022
2081 Clouds 11 1022 1 10000 0.53 109 07:52 23.08.2022
2082 Clouds 9 1022 1 10000 0.66 68 07:22 23.08.2022
2083 Clouds 8 1021 1 10000 0.59 70 06:19 23.08.2022
2084 Clouds 10 1020 1 10000 0.62 122 01:42 23.08.2022
2085 Clouds 11 1020 1 10000 1.09 145 00:26 23.08.2022
2086 Clouds 13 1019 1 10000 0.92 161 23:29 22.08.2022
2087 Clouds 14 1019 14 10000 1.18 163 22:19 22.08.2022
2088 Clouds 18 1018 48 10000 2.24 167 19:51 22.08.2022
2089 Clouds 19 1017 48 10000 3.05 172 19:30 22.08.2022
2090 Clouds 19 1017 52 10000 3.05 171 18:36 22.08.2022
2091 Clouds 21 1016 45 10000 2.88 195 15:45 22.08.2022
2092 Clouds 21 1015 45 10000 2.72 205 14:46 22.08.2022
2093 Clear 18 1015 45 10000 0.92 256 11:20 22.08.2022
2094 Clear 14 1014 1 10000 0.94 262 08:54 22.08.2022
2095 Clear 8 1012 90 10000 0.96 242 04:45 22.08.2022
2096 Clear 11 1010 1 10000 1.41 208 00:54 22.08.2022
2097 Clear 11 1010 1 10000 1.41 208 00:35 22.08.2022
2098 Clear 12 1008 1 10000 2.12 200 22:56 21.08.2022
2099 Rain 13 1008 1 10000 2.27 187 21:45 21.08.2022
2100 Clear 15 1008 1 10000 2.21 195 20:58 21.08.2022
2101 Clouds 17 1007 1 10000 3.17 199 19:40 21.08.2022
2102 Clouds 18 1007 1 8262 4.43 196 18:28 21.08.2022
2103 Rain 18 1007 1 10000 5.31 190 16:29 21.08.2022
2104 Rain 18 1007 1 10000 5.31 190 15:46 21.08.2022
2105 Clouds 19 1008 1 10000 5.26 188 14:35 21.08.2022
2106 Clouds 19 1008 1 10000 4.68 190 13:43 21.08.2022
2107 Clouds 19 1008 1 10000 4.82 189 12:47 21.08.2022
2108 Clouds 18 1009 1 10000 5.18 202 09:56 21.08.2022
2109 Clouds 17 1009 1 10000 4.68 201 08:56 21.08.2022
2110 Clouds 16 1009 1 10000 4.64 200 08:38 21.08.2022
2111 Clear 15 1009 1 10000 3.44 200 07:50 21.08.2022
2112 Clear 13 1010 1 10000 2.37 188 04:28 21.08.2022
2113 Clouds 16 1009 44 10000 2.33 188 00:53 21.08.2022
2114 Clouds 17 1009 13 10000 2.68 197 22:59 20.08.2022
2115 Clouds 19 1008 53 10000 3.17 200 21:46 20.08.2022
2116 Clouds 20 1008 47 10000 2.91 195 20:48 20.08.2022
2117 Clouds 21 1008 44 10000 2.24 166 19:42 20.08.2022
2118 Clouds 23 1008 49 10000 2.9 160 18:44 20.08.2022
2119 Clouds 23 1008 50 10000 3.59 170 18:25 20.08.2022
2120 Clouds 23 1008 50 10000 3.88 169 17:20 20.08.2022
2121 Clouds 23 1008 46 10000 4.48 173 15:52 20.08.2022
2122 Clouds 23 1008 48 10000 4.5 185 13:39 20.08.2022
2123 Clouds 21 1008 1 10000 3.16 189 11:53 20.08.2022
2124 Clouds 20 1009 1 10000 2.64 186 11:24 20.08.2022
2125 Clouds 17 1009 1 10000 1.11 173 09:20 20.08.2022
2126 Clouds 13 1010 1 10000 0.63 115 06:40 20.08.2022
2127 Clouds 15 1010 1 10000 0.43 113 04:40 20.08.2022
2128 Clouds 15 1011 1 10000 0.44 141 00:55 20.08.2022
2129 Clouds 16 1012 1 10000 0.78 172 23:25 19.08.2022
2130 Clouds 16 1012 1 10000 0.78 172 22:36 19.08.2022
2131 Clouds 19 1012 1 10000 1.41 165 20:41 19.08.2022
2132 Clouds 23 1011 38 10000 1.95 183 18:55 19.08.2022
2133 Clouds 23 1011 42 10000 2.71 192 15:55 19.08.2022
2134 Clouds 23 1011 42 10000 2.71 192 15:55 19.08.2022
2135 Clouds 23 1011 42 10000 2.71 192 15:55 19.08.2022
2136 Clouds 24 1012 21 10000 3.29 195 13:42 19.08.2022
2137 Clouds 19 1012 1 10000 2.68 191 11:46 19.08.2022
2138 Clouds 19 1012 1 10000 2.35 191 10:31 19.08.2022
2139 Clouds 16 1012 1 10000 1.52 165 07:39 19.08.2022
2140 Clouds 17 1012 1 10000 0.9 150 03:39 19.08.2022
2141 Clouds 17 1012 1 10000 0.64 169 00:38 19.08.2022
2142 Clouds 17 1012 1 10000 0.32 185 23:56 18.08.2022
2143 Clouds 17 1012 1 10000 0.4 252 22:54 18.08.2022
2144 Clouds 17 1012 1 10000 0.34 277 22:22 18.08.2022
2145 Clouds 17 1012 1 10000 0.34 277 21:45 18.08.2022
2146 Clouds 17 1012 1 10000 0.31 294 20:45 18.08.2022
2147 Rain 18 1013 1 10000 1.09 352 19:34 18.08.2022
2148 Rain 18 1013 1 10000 1.09 352 18:34 18.08.2022
2149 Rain 18 1014 1 10000 1.19 355 17:32 18.08.2022
2150 Clouds 21 1014 1 10000 1.06 198 15:51 18.08.2022
2151 Clouds 17 1015 96 10000 1.17 99 14:21 18.08.2022
2152 Clouds 18 1015 1 10000 1.17 99 13:42 18.08.2022
2153 Clouds 18 1015 1 10000 1.47 109 12:28 18.08.2022
2154 Rain 16 1015 1 10000 2.11 121 11:18 18.08.2022
2155 Clouds 18 1015 74 10000 1.48 108 09:43 18.08.2022
2156 Rain 14 1015 1 10000 1.29 50 07:27 18.08.2022
2157 Clouds 14 1014 1 10000 1.41 43 05:33 18.08.2022
2158 Clouds 17 1013 1 10000 1.68 65 00:45 18.08.2022
2159 Clouds 17 1011 1 10000 1.26 116 22:32 17.08.2022
2160 Clouds 20 1010 1 10000 3 165 20:21 17.08.2022
2161 Clouds 20 1010 1 10000 2.85 165 19:34 17.08.2022
2162 Clouds 22 1009 1 10000 4.67 175 18:32 17.08.2022
2163 Clouds 23 1009 34 10000 5.35 177 16:50 17.08.2022
2164 Clouds 25 1008 34 10000 5.41 171 15:41 17.08.2022
2165 Clouds 24 1007 31 10000 5.21 175 14:29 17.08.2022
2166 Clouds 23 1008 1 10000 3.17 191 12:22 17.08.2022
2167 Clouds 21 1008 1 10000 1.94 198 10:25 17.08.2022
2168 Clouds 19 1007 1 10000 1.86 178 08:26 17.08.2022
2169 Clouds 19 1006 1 10000 2.43 173 05:35 17.08.2022
2170 Clouds 19 1006 1 2181 1.38 146 00:49 17.08.2022
2171 Clouds 19 1006 1 10000 1.52 159 22:59 16.08.2022
2172 Rain 20 1005 1 10000 1.39 178 20:59 16.08.2022
2173 Clouds 20 1005 1 10000 1.95 170 19:56 16.08.2022
2174 Rain 20 1005 1 10000 1.8 178 19:22 16.08.2022
2175 Rain 21 1005 1 9224 2.03 177 17:55 16.08.2022
2176 Rain 23 1005 1 10000 1.3 162 16:47 16.08.2022
2177 Rain 23 1005 1 10000 2.41 169 15:45 16.08.2022
2178 Clouds 24 1006 1 5263 2.39 158 14:54 16.08.2022
2179 Clouds 24 1006 1 5766 2.8 181 14:36 16.08.2022
2180 Clouds 20 1007 76 10000 1.27 85 11:40 16.08.2022
2181 Rain 19 1008 1 10000 1.64 84 10:20 16.08.2022
2182 Rain 19 1008 1 10000 1.41 78 08:53 16.08.2022
2183 Rain 18 1009 1 10000 1.28 72 08:21 16.08.2022
2184 Clouds 18 1008 1 10000 1.45 39 05:55 16.08.2022
2185 Clouds 20 1009 1 10000 1.3 41 23:37 15.08.2022
2186 Rain 20 1009 1 10000 0.79 66 22:23 15.08.2022
2187 Clouds 20 1009 1 10000 0.79 66 21:50 15.08.2022
2188 Rain 22 1009 1 7812 2.24 123 20:32 15.08.2022
2189 Rain 25 1007 52 10000 2.86 138 19:22 15.08.2022
2190 Rain 27 1007 37 10000 2.75 140 17:59 15.08.2022
2191 Clouds 28 1008 49 10000 4.31 138 16:25 15.08.2022
2192 Clouds 28 1009 49 10000 3.59 139 15:27 15.08.2022
2193 Clouds 28 1010 41 10000 2.79 143 13:45 15.08.2022
2194 Clouds 24 1011 26 10000 2.37 117 10:38 15.08.2022
2195 Clouds 22 1012 15 10000 2.3 104 09:40 15.08.2022
2196 Clouds 17 1012 1 10000 1.43 62 07:32 15.08.2022
2197 Clouds 17 1012 1 10000 1.58 16 04:34 15.08.2022
2198 Clouds 19 1013 30 10000 0.35 88 00:22 15.08.2022
2199 Clouds 21 1013 39 10000 0.93 161 22:29 14.08.2022
2200 Clouds 23 1013 52 10000 1.08 163 21:35 14.08.2022
2201 Clouds 25 1013 49 10000 1.61 170 19:46 14.08.2022
2202 Clouds 26 1013 47 10000 2.54 182 18:53 14.08.2022
2203 Clouds 27 1014 45 10000 3.33 186 17:48 14.08.2022
2204 Clouds 27 1014 44 10000 3.78 187 16:32 14.08.2022
2205 Clouds 27 1014 41 10000 3.78 187 15:48 14.08.2022
2206 Clouds 28 1015 45 10000 3.9 191 14:19 14.08.2022
2207 Clouds 27 1015 50 10000 3.9 191 13:49 14.08.2022
2208 Clouds 27 1015 50 10000 3.73 189 13:18 14.08.2022
2209 Clouds 24 1016 44 10000 3.34 187 11:50 14.08.2022
2210 Clear 21 1016 1 10000 2.23 181 10:27 14.08.2022
2211 Clear 18 1017 1 10000 1.49 176 08:45 14.08.2022
2212 Clouds 12 1017 1 10000 0.71 99 06:21 14.08.2022
2213 Clouds 14 1017 1 10000 0.82 132 02:46 14.08.2022
2214 Clear 17 1018 53 10000 1.33 157 23:36 13.08.2022
2215 Clear 19 1018 84 10000 1.5 156 22:28 13.08.2022
2216 Clear 20 1018 72 10000 2.14 164 20:58 13.08.2022
2217 Clear 22 1017 53 10000 2.92 171 20:28 13.08.2022
2218 Clear 25 1017 49 10000 3.64 176 19:24 13.08.2022
2219 Clear 27 1018 43 10000 4.43 180 17:36 13.08.2022
2220 Clear 28 1018 36 10000 4.09 183 15:23 13.08.2022
2221 Clouds 26 1018 42 10000 3.6 191 14:24 13.08.2022
2222 Clouds 24 1018 29 10000 3.68 190 13:38 13.08.2022
2223 Clouds 23 1019 45 10000 2.78 196 11:51 13.08.2022
2224 Clouds 19 1019 60 10000 2.24 193 09:57 13.08.2022
2225 Clouds 15 1020 1 10000 1.24 172 07:51 13.08.2022
2226 Clear 16 1020 1 10000 0.88 140 02:56 13.08.2022
2227 Clear 17 1020 1 10000 1.09 157 23:47 12.08.2022
2228 Clear 22 1020 85 10000 1.52 154 21:41 12.08.2022
2229 Clear 20 1020 73 10000 2.07 164 20:40 12.08.2022
2230 Clear 26 1020 60 10000 2.92 176 19:36 12.08.2022
2231 Clear 25 1020 44 10000 3.75 179 18:38 12.08.2022
2232 Clear 28 1020 40 10000 2.7 192 16:28 12.08.2022
2233 Clear 28 1020 37 10000 2.7 192 15:40 12.08.2022
2234 Clear 27 1020 42 10000 1.95 192 14:27 12.08.2022
2235 Clear 25 1020 45 10000 1.55 166 12:53 12.08.2022
2236 Clear 20 1021 45 10000 0.54 96 09:52 12.08.2022
2237 Clear 16 1021 1 10000 0.71 24 07:47 12.08.2022
2238 Clear 14 1020 1 10000 0.99 346 06:31 12.08.2022
2239 Clear 14 1020 1 10000 0.6 322 02:33 12.08.2022
2240 Clear 16 1019 1 10000 0.52 171 00:24 12.08.2022
2241 Clear 17 1019 1 10000 0.52 171 23:35 11.08.2022
2242 Clear 18 1019 1 10000 1.51 167 22:24 11.08.2022
2243 Clear 19 1019 1 10000 1.51 167 21:39 11.08.2022
2244 Clear 20 1019 5 10000 2.2 168 20:45 11.08.2022
2245 Clear 22 1018 17 10000 3.05 171 20:18 11.08.2022
2246 Clear 23 1018 42 10000 2.75 173 19:32 11.08.2022
2247 Clear 26 1018 48 10000 4.69 170 17:48 11.08.2022
2248 Clear 27 1019 48 10000 3.58 200 16:34 11.08.2022
2249 Clear 27 1019 45 10000 3.14 213 15:21 11.08.2022
2250 Clouds 25 1019 45 10000 2.71 239 12:41 11.08.2022
2251 Clouds 21 1020 48 10000 1.68 230 10:18 11.08.2022
2252 Clouds 15 1019 1 10000 0.91 273 07:19 11.08.2022
2253 Clouds 15 1019 1 10000 0.62 280 03:46 11.08.2022
2254 Clouds 16 1018 1 10000 0.48 226 00:35 11.08.2022
2255 Clear 18 1019 1 10000 1.35 175 22:22 10.08.2022
2256 Clear 19 1019 1 10000 2.27 173 21:25 10.08.2022
2257 Clear 20 1019 1 10000 2.28 174 20:54 10.08.2022
2258 Clouds 23 1018 17 10000 4.14 171 19:24 10.08.2022
2259 Clouds 25 1019 47 10000 4.84 174 17:55 10.08.2022
2260 Clouds 25 1020 51 10000 5 181 16:35 10.08.2022
2261 Clouds 25 1020 48 10000 3.81 203 13:35 10.08.2022
2262 Clouds 24 1021 37 10000 3.38 206 12:35 10.08.2022
2263 Clouds 19 1023 1 10000 1.5 194 09:24 10.08.2022
2264 Clouds 17 1024 1 10000 1.02 201 08:32 10.08.2022
2265 Clouds 16 1024 1 10000 0.49 216 07:18 10.08.2022
2266 Clouds 16 1024 1 10000 1.17 204 03:25 10.08.2022
2267 Clouds 16 1025 1 10000 2.46 180 23:34 09.08.2022
2268 Clouds 16 1025 1 10000 2.46 180 22:56 09.08.2022
2269 Clouds 16 1025 1 10000 2.63 178 21:35 09.08.2022
2270 Clouds 18 1025 79 10000 3.4 183 20:26 09.08.2022
2271 Clouds 20 1024 72 10000 3.87 184 18:44 09.08.2022
2272 Clouds 21 1025 62 10000 4.38 181 17:28 09.08.2022
2273 Clouds 21 1025 62 10000 4.38 181 16:40 09.08.2022
2274 Clouds 20 1025 29 10000 4.53 180 15:58 09.08.2022
2275 Clouds 19 1026 13 10000 4.2 188 12:51 09.08.2022
2276 Clouds 16 1026 1 10000 3 191 09:39 09.08.2022
2277 Clouds 14 1026 1 10000 2.49 184 08:50 09.08.2022
2278 Clouds 13 1026 1 10000 1.54 182 07:52 09.08.2022
2279 Clouds 12 1026 1 10000 0.93 164 04:22 09.08.2022
2280 Clouds 14 1026 1 10000 1.57 184 23:27 08.08.2022
2281 Clouds 14 1026 1 10000 1.57 183 22:54 08.08.2022
2282 Clouds 15 1025 1 10000 1.68 185 21:58 08.08.2022
2283 Clouds 17 1024 1 10000 1.87 198 20:59 08.08.2022
2284 Clouds 18 1024 22 10000 2.11 202 19:51 08.08.2022
2285 Clouds 20 1023 44 10000 2.14 196 18:45 08.08.2022
2286 Clouds 22 1022 48 10000 3.01 166 16:40 08.08.2022
2287 Clouds 22 1022 39 10000 2.52 157 15:39 08.08.2022
2288 Clouds 22 1022 42 10000 0.85 141 13:50 08.08.2022
2289 Clouds 20 1022 12 10000 0.78 94 11:58 08.08.2022
2290 Clouds 16 1022 1 10000 1.01 53 09:46 08.08.2022
2291 Clouds 11 1020 1 10000 1.63 359 05:54 08.08.2022
2292 Clear 13 1019 1 10000 1.24 340 02:55 08.08.2022
2293 Clouds 15 1018 1 10000 0.71 213 22:32 07.08.2022
2294 Clouds 16 1017 29 10000 1.05 217 21:39 07.08.2022
2295 Clouds 17 1017 46 10000 1.9 253 20:26 07.08.2022
2296 Clouds 17 1017 46 10000 1.9 253 20:26 07.08.2022
2297 Clouds 18 1017 50 10000 1.9 253 19:55 07.08.2022
2298 Clouds 18 1016 50 10000 2.18 240 19:34 07.08.2022
2299 Clouds 18 1017 51 10000 2.47 212 18:23 07.08.2022
2300 Rain 19 1017 52 10000 3.49 201 16:54 07.08.2022
2301 Rain 19 1017 52 10000 3.49 201 16:35 07.08.2022
2302 Clouds 20 1017 47 10000 2.6 206 15:20 07.08.2022
2303 Clouds 18 1017 50 10000 2.24 220 13:24 07.08.2022
2304 Clouds 17 1019 50 10000 1.01 235 11:27 07.08.2022
2305 Clouds 16 1019 43 10000 0.63 281 10:34 07.08.2022
2306 Clouds 11 1018 1 10000 1.4 338 06:52 07.08.2022
2307 Clouds 10 1017 10 10000 1.37 330 03:19 07.08.2022
2308 Clear 13 1016 50 10000 1.42 312 23:44 06.08.2022
2309 Clear 15 1015 53 10000 1.32 303 22:20 06.08.2022
2310 Clear 17 1015 48 10000 1.76 283 20:42 06.08.2022
2311 Clouds 20 1014 46 10000 2.81 288 19:41 06.08.2022
2312 Clouds 21 1013 34 10000 4.04 279 18:28 06.08.2022
2313 Clouds 21 1013 42 10000 4.04 279 17:31 06.08.2022
2314 Clouds 20 1013 44 10000 2.92 254 14:35 06.08.2022
2315 Clouds 19 1010 44 10000 0.89 59 13:44 06.08.2022
2316 Clouds 18 1013 48 10000 3.07 304 11:33 06.08.2022
2317 Clouds 16 1012 49 10000 3.21 305 09:51 06.08.2022
2318 Clouds 14 1011 52 10000 2.17 298 08:32 06.08.2022
2319 Clouds 11 1009 51 10000 2.05 299 03:52 06.08.2022
2320 Clouds 15 1008 83 10000 0.89 254 23:36 05.08.2022
2321 Clouds 15 1008 53 10000 1.33 177 22:23 05.08.2022
2322 Clouds 21 1008 38 10000 1.63 207 19:33 05.08.2022
2323 Clouds 22 1008 41 10000 1.63 207 18:46 05.08.2022
2324 Clouds 22 1008 37 10000 1.11 238 18:22 05.08.2022
2325 Clouds 23 1008 41 10000 0.73 243 16:49 05.08.2022
2326 Clouds 22 1009 46 10000 0.87 142 15:22 05.08.2022
2327 Clouds 21 1009 47 10000 0.7 120 14:31 05.08.2022
2328 Clouds 21 1009 50 10000 2.06 72 13:24 05.08.2022
2329 Clouds 20 1010 50 10000 1.66 58 12:29 05.08.2022
2330 Clouds 17 1010 33 10000 1.73 26 10:51 05.08.2022
2331 Clouds 14 1010 1 10000 1.19 338 08:27 05.08.2022
2332 Clouds 13 1010 1 10000 1.17 341 06:56 05.08.2022
2333 Clouds 13 1010 1 10000 1.17 341 06:56 05.08.2022
2334 Clouds 15 1009 1 10000 1.27 174 00:46 05.08.2022
2335 Clouds 16 1008 1 10000 1.91 184 22:31 04.08.2022
2336 Clouds 16 1008 1 10000 3.11 204 21:27 04.08.2022
2337 Clouds 16 1008 1 10000 3.1 204 20:43 04.08.2022
2338 Clouds 17 1007 1 6088 1.85 193 19:46 04.08.2022
2339 Clouds 17 1007 1 8591 2.18 199 18:41 04.08.2022
2340 Clouds 17 1007 1 7582 1.75 182 18:23 04.08.2022
2341 Rain 17 1010 1 10000 2.68 176 14:38 04.08.2022
2342 Clouds 19 1010 1 10000 5.76 184 13:18 04.08.2022
2343 Clouds 20 1010 6 10000 5.36 200 11:20 04.08.2022
2344 Clouds 17 1009 1 10000 2.73 195 07:55 04.08.2022
2345 Clouds 14 1009 1 10000 2.19 194 06:41 04.08.2022
2346 Clear 15 1008 1 10000 2.73 187 02:35 04.08.2022
2347 Clear 17 1007 1 10000 4.11 209 23:46 03.08.2022
2348 Clear 17 1007 1 10000 5.04 214 22:59 03.08.2022
2349 Clear 19 1005 1 10000 5.18 206 20:50 03.08.2022
2350 Clouds 20 1005 1 10000 5.43 193 19:54 03.08.2022
2351 Clouds 20 1005 1 10000 5.79 192 18:37 03.08.2022
2352 Clouds 21 1005 1 10000 5.66 193 16:26 03.08.2022
2353 Clouds 21 1005 1 10000 5.66 193 15:45 03.08.2022
2354 Clouds 20 1005 1 10000 6.32 199 12:44 03.08.2022
2355 Clouds 19 1006 1 10000 5.56 193 09:51 03.08.2022
2356 Clouds 17 1006 1 10000 2.95 193 06:29 03.08.2022
2357 Clouds 16 1006 1 10000 2.59 189 04:21 03.08.2022
2358 Clouds 16 1006 1 8406 2.31 201 02:25 03.08.2022
2359 Clouds 14 1006 1 184 2.28 157 23:54 02.08.2022
2360 Rain 14 1008 1 532 3.55 166 21:59 02.08.2022
2361 Clouds 14 1008 1 533 3.55 166 21:40 02.08.2022
2362 Rain 14 1008 1 6009 4.54 179 20:25 02.08.2022
2363 Rain 13 1010 1 10000 3.84 175 16:51 02.08.2022
2364 Rain 17 1011 13 10000 3.14 203 13:55 02.08.2022
2365 Clouds 15 1012 1 10000 1.69 170 10:44 02.08.2022
2366 Clouds 14 1013 1 10000 0.99 80 08:36 02.08.2022
2367 Clouds 13 1013 1 10000 1.12 55 07:51 02.08.2022
2368 Clouds 11 1014 1 10000 1.33 28 04:56 02.08.2022
2369 Clouds 11 1014 88 10000 1.77 5 02:30 02.08.2022
2370 Clouds 15 1013 1 10000 2.23 17 23:25 01.08.2022
2371 Clouds 17 1012 84 10000 2.06 13 21:42 01.08.2022
2372 Clouds 18 1011 82 10000 1.98 349 20:27 01.08.2022
2373 Clouds 21 1010 78 10000 1.73 351 18:56 01.08.2022
2374 Clouds 21 1009 70 10000 2.66 52 17:22 01.08.2022
2375 Clouds 21 1009 70 10000 2.66 52 16:48 01.08.2022
2376 Clouds 20 1009 66 10000 3.44 58 15:45 01.08.2022
2377 Clear 21 1008 31 10000 2.98 58 14:57 01.08.2022
2378 Clouds 20 1008 1 10000 0.99 13 13:32 01.08.2022
2379 Clouds 18 1008 1 10000 0.96 318 11:18 01.08.2022
2380 Clouds 17 1008 1 10000 0.98 304 09:34 01.08.2022
2381 Clouds 15 1007 1 10000 0.71 241 07:37 01.08.2022
2382 Clouds 15 1008 1 10000 0.92 183 04:37 01.08.2022
2383 Rain 15 1008 1 430 0.44 93 01:33 01.08.2022
2384 Rain 16 1010 1 9254 1.64 164 22:54 31.07.2022
2385 Rain 16 1010 1 9254 1.64 164 22:35 31.07.2022
2386 Rain 18 1010 1 10000 3.12 175 20:44 31.07.2022
2387 Clouds 19 1010 1 10000 4.68 180 18:42 31.07.2022
2388 Clouds 20 1011 38 10000 5.56 183 17:29 31.07.2022
2389 Clouds 21 1011 43 10000 5.15 194 14:44 31.07.2022
2390 Clouds 21 1012 12 10000 3.52 194 13:19 31.07.2022
2391 Clouds 20 1013 1 10000 3.03 194 11:44 31.07.2022
2392 Clouds 18 1013 63 10000 3.27 198 08:47 31.07.2022
2393 Clouds 14 1014 1 10000 1.44 166 05:38 31.07.2022
2394 Clouds 15 1015 1 10000 1.65 172 02:29 31.07.2022
2395 Clouds 16 1016 1 10000 2.36 181 22:50 30.07.2022
2396 Clouds 17 1016 1 10000 2.86 185 21:55 30.07.2022
2397 Clouds 19 1016 72 10000 3.55 183 21:37 30.07.2022
2398 Clouds 19 1016 33 10000 3.55 183 20:38 30.07.2022
2399 Clouds 19 1016 39 10000 4.08 178 19:57 30.07.2022
2400 Clouds 22 1016 53 10000 5.08 181 18:20 30.07.2022
2401 Clouds 23 1016 48 10000 5.15 184 16:44 30.07.2022
2402 Clouds 24 1016 40 10000 5.22 185 15:34 30.07.2022
2403 Clouds 23 1017 49 10000 5.35 183 14:26 30.07.2022
2404 Clouds 22 1017 50 10000 4.87 186 12:33 30.07.2022
2405 Clouds 22 1018 50 10000 4.34 193 11:55 30.07.2022
2406 Clouds 20 1019 41 10000 3.05 204 10:20 30.07.2022
2407 Clouds 19 1019 1 10000 3.05 204 09:32 30.07.2022
2408 Clouds 15 1019 1 10000 1.54 186 07:44 30.07.2022
2409 Clear 12 1020 1 10000 0.76 177 02:34 30.07.2022
2410 Clear 14 1021 1 10000 1.16 172 00:32 30.07.2022
2411 Clear 20 1021 74 10000 1.74 183 21:39 29.07.2022
2412 Clear 19 1020 47 10000 2.21 186 20:57 29.07.2022
2413 Clouds 22 1020 43 10000 3.32 193 19:48 29.07.2022
2414 Clouds 25 1020 39 10000 4.1 193 17:39 29.07.2022
2415 Clouds 24 1020 40 10000 4.02 191 14:51 29.07.2022
2416 Clouds 23 1021 48 10000 3.28 197 12:58 29.07.2022
2417 Clouds 17 1022 1 10000 1.42 183 09:35 29.07.2022
2418 Clouds 17 1022 1 10000 1.42 183 08:46 29.07.2022
2419 Clouds 14 1022 1 10000 0.41 152 07:30 29.07.2022
2420 Rain 12 1022 76 10000 0.68 134 01:46 29.07.2022
2421 Clouds 17 1021 70 10000 1.17 162 21:55 28.07.2022
2422 Clouds 19 1020 52 10000 1.63 172 20:54 28.07.2022
2423 Clouds 20 1019 52 10000 1.54 164 20:22 28.07.2022
2424 Clouds 20 1019 51 10000 1.54 164 19:41 28.07.2022
2425 Clouds 22 1018 47 10000 1.45 126 18:26 28.07.2022
2426 Clouds 22 1018 47 10000 1.45 126 17:42 28.07.2022
2427 Clouds 23 1018 44 10000 1.06 93 16:41 28.07.2022
2428 Clouds 21 1018 49 10000 1.07 258 14:50 28.07.2022
2429 Clouds 19 1019 45 10000 0.71 136 12:49 28.07.2022
2430 Clouds 16 1019 50 10000 1.86 72 09:45 28.07.2022
2431 Clouds 12 1018 34 10000 2.06 21 06:21 28.07.2022
2432 Clouds 12 1018 30 10000 2.19 42 05:26 28.07.2022
2433 Clouds 13 1016 1 10000 1.98 36 00:44 28.07.2022
2434 Clouds 15 1013 50 10000 1.42 57 22:26 27.07.2022
2435 Clouds 20 1012 45 10000 1.57 96 20:25 27.07.2022
2436 Clouds 20 1011 52 10000 0.61 147 19:34 27.07.2022
2437 Clouds 22 1011 38 10000 0.7 252 16:54 27.07.2022
2438 Clouds 21 1011 39 10000 0.73 272 15:51 27.07.2022
2439 Clouds 21 1011 50 10000 0.76 248 14:48 27.07.2022
2440 Clouds 21 1011 48 10000 0.57 307 14:30 27.07.2022
2441 Clouds 20 1011 44 10000 1.55 334 12:48 27.07.2022
2442 Clouds 15 1009 42 10000 2.09 359 07:53 27.07.2022
2443 Rain 15 1008 21 10000 1.33 340 06:18 27.07.2022
2444 Rain 16 1004 12 10000 1.42 336 00:46 27.07.2022
2445 Clouds 17 1002 30 10000 1.78 359 22:24 26.07.2022
2446 Clouds 18 1001 47 10000 2.08 16 21:19 26.07.2022
2447 Rain 20 1000 51 10000 2.61 25 19:59 26.07.2022
2448 Clouds 21 999 51 10000 3.85 20 18:41 26.07.2022
2449 Clouds 21 998 52 10000 3.17 352 17:57 26.07.2022
2450 Clouds 21 997 51 10000 1.08 292 15:50 26.07.2022
2451 Clouds 21 997 51 10000 0.62 300 14:49 26.07.2022
2452 Clouds 19 996 44 10000 2.05 346 12:50 26.07.2022
2453 Clouds 18 996 29 10000 1.76 329 10:58 26.07.2022
2454 Rain 16 996 1 10000 0.93 311 08:43 26.07.2022
2455 Clouds 15 996 1 10000 1.84 178 05:30 26.07.2022
2456 Clouds 16 997 1 10000 3.73 178 00:24 26.07.2022
2457 Clouds 17 998 1 10000 3.81 178 22:51 25.07.2022
2458 Clouds 17 998 1 10000 3.83 181 22:21 25.07.2022
2459 Clouds 17 998 1 10000 3.83 181 21:38 25.07.2022
2460 Clouds 18 997 49 10000 1.79 98 20:39 25.07.2022
2461 Clouds 18 997 49 10000 1.79 98 19:27 25.07.2022
2462 Clouds 18 997 49 10000 1.79 98 18:18 25.07.2022
2463 Clouds 18 997 49 10000 1.79 98 17:26 25.07.2022
2464 Rain 18 999 52 6382 1.79 43 14:23 25.07.2022
2465 Clouds 17 1003 1 6353 4.93 179 11:39 25.07.2022
2466 Clouds 16 1005 1 10000 3.1 183 08:32 25.07.2022
2467 Clouds 16 1007 1 10000 3.35 188 02:21 25.07.2022
2468 Clouds 16 1008 1 8570 3.47 183 23:51 24.07.2022
2469 Clouds 16 1008 1 9449 3.32 178 22:54 24.07.2022
2470 Clouds 16 1009 1 9665 3.36 170 22:24 24.07.2022
2471 Clouds 16 1009 1 10000 3.81 172 21:18 24.07.2022
2472 Clouds 16 1009 1 10000 3.81 172 20:46 24.07.2022
2473 Clouds 16 1009 1 8865 4.19 172 19:38 24.07.2022
2474 Rain 16 1010 1 10000 3.89 179 18:30 24.07.2022
2475 Rain 16 1010 1 10000 3.89 179 18:30 24.07.2022
2476 Rain 18 1011 1 10000 4.6 188 16:28 24.07.2022
2477 Clouds 18 1011 1 10000 4.6 188 15:45 24.07.2022
2478 Clouds 19 1011 1 10000 4.38 186 13:54 24.07.2022
2479 Clouds 20 1011 42 10000 4.82 185 12:52 24.07.2022
2480 Clouds 19 1011 45 10000 3.99 175 11:37 24.07.2022
2481 Clouds 18 1012 55 10000 3.71 180 10:48 24.07.2022
2482 Clouds 16 1012 1 10000 2.02 170 08:31 24.07.2022
2483 Clouds 16 1013 1 10000 2.55 173 07:47 24.07.2022
2484 Clouds 14 1013 1 10000 1.01 133 04:45 24.07.2022
2485 Clouds 15 1013 1 10000 1.33 158 23:51 23.07.2022
2486 Clouds 19 1012 15 10000 1.64 185 20:59 23.07.2022
2487 Clouds 20 1012 15 10000 1.51 189 19:59 23.07.2022
2488 Clouds 22 1012 40 10000 2.48 210 18:50 23.07.2022
2489 Clouds 21 1012 38 10000 2.45 217 17:28 23.07.2022
2490 Clouds 21 1012 42 10000 2.44 217 16:33 23.07.2022
2491 Clouds 22 1012 52 10000 0.89 43 15:22 23.07.2022
2492 Clouds 21 1013 49 10000 1.39 218 14:58 23.07.2022
2493 Clouds 21 1013 50 10000 0.8 198 14:27 23.07.2022
2494 Clouds 21 1013 46 10000 0.84 150 12:44 23.07.2022
2495 Clouds 18 1014 23 10000 1.36 84 10:45 23.07.2022
2496 Clouds 18 1014 20 10000 1.59 78 10:21 23.07.2022
2497 Clouds 15 1014 1 10000 0.65 63 08:31 23.07.2022
2498 Clouds 10 1015 1 10000 1.4 12 03:39 23.07.2022
2499 Clouds 12 1015 1 10000 1.63 5 00:49 23.07.2022
2500 Clouds 14 1015 1 10000 1.82 43 22:32 22.07.2022
2501 Clouds 16 1015 1 10000 1.89 47 20:52 22.07.2022
2502 Clouds 18 1012 43 10000 0.89 76 19:35 22.07.2022
2503 Clouds 17 1012 43 10000 0.89 76 18:28 22.07.2022
2504 Clouds 16 1015 1 10000 3.11 29 16:49 22.07.2022
2505 Clouds 15 1015 1 10000 4 33 14:54 22.07.2022
2506 Rain 16 1012 40 6559 0.89 231 11:22 22.07.2022
2507 Rain 16 1014 1 7987 4.68 27 09:26 22.07.2022
2508 Clouds 17 1014 1 10000 4.75 25 08:32 22.07.2022
2509 Clouds 19 1013 1 10000 3.83 25 05:19 22.07.2022
2510 Clouds 20 1011 1 10000 0.24 139 00:48 22.07.2022
2511 Clouds 21 1010 1 10000 0.89 316 22:25 21.07.2022
2512 Clouds 21 1010 1 10000 0.51 232 21:29 21.07.2022
2513 Rain 24 1010 10 10000 2.5 187 19:27 21.07.2022
2514 Clouds 26 1010 8 10000 2.57 179 17:41 21.07.2022
2515 Clouds 26 1010 14 10000 2.65 188 17:19 21.07.2022
2516 Clouds 26 1011 14 10000 2.9 188 14:55 21.07.2022
2517 Clouds 27 1011 43 10000 2.9 188 14:31 21.07.2022
2518 Clouds 24 1012 53 10000 2.54 193 12:28 21.07.2022
2519 Clouds 22 1012 61 10000 2.38 189 10:56 21.07.2022
2520 Clouds 20 1012 1 10000 1.43 190 09:33 21.07.2022
2521 Clouds 19 1012 1 10000 1.43 190 08:50 21.07.2022
2522 Clouds 18 1012 1 10000 1.22 194 07:42 21.07.2022
2523 Clouds 18 1012 1 10000 1.08 190 04:46 21.07.2022
2524 Clouds 19 1013 1 10000 0.7 140 00:36 21.07.2022
2525 Clouds 20 1014 1 10000 1.19 144 22:22 20.07.2022
2526 Clouds 22 1014 27 10000 1.36 166 20:55 20.07.2022
2527 Clouds 24 1014 49 10000 2.36 175 19:52 20.07.2022
2528 Clouds 28 1014 54 10000 3.26 181 19:24 20.07.2022
2529 Clouds 25 1014 52 10000 3.27 182 18:34 20.07.2022
2530 Clouds 25 1015 50 10000 3.94 180 17:59 20.07.2022
2531 Clouds 27 1015 46 10000 4.64 184 16:45 20.07.2022
2532 Clouds 29 1015 43 10000 4.89 183 15:31 20.07.2022
2533 Clouds 29 1015 43 10000 4.83 190 14:20 20.07.2022
2534 Clouds 28 1015 45 10000 4.83 190 14:20 20.07.2022
2535 Clouds 25 1016 47 10000 4.9 189 11:34 20.07.2022
2536 Clouds 19 1017 1 10000 3.67 188 08:50 20.07.2022
2537 Clouds 16 1017 1 10000 1.35 162 03:49 20.07.2022
2538 Clouds 17 1017 11 10000 1.82 169 00:51 20.07.2022
2539 Clouds 18 1017 39 10000 2.05 168 23:41 19.07.2022
2540 Clouds 19 1017 49 10000 2.05 168 22:33 19.07.2022
2541 Clouds 20 1017 53 10000 2.19 174 21:35 19.07.2022
2542 Clouds 21 1017 53 10000 2.19 174 20:33 19.07.2022
2543 Clouds 25 1016 47 10000 3.84 186 18:58 19.07.2022
2544 Clouds 26 1016 38 10000 3.64 176 18:28 19.07.2022
2545 Clouds 25 1016 45 10000 2.44 183 16:37 19.07.2022
2546 Clouds 25 1016 43 10000 2.07 205 14:53 19.07.2022
2547 Clouds 23 1017 42 10000 1.44 173 11:44 19.07.2022
2548 Clouds 21 1017 50 10000 0.89 145 10:55 19.07.2022
2549 Clouds 20 1017 48 10000 1.16 78 09:25 19.07.2022
2550 Clouds 19 1017 32 10000 1.16 78 08:39 19.07.2022
2551 Clouds 15 1016 1 10000 1.16 7 07:19 19.07.2022
2552 Clouds 13 1016 1 10000 1.41 350 05:30 19.07.2022
2553 Clouds 12 1016 1 10000 1.46 341 04:55 19.07.2022
2554 Clouds 14 1014 1 10000 1.47 340 01:50 19.07.2022
2555 Clouds 16 1013 1 10000 0.79 287 23:49 18.07.2022
2556 Clouds 17 1013 1 10000 0.9 219 23:18 18.07.2022
2557 Clouds 18 1012 1 10000 1.27 185 22:18 18.07.2022
2558 Clouds 19 1012 1 10000 1.32 171 20:51 18.07.2022
2559 Clouds 22 1011 39 10000 1.95 272 19:33 18.07.2022
2560 Clouds 23 1012 39 10000 2.63 269 17:38 18.07.2022
2561 Clouds 22 1012 44 10000 2.48 210 15:57 18.07.2022
2562 Clouds 22 1012 47 10000 3.3 259 15:18 18.07.2022
2563 Clouds 23 1012 48 10000 3.03 249 13:24 18.07.2022
2564 Clouds 20 1013 47 10000 2.66 235 11:31 18.07.2022
2565 Clouds 16 1014 1 10000 1.26 187 09:43 18.07.2022
2566 Rain 14 1015 1 10000 1.03 201 07:45 18.07.2022
2567 Clouds 14 1016 11 10000 0.82 257 02:21 18.07.2022
2568 Clouds 16 1016 45 10000 1.37 258 22:51 17.07.2022
2569 Clouds 18 1016 50 10000 1.83 254 22:23 17.07.2022
2570 Clouds 19 1016 46 10000 1.66 226 21:26 17.07.2022
2571 Clouds 20 1016 31 10000 1.66 226 20:44 17.07.2022
2572 Clouds 20 1015 42 10000 1.89 295 19:49 17.07.2022
2573 Clouds 20 1015 47 10000 3.8 278 19:19 17.07.2022
2574 Clouds 21 1015 52 10000 4.45 274 17:39 17.07.2022
2575 Clouds 22 1015 36 10000 3.94 269 16:51 17.07.2022
2576 Clouds 22 1015 51 10000 3.52 284 16:27 17.07.2022
2577 Clouds 21 1015 50 10000 4.27 279 15:27 17.07.2022
2578 Clouds 17 1016 35 10000 2.24 276 13:34 17.07.2022
2579 Rain 18 1017 58 10000 1.94 254 12:22 17.07.2022
2580 Clouds 17 1018 52 10000 1.31 142 09:30 17.07.2022
2581 Clouds 13 1018 38 10000 0.95 36 06:37 17.07.2022
2582 Clouds 12 1018 1 10000 1.56 32 02:33 17.07.2022
2583 Clouds 14 1015 1 10000 1.31 65 23:22 16.07.2022
2584 Clouds 14 1015 1 10000 1.31 65 23:22 16.07.2022
2585 Clouds 19 1015 76 10000 1.35 110 21:57 16.07.2022
2586 Clouds 20 1014 53 10000 3.25 176 20:26 16.07.2022
2587 Clouds 20 1013 51 10000 4.15 183 18:41 16.07.2022
2588 Clouds 21 1013 43 10000 3.59 183 17:20 16.07.2022
2589 Clouds 21 1012 37 10000 0.9 239 15:23 16.07.2022
2590 Clouds 18 1012 47 10000 2.28 291 11:54 16.07.2022
2591 Clouds 15 1012 52 10000 1.5 297 09:37 16.07.2022
2592 Clouds 14 1012 48 10000 1.5 297 08:48 16.07.2022
2593 Clouds 14 1012 40 10000 0.88 303 08:29 16.07.2022
2594 Clouds 11 1011 1 10000 1.83 338 04:28 16.07.2022
2595 Clouds 12 1011 22 10000 1.88 347 03:31 16.07.2022
2596 Clouds 14 1009 79 10000 4.1 40 23:51 15.07.2022
2597 Rain 15 1009 83 10000 4.47 39 22:43 15.07.2022
2598 Clouds 17 1007 54 10000 1.51 170 21:31 15.07.2022
2599 Clouds 18 1006 53 10000 2.99 179 20:32 15.07.2022
2600 Clouds 21 1006 45 10000 4.04 207 18:44 15.07.2022
2601 Clouds 20 1006 51 10000 4.28 192 17:49 15.07.2022
2602 Clouds 19 1007 27 10000 1.89 206 15:41 15.07.2022
2603 Clear 20 1008 36 10000 1.68 237 13:22 15.07.2022
2604 Clear 18 1009 43 10000 1.25 245 11:48 15.07.2022
2605 Clear 18 1009 44 10000 1.08 258 10:51 15.07.2022
2606 Clear 14 1010 52 10000 0.36 280 07:47 15.07.2022
2607 Clouds 11 1010 55 10000 1.19 323 02:39 15.07.2022
2608 Clouds 12 1010 94 10000 0.43 343 00:38 15.07.2022
2609 Clouds 14 1009 92 10000 0.5 315 22:54 14.07.2022
2610 Clouds 15 1009 92 10000 0.91 319 21:56 14.07.2022
2611 Clouds 15 1009 92 10000 0.91 319 21:32 14.07.2022
2612 Clouds 15 1008 89 10000 1.02 31 20:46 14.07.2022
2613 Clouds 15 1008 91 10000 2.47 51 20:28 14.07.2022
2614 Clouds 15 1008 93 10000 2.29 55 19:58 14.07.2022
2615 Clouds 19 1004 51 10000 0.82 16 16:23 14.07.2022
2616 Clouds 18 1004 50 10000 0.82 16 15:54 14.07.2022
2617 Clouds 19 1004 52 10000 0.37 215 14:44 14.07.2022
2618 Clouds 19 1004 32 10000 1.17 309 13:32 14.07.2022
2619 Clouds 19 1004 35 10000 1.36 308 12:19 14.07.2022
2620 Clouds 19 1005 50 10000 1.68 308 11:25 14.07.2022
2621 Clouds 17 1005 52 10000 1.68 308 10:39 14.07.2022
2622 Clouds 15 1005 38 10000 1.95 319 08:22 14.07.2022
2623 Clouds 14 1007 44 10000 1.16 311 03:36 14.07.2022
2624 Clear 14 1006 54 10000 2.32 312 00:55 14.07.2022
2625 Clear 15 1006 54 10000 2.55 288 23:41 13.07.2022
2626 Clear 16 1005 53 10000 3.11 281 22:27 13.07.2022
2627 Clear 18 1005 48 10000 4 288 21:32 13.07.2022
2628 Clouds 20 1004 38 10000 2.68 53 20:38 13.07.2022
2629 Rain 22 1004 44 10000 0.89 78 17:59 13.07.2022
2630 Clouds 21 1004 46 10000 0.89 78 17:20 13.07.2022
2631 Clouds 20 1004 76 10000 0.89 78 15:59 13.07.2022
2632 Rain 20 1003 38 10000 7.67 271 13:50 13.07.2022
2633 Clouds 21 1005 49 10000 2.75 231 11:30 13.07.2022
2634 Clouds 20 1005 15 10000 2.75 231 10:44 13.07.2022
2635 Clouds 19 1007 1 10000 1.61 219 09:29 13.07.2022
2636 Clouds 19 1007 1 10000 1.33 200 08:23 13.07.2022
2637 Clouds 17 1009 95 10000 0.61 207 04:36 13.07.2022
2638 Clouds 17 1011 1 8723 1.4 166 00:47 13.07.2022
2639 Clouds 17 1012 1 10000 1.99 166 22:46 12.07.2022
2640 Clouds 18 1013 1 10000 2.51 180 21:49 12.07.2022
2641 Clouds 19 1013 85 10000 2.66 170 20:53 12.07.2022
2642 Rain 19 1013 1 10000 2.63 168 19:54 12.07.2022
2643 Clouds 19 1014 1 10000 2.75 173 18:43 12.07.2022
2644 Rain 22 1015 46 10000 3.83 182 16:36 12.07.2022
2645 Clouds 24 1016 46 10000 4.35 188 14:32 12.07.2022
2646 Clouds 23 1016 49 10000 4.35 188 13:43 12.07.2022
2647 Clouds 23 1017 48 10000 4.31 196 11:54 12.07.2022
2648 Clouds 21 1018 48 10000 3.12 189 10:27 12.07.2022
2649 Clouds 18 1019 1 10000 2.4 192 08:58 12.07.2022
2650 Clouds 17 1019 65 10000 1.88 189 07:48 12.07.2022
2651 Clouds 13 1020 1 10000 0.69 153 05:47 12.07.2022
2652 Clouds 13 1020 1 10000 0.57 191 05:29 12.07.2022
2653 Clouds 14 1020 1 10000 0.67 182 01:31 12.07.2022
2654 Clear 17 1020 41 10000 0.43 210 22:43 11.07.2022
2655 Clear 20 1019 53 10000 2.36 210 21:34 11.07.2022
2656 Clouds 22 1018 45 10000 2.28 195 20:32 11.07.2022
2657 Clouds 24 1018 37 10000 1.51 138 19:27 11.07.2022
2658 Clouds 24 1018 39 10000 1.19 106 18:30 11.07.2022
2659 Clouds 23 1018 46 10000 0.32 46 16:31 11.07.2022
2660 Clouds 23 1018 43 10000 0.93 283 15:28 11.07.2022
2661 Clouds 22 1019 49 10000 1.34 290 13:19 11.07.2022
2662 Clouds 19 1019 51 10000 0.79 281 11:24 11.07.2022
2663 Clouds 19 1019 51 10000 0.79 281 11:24 11.07.2022
2664 Clouds 18 1019 43 10000 0.3 44 09:58 11.07.2022
2665 Clouds 16 1019 39 10000 0.7 62 09:35 11.07.2022
2666 Clouds 15 1020 18 10000 0.93 44 08:32 11.07.2022
2667 Clouds 12 1019 1 10000 1.67 18 01:54 11.07.2022
2668 Clouds 14 1019 45 10000 1.38 18 23:55 10.07.2022
2669 Clouds 15 1018 51 10000 0.98 359 22:48 10.07.2022
2670 Clouds 19 1017 47 10000 1.75 76 20:56 10.07.2022
2671 Clouds 20 1017 58 10000 1.41 75 20:36 10.07.2022
2672 Clouds 20 1017 45 10000 2.45 65 19:38 10.07.2022
2673 Clouds 23 1014 42 10000 0.89 32 18:35 10.07.2022
2674 Clouds 22 1016 39 10000 2.71 54 17:35 10.07.2022
2675 Clouds 21 1016 38 10000 3.45 48 16:24 10.07.2022
2676 Clouds 21 1016 38 10000 3.45 48 16:24 10.07.2022
2677 Clouds 23 1014 40 10000 0.89 32 15:20 10.07.2022
2678 Clouds 21 1014 43 10000 0.89 32 13:40 10.07.2022
2679 Clouds 20 1014 44 10000 0.89 32 12:26 10.07.2022
2680 Clear 16 1017 52 10000 4.32 351 09:47 10.07.2022
2681 Clear 15 1017 51 10000 4.47 343 08:44 10.07.2022
2682 Clear 14 1017 47 10000 2.19 318 07:24 10.07.2022
2683 Clouds 14 1014 66 10000 2 335 23:58 09.07.2022
2684 Clouds 16 1012 52 10000 2 334 22:27 09.07.2022
2685 Clouds 17 1012 49 10000 1.99 333 21:56 09.07.2022
2686 Clouds 18 1010 46 10000 3.52 16 20:23 09.07.2022
2687 Clouds 21 1009 40 10000 3.09 1 18:32 09.07.2022
2688 Clouds 21 1009 42 10000 2.44 357 17:33 09.07.2022
2689 Clouds 21 1009 39 10000 2.44 357 16:44 09.07.2022
2690 Clouds 21 1009 40 10000 2.88 337 15:40 09.07.2022
2691 Clouds 20 1009 40 10000 3.82 313 14:27 09.07.2022
2692 Clouds 21 1009 41 10000 2.65 346 13:49 09.07.2022
2693 Clouds 19 1009 47 10000 2.66 329 12:43 09.07.2022
2694 Clear 18 1010 47 10000 3.17 323 11:19 09.07.2022
2695 Clear 18 1011 47 10000 3.96 309 10:22 09.07.2022
2696 Clouds 16 1011 52 10000 4.43 303 07:45 09.07.2022
2697 Clouds 13 1011 42 10000 3.72 286 04:53 09.07.2022
2698 Clouds 15 1011 52 10000 2.3 286 01:50 09.07.2022
2699 Clouds 17 1012 53 10000 1.71 242 22:53 08.07.2022
2700 Clouds 18 1013 48 10000 1.74 204 21:43 08.07.2022
2701 Clouds 19 1013 46 10000 1.52 220 20:40 08.07.2022
2702 Clouds 21 1014 44 10000 3.35 256 19:52 08.07.2022
2703 Clouds 23 1014 45 10000 4.42 217 18:24 08.07.2022
2704 Clouds 23 1014 44 10000 4.38 217 16:40 08.07.2022
2705 Clouds 23 1015 44 10000 0.9 232 14:51 08.07.2022
2706 Clouds 23 1015 46 10000 0.91 233 14:51 08.07.2022
2707 Clouds 22 1016 44 10000 1.74 305 13:29 08.07.2022
2708 Clouds 20 1016 50 10000 1.81 330 11:42 08.07.2022
2709 Clear 19 1017 51 10000 2.42 334 10:28 08.07.2022
2710 Clouds 16 1017 51 10000 2.02 344 08:27 08.07.2022
2711 Clouds 14 1017 43 10000 2.13 348 06:49 08.07.2022
2712 Clouds 16 1015 48 10000 1.89 217 01:31 08.07.2022
2713 Clouds 18 1015 51 10000 3.05 179 22:59 07.07.2022
2714 Clouds 18 1015 53 10000 2.57 177 22:34 07.07.2022
2715 Clouds 20 1015 52 10000 2.71 186 20:35 07.07.2022
2716 Clouds 23 1014 41 10000 2.45 115 18:20 07.07.2022
2717 Clouds 24 1013 36 10000 2.78 97 16:51 07.07.2022
2718 Clouds 21 1012 30 10000 2.96 29 14:35 07.07.2022
2719 Clouds 21 1012 44 10000 2.82 26 13:18 07.07.2022
2720 Clouds 19 1012 40 10000 3.21 30 12:24 07.07.2022
2721 Clouds 20 1012 49 10000 3.21 30 11:45 07.07.2022
2722 Clear 19 1011 49 10000 3.5 37 11:24 07.07.2022
2723 Clear 18 1011 40 10000 3.5 37 10:41 07.07.2022
2724 Clear 17 1011 32 10000 3.81 29 10:23 07.07.2022
2725 Clouds 13 1009 1 10000 2.18 353 06:49 07.07.2022
2726 Rain 12 1006 1 10000 1.12 322 01:51 07.07.2022
2727 Rain 12 1006 1 8764 1.77 208 23:36 06.07.2022
2728 Rain 12 1006 1 8800 1.75 208 23:18 06.07.2022
2729 Rain 12 1006 1 8764 1.77 208 22:52 06.07.2022
2730 Rain 12 1006 1 3341 2.64 198 22:34 06.07.2022
2731 Rain 13 1006 1 10000 3.03 201 20:36 06.07.2022
2732 Rain 16 1007 19 10000 4.26 208 19:34 06.07.2022
2733 Clouds 19 1007 41 10000 5.21 173 17:32 06.07.2022
2734 Clouds 21 1007 42 10000 5.36 174 15:59 06.07.2022
2735 Clouds 20 1010 41 10000 0.89 143 13:56 06.07.2022
2736 Clouds 20 1010 41 10000 0.89 143 12:30 06.07.2022
2737 Clouds 20 1010 40 10000 0.89 143 12:30 06.07.2022
2738 Clouds 19 1010 43 10000 2.55 217 11:45 06.07.2022
2739 Clouds 18 1011 45 10000 1.23 260 10:18 06.07.2022
2740 Clear 14 1011 53 10000 2.08 320 07:44 06.07.2022
2741 Clear 14 1011 53 10000 1.97 316 07:19 06.07.2022
2742 Clouds 13 1010 55 10000 1.96 307 01:42 06.07.2022
2743 Clouds 16 1009 52 10000 1.91 271 22:45 05.07.2022
2744 Clouds 18 1008 51 10000 2.29 215 21:32 05.07.2022
2745 Clouds 18 1008 51 10000 2.29 215 21:32 05.07.2022
2746 Clouds 19 1008 52 10000 2.62 190 20:38 05.07.2022
2747 Clouds 19 1008 51 10000 2.4 188 19:41 05.07.2022
2748 Clouds 20 1008 52 10000 3.13 195 18:26 05.07.2022
2749 Clouds 20 1008 51 10000 3.13 195 17:41 05.07.2022
2750 Clouds 20 1008 51 10000 3.23 194 16:39 05.07.2022
2751 Clouds 20 1008 48 10000 2.97 218 15:24 05.07.2022
2752 Clouds 21 1008 33 10000 2.32 217 13:47 05.07.2022
2753 Clouds 19 1008 49 10000 1.66 234 12:41 05.07.2022
2754 Clouds 18 1008 51 10000 0.74 257 10:46 05.07.2022
2755 Clouds 17 1008 51 10000 1.1 298 10:25 05.07.2022
2756 Clear 15 1008 42 10000 1.01 274 08:24 05.07.2022
2757 Clear 14 1007 11 10000 0.88 227 07:31 05.07.2022
2758 Clear 10 1007 1 10000 1.35 198 04:46 05.07.2022
2759 Clear 11 1006 1 10000 1.68 192 02:48 05.07.2022
2760 Rain 14 1006 1 10000 2.44 184 23:42 04.07.2022
2761 Rain 13 1006 1 10000 2.5 189 22:59 04.07.2022
2762 Clouds 14 1006 1 10000 2.88 191 22:20 04.07.2022
2763 Clouds 14 1006 1 10000 4 190 21:18 04.07.2022
2764 Clouds 14 1006 1 10000 4 190 20:50 04.07.2022
2765 Clouds 14 1006 1 10000 4 190 20:50 04.07.2022
2766 Clouds 15 1006 1 10000 4 190 20:32 04.07.2022
2767 Rain 17 1006 74 10000 4.92 191 19:44 04.07.2022
2768 Clouds 16 1006 5 10000 5.38 192 19:25 04.07.2022
2769 Clouds 19 1006 51 10000 5.4 204 17:42 04.07.2022
2770 Clouds 19 1007 26 10000 6.6 199 15:44 04.07.2022
2771 Rain 20 1006 33 10000 6.24 182 14:42 04.07.2022
2772 Clouds 19 1007 27 10000 5.8 181 13:27 04.07.2022
2773 Clouds 18 1007 35 10000 5.02 184 11:43 04.07.2022
2774 Clouds 18 1009 1 10000 3.55 187 10:33 04.07.2022
2775 Clouds 17 1009 1 10000 3.55 187 09:36 04.07.2022
2776 Clouds 14 1010 1 10000 0.71 137 06:50 04.07.2022
2777 Clouds 13 1012 1 10000 0.94 78 03:30 04.07.2022
2778 Clear 14 1012 1 10000 1.55 152 00:27 04.07.2022
2779 Clear 15 1012 1 10000 1.74 162 22:58 03.07.2022
2780 Clear 18 1012 1 10000 3.52 174 20:47 03.07.2022
2781 Clouds 17 1012 1 10000 3.57 180 20:21 03.07.2022
2782 Clouds 19 1012 13 10000 3.75 192 19:26 03.07.2022
2783 Clouds 18 1012 1 10000 3.75 192 18:32 03.07.2022
2784 Rain 18 1012 1 10000 4.1 192 17:42 03.07.2022
2785 Clouds 18 1013 1 10000 5.13 186 15:28 03.07.2022
2786 Clouds 18 1013 66 10000 5.13 186 14:57 03.07.2022
2787 Rain 18 1014 73 10000 4.83 187 13:50 03.07.2022
2788 Clouds 18 1015 1 10000 4.42 187 12:51 03.07.2022
2789 Clouds 17 1014 1 10000 4.95 193 12:21 03.07.2022
2790 Clouds 17 1015 1 10000 4.74 195 10:55 03.07.2022
2791 Clouds 16 1015 1 10000 5.36 190 10:36 03.07.2022
2792 Rain 15 1014 67 10000 4.99 191 08:48 03.07.2022
2793 Clouds 15 1015 1 10000 4.02 189 07:34 03.07.2022
2794 Clouds 15 1015 1 10000 3.9 187 01:32 03.07.2022
2795 Clouds 15 1015 1 10000 3.78 182 23:38 02.07.2022
2796 Clear 17 1014 1 10000 4.25 192 22:31 02.07.2022
2797 Clear 18 1014 10 10000 4.92 193 20:37 02.07.2022
2798 Clouds 19 1013 16 10000 5.8 191 19:50 02.07.2022
2799 Clouds 20 1013 34 10000 6.5 193 18:48 02.07.2022
2800 Clouds 21 1012 28 10000 6.99 194 17:40 02.07.2022
2801 Clouds 22 1011 42 10000 6.74 194 16:32 02.07.2022
2802 Clouds 21 1010 39 10000 5.34 206 13:51 02.07.2022
2803 Rain 18 1011 1 10000 4.7 196 11:51 02.07.2022
2804 Clouds 17 1011 1 10000 4.36 193 10:52 02.07.2022
2805 Clouds 18 1011 1 10000 3.76 176 10:28 02.07.2022
2806 Rain 15 1011 1 10000 2.53 163 08:39 02.07.2022
2807 Rain 15 1011 1 10000 2.85 163 08:19 02.07.2022
2808 Rain 15 1010 1 4546 2.93 166 05:59 02.07.2022
2809 Clouds 19 1012 1 10000 1.98 159 00:47 02.07.2022
2810 Clouds 19 1012 1 10000 1.28 160 23:31 01.07.2022
2811 Clouds 20 1012 97 10000 1.38 169 22:35 01.07.2022
2812 Clouds 20 1012 1 10000 1.89 172 21:39 01.07.2022
2813 Clouds 21 1011 1 10000 2.24 172 20:59 01.07.2022
2814 Clouds 21 1011 4 10000 2.24 172 20:37 01.07.2022
2815 Clouds 23 1012 1 10000 1.69 181 19:41 01.07.2022
2816 Clouds 24 1012 35 10000 1.67 196 17:45 01.07.2022
2817 Clouds 23 1012 1 10000 1.04 359 15:21 01.07.2022
2818 Rain 22 1013 1 10000 1.39 35 13:54 01.07.2022
2819 Clouds 22 1013 1 10000 1.79 47 11:49 01.07.2022
2820 Clouds 20 1013 96 10000 1.85 43 10:19 01.07.2022
2821 Rain 20 1013 1 10000 1.8 44 08:46 01.07.2022
2822 Clouds 19 1014 1 10000 1.51 25 02:49 01.07.2022
2823 Clouds 19 1014 6 10000 1.45 359 00:25 01.07.2022
2824 Clouds 20 1015 64 10000 0.68 24 22:54 30.06.2022
2825 Clouds 20 1015 64 10000 0.69 24 22:32 30.06.2022
2826 Clouds 20 1015 62 10000 0.28 131 21:59 30.06.2022
2827 Clouds 21 1015 62 10000 0.28 131 21:34 30.06.2022
2828 Clear 27 1014 47 10000 1.14 207 20:22 30.06.2022
2829 Clear 27 1014 46 10000 1.15 208 19:53 30.06.2022
2830 Clear 28 1014 42 10000 1.45 157 19:18 30.06.2022
2831 Clear 28 1014 42 10000 1.45 157 18:35 30.06.2022
2832 Clear 28 1014 43 10000 1.57 159 17:38 30.06.2022
2833 Clear 28 1014 42 10000 1.55 165 16:48 30.06.2022
2834 Clear 27 1015 45 10000 1.04 155 14:47 30.06.2022
2835 Clear 27 1016 44 10000 1.32 144 13:30 30.06.2022
2836 Clear 26 1016 47 10000 1.46 115 12:35 30.06.2022
2837 Clear 24 1017 49 10000 0.66 105 11:28 30.06.2022
2838 Clear 22 1017 12 10000 0.04 157 09:53 30.06.2022
2839 Clear 21 1018 7 10000 0.39 290 09:32 30.06.2022
2840 Clouds 18 1018 1 10000 0.19 311 07:41 30.06.2022
2841 Clouds 13 1018 1 10000 1.01 330 05:47 30.06.2022
2842 Clouds 16 1019 75 10000 0.42 318 00:32 30.06.2022
2843 Clouds 19 1018 71 10000 0.67 247 23:21 29.06.2022
2844 Clouds 19 1018 71 10000 0.67 247 22:39 29.06.2022
2845 Clear 19 1018 52 10000 1.58 204 21:34 29.06.2022
2846 Clear 21 1018 59 10000 1.58 204 20:33 29.06.2022
2847 Clear 22 1018 35 10000 2.31 194 19:37 29.06.2022
2848 Clear 25 1018 33 10000 3.36 190 17:43 29.06.2022
2849 Clear 24 1018 38 10000 3.25 186 16:38 29.06.2022
2850 Clear 24 1018 49 10000 2.59 181 14:56 29.06.2022
2851 Clouds 22 1019 6 10000 2.42 176 12:40 29.06.2022
2852 Clouds 20 1019 1 10000 1.93 173 11:19 29.06.2022
2853 Clouds 17 1019 1 10000 1.36 174 09:33 29.06.2022
2854 Clouds 18 1019 61 10000 0.92 178 07:44 29.06.2022
2855 Clouds 12 1019 1 10000 0.28 97 04:55 29.06.2022
2856 Clear 15 1018 1 10000 1.16 147 00:58 29.06.2022
2857 Clear 15 1018 1 10000 1.16 147 00:36 29.06.2022
2858 Clear 16 1017 1 10000 1.64 149 22:54 28.06.2022
2859 Clear 18 1017 1 10000 1.64 149 22:30 28.06.2022
2860 Clear 18 1016 3 10000 2.23 162 21:55 28.06.2022
2861 Clear 19 1015 14 10000 3.29 168 21:32 28.06.2022
2862 Clear 19 1015 21 10000 3.28 168 20:35 28.06.2022
2863 Clouds 22 1015 32 10000 3.49 165 19:34 28.06.2022
2864 Clouds 22 1014 48 10000 3.51 160 18:46 28.06.2022
2865 Clouds 22 1014 48 10000 4.34 164 17:40 28.06.2022
2866 Clouds 22 1014 27 10000 2.88 174 15:59 28.06.2022
2867 Clouds 21 1014 33 10000 2.88 174 15:38 28.06.2022
2868 Clouds 20 1015 1 10000 2.95 185 14:21 28.06.2022
2869 Clouds 20 1015 1 10000 2.94 184 14:21 28.06.2022
2870 Clouds 19 1015 1 10000 1.91 149 13:52 28.06.2022
2871 Clouds 17 1015 1 10000 3.16 175 12:57 28.06.2022
2872 Rain 16 1014 86 10000 2.64 178 11:18 28.06.2022
2873 Clouds 16 1013 1 10000 1.93 153 09:29 28.06.2022
2874 Clouds 16 1013 1 10000 1.93 153 08:43 28.06.2022
2875 Clouds 17 1013 1 191 2.17 169 07:42 28.06.2022
2876 Clouds 17 1013 1 231 2.1 170 06:56 28.06.2022
2877 Rain 18 1013 1 7808 1.09 93 00:58 28.06.2022
2878 Rain 18 1013 1 7292 1.65 67 23:37 27.06.2022
2879 Rain 19 1014 1 10000 0.75 48 22:52 27.06.2022
2880 Clouds 19 1014 1 10000 1.28 119 21:38 27.06.2022
2881 Rain 20 1014 1 10000 1.1 12 20:52 27.06.2022
2882 Clouds 20 1014 1 10000 1.29 324 19:33 27.06.2022
2883 Rain 20 1014 1 5283 1.64 271 18:25 27.06.2022
2884 Clouds 21 1014 1 10000 1.29 223 16:20 27.06.2022
2885 Clouds 21 1015 75 10000 1.04 224 15:22 27.06.2022
2886 Clouds 20 1016 83 10000 1.07 264 13:36 27.06.2022
2887 Clouds 19 1016 1 10000 1.67 229 12:56 27.06.2022
2888 Clouds 18 1016 1 10000 1.41 149 10:34 27.06.2022
2889 Clouds 18 1017 78 10000 1.2 100 09:20 27.06.2022
2890 Clouds 18 1017 1 10000 0.9 136 08:29 27.06.2022
2891 Clouds 16 1017 1 10000 0.84 181 06:38 27.06.2022
2892 Clouds 16 1017 1 10000 0.25 329 03:24 27.06.2022
2893 Clouds 16 1017 1 10000 0.27 19 00:56 27.06.2022
2894 Clouds 18 1016 1 10000 0.04 140 22:18 26.06.2022
2895 Rain 19 1016 1 10000 0.87 102 20:44 26.06.2022
2896 Rain 19 1015 1 10000 0.14 175 19:40 26.06.2022
2897 Rain 19 1016 1 10000 1 93 18:31 26.06.2022
2898 Rain 21 1016 1 10000 1.63 99 16:45 26.06.2022
2899 Rain 21 1016 1 10000 0.92 288 15:26 26.06.2022
2900 Rain 23 1016 1 10000 2.68 145 13:41 26.06.2022
2901 Rain 23 1017 1 10000 1.21 125 13:20 26.06.2022
2902 Clouds 24 1016 1 10000 3.35 152 11:26 26.06.2022
2903 Clouds 22 1016 1 10000 2.61 129 10:27 26.06.2022
2904 Clouds 22 1016 55 10000 2.61 129 09:34 26.06.2022
2905 Clouds 19 1017 1 10000 0.8 75 07:44 26.06.2022
2906 Clouds 17 1016 1 10000 0.45 83 01:55 26.06.2022
2907 Clouds 19 1015 1 10000 0.97 215 00:21 26.06.2022
2908 Clouds 22 1015 91 10000 0.96 214 23:49 25.06.2022
2909 Clouds 20 1015 1 10000 1.43 171 23:20 25.06.2022
2910 Clouds 21 1014 7 10000 1.44 166 22:27 25.06.2022
2911 Clouds 23 1014 78 10000 1.44 166 21:41 25.06.2022
2912 Clouds 24 1013 38 10000 1.4 163 21:18 25.06.2022
2913 Clouds 25 1013 46 10000 1.78 157 20:28 25.06.2022
2914 Clouds 26 1013 50 10000 2.51 172 19:21 25.06.2022
2915 Clouds 27 1012 50 10000 3.23 176 17:57 25.06.2022
2916 Clouds 26 1012 50 10000 3.68 182 17:22 25.06.2022
2917 Clouds 28 1012 47 10000 3.16 188 15:36 25.06.2022
2918 Clouds 27 1012 50 10000 3.4 216 13:41 25.06.2022
2919 Clouds 27 1012 50 10000 3.49 195 12:38 25.06.2022
2920 Clouds 26 1012 49 10000 3.28 152 10:45 25.06.2022
2921 Clouds 24 1012 49 10000 2.34 119 09:20 25.06.2022
2922 Clouds 22 1012 37 10000 2.34 119 08:41 25.06.2022
2923 Clouds 21 1012 16 10000 1.19 109 08:19 25.06.2022
2924 Clear 16 1011 1 10000 0.87 46 04:18 25.06.2022
2925 Clear 18 1011 14 10000 0.6 62 00:38 25.06.2022
2926 Clouds 20 1011 3 10000 0.88 43 22:55 24.06.2022
2927 Clouds 22 1010 64 10000 0.92 32 21:42 24.06.2022
2928 Clouds 25 1010 51 10000 0.22 320 20:57 24.06.2022
2929 Clear 27 1010 47 10000 1.09 249 20:19 24.06.2022
2930 Clear 28 1010 43 10000 1.37 218 19:22 24.06.2022
2931 Clear 28 1010 44 10000 1.37 217 18:49 24.06.2022
2932 Clear 28 1010 44 10000 1.37 218 18:30 24.06.2022
2933 Clear 27 1010 45 10000 2.54 188 17:21 24.06.2022
2934 Clear 26 1011 49 10000 3.5 189 15:47 24.06.2022
2935 Clear 25 1012 48 10000 3.94 186 14:28 24.06.2022
2936 Clear 25 1012 46 10000 3.94 186 13:55 24.06.2022
2937 Clear 22 1012 21 10000 4.34 185 11:44 24.06.2022
2938 Clear 22 1012 25 10000 4.34 190 11:22 24.06.2022
2939 Clear 21 1012 13 10000 3.96 190 10:19 24.06.2022
2940 Clear 20 1012 1 10000 3.96 191 09:40 24.06.2022
2941 Clear 18 1012 1 10000 3.02 190 08:52 24.06.2022
2942 Clouds 15 1012 1 10000 2.01 183 06:49 24.06.2022
2943 Clouds 15 1012 1 10000 2.01 183 06:31 24.06.2022
2944 Clouds 15 1012 1 10000 1.65 177 05:55 24.06.2022
2945 Clouds 15 1011 1 10000 2.22 162 01:36 24.06.2022
2946 Clouds 16 1011 1 10000 2.75 165 22:55 23.06.2022
2947 Clouds 16 1011 1 10000 2.75 165 22:33 23.06.2022
2948 Clouds 18 1010 1 10000 4.04 168 20:56 23.06.2022
2949 Clouds 21 1009 63 10000 3.7 165 20:32 23.06.2022
2950 Clouds 21 1008 1 10000 4.29 165 18:59 23.06.2022
2951 Clouds 22 1008 33 10000 4.68 167 17:50 23.06.2022
2952 Clouds 22 1008 33 10000 4.68 167 17:50 23.06.2022
2953 Clouds 25 1008 39 10000 5.01 166 16:50 23.06.2022
2954 Clouds 25 1008 38 10000 5.08 173 15:43 23.06.2022
2955 Clear 26 1008 37 10000 4.86 184 15:23 23.06.2022
2956 Clouds 25 1008 48 10000 3.41 194 13:21 23.06.2022
2957 Clouds 22 1008 49 10000 2.65 215 11:23 23.06.2022
2958 Clouds 20 1008 51 10000 2.18 214 09:46 23.06.2022
2959 Clouds 18 1007 29 10000 1.5 214 08:18 23.06.2022
2960 Clouds 15 1006 1 10000 0.9 220 02:38 23.06.2022
2961 Clouds 16 1006 1 10000 1.64 178 00:26 23.06.2022
2962 Clouds 16 1006 1 10000 2.45 183 23:27 22.06.2022
2963 Clouds 16 1006 1 10000 2.45 183 23:27 22.06.2022
2964 Clouds 17 1005 1 10000 3.29 187 22:24 22.06.2022
2965 Clouds 18 1005 1 10000 3.93 183 20:57 22.06.2022
2966 Clouds 18 1005 1 10000 4.56 181 20:25 22.06.2022
2967 Clouds 20 1005 66 10000 4.56 181 19:50 22.06.2022
2968 Clouds 22 1005 54 10000 4.82 191 18:21 22.06.2022
2969 Clouds 23 1005 48 10000 4.14 191 17:24 22.06.2022
2970 Clouds 21 1005 43 10000 3.35 198 16:18 22.06.2022
2971 Clouds 21 1005 40 10000 2.72 203 15:25 22.06.2022
2972 Clouds 21 1006 50 10000 1.52 183 13:52 22.06.2022
2973 Clouds 20 1006 43 10000 1.72 161 13:26 22.06.2022
2974 Clouds 20 1006 45 10000 1.72 161 12:56 22.06.2022
2975 Clouds 20 1007 43 10000 1.23 148 11:47 22.06.2022
2976 Clouds 20 1007 41 10000 1.11 111 10:54 22.06.2022
2977 Clouds 19 1007 37 10000 1.32 61 09:54 22.06.2022
2978 Clouds 16 1008 3 10000 2.19 22 07:56 22.06.2022
2979 Clouds 14 1007 1 10000 1.67 12 03:30 22.06.2022
2980 Clouds 15 1006 1 10000 0.97 10 01:22 22.06.2022
2981 Clouds 16 1005 1 10000 0.27 61 23:41 21.06.2022
2982 Rain 18 1005 70 10000 0.93 180 21:32 21.06.2022
2983 Clouds 19 1004 48 10000 2.36 188 19:50 21.06.2022
2984 Clouds 20 1004 45 10000 2.95 183 18:32 21.06.2022
2985 Clouds 20 1004 43 10000 2.94 190 17:25 21.06.2022
2986 Rain 20 1005 50 10000 4.17 188 13:45 21.06.2022
2987 Clouds 21 1005 45 10000 4.23 192 11:31 21.06.2022
2988 Clouds 18 1006 46 10000 3.41 197 09:48 21.06.2022
2989 Clouds 17 1006 49 10000 2.76 195 08:37 21.06.2022
2990 Clouds 13 1006 1 10000 1.76 188 06:35 21.06.2022
2991 Clouds 13 1008 18 10000 1.33 161 00:44 21.06.2022
2992 Clouds 18 1008 78 10000 1.62 161 23:18 20.06.2022
2993 Clear 18 1008 69 10000 2.08 173 21:52 20.06.2022
2994 Clear 20 1008 52 10000 2.88 164 20:50 20.06.2022
2995 Clouds 22 1007 37 10000 3.25 158 19:39 20.06.2022
2996 Clouds 24 1007 31 10000 3.17 149 18:45 20.06.2022
2997 Clouds 22 1008 35 10000 2.01 145 17:52 20.06.2022
2998 Clouds 24 1008 33 10000 1.02 134 17:32 20.06.2022
2999 Clouds 24 1008 35 10000 0.54 70 15:56 20.06.2022
3000 Clouds 22 1011 45 10000 2.63 54 12:54 20.06.2022
3001 Clouds 19 1011 50 10000 3.03 46 11:18 20.06.2022
3002 Clouds 17 1011 49 10000 2.24 27 09:41 20.06.2022
3003 Clouds 15 1011 2 10000 1.98 30 08:44 20.06.2022
3004 Clouds 12 1012 1 10000 1.55 5 06:37 20.06.2022
3005 Clouds 10 1011 1 10000 2.06 19 02:56 20.06.2022
3006 Clouds 12 1011 1 10000 1.46 12 00:32 20.06.2022
3007 Clouds 12 1010 6 10000 0.86 195 23:18 19.06.2022
3008 Clouds 15 1009 26 10000 1.83 184 21:59 19.06.2022
3009 Clouds 15 1009 33 10000 1.83 184 21:40 19.06.2022
3010 Clouds 16 1008 41 10000 2.61 180 20:44 19.06.2022
3011 Clouds 17 1008 47 10000 3.18 184 19:48 19.06.2022
3012 Clouds 17 1007 51 10000 3.5 184 19:20 19.06.2022
3013 Clouds 17 1007 51 10000 3.2 184 18:30 19.06.2022
3014 Clouds 18 1007 52 10000 2.75 201 17:34 19.06.2022
3015 Clouds 19 1007 47 10000 2.77 202 16:38 19.06.2022
3016 Clouds 19 1006 48 10000 3.02 207 15:44 19.06.2022
3017 Clouds 18 1005 48 10000 2.95 184 15:25 19.06.2022
3018 Clouds 20 1006 30 10000 2.27 193 14:20 19.06.2022
3019 Clouds 19 1006 42 10000 2.27 193 13:43 19.06.2022
3020 Clouds 18 1006 45 10000 1.93 217 11:52 19.06.2022
3021 Clouds 17 1006 46 10000 1.77 227 10:49 19.06.2022
3022 Clear 15 1006 49 10000 1.61 254 08:54 19.06.2022
3023 Clear 14 1007 51 10000 1.07 236 08:30 19.06.2022
3024 Clear 11 1006 28 10000 0.64 244 06:41 19.06.2022
3025 Clouds 8 1007 7 10000 1.03 275 03:19 19.06.2022
3026 Clouds 11 1006 44 10000 1.78 257 00:27 19.06.2022
3027 Clouds 12 1006 53 10000 1.78 257 23:37 18.06.2022
3028 Clouds 13 1005 53 10000 2.2 261 23:19 18.06.2022
3029 Clear 15 1005 43 10000 2.96 271 21:54 18.06.2022
3030 Clear 17 1004 42 10000 4.31 265 20:50 18.06.2022
3031 Clouds 18 1003 37 10000 4.29 272 19:50 18.06.2022
3032 Clouds 20 1003 36 10000 5.14 272 18:54 18.06.2022
3033 Clouds 20 1002 36 10000 5.78 259 18:30 18.06.2022
3034 Clouds 20 1002 35 10000 5.97 258 17:28 18.06.2022
3035 Clouds 21 1003 32 10000 5.36 260 15:39 18.06.2022
3036 Clouds 21 1003 31 10000 5.2 270 14:50 18.06.2022
3037 Clouds 20 1004 34 10000 4.89 276 13:54 18.06.2022
3038 Clouds 19 1004 38 10000 5.16 271 12:25 18.06.2022
3039 Clouds 18 1004 31 10000 4.93 269 10:59 18.06.2022
3040 Clouds 17 1004 42 10000 3.6 248 09:31 18.06.2022
3041 Clouds 16 1004 1 10000 2.19 221 08:37 18.06.2022
3042 Clouds 15 1004 1 10000 1.9 216 07:33 18.06.2022
3043 Clouds 14 1005 1 10000 1.32 217 04:43 18.06.2022
3044 Clouds 14 1007 1 10000 2.77 198 01:47 18.06.2022
3045 Clouds 14 1008 1 10000 3.64 201 01:21 18.06.2022
3046 Clouds 14 1008 1 7136 4.23 201 00:23 18.06.2022
3047 Clouds 14 1008 1 7136 4.23 201 23:33 17.06.2022
3048 Rain 14 1010 1 172 4.62 196 22:27 17.06.2022
3049 Rain 14 1012 1 1091 5.02 187 20:29 17.06.2022
3050 Rain 15 1012 1 7646 5.01 183 19:20 17.06.2022
3051 Rain 18 1013 1 10000 4.53 191 17:47 17.06.2022
3052 Rain 19 1012 1 10000 4.96 190 16:44 17.06.2022
3053 Rain 20 1013 26 10000 4.75 182 16:21 17.06.2022
3054 Clouds 22 1014 47 10000 5.07 192 15:37 17.06.2022
3055 Clouds 21 1014 48 10000 4.6 191 14:23 17.06.2022
3056 Clouds 21 1015 52 10000 4.18 195 13:58 17.06.2022
3057 Clouds 22 1015 51 10000 4 197 13:38 17.06.2022
3058 Clouds 22 1015 49 10000 3.01 187 12:24 17.06.2022
3059 Clouds 22 1015 50 10000 3.01 187 11:54 17.06.2022
3060 Clouds 21 1015 49 10000 3.01 187 11:33 17.06.2022
3061 Clouds 18 1017 27 10000 0.99 121 08:58 17.06.2022
3062 Clouds 17 1017 1 10000 0.79 75 08:25 17.06.2022
3063 Clouds 13 1017 1 10000 0.69 62 06:44 17.06.2022
3064 Clouds 12 1018 1 10000 1.48 32 03:45 17.06.2022
3065 Clouds 13 1017 1 10000 0.53 11 01:55 17.06.2022
3066 Clouds 14 1017 1 10000 0.56 53 23:35 16.06.2022
3067 Clear 16 1017 92 10000 0.84 56 22:42 16.06.2022
3068 Clouds 17 1016 79 10000 1.56 138 21:22 16.06.2022
3069 Rain 17 1016 79 10000 1.56 138 20:51 16.06.2022
3070 Rain 18 1016 28 10000 1.56 138 20:32 16.06.2022
3071 Rain 21 1015 45 10000 0.18 227 19:32 16.06.2022
3072 Clouds 23 1015 57 10000 0.36 359 17:57 16.06.2022
3073 Clouds 24 1015 48 10000 0.78 13 17:35 16.06.2022
3074 Clouds 22 1015 47 10000 0.84 36 16:30 16.06.2022
3075 Clouds 22 1016 50 10000 1.42 28 15:21 16.06.2022
3076 Clouds 21 1016 43 10000 1.23 36 14:28 16.06.2022
3077 Rain 19 1016 50 10000 0.53 55 12:59 16.06.2022
3078 Rain 20 1016 48 10000 0.28 33 12:35 16.06.2022
3079 Clouds 18 1016 78 10000 0.28 33 11:49 16.06.2022
3080 Clouds 19 1016 24 10000 0.29 356 10:51 16.06.2022
3081 Clouds 17 1015 1 9831 0.48 25 09:43 16.06.2022
3082 Clouds 17 1015 1 8787 0.7 51 09:20 16.06.2022
3083 Clouds 15 1015 1 10000 0.76 70 07:57 16.06.2022
3084 Clouds 14 1015 1 10000 0.49 55 06:51 16.06.2022
3085 Clouds 13 1015 1 10000 0.38 55 04:28 16.06.2022
3086 Rain 14 1015 1 10000 0.68 33 01:54 16.06.2022
3087 Rain 14 1015 1 10000 0.68 33 01:34 16.06.2022
3088 Clouds 14 1015 1 10000 0.36 276 00:36 16.06.2022
3089 Clouds 15 1015 1 10000 1.15 142 23:23 15.06.2022
3090 Clouds 16 1015 27 10000 1.46 137 21:59 15.06.2022
3091 Clouds 17 1014 29 10000 1.43 134 21:20 15.06.2022
3092 Clouds 17 1014 36 10000 1.43 134 20:38 15.06.2022
3093 Clouds 18 1014 39 10000 0.9 157 20:18 15.06.2022
3094 Clouds 20 1014 52 10000 0.9 186 18:48 15.06.2022
3095 Clouds 21 1014 50 10000 0.2 242 17:54 15.06.2022
3096 Clouds 20 1014 61 10000 0.36 305 16:38 15.06.2022
3097 Clouds 21 1015 59 10000 1.37 270 15:26 15.06.2022
3098 Clouds 22 1015 48 10000 1.67 293 13:43 15.06.2022
3099 Clouds 22 1015 47 10000 1.18 313 12:53 15.06.2022
3100 Clouds 21 1015 49 10000 0.66 8 11:42 15.06.2022
3101 Clouds 18 1016 52 10000 1.69 50 10:23 15.06.2022
3102 Clouds 17 1015 52 10000 2.3 51 09:38 15.06.2022
3103 Clouds 16 1015 39 10000 2.62 38 08:27 15.06.2022
3104 Clouds 13 1015 1 10000 2.12 20 06:33 15.06.2022
3105 Clouds 12 1015 16 10000 1.53 10 03:30 15.06.2022
3106 Clouds 14 1015 40 10000 0.36 147 01:38 15.06.2022
3107 Clouds 14 1014 39 10000 1 153 00:50 15.06.2022
3108 Clouds 15 1014 39 10000 1.46 165 23:39 14.06.2022
3109 Clouds 16 1014 37 10000 1.48 165 22:56 14.06.2022
3110 Clouds 17 1013 45 10000 1.79 166 22:18 14.06.2022
3111 Clouds 19 1013 61 10000 2.35 175 21:28 14.06.2022
3112 Clouds 19 1013 53 10000 2.35 175 20:48 14.06.2022
3113 Clouds 20 1012 53 10000 2.95 182 20:28 14.06.2022
3114 Clouds 22 1012 43 10000 2.7 186 18:54 14.06.2022
3115 Clouds 23 1012 39 10000 2.73 199 17:39 14.06.2022
3116 Clouds 22 1012 39 10000 3.57 203 16:43 14.06.2022
3117 Clouds 22 1012 43 10000 2.03 206 15:50 14.06.2022
3118 Clouds 22 1012 43 10000 2.03 206 15:50 14.06.2022
3119 Clouds 21 1012 42 10000 0.93 219 14:57 14.06.2022
3120 Clouds 21 1012 42 10000 0.93 219 14:57 14.06.2022
3121 Clouds 21 1012 41 10000 1.88 241 14:30 14.06.2022
3122 Clouds 21 1013 39 10000 1.41 238 13:40 14.06.2022
3123 Clouds 21 1013 40 10000 0.78 193 12:30 14.06.2022
3124 Clouds 21 1013 44 10000 0.44 137 11:28 14.06.2022
3125 Clouds 20 1013 48 10000 0.44 137 10:44 14.06.2022
3126 Clouds 18 1013 49 10000 0.7 51 09:45 14.06.2022
3127 Clouds 17 1013 52 10000 1.37 33 08:45 14.06.2022
3128 Clouds 15 1013 51 10000 2.28 354 07:26 14.06.2022
3129 Clouds 9 1012 1 10000 2.2 336 04:44 14.06.2022
3130 Clouds 10 1011 7 10000 2.25 333 02:45 14.06.2022
3131 Clouds 13 1008 4 10000 1.86 305 00:28 14.06.2022
3132 Clouds 13 1008 6 10000 1.76 295 23:22 13.06.2022
3133 Clouds 14 1007 15 10000 1.75 267 22:25 13.06.2022
3134 Clouds 14 1007 32 10000 1.75 267 21:48 13.06.2022
3135 Rain 17 1006 43 10000 1.72 231 20:31 13.06.2022
3136 Rain 18 1005 45 10000 2.64 178 19:34 13.06.2022
3137 Clouds 21 1005 33 10000 3.2 187 17:58 13.06.2022
3138 Clouds 20 1005 33 10000 3.2 187 17:38 13.06.2022
3139 Rain 20 1005 44 10000 3.27 190 16:40 13.06.2022
3140 Clouds 21 1005 41 10000 2.71 223 15:38 13.06.2022
3141 Clouds 20 1005 43 10000 2.25 246 14:43 13.06.2022
3142 Clouds 20 1005 45 10000 2.34 251 13:53 13.06.2022
3143 Clouds 19 1005 43 10000 2.11 269 12:48 13.06.2022
3144 Clouds 18 1006 49 10000 2.49 292 11:26 13.06.2022
3145 Clouds 17 1006 48 10000 2.16 283 10:27 13.06.2022
3146 Clear 16 1006 52 10000 2.47 298 09:38 13.06.2022
3147 Clouds 14 1005 52 10000 1.65 274 07:51 13.06.2022
3148 Clouds 10 1005 1 10000 0.95 263 06:28 13.06.2022
3149 Clouds 10 1006 1 10000 1.37 230 03:18 13.06.2022
3150 Clouds 11 1006 1 10000 1.82 220 01:38 13.06.2022
3151 Clouds 12 1006 6 10000 2.31 237 00:22 13.06.2022
3152 Clouds 13 1006 1 10000 2.6 243 23:25 12.06.2022
3153 Clouds 14 1006 1 10000 3.13 248 22:22 12.06.2022
3154 Clouds 15 1006 13 10000 3.44 245 21:28 12.06.2022
3155 Clouds 16 1005 47 10000 4.29 248 20:34 12.06.2022
3156 Rain 18 1005 47 10000 4.29 248 19:36 12.06.2022
3157 Rain 17 1005 13 10000 4.08 237 18:39 12.06.2022
3158 Clouds 19 1006 9 10000 3.65 227 16:42 12.06.2022
3159 Clouds 18 1007 13 10000 4.76 220 15:24 12.06.2022
3160 Clouds 17 1007 3 10000 4.82 222 14:31 12.06.2022
3161 Clouds 18 1007 46 10000 5.27 221 13:55 12.06.2022
3162 Clouds 16 1008 1 10000 4.61 197 12:46 12.06.2022
3163 Clouds 18 1008 5 10000 4.37 193 11:40 12.06.2022
3164 Clouds 17 1008 1 10000 4.39 205 10:45 12.06.2022
3165 Clouds 15 1009 1 10000 4.92 210 09:25 12.06.2022
3166 Clouds 14 1009 1 10000 4.92 210 08:46 12.06.2022
3167 Clouds 13 1009 1 10000 4.72 205 07:38 12.06.2022
3168 Clouds 12 1010 1 10000 3.42 197 05:38 12.06.2022
3169 Clouds 12 1010 1 10000 3.49 201 03:38 12.06.2022
3170 Clear 12 1010 1 10000 3.79 203 01:43 12.06.2022
3171 Clear 13 1010 1 10000 4.32 207 00:58 12.06.2022
3172 Clear 13 1010 1 10000 3.99 208 00:26 12.06.2022
3173 Clear 13 1010 1 10000 3.99 208 23:48 11.06.2022
3174 Clear 13 1010 1 10000 3.99 208 23:48 11.06.2022
3175 Clear 14 1010 1 10000 2.97 197 22:40 11.06.2022
3176 Rain 14 1010 1 10000 3.4 192 22:21 11.06.2022
3177 Rain 14 1010 1 10000 4.62 190 20:50 11.06.2022
3178 Rain 16 1010 57 10000 4.85 187 20:21 11.06.2022
3179 Rain 16 1010 62 10000 4.44 187 19:26 11.06.2022
3180 Rain 16 1010 1 10000 5.11 182 18:36 11.06.2022
3181 Rain 16 1010 1 10000 5.1 182 17:52 11.06.2022
3182 Clouds 16 1011 65 10000 4.49 201 17:29 11.06.2022
3183 Clouds 17 1011 65 10000 4.51 201 16:58 11.06.2022
3184 Rain 16 1011 71 10000 5.03 212 16:30 11.06.2022
3185 Rain 18 1011 71 10000 5.03 212 15:43 11.06.2022
3186 Clouds 18 1012 26 8304 6.27 215 13:53 11.06.2022
3187 Clouds 17 1012 1 10000 5.89 214 13:24 11.06.2022
3188 Clear 19 1011 47 10000 5.7 224 10:55 11.06.2022
3189 Clear 18 1011 30 10000 5.09 222 10:20 11.06.2022
3190 Clear 17 1011 14 10000 4.23 216 09:29 11.06.2022
3191 Clouds 14 1011 1 10000 3.64 209 07:46 11.06.2022
3192 Clouds 13 1011 1 10000 3.88 200 06:30 11.06.2022
3193 Clouds 13 1012 1 10000 3.31 189 05:19 11.06.2022
3194 Clouds 14 1012 1 10000 4.7 194 01:53 11.06.2022
3195 Clouds 14 1012 1 10000 4.53 193 01:33 11.06.2022
3196 Clouds 14 1012 1 10000 4.59 190 00:21 11.06.2022
3197 Clouds 15 1013 1 10000 4.19 185 22:32 10.06.2022
3198 Clouds 15 1013 1 10000 4.69 182 21:52 10.06.2022
3199 Clouds 17 1012 1 10000 4.71 178 20:42 10.06.2022
3200 Clouds 17 1012 1 10000 4.43 172 20:22 10.06.2022
3201 Clouds 17 1012 1 10000 4.43 172 19:38 10.06.2022
3202 Clouds 18 1012 1 10000 4.91 171 19:18 10.06.2022
3203 Clouds 18 1012 1 10000 4.91 171 19:18 10.06.2022
3204 Clouds 18 1012 1 10000 4.91 171 19:18 10.06.2022
3205 Clouds 18 1013 1 10000 5.24 175 18:18 10.06.2022
3206 Clouds 18 1013 18 10000 5.24 175 17:35 10.06.2022
3207 Clouds 19 1013 16 10000 5.24 175 16:55 10.06.2022
3208 Clouds 19 1013 17 10000 5.04 179 15:47 10.06.2022
3209 Clouds 19 1013 1 10000 4.84 183 14:57 10.06.2022
3210 Clouds 17 1013 54 10000 4.48 181 13:41 10.06.2022
3211 Clouds 16 1013 1 10000 3.44 185 12:24 10.06.2022
3212 Clouds 16 1013 1 10000 3.44 185 11:30 10.06.2022
3213 Clouds 16 1014 1 10000 3.09 179 10:37 10.06.2022
3214 Clouds 16 1014 1 10000 2.67 181 09:40 10.06.2022
3215 Clouds 15 1013 1 10000 2.29 175 08:23 10.06.2022
3216 Clouds 14 1014 1 8781 1.53 166 06:51 10.06.2022
3217 Clouds 14 1014 1 8781 1.53 166 06:32 10.06.2022
3218 Clouds 14 1014 1 8905 1.15 161 05:35 10.06.2022
3219 Clouds 14 1013 1 10000 1 158 02:54 10.06.2022
3220 Clouds 14 1013 1 10000 1.01 161 01:37 10.06.2022
3221 Clouds 14 1013 1 10000 1.01 163 23:58 09.06.2022
3222 Clouds 15 1013 1 10000 1.31 170 22:56 09.06.2022
3223 Clouds 16 1012 1 10000 1.63 168 21:46 09.06.2022
3224 Clouds 16 1012 1 10000 2.04 174 21:28 09.06.2022
3225 Clouds 16 1012 1 10000 2.04 174 20:47 09.06.2022
3226 Clouds 18 1011 73 10000 2.39 183 19:54 09.06.2022
3227 Clouds 18 1011 64 10000 2.81 188 18:47 09.06.2022
3228 Clouds 19 1011 59 10000 3.41 189 17:56 09.06.2022
3229 Clouds 19 1010 1 10000 3.79 187 16:44 09.06.2022
3230 Clouds 18 1010 1 10000 3.75 186 15:44 09.06.2022
3231 Clouds 19 1009 50 10000 3.4 183 14:34 09.06.2022
3232 Clouds 18 1009 47 10000 3.28 185 13:46 09.06.2022
3233 Clouds 18 1009 49 10000 2.81 182 13:26 09.06.2022
3234 Clouds 18 1009 53 10000 2.31 182 11:53 09.06.2022
3235 Clouds 17 1009 60 10000 1.9 184 10:40 09.06.2022
3236 Clouds 15 1009 1 10000 2.12 182 09:41 09.06.2022
3237 Clouds 14 1009 1 10000 1.9 174 09:23 09.06.2022
3238 Clouds 14 1008 1 10000 0.62 135 07:29 09.06.2022
3239 Clouds 13 1007 98 10000 0.29 43 05:27 09.06.2022
3240 Clouds 13 1006 1 10000 0.39 81 01:44 09.06.2022
3241 Clouds 14 1004 1 10000 0.73 167 23:24 08.06.2022
3242 Clouds 14 1004 1 10000 0.72 168 22:50 08.06.2022
3243 Clouds 14 1004 1 10000 1.13 182 22:25 08.06.2022
3244 Clouds 15 1004 1 10000 1.13 181 21:49 08.06.2022
3245 Clouds 16 1003 1 10000 1.17 185 20:43 08.06.2022
3246 Rain 17 1003 14 10000 1.08 200 19:49 08.06.2022
3247 Rain 17 1003 27 10000 0.76 230 18:58 08.06.2022
3248 Rain 17 1003 21 10000 0.76 230 18:40 08.06.2022
3249 Rain 19 1002 26 10000 0.42 325 16:34 08.06.2022
3250 Rain 16 1003 1 10000 0.39 128 14:54 08.06.2022
3251 Rain 16 1003 1 10000 1.7 97 13:36 08.06.2022
3252 Clouds 16 1003 1 10000 2.09 104 11:51 08.06.2022
3253 Clouds 16 1003 1 10000 2.38 109 11:24 08.06.2022
3254 Clouds 15 1003 1 10000 2.23 113 09:47 08.06.2022
3255 Clouds 14 1003 1 8457 1.84 123 09:20 08.06.2022
3256 Rain 14 1003 1 10000 1.48 125 08:18 08.06.2022
3257 Clouds 14 1004 1 9834 1.34 31 05:22 08.06.2022
3258 Rain 13 1005 1 10000 1.39 43 02:39 08.06.2022
3259 Rain 14 1007 1 10000 1.17 30 00:21 08.06.2022
3260 Clouds 15 1007 1 10000 1.05 37 23:25 07.06.2022
3261 Clouds 15 1007 1 10000 1.05 37 22:42 07.06.2022
3262 Clouds 16 1008 1 10000 1.01 58 21:59 07.06.2022
3263 Clouds 16 1008 1 9506 0.33 147 21:27 07.06.2022
3264 Clouds 16 1008 1 9511 0.33 145 20:46 07.06.2022
3265 Clouds 16 1008 1 6910 1.34 150 20:24 07.06.2022
3266 Clouds 17 1008 1 10000 2.22 155 19:19 07.06.2022
3267 Rain 18 1008 1 10000 2.53 130 17:55 07.06.2022
3268 Clouds 21 1009 49 10000 3.03 115 16:56 07.06.2022
3269 Clouds 21 1009 50 10000 3.03 115 16:33 07.06.2022
3270 Clouds 21 1009 48 10000 2.91 107 15:42 07.06.2022
3271 Clouds 20 1010 39 10000 2.97 100 15:23 07.06.2022
3272 Clouds 20 1010 41 10000 2.99 100 14:46 07.06.2022
3273 Clouds 20 1010 42 10000 3.84 116 13:50 07.06.2022
3274 Clouds 19 1010 46 10000 3.38 107 13:29 07.06.2022
3275 Clouds 20 1010 46 10000 3.38 107 12:39 07.06.2022
3276 Clouds 18 1012 20 10000 2.24 77 11:22 07.06.2022
3277 Clouds 18 1012 37 10000 1.92 82 09:58 07.06.2022
3278 Clouds 16 1013 3 10000 1.67 87 08:36 07.06.2022
3279 Clouds 15 1013 1 10000 1.43 53 07:22 07.06.2022
3280 Clouds 13 1013 1 10000 1.38 40 05:48 07.06.2022
3281 Clouds 13 1014 1 10000 1.18 39 02:48 07.06.2022
3282 Clouds 15 1014 1 10000 0.97 91 00:35 07.06.2022
3283 Clouds 16 1014 1 10000 0.97 91 23:34 06.06.2022
3284 Clouds 18 1014 35 10000 0.96 140 22:41 06.06.2022
3285 Clouds 20 1014 50 10000 1.6 154 21:41 06.06.2022
3286 Clouds 23 1013 47 10000 2.33 142 19:59 06.06.2022
3287 Clouds 23 1013 46 10000 2.19 175 19:21 06.06.2022
3288 Clouds 25 1013 42 10000 2.19 175 18:46 06.06.2022
3289 Clouds 25 1013 31 10000 2.33 180 17:51 06.06.2022
3290 Clouds 25 1013 35 10000 2.25 180 16:39 06.06.2022
3291 Clouds 25 1014 41 10000 2.3 178 15:40 06.06.2022
3292 Clouds 25 1014 38 10000 2.4 177 14:56 06.06.2022
3293 Clear 23 1016 41 10000 2.35 162 13:31 06.06.2022
3294 Clear 22 1016 45 10000 2.36 162 12:39 06.06.2022
3295 Clear 22 1016 51 10000 2.54 154 12:20 06.06.2022
3296 Clear 21 1016 49 10000 2.54 154 11:42 06.06.2022
3297 Clear 18 1016 51 10000 2.1 123 09:43 06.06.2022
3298 Clouds 16 1018 37 10000 1.75 61 08:35 06.06.2022
3299 Clouds 15 1018 21 10000 1.75 61 07:41 06.06.2022
3300 Clouds 10 1018 1 10000 1.37 45 05:48 06.06.2022
3301 Clouds 9 1018 1 10000 1.49 45 04:28 06.06.2022
3302 Clouds 12 1019 1 10000 1.48 25 01:30 06.06.2022
3303 Clouds 13 1019 5 10000 1.48 25 00:47 06.06.2022
3304 Clouds 13 1018 16 10000 0.94 55 00:28 06.06.2022
3305 Clouds 15 1018 75 10000 0.85 107 22:58 05.06.2022
3306 Clouds 17 1018 68 10000 0.79 107 21:59 05.06.2022
3307 Clouds 20 1016 51 10000 1.76 181 20:23 05.06.2022
3308 Clouds 22 1016 40 10000 2.39 161 18:51 05.06.2022
3309 Clouds 23 1016 32 10000 1.8 151 17:58 05.06.2022
3310 Clouds 22 1016 34 10000 1.8 151 17:38 05.06.2022
3311 Clouds 23 1016 37 10000 1.47 158 17:19 05.06.2022
3312 Clouds 23 1016 39 10000 1.46 158 16:47 05.06.2022
3313 Clouds 22 1017 39 10000 1.34 164 15:22 05.06.2022
3314 Clouds 22 1016 39 10000 1.63 75 13:55 05.06.2022
3315 Clouds 21 1017 40 10000 1.66 81 11:58 05.06.2022
3316 Clouds 19 1017 47 10000 1.8 70 10:45 05.06.2022
3317 Clouds 18 1017 48 10000 1.64 44 10:24 05.06.2022
3318 Clouds 17 1017 50 10000 1.31 21 09:29 05.06.2022
3319 Clouds 14 1017 25 10000 1.33 7 08:23 05.06.2022
3320 Clouds 10 1017 1 10000 0.75 356 05:58 05.06.2022
3321 Clouds 9 1017 1 10000 0.51 342 05:19 05.06.2022
3322 Clouds 11 1018 1 10000 0.39 171 02:23 05.06.2022
3323 Clouds 11 1018 1 10000 0.97 186 01:23 05.06.2022
3324 Clouds 13 1018 1 10000 2.43 182 22:49 04.06.2022
3325 Clouds 16 1018 9 10000 3.88 186 21:25 04.06.2022
3326 Clouds 19 1017 43 10000 5.12 180 19:27 04.06.2022
3327 Clouds 21 1018 52 10000 5.43 178 16:48 04.06.2022
3328 Clouds 21 1018 51 10000 5.81 182 16:20 04.06.2022
3329 Clouds 21 1018 52 10000 5.81 182 15:35 04.06.2022
3330 Clouds 20 1018 57 10000 3.89 194 13:59 04.06.2022
3331 Clouds 19 1018 59 10000 3.69 209 11:41 04.06.2022
3332 Clouds 18 1020 45 10000 3.11 212 10:54 04.06.2022
3333 Clouds 16 1021 1 10000 2.39 208 09:56 04.06.2022
3334 Clouds 16 1021 1 10000 2.38 208 09:38 04.06.2022
3335 Clouds 15 1021 1 10000 1.46 200 08:38 04.06.2022
3336 Clouds 11 1020 1 10000 0.35 308 06:32 04.06.2022
3337 Clouds 10 1020 75 10000 1.04 346 03:57 04.06.2022
3338 Clouds 11 1019 1 10000 1.84 1 00:22 04.06.2022
3339 Clouds 13 1018 81 10000 1.74 341 22:57 03.06.2022
3340 Clouds 13 1017 77 10000 1.59 340 21:54 03.06.2022
3341 Rain 14 1016 1 10000 1.51 338 20:40 03.06.2022
3342 Rain 16 1016 1 10000 1.81 354 19:49 03.06.2022
3343 Clouds 18 1015 60 10000 2.8 346 16:59 03.06.2022
3344 Rain 18 1009 52 10000 0.89 187 15:57 03.06.2022
3345 Clouds 18 1015 52 10000 3.22 334 14:42 03.06.2022
3346 Clouds 17 1014 52 10000 3.59 337 12:21 03.06.2022
3347 Clouds 15 1014 26 10000 3.24 339 09:58 03.06.2022
3348 Clouds 15 1014 9 10000 2.67 338 09:29 03.06.2022
3349 Clouds 13 1013 1 10000 1.59 332 07:50 03.06.2022
3350 Clouds 13 1013 1 10000 1.12 328 07:19 03.06.2022
3351 Clouds 11 1013 1 10000 1.12 330 06:29 03.06.2022
3352 Clouds 10 1012 1 10000 1.24 336 04:35 03.06.2022
3353 Clouds 11 1012 1 10000 0.96 315 00:21 03.06.2022
3354 Clouds 12 1011 1 10000 0.72 300 22:34 02.06.2022
3355 Clouds 15 1009 34 10000 0.98 230 20:58 02.06.2022
3356 Clouds 16 1009 37 10000 1.55 236 19:59 02.06.2022
3357 Clouds 16 1009 43 10000 1.55 237 19:40 02.06.2022
3358 Clouds 16 1009 50 10000 0.74 256 18:59 02.06.2022
3359 Clouds 15 1008 53 10000 1.1 170 16:30 02.06.2022
3360 Clouds 15 1008 46 10000 1.1 170 15:47 02.06.2022
3361 Clouds 14 1008 42 10000 1.64 194 13:38 02.06.2022
3362 Clouds 15 1008 70 10000 1.81 170 13:20 02.06.2022
3363 Clouds 13 1008 46 10000 1.79 187 10:53 02.06.2022
3364 Clouds 13 1008 46 10000 1.79 187 10:19 02.06.2022
3365 Clouds 13 1010 1 10000 2.07 158 09:27 02.06.2022
3366 Clouds 12 1010 1 10000 2.04 155 08:24 02.06.2022
3367 Clouds 11 1009 1 10000 1.53 154 06:26 02.06.2022
3368 Clouds 11 1009 1 10000 2.11 157 03:53 02.06.2022
3369 Clouds 12 1009 1 10000 2.68 173 01:36 02.06.2022
3370 Clouds 12 1009 1 10000 3.44 182 23:36 01.06.2022
3371 Clouds 12 1009 1 10000 3.45 175 22:18 01.06.2022
3372 Clouds 12 1009 1 10000 3.95 175 21:25 01.06.2022
3373 Clouds 12 1006 46 10000 3.95 175 20:39 01.06.2022
3374 Rain 13 1006 46 10000 4.08 172 19:52 01.06.2022
3375 Rain 13 1006 46 10000 4.17 174 18:52 01.06.2022
3376 Clouds 14 1008 1 10000 4.55 180 17:38 01.06.2022
3377 Clouds 14 1007 1 10000 3.99 193 15:56 01.06.2022
3378 Rain 14 1007 1 10000 4.07 199 14:51 01.06.2022
3379 Rain 14 1008 1 10000 3.42 203 13:39 01.06.2022
3380 Clouds 14 1008 1 10000 1.95 213 11:32 01.06.2022
3381 Clouds 14 1008 1 10000 1.07 229 09:34 01.06.2022
3382 Clouds 13 1008 1 10000 1.04 265 08:28 01.06.2022
3383 Clouds 11 1009 1 10000 1.28 274 07:21 01.06.2022
3384 Clouds 10 1009 1 10000 1.24 290 04:58 01.06.2022
3385 Rain 12 1011 1 10000 2.06 332 23:56 31.05.2022
3386 Rain 12 1011 93 10000 1.96 322 22:51 31.05.2022
3387 Rain 13 1011 1 10000 1.83 320 22:28 31.05.2022
3388 Clouds 14 1011 89 10000 1.83 320 21:44 31.05.2022
3389 Clouds 15 1011 10 10000 1.85 330 20:44 31.05.2022
3390 Clouds 16 1011 31 10000 2.12 339 19:52 31.05.2022
3391 Clouds 16 1011 68 10000 2.55 1 18:45 31.05.2022
3392 Clouds 17 1012 53 10000 3.2 10 17:49 31.05.2022
3393 Clouds 18 1012 52 10000 3.75 17 16:48 31.05.2022
3394 Clouds 18 1012 52 10000 3.59 14 15:40 31.05.2022
3395 Clouds 18 1012 52 10000 3.59 14 15:40 31.05.2022
3396 Clouds 18 1012 52 10000 3.87 3 13:38 31.05.2022
3397 Clouds 17 1013 51 10000 3.49 33 12:19 31.05.2022
3398 Clouds 18 1013 48 10000 3.37 40 10:52 31.05.2022
3399 Clouds 13 1014 1 10000 2.32 34 08:37 31.05.2022
3400 Clouds 10 1015 1 10000 1.29 9 06:52 31.05.2022
3401 Clouds 8 1015 1 10000 1.57 4 04:46 31.05.2022
3402 Clouds 10 1015 1 10000 1.2 353 23:53 30.05.2022
3403 Clouds 11 1015 1 10000 1.55 338 23:25 30.05.2022
3404 Clouds 12 1015 1 10000 1.56 338 22:44 30.05.2022
3405 Clouds 13 1015 1 10000 1.68 328 21:47 30.05.2022
3406 Clouds 14 1014 84 10000 1.42 318 21:29 30.05.2022
3407 Clouds 16 1011 77 10000 0.89 121 19:51 30.05.2022
3408 Clouds 13 1014 1 10000 1.68 273 18:34 30.05.2022
3409 Clouds 16 1011 42 10000 1.79 121 17:23 30.05.2022
3410 Clouds 16 1011 42 10000 1.79 121 16:39 30.05.2022
3411 Rain 17 1011 65 10000 0.69 130 13:44 30.05.2022
3412 Rain 16 1013 46 9729 1.48 130 12:19 30.05.2022
3413 Clouds 14 1013 17 10000 1.74 115 10:40 30.05.2022
3414 Clouds 14 1012 11 10000 2.48 87 09:19 30.05.2022
3415 Clouds 9 1012 1 10000 1.62 57 06:30 30.05.2022
3416 Clouds 8 1011 1 10000 1.41 47 05:47 30.05.2022
3417 Clouds 9 1009 1 10000 1.88 62 01:32 30.05.2022
3418 Clouds 9 1008 1 10000 1.38 63 22:54 29.05.2022
3419 Rain 9 1008 1 10000 1.38 63 22:36 29.05.2022
3420 Clouds 11 1007 44 10000 1.8 44 20:53 29.05.2022
3421 Clouds 12 1007 53 10000 1.8 83 19:31 29.05.2022
3422 Clouds 13 1007 55 10000 1.82 84 18:37 29.05.2022
3423 Clouds 14 1007 50 10000 1.66 119 17:23 29.05.2022
3424 Clouds 14 1006 47 10000 0.89 43 15:48 29.05.2022
3425 Clouds 13 1008 49 10000 1.03 167 14:57 29.05.2022
3426 Clouds 13 1008 48 10000 1.22 155 13:52 29.05.2022
3427 Clouds 12 1009 51 10000 1.43 145 11:41 29.05.2022
3428 Clouds 12 1009 51 10000 1.65 122 10:38 29.05.2022
3429 Clouds 11 1009 54 10000 0.94 150 08:47 29.05.2022
3430 Clouds 5 1009 42 10000 0.16 98 05:48 29.05.2022
3431 Clouds 5 1009 50 10000 0.31 50 04:43 29.05.2022
3432 Clouds 7 1009 50 10000 0.43 93 03:41 29.05.2022
3433 Clouds 10 1009 76 10000 0.88 17 23:49 28.05.2022
3434 Clouds 11 1009 54 10000 1.2 64 23:26 28.05.2022
3435 Clouds 12 1009 74 10000 1.2 65 22:33 28.05.2022
3436 Clouds 13 1009 47 10000 2.38 79 21:38 28.05.2022
3437 Clouds 18 1003 39 10000 1.79 56 19:41 28.05.2022
3438 Clouds 18 1003 40 10000 1.79 56 18:47 28.05.2022
3439 Clouds 17 1006 46 10000 3.89 15 17:36 28.05.2022
3440 Clouds 17 1005 32 10000 4.64 13 16:38 28.05.2022
3441 Clouds 18 1005 31 10000 4.66 11 15:43 28.05.2022
3442 Clouds 17 1003 53 10000 2.68 87 14:23 28.05.2022
3443 Clouds 16 1003 55 10000 2.68 87 12:44 28.05.2022
3444 Clouds 16 1003 56 10000 2.68 87 12:18 28.05.2022
3445 Clouds 15 1003 56 10000 2.68 87 11:21 28.05.2022
3446 Clouds 14 1005 52 10000 3.91 329 09:57 28.05.2022
3447 Clouds 13 1005 54 10000 2.57 319 08:45 28.05.2022
3448 Clouds 11 1005 51 10000 1.76 317 07:23 28.05.2022
3449 Clouds 9 1004 30 10000 1.87 314 05:28 28.05.2022
3450 Clouds 9 1004 15 10000 1.85 321 02:44 28.05.2022
3451 Clouds 9 1003 1 10000 1.85 334 00:32 28.05.2022
3452 Clouds 9 1002 1 10000 2.41 342 22:53 27.05.2022
3453 Clouds 10 1002 1 10000 3.13 348 21:44 27.05.2022
3454 Clouds 10 1001 1 10000 3.93 353 20:50 27.05.2022
3455 Clouds 9 1001 1 10000 4.18 349 20:24 27.05.2022
3456 Rain 9 1001 1 10000 3.94 349 19:42 27.05.2022
3457 Rain 9 1001 1 10000 3.2 326 19:21 27.05.2022
3458 Rain 10 1001 1 10000 3.07 321 17:54 27.05.2022
3459 Rain 9 1001 91 6415 3.26 327 16:38 27.05.2022
3460 Clouds 13 1001 47 10000 4.34 343 15:22 27.05.2022
3461 Clouds 12 1000 50 10000 5.07 344 13:53 27.05.2022
3462 Clouds 13 1000 52 10000 4.87 343 12:43 27.05.2022
3463 Clouds 13 1000 53 10000 4.47 346 11:34 27.05.2022
3464 Clouds 13 1000 54 10000 4.11 340 10:55 27.05.2022
3465 Clouds 13 1000 53 10000 4.31 340 10:29 27.05.2022
3466 Clouds 12 1000 53 10000 4.31 340 09:34 27.05.2022
3467 Clouds 10 1000 15 10000 3.99 344 07:50 27.05.2022
3468 Clouds 5 1000 1 10000 2.28 328 05:39 27.05.2022
3469 Clouds 7 1001 9 10000 2.33 342 02:26 27.05.2022
3470 Clouds 9 1000 52 10000 2.69 321 00:26 27.05.2022
3471 Clouds 11 999 55 10000 1.66 273 22:35 26.05.2022
3472 Clouds 12 999 52 10000 1.66 273 21:37 26.05.2022
3473 Clouds 15 998 47 10000 0.49 228 19:58 26.05.2022
3474 Clouds 15 998 44 10000 0.16 310 19:19 26.05.2022
3475 Rain 16 998 47 10000 0.48 40 17:37 26.05.2022
3476 Clouds 16 998 33 10000 0.44 51 16:36 26.05.2022
3477 Clouds 15 998 46 10000 1.79 121 15:45 26.05.2022
3478 Rain 15 998 39 9570 1.79 121 14:24 26.05.2022
3479 Rain 13 1000 1 10000 0.08 97 12:36 26.05.2022
3480 Clouds 11 1000 1 10000 0.61 44 11:23 26.05.2022
3481 Rain 10 999 1 10000 0.69 36 09:40 26.05.2022
3482 Rain 10 999 1 10000 1.1 38 09:19 26.05.2022
3483 Rain 9 999 1 10000 1.19 57 07:51 26.05.2022
3484 Rain 10 1000 1 10000 2.39 161 03:35 26.05.2022
3485 Clouds 10 1001 1 10000 3.28 188 00:33 26.05.2022
3486 Clouds 11 1002 1 10000 3.71 183 23:39 25.05.2022
3487 Clouds 12 1002 1 10000 4.25 186 21:47 25.05.2022
3488 Clouds 12 1002 1 10000 4.65 185 21:28 25.05.2022
3489 Clouds 13 1002 1 10000 5.17 186 20:34 25.05.2022
3490 Clouds 13 1002 1 10000 5.31 185 19:21 25.05.2022
3491 Clouds 16 1000 41 10000 0.89 65 17:33 25.05.2022
3492 Clouds 16 1000 46 10000 0.89 65 16:36 25.05.2022
3493 Clouds 16 1000 32 10000 0.89 65 15:54 25.05.2022
3494 Clouds 17 1000 58 10000 0.89 65 14:51 25.05.2022
3495 Clouds 17 1000 58 10000 0.89 65 14:32 25.05.2022
3496 Clouds 16 1002 37 10000 5.14 196 13:42 25.05.2022
3497 Rain 14 1002 1 10000 4.63 182 12:37 25.05.2022
3498 Clouds 14 1002 1 10000 4.07 199 10:43 25.05.2022
3499 Rain 13 1002 1 10000 4.07 194 09:54 25.05.2022
3500 Rain 12 1002 1 10000 3.56 178 08:23 25.05.2022
3501 Clouds 11 1002 1 10000 2.9 170 07:22 25.05.2022
3502 Clouds 10 1002 1 10000 2.86 163 03:22 25.05.2022
3503 Rain 12 1001 1 9507 2.93 166 23:56 24.05.2022
3504 Rain 12 1001 1 9494 3.37 169 23:25 24.05.2022
3505 Rain 12 1001 1 10000 3.08 165 22:21 24.05.2022
3506 Rain 12 1001 1 10000 3.08 165 21:40 24.05.2022
3507 Rain 12 1000 1 5807 2.92 154 21:20 24.05.2022
3508 Clouds 12 1000 1 10000 2.92 145 19:45 24.05.2022
3509 Clouds 12 1000 1 10000 3.27 138 18:53 24.05.2022
3510 Rain 12 1000 47 10000 0.89 177 16:42 24.05.2022
3511 Rain 12 1001 1 6278 3.1 109 16:22 24.05.2022
3512 Rain 13 1000 47 6340 0.89 128 14:56 24.05.2022
3513 Rain 14 1001 1 6306 3.77 132 14:20 24.05.2022
3514 Clouds 17 1001 53 10000 4.85 134 12:49 24.05.2022
3515 Clouds 17 1002 53 10000 5.13 108 11:26 24.05.2022
3516 Clouds 15 1002 48 10000 4.85 112 09:44 24.05.2022
3517 Clouds 14 1003 22 10000 4.35 108 08:50 24.05.2022
3518 Clouds 12 1004 1 10000 2.79 90 06:57 24.05.2022
3519 Clouds 10 1005 1 10000 1.72 65 04:20 24.05.2022
3520 Clouds 11 1006 1 10000 0.96 39 01:55 24.05.2022
3521 Clouds 11 1006 1 10000 0.96 39 01:36 24.05.2022
3522 Clouds 12 1007 9 10000 0.72 99 23:31 23.05.2022
3523 Clouds 13 1007 26 10000 1.11 126 21:56 23.05.2022
3524 Clouds 14 1007 47 10000 1.66 165 21:29 23.05.2022
3525 Clouds 15 1007 49 10000 1.66 165 20:41 23.05.2022
3526 Clouds 16 1007 49 10000 2.71 176 19:33 23.05.2022
3527 Clouds 16 1007 50 10000 3.79 182 18:59 23.05.2022
3528 Clouds 16 1007 52 10000 4.6 183 18:31 23.05.2022
3529 Clouds 17 1007 56 10000 0.89 117 17:24 23.05.2022
3530 Clouds 17 1007 57 10000 0.89 117 15:31 23.05.2022
3531 Clouds 16 1011 52 10000 4.95 187 13:22 23.05.2022
3532 Clouds 15 1011 47 10000 4.9 185 11:34 23.05.2022
3533 Clouds 14 1011 44 10000 4.9 185 10:42 23.05.2022
3534 Clouds 14 1011 42 10000 4.6 185 09:39 23.05.2022
3535 Clouds 12 1010 1 10000 4.29 184 08:38 23.05.2022
3536 Clouds 11 1010 1 10000 3.07 171 06:47 23.05.2022
3537 Clouds 11 1011 1 8933 2.08 150 06:22 23.05.2022
3538 Clouds 10 1011 99 10000 1.38 133 02:35 23.05.2022
3539 Clouds 10 1012 1 10000 1.4 153 01:42 23.05.2022
3540 Clouds 10 1012 1 10000 1.39 154 00:44 23.05.2022
3541 Clouds 11 1012 1 10000 1.71 162 22:43 22.05.2022
3542 Clouds 12 1012 4 10000 2.34 176 21:56 22.05.2022
3543 Clouds 13 1012 9 10000 2.34 176 21:36 22.05.2022
3544 Clouds 14 1012 39 10000 3.11 177 20:37 22.05.2022
3545 Clouds 14 1011 42 10000 3.1 176 20:18 22.05.2022
3546 Clouds 16 1011 52 10000 2.56 190 18:58 22.05.2022
3547 Clouds 16 1011 53 10000 2.56 190 18:31 22.05.2022
3548 Clouds 16 1011 53 10000 2.48 196 17:51 22.05.2022
3549 Clouds 16 1011 42 10000 2.29 192 16:51 22.05.2022
3550 Clouds 16 1011 47 10000 1.84 179 14:56 22.05.2022
3551 Clouds 16 1011 47 10000 1.4 162 14:35 22.05.2022
3552 Clouds 15 1012 13 10000 1.12 112 12:54 22.05.2022
3553 Clouds 14 1012 1 10000 0.92 113 11:53 22.05.2022
3554 Clouds 13 1012 1 10000 1.13 162 10:29 22.05.2022
3555 Clouds 12 1013 1 10000 1.07 166 09:19 22.05.2022
3556 Clouds 10 1013 1 10000 0.68 174 07:34 22.05.2022
3557 Clouds 10 1013 1 10000 0.52 188 06:41 22.05.2022
3558 Clouds 10 1013 1 10000 0.48 247 03:25 22.05.2022
3559 Clouds 10 1013 1 10000 0.25 183 00:49 22.05.2022
3560 Clouds 10 1013 1 10000 0.41 200 23:56 21.05.2022
3561 Clouds 10 1013 1 10000 0.63 223 23:27 21.05.2022
3562 Clouds 11 1013 1 10000 0.67 221 21:59 21.05.2022
3563 Clouds 11 1013 1 10000 0.67 221 21:34 21.05.2022
3564 Clouds 12 1012 1 10000 0.14 111 20:34 21.05.2022
3565 Clouds 12 1012 1 10000 0.14 111 19:44 21.05.2022
3566 Clouds 12 1012 82 10000 1.18 209 18:45 21.05.2022
3567 Rain 12 1012 1 10000 1.36 202 16:57 21.05.2022
3568 Clouds 11 1012 91 10000 0.64 138 14:49 21.05.2022
3569 Clouds 11 1011 1 10000 0.98 103 13:55 21.05.2022
3570 Rain 10 1011 1 10000 1.31 109 13:25 21.05.2022
3571 Rain 10 1011 1 10000 1.31 109 12:38 21.05.2022
3572 Rain 10 1010 1 10000 1.82 97 11:25 21.05.2022
3573 Clouds 11 1009 1 5132 2.39 101 10:21 21.05.2022
3574 Rain 11 1009 1 6591 2.63 100 08:59 21.05.2022
3575 Rain 11 1009 1 6591 2.63 100 08:38 21.05.2022
3576 Clouds 11 1009 1 8171 1.71 86 06:20 21.05.2022
3577 Clouds 12 1010 1 10000 1.52 82 01:41 21.05.2022
3578 Rain 13 1011 1 10000 2.14 89 23:35 20.05.2022
3579 Clouds 13 1012 1 10000 3.12 87 22:30 20.05.2022
3580 Clouds 14 1012 1 10000 3.13 87 21:56 20.05.2022
3581 Clouds 14 1011 1 10000 3.96 80 21:19 20.05.2022
3582 Clouds 15 1011 1 10000 3.96 80 20:47 20.05.2022
3583 Clouds 15 1011 1 10000 4.25 84 19:45 20.05.2022
3584 Clouds 16 1011 18 10000 4.36 86 18:53 20.05.2022
3585 Clouds 17 1012 44 10000 4.5 82 17:53 20.05.2022
3586 Clouds 18 1012 48 10000 4.23 85 16:23 20.05.2022
3587 Clouds 19 1012 50 10000 4.23 86 15:54 20.05.2022
3588 Clouds 18 1013 42 10000 3.33 81 14:44 20.05.2022
3589 Clouds 19 1013 40 10000 3.62 81 14:26 20.05.2022
3590 Clouds 19 1014 51 10000 4.28 56 11:52 20.05.2022
3591 Clouds 18 1014 41 10000 3.69 54 10:45 20.05.2022
3592 Clouds 15 1013 1 10000 2.02 32 09:23 20.05.2022
3593 Clouds 12 1013 1 10000 0.5 336 07:43 20.05.2022
3594 Clouds 12 1013 1 10000 0.79 212 06:40 20.05.2022
3595 Clouds 11 1013 1 10000 0.44 81 05:39 20.05.2022
3596 Clouds 12 1013 1 10000 0.91 158 01:29 20.05.2022
3597 Clouds 13 1013 1 10000 0.71 174 23:46 19.05.2022
3598 Clouds 14 1013 1 10000 1.87 166 22:35 19.05.2022
3599 Clouds 15 1013 1 10000 1.87 166 21:50 19.05.2022
3600 Clouds 16 1013 72 10000 2.22 174 21:23 19.05.2022
3601 Clouds 15 1013 1 10000 2.22 175 20:47 19.05.2022
3602 Clouds 17 1013 11 10000 3.06 180 19:54 19.05.2022
3603 Clouds 17 1013 14 10000 3.66 190 19:00 19.05.2022
3604 Clouds 17 1013 1 10000 3.61 189 17:44 19.05.2022
3605 Clouds 18 1014 35 10000 3.04 200 15:51 19.05.2022
3606 Rain 18 1014 30 10000 2.44 208 14:47 19.05.2022
3607 Rain 16 1015 37 10000 2.21 206 14:20 19.05.2022
3608 Clouds 14 1016 44 10000 1.71 189 11:54 19.05.2022
3609 Clouds 15 1016 47 10000 1.37 128 10:30 19.05.2022
3610 Clouds 9 1017 66 10000 1.31 59 08:39 19.05.2022
3611 Clouds 10 1018 1 10000 1.06 58 07:18 19.05.2022
3612 Clouds 10 1019 1 10000 0.58 330 03:41 19.05.2022
3613 Clouds 10 1019 1 10000 1.03 226 00:57 19.05.2022
3614 Clouds 10 1019 1 10000 1.28 223 23:35 18.05.2022
3615 Clouds 11 1019 1 10000 1.59 205 22:43 18.05.2022
3616 Clouds 11 1019 1 10000 2.16 194 21:43 18.05.2022
3617 Clouds 11 1019 1 10000 3.01 194 21:23 18.05.2022
3618 Clouds 12 1019 1 10000 3.72 195 20:19 18.05.2022
3619 Clouds 12 1019 1 10000 4.86 190 18:56 18.05.2022
3620 Rain 12 1020 1 10000 4.53 195 17:56 18.05.2022
3621 Clouds 12 1020 69 10000 5.11 187 17:36 18.05.2022
3622 Rain 12 1020 69 10000 5.12 188 17:18 18.05.2022
3623 Rain 14 1021 15 10000 5.2 191 15:52 18.05.2022
3624 Rain 15 1021 55 10000 6.06 195 15:33 18.05.2022
3625 Clouds 17 1021 39 10000 6.02 189 14:21 18.05.2022
3626 Clouds 17 1021 37 10000 5.95 192 12:55 18.05.2022
3627 Clouds 17 1022 36 10000 5.71 194 12:24 18.05.2022
3628 Clouds 16 1022 53 10000 5.21 197 11:33 18.05.2022
3629 Clouds 16 1022 49 10000 5.21 197 10:43 18.05.2022
3630 Clear 12 1024 55 10000 2.77 190 08:19 18.05.2022
3631 Clear 10 1024 49 10000 1.91 188 07:27 18.05.2022
3632 Clear 6 1025 54 10000 1.44 175 03:59 18.05.2022
3633 Clear 9 1026 52 10000 1.46 167 00:51 18.05.2022
3634 Clear 9 1026 52 10000 1.45 168 00:51 18.05.2022
3635 Clear 9 1025 48 10000 1.57 172 23:41 17.05.2022
3636 Clear 15 1024 36 10000 2.16 195 21:22 17.05.2022
3637 Clear 17 1023 30 10000 2.16 195 20:44 17.05.2022
3638 Clear 19 1023 29 10000 3.21 189 19:41 17.05.2022
3639 Clear 19 1023 28 10000 3.18 187 19:20 17.05.2022
3640 Clear 19 1023 26 10000 2.81 191 17:49 17.05.2022
3641 Clear 20 1024 28 10000 2.51 196 16:57 17.05.2022
3642 Clear 19 1024 28 10000 2.27 196 15:59 17.05.2022
3643 Clear 18 1025 31 10000 1.95 188 14:55 17.05.2022
3644 Clear 17 1025 33 10000 1.71 173 14:28 17.05.2022
3645 Clear 16 1025 32 10000 1.64 166 13:24 17.05.2022
3646 Clear 12 1027 41 10000 1.23 127 10:42 17.05.2022
3647 Clear 10 1027 48 10000 1.61 82 08:51 17.05.2022
3648 Clear 8 1027 52 10000 1.49 72 07:55 17.05.2022
3649 Clear 6 1027 57 10000 1.24 26 06:26 17.05.2022
3650 Clear 8 1025 51 10000 2.04 32 01:34 17.05.2022
3651 Clear 9 1024 45 10000 2.55 43 23:46 16.05.2022
3652 Clear 10 1024 43 10000 2.19 36 22:39 16.05.2022
3653 Clear 13 1022 42 10000 1.17 160 21:24 16.05.2022
3654 Clear 14 1022 35 10000 1.18 160 20:42 16.05.2022
3655 Clouds 18 1021 24 10000 2.11 152 18:51 16.05.2022
3656 Clouds 17 1021 24 10000 1.28 156 17:26 16.05.2022
3657 Clouds 17 1021 26 10000 1.07 117 15:35 16.05.2022
3658 Clouds 15 1022 30 10000 0.73 121 13:48 16.05.2022
3659 Clouds 13 1023 33 10000 0.91 90 12:44 16.05.2022
3660 Clouds 12 1024 43 10000 1.7 65 10:38 16.05.2022
3661 Clouds 9 1025 51 10000 1.8 60 08:32 16.05.2022
3662 Clouds 7 1025 57 10000 1.41 61 06:30 16.05.2022
3663 Clouds 7 1025 57 10000 1.41 61 06:30 16.05.2022
3664 Clouds 10 1023 55 10000 3.09 47 01:43 16.05.2022
3665 Clouds 12 1021 56 10000 3.68 50 22:52 15.05.2022
3666 Clouds 13 1020 52 10000 1.65 44 22:25 15.05.2022
3667 Clouds 15 1017 56 10000 1.17 200 21:38 15.05.2022
3668 Clouds 16 1017 56 10000 0.95 194 20:53 15.05.2022
3669 Clouds 17 1017 52 10000 3.26 178 18:52 15.05.2022
3670 Clouds 18 1017 39 10000 2.98 202 17:29 15.05.2022
3671 Clouds 18 1017 31 10000 1.35 258 14:58 15.05.2022
3672 Clouds 17 1016 28 10000 1.61 305 13:46 15.05.2022
3673 Clouds 16 1017 45 10000 1.71 263 12:21 15.05.2022
3674 Clouds 16 1017 48 10000 1.53 249 11:29 15.05.2022
3675 Clouds 14 1017 52 10000 1.25 242 09:58 15.05.2022
3676 Clear 9 1017 42 10000 1.36 356 07:25 15.05.2022
3677 Clear 8 1017 36 10000 1.36 356 06:56 15.05.2022
3678 Clear 6 1015 48 10000 2.04 329 03:40 15.05.2022
3679 Clouds 8 1013 55 10000 2.18 310 00:47 15.05.2022
3680 Clouds 9 1013 57 10000 2.19 310 23:38 14.05.2022
3681 Clouds 10 1012 55 10000 2.56 308 22:41 14.05.2022
3682 Clouds 12 1011 49 10000 4.02 281 21:27 14.05.2022
3683 Clouds 14 1010 45 10000 4.21 280 20:30 14.05.2022
3684 Clouds 15 1009 39 10000 3.77 308 19:21 14.05.2022
3685 Clouds 16 1009 33 10000 3.76 308 18:59 14.05.2022
3686 Clouds 16 1008 30 10000 4.49 311 17:53 14.05.2022
3687 Clouds 17 1007 31 10000 4.83 307 16:23 14.05.2022
3688 Clouds 17 1006 32 10000 4.4 303 14:56 14.05.2022
3689 Clouds 17 1006 30 10000 3.49 291 14:30 14.05.2022
3690 Clouds 15 1002 51 10000 3.14 327 12:18 14.05.2022
3691 Clouds 13 1002 51 10000 3.32 331 10:53 14.05.2022
3692 Clouds 13 1002 52 10000 3.61 323 10:20 14.05.2022
3693 Clouds 13 1005 42 10000 3.61 323 09:46 14.05.2022
3694 Clouds 11 1003 55 10000 3.16 308 07:59 14.05.2022
3695 Clear 8 1000 1 10000 1.35 265 05:26 14.05.2022
3696 Clouds 10 999 31 10000 3.46 214 01:57 14.05.2022
3697 Clouds 10 1000 1 10000 4.39 225 23:31 13.05.2022
3698 Clouds 10 1000 1 10000 4.39 225 22:57 13.05.2022
3699 Clouds 11 1000 1 10000 4.42 227 22:23 13.05.2022
3700 Clouds 11 1000 1 10000 4.42 227 21:35 13.05.2022
3701 Rain 11 1000 1 10000 4.25 222 20:43 13.05.2022
3702 Rain 12 1000 1 10000 4.07 221 20:23 13.05.2022
3703 Clouds 12 1000 1 10000 5.05 223 19:21 13.05.2022
3704 Clouds 13 1000 52 10000 5.46 213 17:50 13.05.2022
3705 Clouds 13 1000 15 10000 5.25 201 17:26 13.05.2022
3706 Clouds 15 1002 55 10000 5.89 208 15:53 13.05.2022
3707 Clouds 15 1002 57 10000 0.89 64 14:51 13.05.2022
3708 Clouds 14 1001 35 10000 4.82 218 12:58 13.05.2022
3709 Clouds 14 1002 35 10000 4.5 212 12:25 13.05.2022
3710 Clouds 13 1002 53 10000 3.61 207 10:42 13.05.2022
3711 Clouds 12 1002 54 10000 2.71 230 09:29 13.05.2022
3712 Clouds 11 1003 55 10000 1.61 227 08:20 13.05.2022
3713 Clouds 10 1003 56 10000 1.1 229 07:31 13.05.2022
3714 Clouds 8 1003 51 10000 1.19 216 05:58 13.05.2022
3715 Clouds 8 1003 57 10000 1.33 238 02:43 13.05.2022
3716 Clouds 9 1002 56 10000 1.64 250 23:44 12.05.2022
3717 Clouds 10 1002 54 10000 3.05 264 22:43 12.05.2022
3718 Clouds 11 1002 48 10000 3.24 265 21:46 12.05.2022
3719 Clouds 14 1000 41 10000 4.65 269 20:23 12.05.2022
3720 Clouds 16 1000 33 10000 2.68 32 18:31 12.05.2022
3721 Clouds 16 999 39 10000 5.7 273 16:57 12.05.2022
3722 Clouds 15 999 41 10000 5.95 271 15:49 12.05.2022
3723 Clouds 15 997 42 10000 6.13 268 13:59 12.05.2022
3724 Clouds 15 997 43 10000 5.02 273 13:24 12.05.2022
3725 Clouds 14 997 50 10000 5.01 280 10:40 12.05.2022
3726 Clouds 12 996 55 10000 4.41 267 08:59 12.05.2022
3727 Clouds 12 996 55 10000 4.41 267 08:39 12.05.2022
3728 Clouds 10 995 44 10000 2.87 255 07:37 12.05.2022
3729 Clouds 7 995 1 10000 1.91 240 05:30 12.05.2022
3730 Clouds 8 995 22 10000 3.17 216 02:24 12.05.2022
3731 Clouds 9 995 1 10000 3.76 208 23:56 11.05.2022
3732 Clouds 10 995 1 10000 3.53 212 22:31 11.05.2022
3733 Clouds 11 995 1 10000 3.53 212 21:32 11.05.2022
3734 Clouds 11 995 1 10000 3.67 220 20:53 11.05.2022
3735 Clouds 12 995 50 10000 5.47 209 18:24 11.05.2022
3736 Clouds 13 996 1 10000 5.7 195 16:50 11.05.2022
3737 Rain 12 998 1 10000 6.12 205 14:50 11.05.2022
3738 Rain 13 998 56 10000 6.63 217 14:26 11.05.2022
3739 Rain 13 998 56 10000 6.63 217 13:51 11.05.2022
3740 Clouds 16 998 42 10000 6.3 193 11:51 11.05.2022
3741 Clouds 12 1000 1 10000 4.8 202 10:27 11.05.2022
3742 Clear 10 1000 1 10000 3.74 210 08:33 11.05.2022
3743 Clouds 7 1001 1 10000 1.74 212 04:44 11.05.2022
3744 Clouds 8 1000 1 10000 1.77 222 00:42 11.05.2022
3745 Clouds 10 1000 1 10000 3.38 205 22:30 10.05.2022
3746 Clouds 11 1000 1 10000 3.38 205 21:47 10.05.2022
3747 Clouds 11 1000 1 10000 4.3 204 20:52 10.05.2022
3748 Clouds 12 1001 1 10000 5.1 194 19:26 10.05.2022
3749 Clouds 12 1001 1 10000 5.46 197 17:49 10.05.2022
3750 Clouds 12 1002 1 10000 5.36 195 16:49 10.05.2022
3751 Clouds 11 1004 1 10000 5.99 187 14:33 10.05.2022
3752 Clouds 11 1005 1 9657 6.29 185 12:39 10.05.2022
3753 Rain 11 1006 1 10000 6.22 177 11:49 10.05.2022
3754 Rain 12 1007 85 10000 5.98 177 11:18 10.05.2022
3755 Rain 12 1008 1 10000 5.2 181 09:59 10.05.2022
3756 Clouds 11 1009 1 10000 4.67 180 09:25 10.05.2022
3757 Rain 9 1011 1 10000 4.82 192 06:46 10.05.2022
3758 Rain 10 1015 50 10000 4.9 196 03:29 10.05.2022
3759 Clouds 10 1017 1 10000 4.78 194 00:34 10.05.2022
3760 Clouds 11 1019 1 10000 5 191 22:52 09.05.2022
3761 Clouds 11 1019 37 10000 5.22 189 21:50 09.05.2022
3762 Clouds 13 1020 60 10000 5.89 187 20:30 09.05.2022
3763 Clouds 15 1020 55 10000 6.35 188 18:43 09.05.2022
3764 Clouds 14 1020 55 10000 6.62 184 17:44 09.05.2022
3765 Clouds 17 1021 32 10000 7.23 184 16:30 09.05.2022
3766 Clouds 17 1021 32 10000 7.23 184 16:30 09.05.2022
3767 Clouds 17 1022 39 10000 1.79 312 15:51 09.05.2022
3768 Clouds 17 1022 35 10000 1.79 312 14:54 09.05.2022
3769 Clouds 17 1022 34 10000 1.79 312 14:29 09.05.2022
3770 Clouds 17 1021 31 10000 6.36 183 13:40 09.05.2022
3771 Clouds 16 1023 42 10000 4.43 192 12:18 09.05.2022
3772 Clouds 15 1024 30 10000 3.81 192 10:55 09.05.2022
3773 Clouds 13 1024 54 10000 3.83 192 10:36 09.05.2022
3774 Clouds 10 1025 50 10000 3.81 201 08:36 09.05.2022
3775 Clouds 9 1025 28 10000 3.81 201 07:52 09.05.2022
3776 Clouds 6 1027 57 10000 2.66 186 03:19 09.05.2022
3777 Clouds 9 1028 49 10000 2.29 180 23:34 08.05.2022
3778 Clouds 9 1028 46 10000 2.08 181 22:52 08.05.2022
3779 Clouds 11 1027 39 10000 2.5 200 21:48 08.05.2022
3780 Clouds 13 1027 30 10000 3.35 202 20:35 08.05.2022
3781 Clouds 14 1026 29 10000 3.99 200 19:43 08.05.2022
3782 Clouds 15 1026 28 10000 3.8 204 18:53 08.05.2022
3783 Clouds 16 1026 28 10000 2.68 214 17:57 08.05.2022
3784 Clouds 15 1026 28 10000 2.3 221 16:42 08.05.2022
3785 Clouds 15 1027 32 10000 1.93 207 15:26 08.05.2022
3786 Clouds 14 1026 29 10000 2.08 208 14:44 08.05.2022
3787 Clouds 13 1028 33 10000 0.83 148 12:25 08.05.2022
3788 Clear 10 1028 36 10000 0.45 340 10:31 08.05.2022
3789 Clear 9 1028 37 10000 0.45 342 09:57 08.05.2022
3790 Clear 9 1028 37 10000 0.45 340 09:57 08.05.2022
3791 Clear 8 1028 43 10000 0.71 326 08:55 08.05.2022
3792 Clouds 4 1027 51 10000 0.63 10 06:58 08.05.2022
3793 Clouds 3 1025 55 10000 1.4 5 03:35 08.05.2022
3794 Clouds 4 1025 52 10000 1.61 5 02:41 08.05.2022
3795 Clouds 6 1023 46 10000 3.94 45 00:24 08.05.2022
3796 Clouds 7 1023 43 10000 3.94 45 23:49 07.05.2022
3797 Clouds 9 1022 41 10000 4.14 38 22:46 07.05.2022
3798 Clouds 10 1021 37 10000 3.85 44 21:58 07.05.2022
3799 Clouds 11 1019 39 10000 2.07 353 21:33 07.05.2022
3800 Clouds 13 1018 33 10000 4.16 7 20:28 07.05.2022
3801 Clouds 15 1016 29 10000 4.03 304 19:23 07.05.2022
3802 Clouds 16 1016 29 10000 0.92 119 17:34 07.05.2022
3803 Clouds 15 1016 32 10000 2.26 113 15:41 07.05.2022
3804 Clouds 14 1017 43 10000 3.94 80 12:50 07.05.2022
3805 Clouds 13 1016 43 10000 4.86 54 10:41 07.05.2022
3806 Clear 12 1013 50 10000 4.45 6 08:57 07.05.2022
3807 Clouds 11 1012 55 10000 3.26 340 07:50 07.05.2022
3808 Clouds 10 1011 1 10000 2.02 308 06:43 07.05.2022
3809 Clouds 8 1009 1 10000 1.54 285 04:35 07.05.2022
3810 Clouds 11 1009 1 10000 2.73 206 01:19 07.05.2022
3811 Rain 12 1010 1 10000 4.49 215 23:36 06.05.2022
3812 Rain 13 1010 1 10000 4.84 216 22:26 06.05.2022
3813 Rain 13 1010 1 10000 4.83 216 21:41 06.05.2022
3814 Clouds 14 1010 54 10000 5.26 221 20:24 06.05.2022
3815 Clouds 16 1010 45 10000 5.1 215 19:29 06.05.2022
3816 Clouds 16 1010 45 10000 5.1 215 19:29 06.05.2022
3817 Clouds 18 1010 45 10000 5.1 216 18:56 06.05.2022
3818 Clouds 17 1010 53 10000 5.1 183 17:38 06.05.2022
3819 Clouds 18 1012 51 10000 5.69 180 15:56 06.05.2022
3820 Clouds 19 1012 43 10000 5.69 180 15:38 06.05.2022
3821 Clouds 19 1013 33 10000 4.85 189 14:23 06.05.2022
3822 Clouds 17 1013 44 10000 4.18 197 12:53 06.05.2022
3823 Clear 17 1014 45 10000 3.56 197 12:30 06.05.2022
3824 Clear 16 1014 46 10000 3.56 197 11:38 06.05.2022
3825 Clear 13 1016 54 10000 2.28 210 09:49 06.05.2022
3826 Clear 12 1016 55 10000 1.54 207 09:19 06.05.2022
3827 Clear 9 1017 56 10000 0.84 236 07:57 06.05.2022
3828 Clear 5 1016 47 10000 1.11 312 06:29 06.05.2022
3829 Clear 5 1016 57 10000 1.23 313 04:37 06.05.2022
3830 Clear 6 1016 58 10000 1.46 312 02:43 06.05.2022
3831 Clouds 9 1015 58 10000 0.84 315 23:34 05.05.2022
3832 Clouds 11 1014 51 10000 0.34 241 21:52 05.05.2022
3833 Clouds 14 1014 44 10000 1.06 178 20:53 05.05.2022
3834 Clouds 16 1013 39 10000 1.76 180 19:49 05.05.2022
3835 Clouds 18 1011 53 10000 2.48 214 16:53 05.05.2022
3836 Clouds 18 1011 51 10000 2.66 209 15:52 05.05.2022
3837 Clouds 18 1011 49 10000 2.87 218 14:43 05.05.2022
3838 Clouds 17 1011 50 10000 2.45 238 13:20 05.05.2022
3839 Clouds 16 1011 50 10000 2.55 237 12:24 05.05.2022
3840 Clouds 13 1011 56 10000 1.97 232 10:30 05.05.2022
3841 Clouds 11 1011 39 10000 1.97 232 09:34 05.05.2022
3842 Clouds 7 1012 1 10000 0.51 257 07:19 05.05.2022
3843 Clouds 6 1013 5 10000 0.98 196 02:33 05.05.2022
3844 Clouds 6 1013 28 10000 1.01 183 01:47 05.05.2022
3845 Clouds 7 1013 32 10000 1.82 176 01:21 05.05.2022
3846 Clouds 8 1013 49 10000 3.13 182 23:31 04.05.2022
3847 Clouds 9 1013 55 10000 3.61 183 22:25 04.05.2022
3848 Clouds 9 1013 58 10000 3.6 183 21:49 04.05.2022
3849 Clouds 10 1013 57 10000 4.29 184 21:26 04.05.2022
3850 Clouds 11 1013 50 10000 4.63 182 20:22 04.05.2022
3851 Clouds 12 1013 61 10000 4.53 182 19:51 04.05.2022
3852 Clouds 12 1013 42 10000 4.76 180 18:49 04.05.2022
3853 Clouds 12 1013 40 10000 5.1 184 18:20 04.05.2022
3854 Clouds 13 1014 45 10000 5.46 187 17:29 04.05.2022
3855 Clouds 13 1014 46 10000 5.37 188 15:38 04.05.2022
3856 Clouds 13 1014 46 10000 5.37 188 15:38 04.05.2022
3857 Clouds 13 1014 46 10000 5.37 188 14:59 04.05.2022
3858 Clouds 13 1015 47 10000 5.03 190 14:20 04.05.2022
3859 Clouds 12 1015 56 10000 4.31 193 13:18 04.05.2022
3860 Clouds 12 1016 55 10000 3.95 195 12:29 04.05.2022
3861 Clouds 9 1017 53 10000 3.5 190 10:33 04.05.2022
3862 Clouds 7 1018 52 10000 1.59 162 09:28 04.05.2022
3863 Clouds 6 1018 51 10000 1.59 162 08:33 04.05.2022
3864 Clouds 1 1018 1 10000 1.17 51 05:50 04.05.2022
3865 Clouds 2 1019 31 10000 1.24 50 02:43 04.05.2022
3866 Clouds 5 1018 58 10000 1.2 108 23:31 03.05.2022
3867 Clouds 7 1017 58 10000 1.65 155 22:20 03.05.2022
3868 Clouds 8 1017 56 10000 1.65 155 21:36 03.05.2022
3869 Clouds 9 1017 46 10000 2.69 190 20:52 03.05.2022
3870 Clouds 11 1016 40 10000 4.21 195 19:45 03.05.2022
3871 Clouds 11 1016 42 10000 4.79 187 18:50 03.05.2022
3872 Clouds 12 1016 35 10000 5.28 185 17:45 03.05.2022
3873 Clouds 13 1015 30 10000 5.22 193 16:35 03.05.2022
3874 Clouds 13 1016 31 10000 3.25 213 14:51 03.05.2022
3875 Clouds 11 1017 36 10000 1.76 194 12:47 03.05.2022
3876 Clouds 10 1018 38 10000 1.54 204 12:27 03.05.2022
3877 Clouds 10 1018 39 10000 1.02 184 10:52 03.05.2022
3878 Clouds 7 1018 44 10000 1.73 99 08:58 03.05.2022
3879 Clear 4 1017 57 10000 1.71 66 06:46 03.05.2022
3880 Clear 3 1016 57 10000 1.13 10 04:58 03.05.2022
3881 Clouds 7 1013 43 10000 1.94 32 00:19 03.05.2022
3882 Clouds 9 1012 36 10000 2.48 22 22:36 02.05.2022
3883 Clouds 10 1012 33 10000 2.48 22 21:51 02.05.2022
3884 Clouds 11 1011 35 10000 4.06 33 20:51 02.05.2022
3885 Clouds 15 1007 37 10000 3.27 313 18:37 02.05.2022
3886 Clouds 15 1007 38 10000 3.27 313 17:53 02.05.2022
3887 Clouds 15 1007 38 10000 3.27 313 17:33 02.05.2022
3888 Clouds 14 1008 44 10000 3.02 296 16:21 02.05.2022
3889 Clouds 14 1008 45 10000 2.89 299 15:29 02.05.2022
3890 Clouds 14 1008 44 10000 3.21 293 13:50 02.05.2022
3891 Clouds 14 1009 39 10000 3.59 285 12:18 02.05.2022
3892 Clouds 13 1009 46 10000 3.59 285 10:38 02.05.2022
3893 Clear 11 1010 49 10000 2 264 08:49 02.05.2022
3894 Clouds 9 1011 55 10000 1.28 253 07:39 02.05.2022
3895 Clouds 9 1011 55 10000 1.28 253 07:39 02.05.2022
3896 Clouds 6 1014 57 10000 1.37 199 02:51 02.05.2022
3897 Clouds 9 1017 46 10000 2.5 181 00:24 02.05.2022
3898 Clouds 9 1017 46 10000 2.5 181 23:47 01.05.2022
3899 Clouds 10 1018 45 10000 2.99 185 22:20 01.05.2022
3900 Clouds 11 1018 46 10000 3.59 184 21:18 01.05.2022
3901 Clouds 14 1018 45 10000 3.91 184 19:51 01.05.2022
3902 Clouds 14 1018 35 10000 3.97 181 18:57 01.05.2022
3903 Clouds 15 1018 32 10000 4.63 187 18:27 01.05.2022
3904 Clouds 15 1018 30 10000 4.52 199 17:26 01.05.2022
3905 Clouds 15 1019 33 10000 3.25 207 16:23 01.05.2022
3906 Clouds 15 1020 33 10000 2.95 210 15:24 01.05.2022
3907 Clouds 15 1020 39 10000 2.8 210 13:42 01.05.2022
3908 Clouds 12 1022 49 10000 1.39 187 10:53 01.05.2022
3909 Clouds 9 1023 55 10000 0.4 80 08:53 01.05.2022
3910 Clouds 9 1023 55 10000 0.4 80 08:53 01.05.2022
3911 Clouds 7 1023 53 10000 0.78 17 07:55 01.05.2022
3912 Clouds 6 1022 55 10000 0.64 22 03:31 01.05.2022
3913 Clouds 7 1022 55 10000 0.05 69 23:49 30.04.2022
3914 Clouds 9 1022 54 10000 0.95 219 21:44 30.04.2022
3915 Clouds 11 1021 47 10000 1.3 216 20:45 30.04.2022
3916 Clouds 12 1020 42 10000 1.73 215 19:41 30.04.2022
3917 Clouds 13 1020 38 10000 1.92 224 17:45 30.04.2022
3918 Clouds 13 1021 37 10000 2.01 226 16:42 30.04.2022
3919 Clouds 13 1021 37 10000 1.87 221 15:46 30.04.2022
3920 Clouds 13 1022 36 10000 1.75 222 14:43 30.04.2022
3921 Clouds 13 1023 35 10000 1.7 221 12:42 30.04.2022
3922 Clouds 13 1024 39 10000 0.82 205 11:34 30.04.2022
3923 Clouds 12 1024 42 10000 0.82 205 10:44 30.04.2022
3924 Clear 10 1025 45 10000 0.36 45 09:25 30.04.2022
3925 Clouds 5 1026 57 10000 0.76 20 06:43 30.04.2022
3926 Clouds 7 1026 57 10000 0.78 10 02:36 30.04.2022
3927 Clouds 9 1026 46 10000 0.65 335 23:37 29.04.2022
3928 Clouds 9 1026 48 10000 0.25 16 22:31 29.04.2022
3929 Clouds 9 1026 49 10000 0.25 16 21:39 29.04.2022
3930 Clouds 11 1026 44 10000 0.36 87 20:49 29.04.2022
3931 Clouds 12 1025 40 10000 0.29 85 19:45 29.04.2022
3932 Clouds 13 1026 34 10000 0.76 283 17:55 29.04.2022
3933 Clouds 14 1026 36 10000 0.93 275 17:21 29.04.2022
3934 Clouds 13 1026 34 10000 0.91 271 15:49 29.04.2022
3935 Clouds 13 1027 35 10000 0.27 265 14:22 29.04.2022
3936 Clouds 11 1028 37 10000 0.43 127 12:52 29.04.2022
3937 Clouds 11 1005 35 10000 2.24 225 11:49 29.04.2022
3938 Clouds 8 1006 46 10000 1.59 66 08:51 29.04.2022
3939 Clouds 6 1006 53 10000 0.45 270 07:28 29.04.2022
3940 Clouds 5 1005 54 10000 0.45 270 06:39 29.04.2022
3941 Clouds 5 1029 57 10000 1.55 7 04:53 29.04.2022
3942 Clouds 7 1004 49 10000 0.45 270 00:39 29.04.2022
3943 Clouds 8 1003 41 10000 0.45 225 23:28 28.04.2022
3944 Clouds 9 1028 51 10000 3.43 47 22:41 28.04.2022
3945 Clouds 9 1027 47 10000 2.41 34 21:47 28.04.2022
3946 Clouds 9 1026 45 10000 1.37 20 21:19 28.04.2022
3947 Clouds 12 1002 35 10000 2 2 20:25 28.04.2022
3948 Clouds 13 1025 36 10000 2 2 19:41 28.04.2022
3949 Clouds 13 1001 35 10000 2.07 349 19:22 28.04.2022
3950 Clouds 14 1001 35 10000 0.45 225 18:36 28.04.2022
3951 Clouds 14 1001 35 10000 1.35 336 17:24 28.04.2022
3952 Clouds 13 1024 42 10000 1.36 336 16:40 28.04.2022
3953 Clouds 14 1001 37 10000 1.51 333 16:18 28.04.2022
3954 Clouds 14 1002 38 10000 2.16 331 15:28 28.04.2022
3955 Clouds 11 1002 46 10000 0.45 90 13:44 28.04.2022
3956 Clouds 11 1002 45 10000 0.45 90 12:44 28.04.2022
3957 Clouds 11 1002 47 10000 2.08 331 11:58 28.04.2022
3958 Clouds 10 1002 49 10000 1.8 331 10:46 28.04.2022
3959 Clouds 9 1002 52 10000 1.51 323 09:54 28.04.2022
3960 Clouds 5 1024 49 10000 0.93 305 08:31 28.04.2022
3961 Clouds 4 1001 36 10000 0.45 90 07:19 28.04.2022
3962 Clouds 3 1001 36 10000 0.45 90 05:56 28.04.2022
3963 Clouds 1 1024 8 10000 0.89 298 05:38 28.04.2022
3964 Clouds 3 1001 41 10000 0.71 286 04:39 28.04.2022
3965 Clouds 4 1025 59 10000 1.37 160 00:30 28.04.2022
3966 Clouds 5 1002 56 10000 1.3 150 22:40 27.04.2022
3967 Clouds 6 1001 56 10000 0.45 315 21:55 27.04.2022
3968 Clouds 7 1002 55 10000 0.45 90 21:18 27.04.2022
3969 Clouds 8 1001 48 10000 0.45 90 20:37 27.04.2022
3970 Clouds 9 1002 44 10000 0.45 218 19:38 27.04.2022
3971 Clouds 10 1001 42 10000 0.45 90 19:18 27.04.2022
3972 Clouds 10 1002 41 10000 1.63 20 18:22 27.04.2022
3973 Clouds 10 1002 41 10000 1.63 20 18:22 27.04.2022
3974 Clouds 10 1002 41 10000 1.63 20 18:22 27.04.2022
3975 Clouds 10 1002 41 10000 1.63 20 18:22 27.04.2022
3976 Clouds 9 1025 51 10000 1.67 15 16:58 27.04.2022
3977 Clouds 9 1003 42 10000 0.45 225 15:21 27.04.2022
3978 Clouds 9 1004 42 10000 0.45 270 12:25 27.04.2022
3979 Rain 6 1004 60 10000 0.89 133 11:20 27.04.2022
3980 Rain 4 1004 58 10000 0.89 225 09:43 27.04.2022
3981 Rain 4 1003 52 10000 0.45 272 07:18 27.04.2022
3982 Clouds 4 1002 49 10000 1.95 36 04:45 27.04.2022
3983 Clouds 5 1001 45 10000 0.45 225 01:34 27.04.2022
3984 Clouds 5 1000 45 10000 0.89 268 00:38 27.04.2022
3985 Clouds 6 1000 45 10000 0.45 250 23:39 26.04.2022
3986 Clouds 6 1000 45 10000 0.45 270 23:18 26.04.2022
3987 Clouds 7 999 45 10000 0.45 248 22:39 26.04.2022
3988 Clouds 7 999 44 10000 0.45 270 21:37 26.04.2022
3989 Clouds 8 1022 47 10000 3.44 47 20:52 26.04.2022
3990 Clouds 9 1021 48 10000 3.16 46 20:30 26.04.2022
3991 Clouds 11 997 34 10000 0.45 270 19:32 26.04.2022
3992 Clouds 11 997 35 10000 3.66 40 18:45 26.04.2022
3993 Clouds 11 1020 39 10000 3.57 36 17:59 26.04.2022
3994 Clouds 12 997 35 10000 0.45 270 16:58 26.04.2022
3995 Clouds 11 1019 40 10000 3.16 36 14:27 26.04.2022
3996 Clouds 11 1019 41 10000 3.25 38 13:33 26.04.2022
3997 Clouds 9 1019 47 10000 3.47 41 11:57 26.04.2022
3998 Rain 9 1019 49 10000 3.77 44 10:37 26.04.2022
3999 Clouds 7 996 51 10000 0.45 270 09:25 26.04.2022
4000 Clouds 6 995 53 10000 0.45 270 07:38 26.04.2022
4001 Clouds 8 993 54 10000 0.89 266 04:33 26.04.2022
4002 Clouds 9 1016 52 10000 3.51 38 01:30 26.04.2022
4003 Clouds 11 992 45 10000 0.45 270 00:26 26.04.2022
4004 Clouds 11 1015 49 10000 3.38 38 22:46 25.04.2022
4005 Clouds 12 1015 49 10000 3.59 48 21:42 25.04.2022
4006 Clouds 13 1014 43 10000 4.03 53 20:40 25.04.2022
4007 Clouds 17 1012 39 10000 3.96 56 18:58 25.04.2022
4008 Clouds 18 1012 30 10000 4.36 51 17:54 25.04.2022
4009 Clouds 18 1012 31 10000 3.7 47 16:59 25.04.2022
4010 Clouds 18 1012 33 10000 2.51 24 15:29 25.04.2022
4011 Clouds 17 1012 35 10000 2.51 24 14:46 25.04.2022
4012 Clouds 17 1013 36 10000 2.23 17 13:35 25.04.2022
4013 Clouds 14 1013 39 10000 1.83 347 11:43 25.04.2022
4014 Clouds 12 1014 49 10000 1.47 317 10:26 25.04.2022
4015 Clouds 8 992 54 10000 1.26 308 08:46 25.04.2022
4016 Clouds 6 992 60 10000 1.11 315 06:45 25.04.2022
4017 Clouds 5 993 50 10000 1.02 317 04:27 25.04.2022
4018 Clouds 4 1017 57 10000 1.76 359 00:58 25.04.2022
4019 Clouds 4 1017 57 10000 1.88 3 23:51 24.04.2022
4020 Clouds 6 1017 58 10000 2.01 5 22:45 24.04.2022
4021 Clouds 6 1017 56 10000 2.1 358 22:26 24.04.2022
4022 Clear 9 993 46 10000 2 2 21:26 24.04.2022
4023 Clear 9 1017 52 10000 2 2 20:54 24.04.2022
4024 Clear 10 1017 49 10000 2 2 20:35 24.04.2022
4025 Clouds 12 994 36 10000 0.89 91 19:46 24.04.2022
4026 Clouds 13 994 34 10000 0.45 270 18:20 24.04.2022
4027 Clouds 14 994 29 10000 0.89 269 17:28 24.04.2022
4028 Clouds 14 1017 35 10000 3 44 16:59 24.04.2022
4029 Clouds 13 1017 34 10000 3 44 16:32 24.04.2022
4030 Clouds 13 1017 30 10000 3.07 47 15:54 24.04.2022
4031 Clouds 13 1018 35 10000 3.27 45 15:29 24.04.2022
4032 Clouds 12 1019 37 10000 3.5 46 13:56 24.04.2022
4033 Clouds 12 1019 38 10000 3.78 45 13:25 24.04.2022
4034 Clear 9 1020 51 10000 4.07 46 11:56 24.04.2022
4035 Clear 10 997 45 10000 0.45 270 11:28 24.04.2022
4036 Clear 8 997 46 10000 0.45 248 10:24 24.04.2022
4037 Clear 7 997 51 10000 4.62 41 09:19 24.04.2022
4038 Clouds 5 997 54 10000 0.45 225 06:18 24.04.2022
4039 Clouds 6 1022 55 10000 2.74 19 03:43 24.04.2022
4040 Clear 7 999 49 10000 0.45 225 01:38 24.04.2022
4041 Clear 8 999 45 10000 2.97 55 00:22 24.04.2022
4042 Clouds 9 998 46 10000 3.25 37 23:26 23.04.2022
4043 Clouds 9 998 46 10000 0.89 270 22:55 23.04.2022
4044 Clouds 9 998 46 10000 0.45 270 21:51 23.04.2022
4045 Clouds 9 998 46 10000 0.89 270 21:32 23.04.2022
4046 Clouds 10 997 42 10000 0.45 227 20:36 23.04.2022
4047 Clouds 12 997 40 10000 0.45 270 19:46 23.04.2022
4048 Clouds 13 997 37 10000 0.45 225 19:19 23.04.2022
4049 Clouds 13 997 35 10000 1.34 225 18:46 23.04.2022
4050 Clouds 14 997 35 10000 0.45 270 17:50 23.04.2022
4051 Clouds 14 1021 39 10000 5 27 16:56 23.04.2022
4052 Clouds 15 1021 36 10000 5.49 36 16:23 23.04.2022
4053 Clouds 16 998 32 10000 0.89 270 14:47 23.04.2022
4054 Clouds 14 1022 43 10000 4.25 40 12:22 23.04.2022
4055 Clouds 11 1023 48 10000 4.04 46 10:40 23.04.2022
4056 Clouds 12 1023 48 10000 4.05 46 10:40 23.04.2022
4057 Clouds 10 1000 50 10000 0.89 270 08:55 23.04.2022
4058 Clouds 8 1000 53 10000 2.05 42 05:47 23.04.2022
4059 Clouds 10 1000 53 10000 2.46 56 03:54 23.04.2022
4060 Clouds 11 1023 53 10000 2.69 37 00:46 23.04.2022
4061 Clouds 13 999 41 10000 0.45 270 23:27 22.04.2022
4062 Clouds 15 998 39 10000 0.45 270 21:59 22.04.2022
4063 Clouds 14 1022 46 10000 3.66 39 21:40 22.04.2022
4064 Clouds 16 1022 42 10000 4.19 42 20:45 22.04.2022
4065 Clouds 17 1022 40 10000 4.27 56 20:25 22.04.2022
4066 Clouds 18 1021 38 10000 4.38 54 19:18 22.04.2022
4067 Clouds 18 1021 54 10000 4.38 54 18:35 22.04.2022
4068 Clouds 18 1021 52 10000 4.59 54 17:37 22.04.2022
4069 Clouds 21 1021 33 10000 4.43 45 16:30 22.04.2022
4070 Clouds 20 1022 40 10000 4.4 46 15:32 22.04.2022
4071 Clouds 20 1022 35 10000 4.4 46 14:43 22.04.2022
4072 Clear 19 1022 37 10000 4.08 42 13:42 22.04.2022
4073 Clear 18 1023 39 10000 4.53 42 12:55 22.04.2022
4074 Clear 17 1023 42 10000 4.55 45 11:41 22.04.2022
4075 Clear 16 1024 42 10000 4.17 46 11:18 22.04.2022
4076 Clear 15 1024 44 10000 4.17 46 10:47 22.04.2022
4077 Clear 15 1024 44 10000 3.86 40 10:25 22.04.2022
4078 Clear 14 1024 48 10000 3.87 40 09:42 22.04.2022
4079 Clear 12 1001 48 10000 1.34 270 08:49 22.04.2022
4080 Clouds 8 1024 47 10000 2.05 13 06:56 22.04.2022
4081 Clouds 8 1025 56 10000 2.1 9 01:49 22.04.2022
4082 Clouds 9 1025 57 10000 2.25 7 23:49 21.04.2022
4083 Clouds 10 1025 56 10000 2.32 14 22:52 21.04.2022
4084 Clouds 12 1025 53 10000 2.54 24 21:56 21.04.2022
4085 Clouds 15 1024 43 10000 2.94 40 20:34 21.04.2022
4086 Clouds 16 1024 40 10000 2.83 38 19:51 21.04.2022
4087 Clouds 19 1000 33 10000 0.89 270 18:34 21.04.2022
4088 Clouds 19 1024 35 10000 3.4 43 17:47 21.04.2022
4089 Clouds 19 1024 36 10000 3.71 45 16:28 21.04.2022
4090 Clouds 18 1025 40 10000 3.68 45 15:20 21.04.2022
4091 Clouds 18 1025 42 10000 3.69 45 14:38 21.04.2022
4092 Clouds 16 1025 48 10000 3.63 46 13:23 21.04.2022
4093 Clouds 16 1025 48 10000 3.63 46 13:23 21.04.2022
4094 Clouds 16 1026 50 10000 3.47 47 12:36 21.04.2022
4095 Clouds 12 1026 56 10000 2.75 42 10:20 21.04.2022
4096 Clouds 10 1026 48 10000 2.21 39 08:54 21.04.2022
4097 Clouds 9 1002 34 10000 0.45 270 06:55 21.04.2022
4098 Clouds 9 1002 34 10000 0.45 270 06:55 21.04.2022
4099 Clouds 7 1025 23 10000 1.31 27 04:36 21.04.2022
4100 Clouds 8 1025 45 10000 1.46 37 03:26 21.04.2022
4101 Clouds 9 1025 50 10000 1.47 37 02:46 21.04.2022
4102 Clouds 9 1025 50 10000 1.47 37 02:46 21.04.2022
4103 Clouds 10 1025 56 10000 1.94 34 00:43 21.04.2022
4104 Clouds 10 1024 56 10000 1.99 26 23:49 20.04.2022
4105 Clouds 10 1024 56 10000 1.95 33 23:21 20.04.2022
4106 Clouds 11 1024 55 10000 1.96 32 22:45 20.04.2022
4107 Clouds 12 1024 54 10000 1.95 39 22:26 20.04.2022
4108 Clouds 14 1023 51 10000 1.87 50 21:24 20.04.2022
4109 Clear 16 1023 43 10000 1.91 67 20:23 20.04.2022
4110 Clear 16 1023 43 10000 1.91 67 20:23 20.04.2022
4111 Clear 17 1023 42 10000 1.91 67 19:51 20.04.2022
4112 Clear 20 1000 33 10000 0.45 270 18:55 20.04.2022
4113 Clear 21 999 33 10000 0.45 270 17:53 20.04.2022
4114 Clear 21 1022 35 10000 2.52 71 16:40 20.04.2022
4115 Clear 20 1023 37 10000 2.34 70 15:50 20.04.2022
4116 Clouds 18 1023 42 10000 2.17 68 13:50 20.04.2022
4117 Clouds 15 1024 47 10000 1.67 66 11:44 20.04.2022
4118 Clouds 14 1024 52 10000 1.33 70 10:56 20.04.2022
4119 Clouds 11 1025 56 10000 0.94 70 09:46 20.04.2022
4120 Clouds 11 1002 49 10000 0.91 58 08:59 20.04.2022
4121 Clear 9 1002 48 10000 0.81 35 08:20 20.04.2022
4122 Clear 9 1002 49 10000 0.87 44 06:56 20.04.2022
4123 Clear 10 1000 40 10000 1.24 12 03:34 20.04.2022
4124 Clear 11 1000 39 10000 0.9 21 00:22 20.04.2022
4125 Clear 11 1000 37 10000 0.9 21 23:37 19.04.2022
4126 Clear 10 1022 34 10000 1.06 347 22:25 19.04.2022
4127 Clear 12 999 31 10000 1.06 347 21:55 19.04.2022
4128 Clear 11 1022 34 10000 1.2 309 21:22 19.04.2022
4129 Clear 13 1022 43 10000 1.2 309 20:41 19.04.2022
4130 Clear 14 1021 38 10000 1.21 277 19:52 19.04.2022
4131 Clear 18 998 27 10000 1.27 250 18:47 19.04.2022
4132 Clear 19 1021 30 10000 1.37 204 17:32 19.04.2022
4133 Clear 18 1021 38 10000 1.37 204 16:43 19.04.2022
4134 Clear 18 1021 36 10000 1.33 191 16:22 19.04.2022
4135 Clear 17 1021 39 10000 1.37 171 14:50 19.04.2022
4136 Clouds 17 1021 45 10000 1.3 157 13:49 19.04.2022
4137 Clouds 15 1021 47 10000 1.19 144 12:50 19.04.2022
4138 Clouds 13 1021 52 10000 0.84 133 11:55 19.04.2022
4139 Clouds 11 1021 56 10000 0.3 124 10:46 19.04.2022
4140 Clouds 7 1021 12 10000 0.41 78 09:19 19.04.2022
4141 Clouds 4 997 73 10000 0.54 20 05:56 19.04.2022
4142 Clouds 4 997 39 10000 0.28 120 03:26 19.04.2022
4143 Clouds 3 1020 1 10000 0.61 157 00:55 19.04.2022
4144 Clouds 6 997 40 10000 0.89 171 23:30 18.04.2022
4145 Clouds 8 1020 31 10000 1.6 184 21:30 18.04.2022
4146 Clouds 9 1020 48 10000 1.6 184 20:56 18.04.2022
4147 Clouds 12 997 53 10000 2.11 174 20:32 18.04.2022
4148 Clouds 11 1020 57 10000 2.11 174 19:51 18.04.2022
4149 Clouds 14 997 47 10000 0.45 180 18:57 18.04.2022
4150 Clouds 15 997 45 10000 0.45 180 17:57 18.04.2022
4151 Clouds 15 997 44 10000 0.45 180 17:34 18.04.2022
4152 Clouds 14 1020 52 10000 2.93 188 16:59 18.04.2022
4153 Clouds 14 1020 54 10000 2.88 191 16:32 18.04.2022
4154 Clouds 14 999 47 10000 2.75 195 14:59 18.04.2022
4155 Clouds 15 999 42 10000 0.45 180 13:39 18.04.2022
4156 Clouds 14 1000 44 10000 0.45 226 12:32 18.04.2022
4157 Clouds 12 1000 52 10000 0.45 90 11:35 18.04.2022
4158 Clouds 2 1022 61 10000 1.14 186 10:32 18.04.2022
4159 Clouds 2 1022 61 10000 1.14 186 09:31 18.04.2022
4160 Clouds 3 1001 50 10000 0.54 177 08:18 18.04.2022
4161 Clouds 3 1001 47 10000 0.45 315 05:45 18.04.2022
4162 Clouds 5 1002 48 10000 1.23 172 00:49 18.04.2022
4163 Clouds 6 1002 42 10000 1.35 184 22:42 17.04.2022
4164 Clouds 7 1003 41 10000 1.48 193 21:49 17.04.2022
4165 Clouds 7 1003 38 10000 0.45 270 21:27 17.04.2022
4166 Clouds 9 1003 36 10000 0.45 270 20:50 17.04.2022
4167 Clouds 11 1003 46 10000 0.89 270 19:40 17.04.2022
4168 Clouds 13 1003 50 10000 0.89 270 18:21 17.04.2022
4169 Clouds 15 1026 51 10000 2.04 197 16:32 17.04.2022
4170 Clouds 14 1027 55 10000 1.86 196 15:28 17.04.2022
4171 Clouds 16 1005 42 10000 0.89 270 14:25 17.04.2022
4172 Clouds 15 1006 45 10000 0.45 270 13:20 17.04.2022
4173 Clouds 11 1028 51 10000 0.8 136 12:28 17.04.2022
4174 Clouds 8 1029 58 10000 0.61 112 10:46 17.04.2022
4175 Clouds 8 1029 64 10000 0.68 82 10:28 17.04.2022
4176 Clouds 4 1029 64 10000 0.68 82 09:37 17.04.2022
4177 Clouds 5 1007 81 10000 0.68 50 08:54 17.04.2022
4178 Clouds 4 1007 46 10000 0.67 30 07:53 17.04.2022
4179 Clouds 4 1007 49 10000 0.75 1 04:51 17.04.2022
4180 Clouds 3 1031 1 10000 0.71 352 01:38 17.04.2022
4181 Clouds 5 1008 42 10000 0.35 49 23:57 16.04.2022
4182 Clouds 6 1008 73 10000 0.45 90 22:41 16.04.2022
4183 Clouds 7 1009 41 10000 0.89 266 21:41 16.04.2022
4184 Clouds 8 1008 47 10000 0.45 248 20:35 16.04.2022
4185 Clouds 11 1008 50 10000 0.45 180 19:20 16.04.2022
4186 Clouds 13 1008 47 10000 0.45 270 18:32 16.04.2022
4187 Clouds 15 1031 43 10000 1.95 208 16:41 16.04.2022
4188 Clouds 15 1032 36 10000 1.7 215 15:46 16.04.2022
4189 Clouds 15 1032 36 10000 1.81 223 14:57 16.04.2022
4190 Clouds 14 1033 40 10000 1.75 226 13:58 16.04.2022
4191 Clouds 14 1033 40 10000 1.44 223 13:40 16.04.2022
4192 Clouds 13 1034 51 10000 1.04 234 12:33 16.04.2022
4193 Clouds 11 1034 56 10000 0.65 237 11:19 16.04.2022
4194 Clouds 7 1034 47 10000 0.42 270 09:57 16.04.2022
4195 Clouds 6 1011 52 10000 0.45 135 08:59 16.04.2022
4196 Clouds 5 1011 44 10000 0.45 137 08:31 16.04.2022
4197 Clouds 4 1011 65 10000 0.51 291 06:59 16.04.2022
4198 Clouds 2 1034 35 10000 0.44 257 03:48 16.04.2022
4199 Clouds 4 1034 56 10000 0.59 207 00:35 16.04.2022
4200 Clouds 6 1034 59 10000 0.62 239 23:27 15.04.2022
4201 Clouds 7 1034 53 10000 0.62 239 22:37 15.04.2022
4202 Clouds 8 1034 51 10000 0.47 232 21:59 15.04.2022
4203 Clouds 8 1033 50 10000 0.42 217 21:18 15.04.2022
4204 Clouds 9 1033 48 10000 0.42 216 21:18 15.04.2022
4205 Clouds 9 1033 50 10000 0.44 216 21:18 15.04.2022
4206 Clouds 10 1032 51 10000 0.48 223 20:27 15.04.2022
4207 Clouds 11 1033 43 10000 0.24 359 19:40 15.04.2022
4208 Clouds 14 1008 33 10000 0.45 270 18:55 15.04.2022
4209 Clouds 14 1008 31 10000 0.45 270 18:26 15.04.2022
4210 Clouds 14 1032 35 10000 0.46 286 17:49 15.04.2022
4211 Clouds 14 1031 35 10000 0.7 271 17:22 15.04.2022
4212 Clouds 14 1031 36 10000 0.45 271 16:24 15.04.2022
4213 Clouds 13 1031 38 10000 0.43 258 15:37 15.04.2022
4214 Clouds 12 1032 42 10000 0.31 288 13:55 15.04.2022
4215 Clouds 12 1031 45 10000 0.11 200 12:46 15.04.2022
4216 Clouds 11 1031 48 10000 0.45 156 11:59 15.04.2022
4217 Clouds 11 1031 49 10000 0.44 155 11:40 15.04.2022
4218 Clouds 10 1031 57 10000 0.46 154 10:45 15.04.2022
4219 Clouds 8 1030 37 10000 0.7 151 09:57 15.04.2022
4220 Clouds 6 1030 15 10000 0.59 103 09:21 15.04.2022
4221 Clouds 3 1030 1 10000 0.67 49 08:24 15.04.2022
4222 Clouds 1 1029 1 10000 1.22 30 06:47 15.04.2022
4223 Clouds 3 1004 45 10000 1.77 356 04:28 15.04.2022
4224 Clouds 4 1001 45 10000 1.68 347 00:32 15.04.2022
4225 Clouds 4 1001 44 10000 1.89 358 23:20 14.04.2022
4226 Clouds 5 1001 44 10000 1.89 358 22:44 14.04.2022
4227 Clouds 5 1000 44 10000 2.07 7 22:25 14.04.2022
4228 Clouds 6 1000 44 10000 0.45 270 21:39 14.04.2022
4229 Clouds 7 1021 1 10000 2.52 24 19:24 14.04.2022
4230 Clouds 8 997 42 10000 0.45 270 18:38 14.04.2022
4231 Clouds 7 1021 1 10000 3.01 35 17:45 14.04.2022
4232 Clouds 7 1020 1 10000 3.13 35 16:49 14.04.2022
4233 Clouds 7 1020 1 10000 3.17 31 15:50 14.04.2022
4234 Clouds 6 995 44 10000 0.45 275 13:52 14.04.2022
4235 Clouds 6 995 44 533 0.45 270 13:20 14.04.2022
4236 Clouds 6 994 45 243 0.45 272 12:32 14.04.2022
4237 Clouds 5 1018 1 40 2 8 11:37 14.04.2022
4238 Clouds 5 994 46 33 2 3 10:58 14.04.2022
4239 Clouds 5 993 46 32 0.89 132 10:31 14.04.2022
4240 Clouds 4 993 48 42 0.45 270 09:28 14.04.2022
4241 Clouds 4 992 49 42 0.45 313 07:54 14.04.2022
4242 Clouds 4 992 48 46 0.45 310 05:35 14.04.2022
4243 Clouds 4 993 48 65 1.89 2 00:22 14.04.2022
4244 Clouds 4 994 48 72 0.45 270 22:37 13.04.2022
4245 Clouds 4 994 48 79 1.74 12 21:42 13.04.2022
4246 Clouds 4 994 48 83 0.45 251 20:39 13.04.2022
4247 Clouds 4 995 48 63 0.45 312 19:48 13.04.2022
4248 Clouds 4 994 49 60 0.45 270 18:37 13.04.2022
4249 Rain 4 994 48 103 0.45 227 17:25 13.04.2022
4250 Rain 4 995 48 104 0.89 270 16:52 13.04.2022
4251 Rain 4 995 46 2102 0.45 267 15:45 13.04.2022
4252 Rain 4 995 46 3903 2.16 87 15:23 13.04.2022
4253 Rain 5 997 46 4940 0.45 270 14:34 13.04.2022
4254 Clouds 5 1021 1 7522 1.13 71 13:37 13.04.2022
4255 Rain 5 1021 1 7712 1.14 71 12:51 13.04.2022
4256 Rain 5 998 46 6087 0.45 47 11:32 13.04.2022
4257 Rain 5 998 43 10000 0.45 90 10:27 13.04.2022
4258 Rain 5 998 60 10000 0.45 270 08:45 13.04.2022
4259 Clouds 5 998 56 10000 0.5 89 07:57 13.04.2022
4260 Clouds 4 1020 59 10000 0.53 51 06:48 13.04.2022
4261 Clouds 4 1020 59 10000 0.62 106 06:24 13.04.2022
4262 Clouds 4 1021 58 10000 0.72 142 01:51 13.04.2022
4263 Clouds 5 1022 57 10000 0.77 161 00:19 13.04.2022
4264 Clouds 5 1022 54 10000 0.8 186 22:33 12.04.2022
4265 Clouds 6 1022 49 10000 1.15 196 21:51 12.04.2022
4266 Clouds 7 1021 48 10000 0.99 165 20:48 12.04.2022
4267 Clouds 8 1021 46 10000 1.52 190 20:19 12.04.2022
4268 Clouds 8 1021 43 10000 1.65 194 19:40 12.04.2022
4269 Clouds 8 1021 43 10000 1.65 194 19:40 12.04.2022
4270 Clouds 9 1021 39 10000 2.37 176 18:56 12.04.2022
4271 Clouds 10 1020 35 10000 2.44 186 17:39 12.04.2022
4272 Clouds 10 1020 37 10000 2.52 199 16:46 12.04.2022
4273 Clouds 11 998 28 10000 2.52 206 15:34 12.04.2022
4274 Clouds 11 1020 36 10000 2.46 206 14:48 12.04.2022
4275 Clouds 10 1020 33 10000 2.24 207 13:45 12.04.2022
4276 Clouds 10 1021 35 10000 1.69 202 13:24 12.04.2022
4277 Clouds 9 1020 42 10000 1.17 185 11:57 12.04.2022
4278 Clouds 7 1021 46 10000 0.76 154 11:32 12.04.2022
4279 Clouds 5 1021 49 10000 0.29 141 09:47 12.04.2022
4280 Clouds 4 997 49 10000 0.26 32 08:38 12.04.2022
4281 Clouds 1 996 52 10000 0.52 341 06:46 12.04.2022
4282 Clouds -1 1020 60 10000 0.71 358 05:40 12.04.2022
4283 Clouds 0 1019 59 10000 0.97 340 02:36 12.04.2022
4284 Clouds 2 1018 57 10000 1.09 337 23:20 11.04.2022
4285 Clouds 4 1017 51 10000 1.46 346 21:59 11.04.2022
4286 Clouds 5 1017 48 10000 1.66 350 21:22 11.04.2022
4287 Clouds 6 1016 42 10000 1.68 353 20:34 11.04.2022
4288 Clear 8 1016 38 10000 1.39 359 19:59 11.04.2022
4289 Clear 9 1015 33 10000 1.54 344 19:26 11.04.2022
4290 Clear 9 1015 31 10000 1.54 344 18:53 11.04.2022
4291 Clear 10 1015 27 10000 1.67 346 17:58 11.04.2022
4292 Clear 10 1015 27 10000 1.67 346 17:38 11.04.2022
4293 Clear 11 1014 26 10000 1.85 342 16:33 11.04.2022
4294 Clear 10 1014 29 10000 2.67 309 14:49 11.04.2022
4295 Clouds 10 1014 30 10000 2.17 289 13:34 11.04.2022
4296 Clouds 9 1013 33 10000 1.9 298 12:38 11.04.2022
4297 Clouds 9 1013 35 10000 1.77 306 12:19 11.04.2022
4298 Clouds 7 1013 40 10000 1.54 315 10:36 11.04.2022
4299 Clouds 5 1012 46 10000 1.38 307 09:41 11.04.2022
4300 Clouds 2 989 53 10000 1.34 313 07:58 11.04.2022
4301 Clouds 2 986 53 10000 1.04 308 04:18 11.04.2022
4302 Clouds 5 1006 54 10000 1.43 306 23:27 10.04.2022
4303 Clouds 6 1005 52 10000 1.4 300 22:26 10.04.2022
4304 Clouds 6 1005 50 10000 1.4 300 21:43 10.04.2022
4305 Clouds 7 1005 48 10000 1.73 293 20:50 10.04.2022
4306 Clouds 8 1004 42 10000 1.96 291 19:54 10.04.2022
4307 Clouds 9 1004 41 10000 1.96 291 19:33 10.04.2022
4308 Clouds 10 1003 38 10000 2.22 297 18:46 10.04.2022
4309 Clouds 12 1002 34 10000 2.98 304 18:20 10.04.2022
4310 Clouds 12 1002 33 10000 2.99 304 17:41 10.04.2022
4311 Clouds 12 1001 32 10000 3.6 303 16:47 10.04.2022
4312 Clouds 12 1001 31 10000 4 296 15:37 10.04.2022
4313 Clouds 12 1000 31 10000 4.39 288 14:37 10.04.2022
4314 Clouds 11 999 34 10000 4.45 296 12:50 10.04.2022
4315 Clouds 11 999 34 10000 4.48 298 12:26 10.04.2022
4316 Clouds 9 998 38 10000 4.28 297 11:29 10.04.2022
4317 Clouds 9 998 42 10000 4.27 297 10:57 10.04.2022
4318 Clouds 8 997 45 10000 4.36 291 10:20 10.04.2022
4319 Clouds 7 998 44 10000 4.37 291 09:39 10.04.2022
4320 Clouds 6 975 45 10000 0.45 225 08:24 10.04.2022
4321 Clouds 5 974 46 10000 0.45 268 07:47 10.04.2022
4322 Clouds 5 973 48 10000 0.45 227 06:19 10.04.2022
4323 Clouds 5 971 48 10000 4.28 280 02:37 10.04.2022
4324 Clouds 4 970 50 10000 0.45 270 00:34 10.04.2022
4325 Clouds 3 993 56 10000 2.95 278 23:49 09.04.2022
4326 Clouds 4 970 48 10000 2.85 282 22:50 09.04.2022
4327 Clouds 5 992 50 10000 2.6 281 21:48 09.04.2022
4328 Clouds 5 991 49 10000 2.55 281 20:57 09.04.2022
4329 Clouds 6 968 45 10000 2.46 282 20:26 09.04.2022
4330 Clouds 7 967 43 10000 0.45 270 19:42 09.04.2022
4331 Clouds 8 967 39 10000 0.45 270 19:18 09.04.2022
4332 Clouds 8 988 42 10000 2.79 304 18:21 09.04.2022
4333 Clouds 9 966 37 10000 0.45 225 17:39 09.04.2022
4334 Clouds 9 988 43 10000 3.29 311 16:53 09.04.2022
4335 Clouds 9 987 40 10000 3.35 319 15:59 09.04.2022
4336 Clouds 9 987 41 10000 3.35 319 15:41 09.04.2022
4337 Clouds 9 964 33 10000 0.45 313 14:44 09.04.2022
4338 Clouds 8 986 37 10000 4.49 321 14:23 09.04.2022
4339 Clouds 8 986 36 10000 4.89 315 13:20 09.04.2022
4340 Clouds 8 986 37 10000 4.88 315 12:50 09.04.2022
4341 Clouds 7 962 37 10000 0.45 263 11:38 09.04.2022
4342 Clouds 5 961 44 10000 0.45 270 10:21 09.04.2022
4343 Clouds 5 961 45 10000 0.45 135 09:42 09.04.2022
4344 Clouds 4 961 44 10000 4.33 301 08:54 09.04.2022
4345 Clouds 3 960 46 10000 2.92 286 07:22 09.04.2022
4346 Clouds 1 959 47 10000 1.99 281 02:53 09.04.2022
4347 Clouds 1 960 41 10000 2.6 289 23:53 08.04.2022
4348 Clouds 1 960 40 10000 2.05 290 22:55 08.04.2022
4349 Clear 0 983 42 10000 2.81 316 21:32 08.04.2022
4350 Clear 1 983 36 10000 3.22 316 20:40 08.04.2022
4351 Clouds 3 982 33 10000 3.26 326 19:32 08.04.2022
4352 Clouds 4 982 32 10000 4.17 330 18:31 08.04.2022
4353 Clouds 5 981 28 10000 4.77 330 17:52 08.04.2022
4354 Clouds 6 981 28 10000 5 329 17:26 08.04.2022
4355 Clouds 5 981 29 10000 5.02 329 16:51 08.04.2022
4356 Clouds 5 981 30 10000 5.23 332 15:59 08.04.2022
4357 Clouds 5 980 32 10000 5.64 334 15:27 08.04.2022
4358 Clouds 5 980 34 10000 5.64 334 14:39 08.04.2022
4359 Clouds 4 980 35 10000 5.88 334 13:48 08.04.2022
4360 Clouds 4 980 38 10000 5.79 336 13:29 08.04.2022
4361 Clouds 3 980 40 10000 5.79 336 12:32 08.04.2022
4362 Clouds 3 957 45 10000 0.45 206 10:38 08.04.2022
4363 Clouds 1 957 48 10000 0.89 249 09:39 08.04.2022
4364 Clouds 1 957 51 10000 0.45 270 08:58 08.04.2022
4365 Clouds 1 956 55 10000 0.89 270 07:38 08.04.2022
4366 Clouds 1 955 55 10000 0.45 227 06:38 08.04.2022
4367 Clouds 2 954 54 10000 0.89 312 01:45 08.04.2022
4368 Clouds 1 977 57 10000 5.84 19 00:26 08.04.2022
4369 Clouds 2 977 57 10000 5.65 26 23:00 07.04.2022
4370 Clouds 2 977 57 10000 5.66 26 22:40 07.04.2022
4371 Clouds 2 977 58 10000 5.6 28 22:22 07.04.2022
4372 Clouds 3 954 54 10000 0.89 226 21:56 07.04.2022
4373 Clouds 3 954 56 10000 5.59 33 21:19 07.04.2022
4374 Rain 3 977 59 10000 5.59 33 20:41 07.04.2022
4375 Clouds 4 977 57 10000 5.57 37 18:54 07.04.2022
4376 Clouds 5 954 46 10000 0.45 270 17:27 07.04.2022
4377 Clouds 5 954 48 10000 0.89 180 16:45 07.04.2022
4378 Clouds 6 955 48 10000 0.89 315 16:23 07.04.2022
4379 Clouds 5 978 58 10000 5.47 52 15:37 07.04.2022
4380 Clouds 4 979 55 10000 5.28 69 13:51 07.04.2022
4381 Clouds 5 957 46 10000 1.34 315 13:23 07.04.2022
4382 Clouds 3 980 54 10000 5.06 67 11:49 07.04.2022
4383 Clouds 3 959 49 10000 4.16 62 10:30 07.04.2022
4384 Clouds 0 960 53 10000 0.89 270 08:40 07.04.2022
4385 Clouds -1 960 50 10000 0.45 270 06:58 07.04.2022
4386 Clouds -3 985 46 10000 1.44 15 04:26 07.04.2022
4387 Clouds -2 986 50 10000 1.18 20 02:29 07.04.2022
4388 Clouds -2 986 61 10000 1.33 20 00:42 07.04.2022
4389 Clouds -1 987 58 10000 1.17 47 22:58 06.04.2022
4390 Clouds -1 987 57 10000 1.17 47 22:39 06.04.2022
4391 Clouds 0 987 51 10000 1.37 42 21:47 06.04.2022
4392 Clouds 0 987 51 10000 1.37 42 21:47 06.04.2022
4393 Clouds 1 986 52 10000 1.5 37 20:43 06.04.2022
4394 Clouds 3 986 48 10000 1.34 44 19:59 06.04.2022
4395 Clouds 5 986 44 10000 0.8 64 19:19 06.04.2022
4396 Clouds 5 986 42 10000 0.78 64 18:47 06.04.2022
4397 Clouds 6 987 38 10000 0.71 109 17:35 06.04.2022
4398 Clouds 6 987 32 10000 0.92 144 16:39 06.04.2022
4399 Clouds 6 988 44 10000 1.21 154 15:57 06.04.2022
4400 Clouds 6 988 44 10000 1.21 154 15:39 06.04.2022
4401 Clouds 5 989 46 10000 1.53 100 13:31 06.04.2022
4402 Clouds 4 990 47 10000 1.26 86 12:28 06.04.2022
4403 Clouds 4 968 46 10000 0.99 57 10:57 06.04.2022
4404 Clouds 1 991 56 10000 0.88 26 10:32 06.04.2022
4405 Clouds 2 969 50 10000 0.88 26 09:43 06.04.2022
4406 Clouds 0 969 55 10000 0.33 347 08:39 06.04.2022
4407 Clouds -1 969 56 10000 0.42 292 07:57 06.04.2022
4408 Clouds -2 970 53 10000 0.92 279 05:23 06.04.2022
4409 Clear -1 993 51 10000 1.27 263 23:58 05.04.2022
4410 Clear 0 994 49 10000 1.37 281 23:33 05.04.2022
4411 Clear 1 993 39 10000 1.63 283 21:48 05.04.2022
4412 Clear 1 993 41 10000 1.63 283 21:48 05.04.2022
4413 Clear 2 993 35 10000 1.62 276 20:58 05.04.2022
4414 Clouds 2 993 33 10000 1.37 271 20:23 05.04.2022
4415 Clouds 5 992 24 10000 3.34 332 18:28 05.04.2022
4416 Clouds 6 992 23 10000 3.73 337 17:20 05.04.2022
4417 Clouds 6 992 23 10000 3.73 337 16:42 05.04.2022
4418 Clouds 6 992 29 10000 3.94 348 15:50 05.04.2022
4419 Clouds 5 991 37 10000 3.93 340 15:30 05.04.2022
4420 Clouds 5 991 37 10000 2.79 314 13:45 05.04.2022
4421 Clouds 4 991 44 10000 2 321 12:29 05.04.2022
4422 Clouds 4 991 42 10000 2 321 11:43 05.04.2022
4423 Clouds 3 992 44 10000 2.11 336 11:24 05.04.2022
4424 Clouds 2 991 50 10000 1.95 352 09:31 05.04.2022
4425 Clear -1 968 56 10000 1 285 08:27 05.04.2022
4426 Clear -2 967 56 10000 0.94 312 03:38 05.04.2022
4427 Clouds 0 965 55 10000 3.66 348 23:42 04.04.2022
4428 Clouds 1 964 57 10000 0.89 231 22:37 04.04.2022
4429 Clouds 1 964 58 10000 0.45 270 21:48 04.04.2022
4430 Clouds 2 963 59 10000 0.45 227 21:19 04.04.2022
4431 Clouds 2 963 58 10000 4.49 3 20:47 04.04.2022
4432 Clouds 3 962 57 10000 0.45 270 19:28 04.04.2022
4433 Clouds 3 962 57 10000 0.89 290 18:43 04.04.2022
4434 Clouds 3 961 53 10000 0.45 270 17:20 04.04.2022
4435 Clouds 4 960 50 10000 1.34 273 16:31 04.04.2022
4436 Clouds 4 960 41 10000 0.45 313 15:34 04.04.2022
4437 Rain 5 959 42 10000 0.89 225 14:46 04.04.2022
4438 Rain 4 982 1 3810 3.83 15 14:27 04.04.2022
4439 Rain 4 959 45 1750 0.45 271 12:59 04.04.2022
4440 Rain 2 983 1 25 1.38 29 11:29 04.04.2022
4441 Rain 2 961 50 25 0.66 78 10:29 04.04.2022
4442 Clouds 4 965 47 10000 0.45 178 06:58 04.04.2022
4443 Rain 5 971 57 10000 0.45 185 03:18 04.04.2022
4444 Clouds 5 996 55 10000 0.22 252 23:42 03.04.2022
4445 Clouds 5 998 55 10000 0.94 222 22:24 03.04.2022
4446 Clouds 5 998 55 10000 0.94 222 21:32 03.04.2022
4447 Clouds 6 999 53 10000 1.31 199 20:35 03.04.2022
4448 Clouds 8 978 51 10000 0.45 272 18:51 03.04.2022
4449 Clouds 8 979 50 10000 0.45 289 17:57 03.04.2022
4450 Clouds 8 1001 52 10000 2.85 225 17:37 03.04.2022
4451 Clouds 9 980 46 10000 3.24 236 16:50 03.04.2022
4452 Clouds 8 981 48 10000 1.34 270 15:59 03.04.2022
4453 Clouds 8 983 46 10000 0.45 225 14:27 03.04.2022
4454 Rain 7 1006 49 10000 3.75 220 13:38 03.04.2022
4455 Clouds 7 1008 45 10000 2.84 223 11:59 03.04.2022
4456 Clouds 4 1010 53 10000 1.27 227 10:22 03.04.2022
4457 Clouds 2 1011 53 10000 0.82 240 09:19 03.04.2022
4458 Clouds -1 1012 59 10000 0.87 273 07:24 03.04.2022
4459 Clouds 0 1014 59 10000 0.99 276 03:37 03.04.2022
4460 Clouds 2 992 52 10000 1.01 275 00:29 03.04.2022
4461 Clouds 1 1016 60 10000 0.92 268 22:52 02.04.2022
4462 Clouds 2 1016 57 10000 0.94 264 21:57 02.04.2022
4463 Clouds 3 1016 55 10000 1.08 247 21:28 02.04.2022
4464 Clouds 3 1016 52 10000 1.07 247 20:41 02.04.2022
4465 Clouds 6 1016 35 10000 0.31 267 18:57 02.04.2022
4466 Clouds 8 1016 30 10000 1.1 304 18:20 02.04.2022
4467 Clouds 8 1016 29 10000 1.09 304 17:46 02.04.2022
4468 Clouds 8 1017 30 10000 1.71 310 15:59 02.04.2022
4469 Clouds 7 1017 31 10000 1.91 308 15:21 02.04.2022
4470 Clouds 7 1017 33 10000 1.91 308 14:42 02.04.2022
4471 Clouds 6 1018 35 10000 2 298 13:34 02.04.2022
4472 Clouds 6 1018 42 10000 2 298 12:37 02.04.2022
4473 Clouds 3 1019 56 10000 1.6 290 10:56 02.04.2022
4474 Clear -1 996 60 10000 1.22 296 08:44 02.04.2022
4475 Clouds -2 996 56 10000 1.03 302 06:49 02.04.2022
4476 Clouds -2 996 52 10000 0.94 309 03:39 02.04.2022
4477 Clouds -3 1020 54 10000 0.85 342 23:55 01.04.2022
4478 Clouds -2 1020 59 10000 0.98 355 23:18 01.04.2022
4479 Clouds 0 996 52 10000 0.99 3 21:33 01.04.2022
4480 Clouds 0 1020 59 10000 1 10 20:51 01.04.2022
4481 Clouds 1 1019 53 10000 0.74 21 19:57 01.04.2022
4482 Clouds 2 1018 50 10000 0.9 26 19:31 01.04.2022
4483 Clouds 3 1018 45 10000 0.9 26 18:45 01.04.2022
4484 Clouds 4 1018 39 10000 1.28 19 17:46 01.04.2022
4485 Clouds 4 1018 39 10000 1.45 9 16:48 01.04.2022
4486 Clouds 5 1018 36 10000 1.29 15 15:36 01.04.2022
4487 Clouds 4 1018 34 10000 1.11 32 14:20 01.04.2022
4488 Clouds 5 1018 37 10000 0.79 24 13:33 01.04.2022
4489 Clouds 4 1019 44 10000 0.85 40 12:32 01.04.2022
4490 Clouds 3 1019 49 10000 0.98 43 11:40 01.04.2022
4491 Clouds 0 1019 56 10000 0.98 48 10:19 01.04.2022
4492 Clear -1 994 51 10000 0.95 38 08:47 01.04.2022
4493 Clouds -5 1018 56 10000 1.04 39 06:54 01.04.2022
4494 Clouds -2 993 52 10000 1.18 18 04:49 01.04.2022
4495 Clouds -2 993 51 10000 1.35 15 04:30 01.04.2022
4496 Clouds -3 1017 50 10000 1.63 8 01:56 01.04.2022
4497 Clouds -1 992 55 10000 2.11 1 22:58 31.03.2022
4498 Clouds -1 1016 61 10000 2.3 3 21:51 31.03.2022
4499 Clouds 0 991 54 10000 2.31 3 21:32 31.03.2022
4500 Clouds 2 991 49 10000 1.93 16 20:29 31.03.2022
4501 Clouds 2 1014 52 10000 1.93 16 19:49 31.03.2022
4502 Clouds 4 989 45 10000 2.18 9 18:44 31.03.2022
4503 Clouds 5 989 36 10000 0.89 271 17:49 31.03.2022
4504 Clouds 5 1013 35 10000 3.56 8 16:38 31.03.2022
4505 Clouds 5 1013 35 10000 4.08 14 15:43 31.03.2022
4506 Clouds 6 1013 37 10000 4.12 7 15:19 31.03.2022
4507 Clouds 6 1013 39 10000 4.1 7 14:36 31.03.2022
4508 Clouds 5 1013 44 10000 2.77 2 11:57 31.03.2022
4509 Clouds 4 1013 47 10000 2.46 0 11:22 31.03.2022
4510 Clouds 2 1012 53 10000 1.92 355 09:45 31.03.2022
4511 Clouds 2 1012 53 10000 1.92 355 09:45 31.03.2022
4512 Clouds -2 988 56 10000 1.36 325 07:59 31.03.2022
4513 Clouds -1 988 55 10000 1.56 317 05:42 31.03.2022
4514 Clouds -1 1011 61 10000 1.51 316 23:58 30.03.2022
4515 Clouds 0 987 52 10000 1.53 315 22:43 30.03.2022
4516 Clouds 1 987 50 10000 1.51 328 21:39 30.03.2022
4517 Clouds 0 1011 56 10000 1.61 342 20:54 30.03.2022
4518 Clouds 1 1011 54 10000 1.74 348 20:20 30.03.2022
4519 Clouds 1 1011 55 10000 1.61 350 20:20 30.03.2022
4520 Clouds 2 1010 47 10000 2.37 9 19:28 30.03.2022
4521 Clouds 4 1010 36 10000 2.9 359 18:19 30.03.2022
4522 Clouds 4 1010 35 10000 2.9 359 17:45 30.03.2022
4523 Clouds 5 1010 31 10000 2.9 354 16:56 30.03.2022
4524 Clouds 5 1010 28 10000 2.9 354 16:32 30.03.2022
4525 Clouds 4 1010 25 10000 3.4 353 14:59 30.03.2022
4526 Clear 4 1010 24 10000 3.3 348 13:42 30.03.2022
4527 Clear 4 1011 30 10000 3.37 341 12:47 30.03.2022
4528 Clear 2 1011 43 10000 2.78 326 10:58 30.03.2022
4529 Clear 0 1011 55 10000 2.28 318 09:59 30.03.2022
4530 Clear -2 1011 53 10000 2.01 319 09:23 30.03.2022
4531 Clouds -3 988 36 10000 1.49 307 07:32 30.03.2022
4532 Clouds -2 988 31 10000 1.45 306 05:40 30.03.2022
4533 Clouds -1 988 30 10000 1.13 306 03:39 30.03.2022
4534 Clouds -1 987 42 10000 0.45 292 00:31 30.03.2022
4535 Clouds -1 1010 26 10000 3.11 51 22:20 29.03.2022
4536 Clouds 0 986 43 10000 3.11 51 21:44 29.03.2022
4537 Clouds 0 986 47 10000 2.85 52 20:49 29.03.2022
4538 Clouds 2 985 56 10000 2.57 46 19:47 29.03.2022
4539 Clouds 2 985 54 10000 0.45 90 18:54 29.03.2022
4540 Rain 2 1008 53 10000 2.83 40 18:19 29.03.2022
4541 Clouds 2 1008 53 10000 2.6 32 17:21 29.03.2022
4542 Clouds 4 985 48 10000 2.61 32 17:21 29.03.2022
4543 Clouds 3 1008 56 10000 2.61 32 16:56 29.03.2022
4544 Clouds 5 985 56 10000 1.75 14 15:57 29.03.2022
4545 Clouds 5 1009 42 10000 1.62 343 14:48 29.03.2022
4546 Clouds 5 1009 44 10000 1.7 49 13:53 29.03.2022
4547 Clouds 4 1009 48 10000 1.91 51 12:47 29.03.2022
4548 Clouds 3 1009 51 10000 1.31 26 11:31 29.03.2022
4549 Clouds 2 1010 57 10000 0.7 8 10:27 29.03.2022
4550 Clouds 0 1010 61 10000 1.05 45 09:23 29.03.2022
4551 Clouds -2 1009 57 10000 0.65 347 06:55 29.03.2022
4552 Clouds 1 987 52 10000 1.33 301 03:47 29.03.2022
4553 Clouds 3 988 44 10000 0.45 270 23:54 28.03.2022
4554 Clouds 4 988 45 10000 0.45 275 23:19 28.03.2022
4555 Clouds 4 988 43 10000 0.89 270 22:47 28.03.2022
4556 Clouds 5 988 42 10000 0.45 227 22:22 28.03.2022
4557 Clouds 6 988 41 10000 0.45 269 20:53 28.03.2022
4558 Clouds 7 1011 45 10000 2.84 11 19:59 28.03.2022
4559 Clouds 7 1011 44 10000 2.84 11 19:40 28.03.2022
4560 Clouds 8 1010 42 10000 3.12 3 18:52 28.03.2022
4561 Clouds 10 986 34 10000 0.45 227 18:19 28.03.2022
4562 Clouds 10 1010 31 10000 3.48 340 17:30 28.03.2022
4563 Clouds 11 1010 32 10000 4.88 316 15:48 28.03.2022
4564 Clouds 11 1009 32 10000 5.16 303 14:24 28.03.2022
4565 Clouds 11 1009 33 10000 5.16 303 13:35 28.03.2022
4566 Clouds 10 1008 35 10000 4.15 332 11:57 28.03.2022
4567 Clouds 10 1008 41 10000 4.07 329 10:49 28.03.2022
4568 Clouds 11 984 45 10000 0.45 315 09:38 28.03.2022
4569 Clouds 11 984 51 10000 0.89 225 08:46 28.03.2022
4570 Clouds 10 985 52 10000 0.89 247 08:21 28.03.2022
4571 Clouds 10 985 55 10000 0.45 270 07:27 28.03.2022
4572 Clouds 8 1012 57 10000 4.22 250 02:48 28.03.2022
4573 Clouds 10 993 52 10000 0.45 180 22:59 27.03.2022
4574 Clouds 10 994 52 10000 1.34 225 22:22 27.03.2022
4575 Clouds 11 994 53 10000 0.45 270 21:40 27.03.2022
4576 Clouds 11 1017 54 10000 4.53 259 20:42 27.03.2022
4577 Clouds 12 1017 53 10000 3.97 256 19:44 27.03.2022
4578 Clouds 13 1017 51 10000 3.83 258 18:47 27.03.2022
4579 Clouds 13 1017 51 10000 3.83 258 18:47 27.03.2022
4580 Clouds 14 1018 47 10000 5.03 271 18:25 27.03.2022
4581 Clouds 15 1018 46 10000 5.05 271 17:37 27.03.2022
4582 Clouds 14 1019 49 10000 4.04 281 15:57 27.03.2022
4583 Clouds 9 1022 51 10000 1.69 239 14:22 27.03.2022
4584 Clouds 9 999 44 10000 0.45 270 13:42 27.03.2022
4585 Clouds 6 1001 51 10000 0.94 276 11:46 27.03.2022
4586 Clouds 5 1001 41 10000 0.45 270 10:23 27.03.2022
4587 Clouds 2 1025 1 10000 0.65 350 07:55 27.03.2022
4588 Clouds 3 1002 53 10000 0.69 67 05:18 27.03.2022
4589 Clouds 5 1029 53 10000 1.2 156 00:37 27.03.2022
4590 Clouds 6 1006 47 10000 0.45 90 22:58 26.03.2022
4591 Clouds 6 1006 46 10000 1.3 146 22:27 26.03.2022
4592 Clouds 6 1007 45 10000 0.45 225 21:31 26.03.2022
4593 Clouds 5 1031 54 10000 1.78 105 19:45 26.03.2022
4594 Clouds 8 1006 40 10000 2.45 94 18:56 26.03.2022
4595 Clouds 9 1029 42 10000 2.35 96 17:44 26.03.2022
4596 Clouds 9 1029 42 10000 2.35 96 17:44 26.03.2022
4597 Clouds 11 1029 35 10000 1.12 104 16:47 26.03.2022
4598 Clouds 11 1029 37 10000 0.39 115 15:52 26.03.2022
4599 Clouds 12 1029 35 10000 0.19 322 14:21 26.03.2022
4600 Clouds 11 1029 33 10000 0.19 327 13:51 26.03.2022
4601 Clouds 11 1029 36 10000 0.92 348 12:36 26.03.2022
4602 Clouds 9 1028 42 10000 1.39 356 10:56 26.03.2022
4603 Clouds 7 1027 46 10000 1.27 36 09:22 26.03.2022
4604 Clouds 2 1025 59 10000 1.54 354 07:36 26.03.2022
4605 Clouds 2 1024 60 10000 1.52 4 05:52 26.03.2022
4606 Clouds 4 1021 51 10000 1.73 1 03:22 26.03.2022
4607 Clouds 9 1017 56 10000 2.17 302 22:50 25.03.2022
4608 Clouds 10 1017 57 10000 2.3 284 20:58 25.03.2022
4609 Clouds 10 1017 57 10000 2.29 285 20:37 25.03.2022
4610 Clouds 12 994 55 10000 3.59 254 19:21 25.03.2022
4611 Clouds 12 1016 56 10000 3.59 253 18:37 25.03.2022
4612 Clouds 14 994 50 10000 0.45 40 17:34 25.03.2022
4613 Clouds 14 995 49 10000 0.45 270 16:38 25.03.2022
4614 Clouds 14 995 47 10000 0.45 248 15:46 25.03.2022
4615 Clouds 14 996 48 10000 0.45 227 13:32 25.03.2022
4616 Clouds 13 997 52 10000 0.89 181 11:38 25.03.2022
4617 Clouds 11 997 55 10000 0.89 273 09:46 25.03.2022
4618 Clouds 11 997 58 10000 0.45 226 08:59 25.03.2022
4619 Clouds 8 997 41 10000 0.45 94 07:47 25.03.2022
4620 Clouds 6 1020 11 10000 2.28 274 07:20 25.03.2022
4621 Clouds 6 998 41 10000 1.57 272 03:58 25.03.2022
4622 Clouds 5 1022 1 10000 1.36 283 23:54 24.03.2022
4623 Clouds 7 1001 39 10000 1.11 282 22:24 24.03.2022
4624 Clouds 6 1023 1 10000 1.46 288 21:24 24.03.2022
4625 Clouds 7 1001 39 10000 1.25 289 19:50 24.03.2022
4626 Clouds 9 1001 68 10000 0.91 273 18:45 24.03.2022
4627 Clouds 11 1000 63 10000 0.99 283 17:38 24.03.2022
4628 Clouds 13 1001 60 10000 1.24 292 16:39 24.03.2022
4629 Clear 12 1022 57 10000 2.05 271 14:53 24.03.2022
4630 Clear 13 1022 57 10000 2.05 271 14:32 24.03.2022
4631 Clear 11 1023 54 10000 1.71 258 13:36 24.03.2022
4632 Clouds 9 1023 58 10000 1.07 260 12:35 24.03.2022
4633 Clouds 6 1024 61 10000 0.95 253 11:31 24.03.2022
4634 Clouds 1 1024 65 10000 0.7 246 09:34 24.03.2022
4635 Clouds 3 1003 96 10000 0.45 272 08:39 24.03.2022
4636 Clouds 2 1003 52 10000 0.82 304 05:45 24.03.2022
4637 Clouds 2 1005 45 10000 0.45 180 00:47 24.03.2022
4638 Clear 3 1006 42 10000 0.44 241 22:23 23.03.2022
4639 Clear 4 1006 39 10000 0.45 271 21:24 23.03.2022
4640 Clear 4 1029 1 10000 0.43 241 20:45 23.03.2022
4641 Clear 5 1029 15 10000 0.37 229 19:33 23.03.2022
4642 Clear 7 1029 53 10000 0.82 221 18:19 23.03.2022
4643 Clear 10 1029 56 10000 1.14 224 17:26 23.03.2022
4644 Clear 11 1029 49 10000 1.35 232 16:18 23.03.2022
4645 Clear 11 1030 49 10000 1.42 230 14:49 23.03.2022
4646 Clear 11 1031 50 10000 1.51 242 13:34 23.03.2022
4647 Clear 8 1032 58 10000 1.28 248 11:38 23.03.2022
4648 Clear 3 1033 52 10000 0.73 275 08:49 23.03.2022
4649 Clear 0 1009 41 10000 0.94 298 06:25 23.03.2022
4650 Clear -1 1033 25 10000 1.07 290 03:44 23.03.2022
4651 Clear 1 1033 57 10000 1.33 300 00:28 23.03.2022
4652 Clear 4 1034 60 10000 1.36 305 21:56 22.03.2022
4653 Clear 4 1033 60 10000 1.37 312 21:26 22.03.2022
4654 Clear 4 1033 60 10000 1.26 316 20:30 22.03.2022
4655 Clear 5 1032 58 10000 1.2 316 19:27 22.03.2022
4656 Clear 6 1032 57 10000 1.31 338 18:50 22.03.2022
4657 Clear 8 1032 58 10000 1.08 340 17:44 22.03.2022
4658 Clouds 9 1031 59 10000 1.33 323 17:18 22.03.2022
4659 Clouds 10 1031 51 10000 2.21 298 15:49 22.03.2022
4660 Clouds 10 1031 52 10000 2.39 269 15:21 22.03.2022
4661 Clouds 9 1031 54 10000 2.37 269 14:45 22.03.2022
4662 Clouds 10 1031 55 10000 2.43 247 14:24 22.03.2022
4663 Clouds 8 1031 52 10000 2.18 252 12:41 22.03.2022
4664 Clouds 6 1031 32 10000 1.94 249 11:26 22.03.2022
4665 Clouds 4 1009 51 10000 0.45 179 09:55 22.03.2022
4666 Clouds 2 1009 59 10000 0.89 270 07:48 22.03.2022
4667 Clouds 0 1033 56 10000 0.33 138 04:36 22.03.2022
4668 Clouds 0 1033 61 10000 0.75 76 02:54 22.03.2022
4669 Clouds 1 1035 61 10000 0.71 52 23:21 21.03.2022
4670 Clouds 2 1036 60 10000 0.52 77 21:51 21.03.2022
4671 Clouds 2 1036 60 10000 0.52 78 21:51 21.03.2022
4672 Clouds 3 1036 60 10000 0.61 114 20:45 21.03.2022
4673 Clouds 3 1036 59 10000 0.63 161 20:26 21.03.2022
4674 Clouds 3 1036 57 10000 0.63 161 19:53 21.03.2022
4675 Clear 4 1036 53 10000 0.94 171 19:23 21.03.2022
4676 Clear 8 1036 45 10000 1.39 187 17:43 21.03.2022
4677 Clear 9 1036 41 10000 2.4 201 17:00 21.03.2022
4678 Clear 10 1036 41 10000 3.06 199 16:37 21.03.2022
4679 Clear 11 1036 38 10000 3.06 199 15:46 21.03.2022
4680 Clear 10 1037 44 10000 2.93 195 14:48 21.03.2022
4681 Clear 10 1037 47 10000 2.49 187 13:35 21.03.2022
4682 Clear 8 1037 55 10000 2.04 183 12:31 21.03.2022
4683 Clear 7 1038 59 10000 1.65 180 11:43 21.03.2022
4684 Clear 5 1039 56 10000 0.9 163 10:20 21.03.2022
4685 Clear 0 1039 1 10000 0.18 133 08:26 21.03.2022
4686 Clear 1 1015 64 10000 0.13 20 06:31 21.03.2022
4687 Clear -1 1040 16 10000 0.26 216 02:40 21.03.2022
4688 Clear 0 1041 58 10000 0.66 179 23:40 20.03.2022
4689 Clear 1 1041 61 10000 0.54 185 22:43 20.03.2022
4690 Clear 2 1042 61 10000 0.61 183 21:50 20.03.2022
4691 Clear 3 1042 56 10000 0.58 222 21:20 20.03.2022
4692 Clear 3 1042 54 10000 0.58 222 20:42 20.03.2022
4693 Clear 4 1042 50 10000 0.74 224 19:57 20.03.2022
4694 Clear 5 1042 48 10000 1.07 207 19:26 20.03.2022
4695 Clear 8 1041 37 10000 1.45 197 17:52 20.03.2022
4696 Clear 7 1041 72 10000 1.45 198 17:30 20.03.2022
4697 Clear 11 1041 32 10000 1.9 198 16:52 20.03.2022
4698 Clouds 11 1042 34 10000 1.9 196 15:27 20.03.2022
4699 Clouds 11 1043 56 10000 1.86 193 14:23 20.03.2022
4700 Clouds 10 1044 58 10000 0.94 179 12:29 20.03.2022
4701 Clouds 6 1045 50 10000 0.82 176 10:55 20.03.2022
4702 Clear 2 1046 1 10000 0.33 98 08:42 20.03.2022
4703 Clear -1 1047 1 10000 0.74 4 07:26 20.03.2022
4704 Clear -1 1047 1 10000 0.66 7 04:23 20.03.2022
4705 Clear 0 1047 1 10000 0.81 340 01:29 20.03.2022
4706 Clear 0 1048 1 10000 0.78 346 00:39 20.03.2022
4707 Clear 1 1048 1 10000 0.64 346 23:19 19.03.2022
4708 Clear 3 1048 29 10000 0.46 338 21:27 19.03.2022
4709 Clear 4 1048 46 10000 0.46 338 20:39 19.03.2022
4710 Clouds 6 1047 59 10000 0.79 191 18:58 19.03.2022
4711 Clouds 7 1047 58 10000 0.76 205 18:23 19.03.2022
4712 Clouds 8 1047 53 10000 0.77 205 17:35 19.03.2022
4713 Clouds 8 1047 55 10000 0.77 205 17:35 19.03.2022
4714 Clouds 11 1046 44 10000 1.05 213 15:43 19.03.2022
4715 Clouds 11 1047 44 10000 1.19 210 14:44 19.03.2022
4716 Clouds 11 1047 52 10000 1.23 210 13:19 19.03.2022
4717 Clouds 10 1047 55 10000 1.11 198 12:40 19.03.2022
4718 Clouds 9 1047 58 10000 0.58 227 11:54 19.03.2022
4719 Clouds 6 1047 54 10000 0.75 268 10:47 19.03.2022
4720 Clouds 0 1047 14 10000 0.98 257 06:51 19.03.2022
4721 Clouds 0 1046 58 10000 0.89 258 03:24 19.03.2022
4722 Clear 1 1047 58 10000 0.8 245 02:29 19.03.2022
4723 Clear 1 1047 58 10000 0.79 246 23:45 18.03.2022
4724 Clear 2 1046 60 10000 0.75 257 22:28 18.03.2022
4725 Clear 2 1046 61 10000 0.75 257 21:45 18.03.2022
4726 Clear 5 1045 55 10000 0.61 273 19:51 18.03.2022
4727 Clear 5 1044 59 10000 0.61 290 19:21 18.03.2022
4728 Clear 7 1043 53 10000 0.67 304 17:52 18.03.2022
4729 Clear 9 1042 46 10000 0.83 283 16:49 18.03.2022
4730 Clear 10 1041 49 10000 1.3 318 15:32 18.03.2022
4731 Clear 10 1039 53 10000 2.53 319 14:23 18.03.2022
4732 Clouds 9 1037 58 10000 2.97 323 12:36 18.03.2022
4733 Clouds 7 1034 11 10000 3.82 284 10:53 18.03.2022
4734 Clouds 4 1032 1 10000 1.84 254 09:30 18.03.2022
4735 Clouds 3 1009 52 10000 1.84 254 08:32 18.03.2022
4736 Clouds 2 1007 53 10000 1.31 250 06:37 18.03.2022
4737 Clouds 2 1004 52 1267 0.45 223 02:57 18.03.2022
4738 Clouds 3 1002 52 657 1.12 209 00:39 18.03.2022
4739 Clouds 3 1001 52 301 1.28 240 23:38 17.03.2022
4740 Clouds 3 1000 52 323 0.6 185 22:25 17.03.2022
4741 Clouds 3 1000 52 323 0.6 185 21:48 17.03.2022
4742 Clouds 3 999 52 267 0.89 199 21:26 17.03.2022
4743 Clouds 3 999 51 267 0.45 89 20:45 17.03.2022
4744 Clouds 3 999 51 123 0.45 272 19:50 17.03.2022
4745 Rain 3 999 51 103 1.46 172 19:29 17.03.2022
4746 Rain 3 998 51 259 0.89 49 18:46 17.03.2022
4747 Rain 3 999 88 10000 2.24 184 17:18 17.03.2022
4748 Rain 4 999 44 10000 2.24 91 15:44 17.03.2022
4749 Rain 4 1000 42 10000 2.24 141 15:26 17.03.2022
4750 Clouds 4 1000 43 10000 1.34 247 14:38 17.03.2022
4751 Clouds 4 1002 82 10000 0.89 314 12:55 17.03.2022
4752 Clouds 3 1002 82 10000 1.91 134 12:25 17.03.2022
4753 Clouds 3 1003 83 10000 0.45 45 11:29 17.03.2022
4754 Clouds 3 1004 82 10000 0.89 137 10:32 17.03.2022
4755 Clouds 1 1029 1 3838 1.25 55 08:40 17.03.2022
4756 Clouds 2 1005 49 3944 0.45 314 07:36 17.03.2022
4757 Clouds 2 1030 1 10000 0.91 59 05:47 17.03.2022
4758 Clouds 3 1031 1 4851 0.49 84 01:37 17.03.2022
4759 Clouds 3 1008 51 4813 0.9 156 23:56 16.03.2022
4760 Clouds 3 1031 1 4708 0.98 165 22:50 16.03.2022
4761 Clouds 3 1031 1 5213 1.24 147 22:32 16.03.2022
4762 Clouds 3 1031 1 5213 1.24 147 21:42 16.03.2022
4763 Clouds 4 1007 49 10000 2.04 165 20:26 16.03.2022
4764 Clouds 4 1007 48 10000 0.45 270 19:21 16.03.2022
4765 Clouds 4 1007 48 10000 0.45 227 18:38 16.03.2022
4766 Clouds 4 1007 49 10000 0.45 268 17:43 16.03.2022
4767 Clouds 4 1007 49 10000 0.89 312 17:20 16.03.2022
4768 Clouds 4 1007 49 10000 0.89 227 15:55 16.03.2022
4769 Clouds 3 1029 75 10000 3.7 185 14:27 16.03.2022
4770 Clouds 3 1029 75 10000 3.7 185 13:31 16.03.2022
4771 Clouds 4 1006 93 10000 0.45 337 11:56 16.03.2022
4772 Clouds 3 1006 52 10000 0.45 270 11:21 16.03.2022
4773 Clouds 3 1006 53 10000 0.45 275 10:23 16.03.2022
4774 Clouds 2 1005 52 5047 0.5 187 08:53 16.03.2022
4775 Clouds 1 1026 1 8772 0.38 254 06:27 16.03.2022
4776 Clouds 1 1002 45 10000 0.1 172 01:45 16.03.2022
4777 Clouds 1 1025 1 10000 0.43 143 22:38 15.03.2022
4778 Clouds 2 1024 29 10000 0.57 165 21:55 15.03.2022
4779 Clouds 3 1024 54 10000 0.92 197 20:28 15.03.2022
4780 Clouds 4 1024 86 10000 1.07 192 18:57 15.03.2022
4781 Clouds 7 1023 56 10000 1.9 195 16:59 15.03.2022
4782 Clouds 7 1023 56 10000 2.53 193 16:32 15.03.2022
4783 Clouds 8 1023 55 10000 2.38 192 15:21 15.03.2022
4784 Clouds 9 1023 52 10000 2.38 192 14:40 15.03.2022
4785 Clouds 7 1023 54 10000 2.16 197 13:38 15.03.2022
4786 Clouds 6 1024 54 10000 1.76 192 12:24 15.03.2022
4787 Clouds 6 1024 57 10000 1.76 192 11:31 15.03.2022
4788 Clouds 2 1025 61 10000 0.84 196 09:45 15.03.2022
4789 Clouds 0 1025 74 10000 0.47 186 08:42 15.03.2022
4790 Clear -2 1026 27 10000 0.4 357 07:51 15.03.2022
4791 Clouds -4 1026 8 10000 1.03 347 07:28 15.03.2022
4792 Clear -3 1026 42 10000 0.95 341 03:41 15.03.2022
4793 Clouds -1 1027 62 10000 1.42 354 23:44 14.03.2022
4794 Clouds -1 1028 62 10000 1.25 358 23:23 14.03.2022
4795 Clouds 0 1028 61 10000 1.22 5 22:26 14.03.2022
4796 Clouds 1 1028 57 10000 1.22 5 21:30 14.03.2022
4797 Clouds 1 1028 54 10000 1.37 11 20:48 14.03.2022
4798 Clouds 2 1028 52 10000 1.41 11 20:20 14.03.2022
4799 Clouds 4 1028 47 10000 1.28 359 18:55 14.03.2022
4800 Clouds 6 1028 46 10000 0.99 352 17:54 14.03.2022
4801 Clouds 9 1027 35 10000 0.56 340 16:58 14.03.2022
4802 Clouds 10 1027 34 10000 0.1 240 15:43 14.03.2022
4803 Clouds 9 1027 33 10000 0.62 162 14:40 14.03.2022
4804 Clouds 7 1028 41 10000 0.65 123 12:29 14.03.2022
4805 Clouds 5 1029 50 10000 0.51 91 10:54 14.03.2022
4806 Clouds 3 1029 57 10000 0.7 63 09:52 14.03.2022
4807 Clouds 1 1029 60 10000 0.76 42 09:22 14.03.2022
4808 Clouds 0 1029 61 10000 0.76 41 08:55 14.03.2022
4809 Clouds 0 1004 52 10000 1.13 26 07:32 14.03.2022
4810 Clouds -1 1004 52 10000 1.41 17 05:45 14.03.2022
4811 Clouds -2 1028 54 10000 1.3 34 01:55 14.03.2022
4812 Clouds -2 1028 56 10000 1.34 32 01:28 14.03.2022
4813 Clouds 0 1028 61 10000 1.49 18 22:44 13.03.2022
4814 Clouds 0 1028 62 10000 1.42 31 21:31 13.03.2022
4815 Clouds 0 1028 62 10000 1.42 31 20:56 13.03.2022
4816 Clouds 1 1028 62 10000 1.42 31 20:31 13.03.2022
4817 Clouds 1 1028 61 10000 1.49 14 19:49 13.03.2022
4818 Clouds 2 1027 60 10000 1.46 17 19:28 13.03.2022
4819 Clouds 2 1027 57 10000 1.33 16 18:59 13.03.2022
4820 Clouds 3 1027 56 10000 1.29 21 18:35 13.03.2022
4821 Clouds 5 1027 52 10000 1.28 21 17:41 13.03.2022
4822 Clouds 6 1026 50 10000 0.95 9 17:19 13.03.2022
4823 Clouds 5 1026 68 10000 0.45 24 16:30 13.03.2022
4824 Clouds 6 1026 68 10000 0.45 24 15:47 13.03.2022
4825 Clouds 8 1026 42 10000 0.51 123 14:56 13.03.2022
4826 Clouds 7 1026 48 10000 0.83 117 13:43 13.03.2022
4827 Clouds 6 1027 52 10000 1.06 94 12:38 13.03.2022
4828 Clouds 5 1027 57 10000 1.04 84 11:52 13.03.2022
4829 Clouds 5 1027 58 10000 1.04 84 11:32 13.03.2022
4830 Clouds 2 1027 61 10000 0.89 71 10:47 13.03.2022
4831 Clouds 2 1027 58 10000 0.75 60 10:22 13.03.2022
4832 Clouds 1 1027 41 10000 0.75 60 09:40 13.03.2022
4833 Clouds -1 1026 17 10000 0.95 42 08:45 13.03.2022
4834 Clouds -1 1002 35 10000 1.05 30 07:41 13.03.2022
4835 Clouds -4 1026 11 10000 1.08 4 05:40 13.03.2022
4836 Clouds -3 1026 22 10000 0.86 19 02:43 13.03.2022
4837 Clouds -2 1027 28 10000 0.96 6 23:56 12.03.2022
4838 Clouds -1 1026 42 10000 1.22 41 22:27 12.03.2022
4839 Clouds 0 1027 52 10000 1.15 9 20:34 12.03.2022
4840 Clouds 0 1027 57 10000 1.15 9 19:47 12.03.2022
4841 Clear 1 1026 60 10000 0.9 327 19:27 12.03.2022
4842 Clear 2 1026 62 10000 0.97 270 18:23 12.03.2022
4843 Clear 4 1026 61 10000 0.97 270 17:31 12.03.2022
4844 Clear 7 1021 47 10000 1.36 188 16:23 12.03.2022
4845 Clear 6 1023 51 10000 1.8 177 15:23 12.03.2022
4846 Clear 6 1026 51 10000 1.56 170 14:28 12.03.2022
4847 Clear 4 1026 57 10000 1.24 161 12:56 12.03.2022
4848 Clear 4 1023 55 10000 1.09 129 11:56 12.03.2022
4849 Clear 4 1023 54 10000 0.83 103 11:35 12.03.2022
4850 Clear 2 1027 47 10000 0.83 103 10:58 12.03.2022
4851 Clear 0 1027 1 10000 0.51 79 09:45 12.03.2022
4852 Clear -1 1027 1 10000 0.74 42 08:56 12.03.2022
4853 Clear -3 1003 40 10000 1.13 358 07:20 12.03.2022
4854 Clear -2 1004 42 10000 1.13 20 02:36 12.03.2022
4855 Clear -1 1005 40 10000 0.91 8 23:56 11.03.2022
4856 Clear -1 1005 40 10000 0.91 8 23:56 11.03.2022
4857 Clear -2 1030 1 10000 0.72 16 22:56 11.03.2022
4858 Clear -2 1030 1 10000 0.63 51 21:35 11.03.2022
4859 Clear -2 1030 1 10000 0.65 51 20:55 11.03.2022
4860 Clear -1 1030 3 10000 0.44 12 20:29 11.03.2022
4861 Clear -1 1030 7 10000 0.44 12 19:49 11.03.2022
4862 Clouds 0 1030 23 10000 0.28 345 19:22 11.03.2022
4863 Clouds 3 1030 54 10000 0.93 188 17:30 11.03.2022
4864 Clouds 5 1030 59 10000 2.91 190 16:27 11.03.2022
4865 Clouds 5 1030 54 10000 2.91 190 15:53 11.03.2022
4866 Clouds 4 1030 20 10000 3.12 198 14:19 11.03.2022
4867 Clouds 5 1007 49 10000 0.45 270 12:44 11.03.2022
4868 Clouds 4 1007 47 10000 3.47 191 12:21 11.03.2022
4869 Clouds 3 1007 44 10000 3.47 191 11:51 11.03.2022
4870 Clouds 2 1007 47 10000 0.45 133 09:50 11.03.2022
4871 Clouds 2 1007 48 10000 2.31 190 08:56 11.03.2022
4872 Clouds 1 1030 1 10000 2.21 185 08:21 11.03.2022
4873 Clouds 2 1007 47 10000 0.45 225 07:40 11.03.2022
4874 Clouds 1 1030 1 10000 2.46 183 05:44 11.03.2022
4875 Clouds 2 1007 45 10000 0.45 228 03:41 11.03.2022
4876 Clouds 2 1031 1 10000 2.75 193 23:31 10.03.2022
4877 Clouds 3 1008 45 10000 3.17 193 22:29 10.03.2022
4878 Clouds 3 1008 45 10000 0.89 184 21:27 10.03.2022
4879 Clouds 3 1018 58 10000 3.36 193 20:55 10.03.2022
4880 Clouds 3 1018 60 10000 0.45 136 19:23 10.03.2022
4881 Clouds 3 1021 66 10000 1.34 265 18:40 10.03.2022
4882 Clouds 3 1018 58 10000 0.45 180 16:54 10.03.2022
4883 Clouds 3 1018 58 10000 1.34 45 15:50 10.03.2022
4884 Clouds 2 1018 59 10000 0.45 182 14:39 10.03.2022
4885 Clouds 2 1018 62 10000 0.45 265 12:53 10.03.2022
4886 Clouds 2 1008 90 10000 4.54 188 11:42 10.03.2022
4887 Clouds 1 1008 86 10000 0.45 270 10:24 10.03.2022
4888 Clouds 0 1029 1 8752 3.44 190 08:49 10.03.2022
4889 Clouds -1 1006 49 9608 0.45 92 06:58 10.03.2022
4890 Clouds -1 1006 48 10000 0.45 93 03:52 10.03.2022
4891 Clouds -2 1006 45 10000 1.24 157 00:51 10.03.2022
4892 Clouds -2 1005 46 10000 1.21 157 22:46 09.03.2022
4893 Clouds -2 1005 45 10000 0.45 270 21:48 09.03.2022
4894 Clouds -2 1005 45 10000 1.24 156 21:23 09.03.2022
4895 Clouds -1 1005 44 10000 0.45 203 19:40 09.03.2022
4896 Clouds -1 1005 43 10000 0.45 270 18:19 09.03.2022
4897 Clouds 2 1027 75 10000 1.78 176 17:26 09.03.2022
4898 Clouds 4 1027 66 10000 2.28 178 16:24 09.03.2022
4899 Clouds 3 1027 58 10000 2.67 188 14:32 09.03.2022
4900 Clouds 1 1027 58 10000 2.67 188 13:52 09.03.2022
4901 Clouds -1 1027 59 10000 2.55 190 12:36 09.03.2022
4902 Clouds -2 1027 63 10000 2.29 189 11:48 09.03.2022
4903 Clouds -3 1027 69 10000 1.86 189 11:18 09.03.2022
4904 Clouds -1 1004 91 10000 1.32 191 09:41 09.03.2022
4905 Clouds -1 1003 49 10000 0.45 225 08:47 09.03.2022
4906 Clouds -2 1003 48 10000 0.71 325 06:27 09.03.2022
4907 Clouds -2 1002 44 10000 0.44 338 01:53 09.03.2022
4908 Clouds -2 1002 41 10000 0.74 355 00:26 09.03.2022
4909 Clouds -1 1001 40 10000 0.66 342 22:46 08.03.2022
4910 Clouds -1 1001 39 10000 0.75 1 21:52 08.03.2022
4911 Clouds -2 1025 1 10000 0.86 350 21:21 08.03.2022
4912 Clouds -1 1025 1 10000 0.89 339 20:22 08.03.2022
4913 Clouds 0 1024 1 10000 0.91 330 19:24 08.03.2022
4914 Clouds 2 1020 48 10000 0.78 306 18:22 08.03.2022
4915 Clouds 4 1024 45 10000 0.52 300 16:44 08.03.2022
4916 Clouds 5 1022 55 10000 0.58 340 14:57 08.03.2022
4917 Clouds 4 1022 39 10000 0.52 311 13:45 08.03.2022
4918 Clouds 2 1024 68 10000 0.65 7 12:23 08.03.2022
4919 Clouds 1 1024 68 10000 0.65 7 11:42 08.03.2022
4920 Clouds 0 1001 80 10000 0.94 19 10:28 08.03.2022
4921 Clouds -1 1001 45 10000 1.11 9 08:57 08.03.2022
4922 Clouds -2 1000 47 10000 1.46 3 06:30 08.03.2022
4923 Clouds -1 1000 46 10000 1.06 349 02:37 08.03.2022
4924 Clouds -1 1024 1 10000 0.87 297 22:43 07.03.2022
4925 Clouds 0 1025 9 10000 0.82 324 21:44 07.03.2022
4926 Clouds 1 1024 33 10000 0.84 325 20:56 07.03.2022
4927 Clouds 1 1024 43 10000 0.78 315 20:33 07.03.2022
4928 Clouds 2 1024 52 10000 0.78 315 19:49 07.03.2022
4929 Clouds 5 1024 86 10000 0.77 312 18:57 07.03.2022
4930 Clouds 6 1024 83 10000 0.74 291 18:29 07.03.2022
4931 Clouds 5 1024 78 10000 0.75 243 17:31 07.03.2022
4932 Clouds 7 1024 78 10000 0.75 243 16:43 07.03.2022
4933 Clouds 7 1024 59 10000 0.84 244 14:51 07.03.2022
4934 Clouds 7 1024 59 10000 0.54 257 12:34 07.03.2022
4935 Clouds 5 1025 58 10000 0.62 337 11:26 07.03.2022
4936 Clouds 4 1025 60 10000 0.76 330 10:30 07.03.2022
4937 Clouds 0 1025 47 10000 0.85 312 08:34 07.03.2022
4938 Clouds 1 1026 62 10000 1.55 321 02:25 07.03.2022
4939 Clouds 0 1026 63 10000 1.38 318 00:20 07.03.2022
4940 Clouds 1 1027 63 10000 1.35 317 23:23 06.03.2022
4941 Clouds 2 1027 60 10000 1.21 303 22:27 06.03.2022
4942 Clouds 1 1026 84 10000 1.41 305 21:24 06.03.2022
4943 Clouds 4 1026 84 10000 1.29 299 20:29 06.03.2022
4944 Clouds 4 1026 84 10000 1.29 299 19:39 06.03.2022
4945 Clouds 6 1027 85 10000 1.42 323 18:50 06.03.2022
4946 Clouds 6 1027 82 10000 1.42 320 17:46 06.03.2022
4947 Clear 5 1026 75 10000 1.17 309 17:19 06.03.2022
4948 Clear 7 1026 64 10000 1.27 302 16:28 06.03.2022
4949 Clear 7 1026 55 10000 1.47 292 15:25 06.03.2022
4950 Clear 8 1026 38 10000 1.47 292 14:42 06.03.2022
4951 Clear 8 1026 53 10000 1.49 279 13:49 06.03.2022
4952 Clear 7 1026 46 10000 1.13 278 12:40 06.03.2022
4953 Clear 6 1026 49 10000 1.23 286 11:45 06.03.2022
4954 Clear 1 1027 61 10000 1.42 295 10:39 06.03.2022
4955 Clear 1 1027 51 10000 1.51 304 09:18 06.03.2022
4956 Clear -2 1027 36 10000 1.63 316 08:27 06.03.2022
4957 Clear -3 1002 48 10000 1.84 326 07:25 06.03.2022
4958 Clear -2 1025 57 10000 1.76 318 02:22 06.03.2022
4959 Clouds -1 1025 60 10000 1.62 328 00:35 06.03.2022
4960 Clouds -1 1025 57 10000 1.47 329 23:59 05.03.2022
4961 Clouds -1 1025 59 10000 1.64 339 23:19 05.03.2022
4962 Clouds 0 1025 57 10000 1.41 342 22:34 05.03.2022
4963 Clouds -1 1024 57 10000 1.52 338 21:29 05.03.2022
4964 Clouds 0 1020 62 10000 1.63 334 20:32 05.03.2022
4965 Clouds 1 1024 62 10000 1.41 328 19:19 05.03.2022
4966 Clouds 1 1022 55 10000 1.25 327 18:37 05.03.2022
4967 Clouds 2 1023 83 10000 1.25 327 17:34 05.03.2022
4968 Clouds 5 1021 50 10000 0.91 297 16:18 05.03.2022
4969 Clouds 4 1021 43 10000 0.86 290 15:20 05.03.2022
4970 Clouds 5 1023 49 10000 0.86 290 14:36 05.03.2022
4971 Clouds 4 1022 53 10000 0.97 293 13:42 05.03.2022
4972 Clouds 3 1022 51 10000 1 299 12:40 05.03.2022
4973 Clouds 1 1022 32 10000 0.64 260 11:20 05.03.2022
4974 Clouds 2 1024 11 10000 0.64 260 10:52 05.03.2022
4975 Clouds 0 1024 1 10000 0.82 260 09:31 05.03.2022
4976 Clouds -2 1024 1 10000 0.87 242 08:28 05.03.2022
4977 Clouds -3 1001 45 10000 0.45 270 07:21 05.03.2022
4978 Clouds -2 1001 45 8794 0.45 313 05:25 05.03.2022
4979 Clouds -1 1002 45 8713 0.45 222 00:33 05.03.2022
4980 Clouds -1 1002 43 10000 0.89 270 22:58 04.03.2022
4981 Clouds 0 1002 42 10000 0.45 203 22:38 04.03.2022
4982 Clouds 0 1002 39 10000 1.37 191 21:43 04.03.2022
4983 Clouds 1 1003 37 10000 1.45 190 20:42 04.03.2022
4984 Clouds 1 1026 33 10000 1.56 182 19:37 04.03.2022
4985 Clear 2 1026 49 10000 1.46 175 18:56 04.03.2022
4986 Clear 2 1026 49 10000 1.38 180 18:33 04.03.2022
4987 Clear 4 1026 61 10000 2.17 178 17:29 04.03.2022
4988 Clear 5 1025 55 10000 2.48 193 15:54 04.03.2022
4989 Clear 5 1025 56 10000 2.6 203 15:25 04.03.2022
4990 Clouds 5 1025 56 10000 2.13 202 13:36 04.03.2022
4991 Clouds 3 1025 56 10000 2.03 207 12:47 04.03.2022
4992 Clouds 3 1025 55 10000 1.63 205 11:37 04.03.2022
4993 Clouds 3 1025 55 10000 1.63 205 11:37 04.03.2022
4994 Clouds -1 1025 41 10000 0.68 216 10:25 04.03.2022
4995 Clouds -2 1028 1 10000 0.38 262 09:28 04.03.2022
4996 Clouds -3 1004 37 10000 0.51 345 07:48 04.03.2022
4997 Clear -4 1004 36 10000 0.71 342 06:21 04.03.2022
4998 Clear -4 1028 1 10000 1.04 353 02:26 04.03.2022
4999 Clear -3 1028 26 10000 1.24 3 23:41 03.03.2022
5000 Clear -2 1028 47 10000 0.97 11 22:18 03.03.2022
5001 Clear -2 1028 52 10000 0.97 11 21:36 03.03.2022
5002 Clear -1 1028 55 10000 0.88 8 20:48 03.03.2022
5003 Clear 0 1027 62 10000 0.83 353 19:34 03.03.2022
5004 Clear 2 1026 63 10000 0.72 15 18:33 03.03.2022
5005 Clear 4 1026 61 10000 0.72 16 17:39 03.03.2022
5006 Clear 4 1026 56 10000 0.39 16 17:18 03.03.2022
5007 Clear 5 1026 71 10000 0.38 340 15:46 03.03.2022
5008 Clear 7 1026 51 10000 0.5 345 14:45 03.03.2022
5009 Clear 7 1026 50 10000 0.51 27 14:27 03.03.2022
5010 Clear 5 1026 54 10000 0.89 56 12:43 03.03.2022
5011 Clear 5 1027 57 10000 1.13 18 11:32 03.03.2022
5012 Clear 3 1027 61 10000 1.13 18 10:39 03.03.2022
5013 Clear -1 1027 59 10000 1.2 360 08:44 03.03.2022
5014 Clear -3 1027 54 10000 1.71 338 06:58 03.03.2022
5015 Clear -2 1003 55 10000 1.7 328 06:23 03.03.2022
5016 Clear 0 1027 63 10000 1.68 343 00:43 03.03.2022
5017 Clear 1 1026 62 10000 1.73 341 23:28 02.03.2022
5018 Clear 1 1026 63 10000 1.73 341 22:48 02.03.2022
5019 Clear 2 1026 62 10000 1.77 340 21:23 02.03.2022
5020 Clear 2 1026 62 10000 1.77 340 21:23 02.03.2022
5021 Clear 3 1025 61 10000 1.64 342 20:30 02.03.2022
5022 Clear 4 1025 61 10000 1.64 342 19:49 02.03.2022
5023 Clear 4 1025 60 10000 1.52 354 19:30 02.03.2022
5024 Clear 5 1024 87 10000 1.75 349 18:39 02.03.2022
5025 Clear 5 1025 88 10000 1.38 356 18:39 02.03.2022
5026 Clear 5 1025 88 10000 1.38 356 18:39 02.03.2022
5027 Clear 7 1024 87 10000 1.75 349 17:45 02.03.2022
5028 Clear 9 1024 84 10000 1.71 339 16:56 02.03.2022
5029 Clear 9 1024 76 10000 1.65 324 16:36 02.03.2022
5030 Clear 10 1023 68 10000 1.81 318 14:42 02.03.2022
5031 Clear 10 1024 62 10000 1.69 301 13:24 02.03.2022
5032 Clear 8 1024 65 10000 1.68 296 12:41 02.03.2022
5033 Clear 7 1024 66 10000 1.64 299 11:39 02.03.2022
5034 Clear 6 1024 67 10000 1.56 293 11:18 02.03.2022
5035 Clear 4 1024 60 10000 1.28 304 09:41 02.03.2022
5036 Clear 2 1024 53 10000 1.17 298 08:52 02.03.2022
5037 Clouds 0 1024 40 10000 1.35 254 07:28 02.03.2022
5038 Clouds -1 1025 93 10000 1.28 277 05:44 02.03.2022
5039 Clouds 1 1026 93 10000 1.07 277 00:58 02.03.2022
5040 Clouds 1 1025 94 10000 1.02 250 23:47 01.03.2022
5041 Clouds 2 1026 94 10000 1 248 22:45 01.03.2022
5042 Clouds 1 1026 94 10000 1.09 250 21:57 01.03.2022
5043 Clouds 1 1025 95 10000 1.09 251 21:24 01.03.2022
5044 Clouds 2 1025 95 10000 1.09 251 20:30 01.03.2022
5045 Clouds 2 1025 95 10000 1.09 251 20:30 01.03.2022
5046 Clouds 3 1025 96 10000 1.04 251 20:30 01.03.2022
5047 Clouds 3 1025 96 10000 1.04 251 19:38 01.03.2022
5048 Clouds 5 1025 97 10000 0.93 229 18:49 01.03.2022
5049 Clouds 5 1025 97 10000 1.08 219 18:20 01.03.2022
5050 Clouds 6 1025 97 10000 1.08 219 17:30 01.03.2022
5051 Clouds 7 1024 45 10000 1.33 215 16:34 01.03.2022
5052 Clouds 7 1024 50 10000 1.33 215 15:41 01.03.2022
5053 Clouds 8 1024 49 10000 1.77 234 14:35 01.03.2022
5054 Clouds 7 1024 42 10000 1.77 234 13:58 01.03.2022
5055 Clouds 7 1024 25 10000 1.58 236 13:25 01.03.2022
5056 Clouds 6 1024 1 10000 1.49 227 12:32 01.03.2022
5057 Clouds 5 1023 1 3925 1.36 220 10:37 01.03.2022
5058 Clouds 4 1000 50 129 0.45 135 08:45 01.03.2022
5059 Clouds 3 1000 50 66 1.79 313 07:54 01.03.2022
5060 Rain 4 999 49 97 1.34 138 06:20 01.03.2022
5061 Clouds 4 1001 45 10000 0.45 42 02:44 01.03.2022
5062 Clouds 4 1001 47 10000 1.34 178 00:36 01.03.2022
5063 Clouds 3 1002 47 10000 1.34 314 23:31 28.02.2022
5064 Clouds 3 1003 44 10000 1.34 225 22:18 28.02.2022
5065 Clouds 3 1003 43 10000 0.89 184 21:37 28.02.2022
5066 Clouds 3 1014 58 10000 1.34 179 19:56 28.02.2022
5067 Clouds 3 1014 60 10000 0.89 269 19:36 28.02.2022
5068 Clouds 3 1014 59 10000 0.45 91 18:44 28.02.2022
5069 Clouds 4 1016 59 10000 1.34 315 17:33 28.02.2022
5070 Clouds 4 1016 59 10000 0.89 220 16:34 28.02.2022
5071 Clouds 4 1016 59 10000 1.34 180 15:27 28.02.2022
5072 Clouds 4 1016 59 10000 0.45 140 14:32 28.02.2022
5073 Clouds 5 1016 59 10000 0.45 268 13:48 28.02.2022
5074 Clouds 4 1007 52 10000 1.34 225 12:48 28.02.2022
5075 Clouds 4 1007 43 10000 1.34 135 11:58 28.02.2022
5076 Clouds 4 1007 46 10000 0.45 264 11:18 28.02.2022
5077 Clouds 3 1007 47 10000 0.45 177 10:21 28.02.2022
5078 Clouds 3 1007 47 10000 0.45 313 09:36 28.02.2022
5079 Clear 2 1007 48 10000 0.45 220 08:44 28.02.2022
5080 Clouds 2 1007 48 10000 0.45 268 07:43 28.02.2022
5081 Clouds 1 1007 48 10000 1.34 271 05:25 28.02.2022
5082 Clouds 2 1007 48 10000 0.45 43 04:27 28.02.2022
5083 Clouds 3 1009 47 10000 0.89 140 23:45 27.02.2022
5084 Clouds 3 1009 47 10000 2.24 267 22:36 27.02.2022
5085 Clouds 3 1009 47 10000 1.34 138 21:52 27.02.2022
5086 Clouds 3 1009 47 10000 0.89 180 21:27 27.02.2022
5087 Clouds 3 1009 46 10000 0.89 180 20:37 27.02.2022
5088 Clouds 3 1009 46 10000 1.34 228 19:58 27.02.2022
5089 Clouds 3 1009 45 10000 0.89 222 19:27 27.02.2022
5090 Clouds 3 1009 45 10000 0.89 222 19:27 27.02.2022
5091 Clouds 4 1008 44 10000 0.89 181 18:48 27.02.2022
5092 Clear 4 1009 42 10000 0.89 0 17:57 27.02.2022
5093 Clear 5 1031 13 10000 3.77 198 17:20 27.02.2022
5094 Clouds 6 1031 52 10000 4.25 201 16:22 27.02.2022
5095 Clouds 6 1031 54 10000 4.94 199 13:40 27.02.2022
5096 Clouds 6 1031 48 10000 4.59 199 12:33 27.02.2022
5097 Clouds 6 1031 36 10000 4.39 200 11:28 27.02.2022
5098 Clouds 5 1031 1 10000 4.41 201 10:24 27.02.2022
5099 Clouds 5 1031 1 10000 4.41 201 09:51 27.02.2022
5100 Clouds 4 1031 1 10000 4.56 200 09:21 27.02.2022
5101 Clouds 4 1009 47 10000 1.34 199 08:31 27.02.2022
5102 Clouds 4 1031 1 8747 3.34 204 05:39 27.02.2022
5103 Clouds 4 1031 1 8554 2.83 206 02:45 27.02.2022
5104 Clouds 4 1030 1 8681 2.45 212 23:34 26.02.2022
5105 Clouds 3 1030 1 10000 2.65 201 22:31 26.02.2022
5106 Clouds 3 1030 1 10000 2.28 200 21:19 26.02.2022
5107 Clouds 3 1030 21 10000 2.28 200 20:33 26.02.2022
5108 Clouds 3 1030 40 10000 2.15 202 19:52 26.02.2022
5109 Clouds 3 1030 40 10000 2.15 202 19:33 26.02.2022
5110 Clouds 3 1029 51 10000 2.36 198 17:58 26.02.2022
5111 Clouds 3 1027 59 10000 2.36 198 17:30 26.02.2022
5112 Clouds 4 1016 61 10000 0.89 93 16:36 26.02.2022
5113 Clouds 4 1016 61 10000 1.34 313 15:27 26.02.2022
5114 Clouds 4 1016 59 10000 0.89 134 14:58 26.02.2022
5115 Clouds 4 1016 58 10000 1.34 315 14:39 26.02.2022
5116 Clouds 4 1006 61 10000 2.24 225 13:46 26.02.2022
5117 Clouds 4 1006 56 10000 0.89 268 12:53 26.02.2022
5118 Clouds 3 1030 61 10000 3.63 201 11:39 26.02.2022
5119 Clouds 1 1030 61 10000 2.75 207 10:59 26.02.2022
5120 Clouds -3 1029 45 10000 1.03 206 09:22 26.02.2022
5121 Clouds -6 1030 1 10000 0.25 307 07:57 26.02.2022
5122 Clear -5 1027 92 10000 1.03 313 04:22 26.02.2022
5123 Clear -1 1021 91 10000 1.08 343 23:35 25.02.2022
5124 Clear -1 1020 89 10000 1.32 1 22:31 25.02.2022
5125 Clear 0 1020 89 10000 1.32 1 21:30 25.02.2022
5126 Clear 0 1016 89 10000 1.88 343 20:34 25.02.2022
5127 Clear 1 1016 89 10000 1.88 343 19:56 25.02.2022
5128 Clear 4 1011 93 10000 1.72 335 17:54 25.02.2022
5129 Clear 5 1009 90 10000 1.37 328 16:47 25.02.2022
5130 Clear 4 1007 77 10000 2.21 324 15:49 25.02.2022
5131 Clear 4 1005 72 10000 2.62 328 15:23 25.02.2022
5132 Clear 5 1005 61 10000 2.62 328 14:50 25.02.2022
5133 Clear 4 1004 62 10000 2.95 343 14:19 25.02.2022
5134 Clouds 3 1002 67 10000 2.42 338 13:23 25.02.2022
5135 Clouds 2 1000 40 10000 2.69 333 11:56 25.02.2022
5136 Clouds 1 998 3 10000 2.27 321 11:20 25.02.2022
5137 Clouds 0 997 11 10000 1.51 297 10:23 25.02.2022
5138 Clouds -1 997 75 10000 1.51 297 09:42 25.02.2022
5139 Clouds -1 997 75 10000 1.51 297 09:42 25.02.2022
5140 Clouds -3 995 1 10000 1.03 299 07:53 25.02.2022
5141 Clouds -3 994 1 10000 1.08 284 06:54 25.02.2022
5142 Clouds -3 993 95 10000 1.04 278 05:40 25.02.2022
5143 Clouds -1 992 1 10000 1.28 248 02:43 25.02.2022
5144 Clouds 0 992 1 10000 0.85 192 22:37 24.02.2022
5145 Clouds 1 992 1 10000 0.85 192 21:50 24.02.2022
5146 Clouds 1 969 42 10000 0.45 90 21:30 24.02.2022
5147 Clouds 1 992 1 10000 1.02 198 20:44 24.02.2022
5148 Clouds 2 992 3 10000 1.66 182 19:31 24.02.2022
5149 Clouds 3 969 47 10000 1.34 269 18:20 24.02.2022
5150 Clouds 3 969 45 10000 1.34 170 17:54 24.02.2022
5151 Clouds 3 969 49 10000 1.34 273 17:20 24.02.2022
5152 Clouds 4 969 58 10000 0.89 182 16:28 24.02.2022
5153 Clouds 4 992 54 10000 3.37 193 15:43 24.02.2022
5154 Clouds 4 969 60 10000 1.34 270 14:45 24.02.2022
5155 Clouds 4 970 60 10000 0.45 136 13:59 24.02.2022
5156 Clouds 4 970 59 10000 0.89 224 13:37 24.02.2022
5157 Clouds 4 993 26 10000 3.9 191 11:41 24.02.2022
5158 Clouds 3 994 1 10000 3.75 192 10:32 24.02.2022
5159 Clouds 2 971 43 10000 1.34 226 08:43 24.02.2022
5160 Clouds 2 970 42 10000 0.45 263 07:22 24.02.2022
5161 Clouds 3 969 43 10000 1.34 270 05:43 24.02.2022
5162 Clouds 6 968 46 9788 1.79 225 00:32 24.02.2022
5163 Clouds 5 970 45 10000 2.68 93 22:25 23.02.2022
5164 Rain 5 973 47 9528 2.24 90 20:48 23.02.2022
5165 Rain 5 974 47 10000 1.79 138 20:28 23.02.2022
5166 Clouds 5 986 56 10000 1.34 228 19:35 23.02.2022
5167 Clouds 5 987 56 10000 3.13 92 18:27 23.02.2022
5168 Clouds 5 988 54 10000 2.24 158 16:33 23.02.2022
5169 Clouds 5 990 57 10000 1.34 138 14:33 23.02.2022
5170 Clouds 4 1004 38 10000 3.21 194 12:37 23.02.2022
5171 Clouds 2 982 36 10000 0.45 270 11:23 23.02.2022
5172 Clouds 0 1005 1 10000 1.34 215 10:24 23.02.2022
5173 Clouds -1 981 48 10000 0.45 4 08:56 23.02.2022
5174 Clouds -3 1005 1 10000 1.09 279 07:56 23.02.2022
5175 Clouds -2 978 45 10000 0.45 139 03:47 23.02.2022
5176 Clouds -2 978 44 1113 0.23 331 00:19 23.02.2022
5177 Clouds -2 977 43 167 0.31 18 23:34 22.02.2022
5178 Snow -2 977 44 125 0.55 94 22:28 22.02.2022
5179 Snow -2 977 44 125 0.45 270 21:48 22.02.2022
5180 Snow -2 977 44 153 1.29 129 21:24 22.02.2022
5181 Snow -2 977 44 153 0.89 229 20:47 22.02.2022
5182 Snow -2 977 44 373 2.08 158 20:28 22.02.2022
5183 Snow -2 977 42 373 0.45 113 19:34 22.02.2022
5184 Snow -1 989 51 6161 0.89 270 18:58 22.02.2022
5185 Snow -1 989 59 10000 1.34 185 17:36 22.02.2022
5186 Snow -1 989 59 10000 0.89 245 17:18 22.02.2022
5187 Snow 0 989 63 10000 1.34 225 16:36 22.02.2022
5188 Clouds 0 990 60 10000 0.89 225 15:37 22.02.2022
5189 Clouds 1 990 65 10000 0.89 225 14:42 22.02.2022
5190 Clouds 0 1004 59 10000 1.48 196 11:54 22.02.2022
5191 Clouds -3 1006 64 10000 0.75 278 10:24 22.02.2022
5192 Clear -6 1006 77 10000 1.68 299 07:43 22.02.2022
5193 Clear -6 1005 79 10000 1.78 305 07:25 22.02.2022
5194 Clear -6 1005 79 10000 1.78 305 07:25 22.02.2022
5195 Clear -1 979 59 10000 0.45 270 02:51 22.02.2022
5196 Clouds -1 1001 81 10000 2.41 330 00:48 22.02.2022
5197 Clouds 0 999 82 10000 2.43 335 22:38 21.02.2022
5198 Clear -1 995 60 10000 3.27 355 21:25 21.02.2022
5199 Clouds -1 990 73 10000 3.37 354 20:29 21.02.2022
5200 Clouds 0 977 64 10000 0.45 270 18:41 21.02.2022
5201 Clouds 1 985 66 10000 5.12 4 16:47 21.02.2022
5202 Clouds 2 960 60 10000 0.89 270 14:24 21.02.2022
5203 Clouds 2 959 59 10000 0.89 274 13:59 21.02.2022
5204 Clouds 1 957 55 10000 1.34 270 12:58 21.02.2022
5205 Snow 1 956 57 10000 0.45 270 12:22 21.02.2022
5206 Clouds 0 954 58 4158 0.45 227 10:35 21.02.2022
5207 Clouds -1 951 44 630 0.45 292 08:44 21.02.2022
5208 Snow 0 975 1 136 3.42 35 02:31 21.02.2022
5209 Snow 0 977 1 158 3.41 81 22:45 20.02.2022
5210 Clouds 1 955 48 218 1.34 134 22:19 20.02.2022
5211 Clouds 1 955 48 219 1.34 134 22:19 20.02.2022
5212 Clouds 1 956 47 219 1.79 137 21:41 20.02.2022
5213 Clouds 0 957 46 213 0.89 86 20:51 20.02.2022
5214 Snow 0 958 46 161 1.34 0 20:22 20.02.2022
5215 Snow 0 960 45 176 0.89 135 19:29 20.02.2022
5216 Snow 0 960 44 129 1.34 140 18:49 20.02.2022
5217 Snow 1 960 43 129 2.24 114 18:30 20.02.2022
5218 Snow 1 962 55 2144 1.34 135 17:30 20.02.2022
5219 Clouds 2 965 56 10000 0.45 90 15:30 20.02.2022
5220 Clouds 2 989 61 10000 1.61 186 14:39 20.02.2022
5221 Clouds 2 967 53 10000 0.89 90 13:22 20.02.2022
5222 Clouds 2 967 53 10000 0.89 90 13:22 20.02.2022
5223 Clouds 2 992 61 10000 0.99 191 12:20 20.02.2022
5224 Clouds -1 994 63 10000 0.88 291 10:21 20.02.2022
5225 Clouds -2 994 61 10000 0.89 291 09:52 20.02.2022
5226 Clear -4 971 62 10000 1.1 286 06:46 20.02.2022
5227 Clouds -3 971 63 10000 1.66 312 00:33 20.02.2022
5228 Clouds -2 971 62 10000 1.73 319 23:42 19.02.2022
5229 Clouds -3 994 61 10000 1.72 330 22:25 19.02.2022
5230 Clouds -3 994 58 10000 1.73 330 21:54 19.02.2022
5231 Clouds -2 993 61 10000 1.69 326 20:48 19.02.2022
5232 Clouds 0 993 63 10000 1.48 332 19:41 19.02.2022
5233 Clouds 0 992 64 10000 1.31 333 18:41 19.02.2022
5234 Clouds 0 992 64 10000 1.31 333 18:41 19.02.2022
5235 Clouds 1 992 63 10000 1.36 340 18:19 19.02.2022
5236 Clouds 1 989 61 10000 1.58 327 17:33 19.02.2022
5237 Clouds 3 991 54 10000 1.27 297 15:59 19.02.2022
5238 Clear 3 991 52 10000 1.13 278 14:56 19.02.2022
5239 Clear 3 990 51 10000 1.13 278 13:59 19.02.2022
5240 Clouds 2 989 55 10000 1.17 274 11:59 19.02.2022
5241 Clouds 2 988 59 10000 1.13 286 11:36 19.02.2022
5242 Clouds -2 987 60 10000 1.29 300 09:27 19.02.2022
5243 Clouds -3 984 45 10000 1.83 316 06:51 19.02.2022
5244 Clouds 0 979 48 10000 3.09 354 01:39 19.02.2022
5245 Clouds 0 977 36 10000 3.01 14 22:54 18.02.2022
5246 Clouds 0 978 24 10000 2.06 24 21:28 18.02.2022
5247 Clouds 0 978 25 10000 2.06 24 20:31 18.02.2022
5248 Clouds 0 979 43 10000 0.98 57 19:51 18.02.2022
5249 Clouds 1 979 45 10000 1.36 46 18:39 18.02.2022
5250 Clouds 1 980 50 10000 1.43 46 18:19 18.02.2022
5251 Clouds 2 982 61 10000 0.75 81 17:20 18.02.2022
5252 Clouds 6 985 56 10000 1.92 208 14:39 18.02.2022
5253 Clouds 6 985 56 10000 1.92 207 13:47 18.02.2022
5254 Clear 5 987 58 10000 1.78 212 12:51 18.02.2022
5255 Clear 5 987 52 10000 0.6 243 11:57 18.02.2022
5256 Clear 4 987 57 10000 0.89 258 10:47 18.02.2022
5257 Clear 1 987 62 10000 1.5 298 09:20 18.02.2022
5258 Clouds 1 987 58 10000 1.74 288 06:50 18.02.2022
5259 Clouds 0 962 61 10000 2.03 291 05:36 18.02.2022
5260 Clouds 1 959 60 10000 0.45 225 22:43 17.02.2022
5261 Clouds 1 959 56 10000 1.11 260 21:42 17.02.2022
5262 Clouds 1 959 59 10000 0.71 265 20:52 17.02.2022
5263 Clouds 1 958 56 10000 0.71 265 20:33 17.02.2022
5264 Clouds 0 958 58 10000 0.83 300 19:42 17.02.2022
5265 Clouds 0 980 34 10000 1.21 326 18:34 17.02.2022
5266 Clouds 1 980 29 10000 1.21 326 17:46 17.02.2022
5267 Clouds 3 976 66 10000 1.22 279 16:19 17.02.2022
5268 Clouds 3 978 62 10000 1.58 296 14:30 17.02.2022
5269 Clouds 3 978 60 10000 1.34 288 13:47 17.02.2022
5270 Clouds 2 977 52 10000 1.14 249 11:55 17.02.2022
5271 Clouds 2 977 48 10000 0.97 261 11:21 17.02.2022
5272 Clouds 1 952 43 10000 1.31 294 07:57 17.02.2022
5273 Clouds 1 974 1 10000 1.93 29 00:20 17.02.2022
5274 Clouds 1 974 1 6865 1.53 33 22:38 16.02.2022
5275 Clouds 1 952 48 10000 0.45 133 20:24 16.02.2022
5276 Clouds 1 954 47 10000 0.45 285 19:27 16.02.2022
5277 Clouds 2 954 46 10000 0.45 90 18:35 16.02.2022
5278 Clouds 3 955 43 10000 0.45 270 17:27 16.02.2022
5279 Clouds 5 957 51 10000 0.45 270 15:24 16.02.2022
5280 Clouds 4 958 41 10000 0.89 304 13:47 16.02.2022
5281 Clouds 4 959 46 10000 0.45 230 12:31 16.02.2022
5282 Clouds 4 960 51 10000 0.45 263 11:46 16.02.2022
5283 Clouds 2 961 51 10000 0.45 136 10:35 16.02.2022
5284 Clouds 2 961 51 10000 0.45 267 09:54 16.02.2022
5285 Clouds 2 961 50 49 0.45 0 06:44 16.02.2022
5286 Snow 2 962 49 23 0.89 221 02:48 16.02.2022
5287 Rain 2 967 48 51 0.89 291 22:34 15.02.2022
5288 Rain 2 968 46 452 0.45 140 21:51 15.02.2022
5289 Rain 3 968 45 452 0.45 268 21:31 15.02.2022
5290 Rain 2 969 44 10000 0.45 262 20:58 15.02.2022
5291 Clouds 2 979 63 10000 0.45 43 20:38 15.02.2022
5292 Clouds 2 980 67 10000 0.45 180 19:48 15.02.2022
5293 Clouds 2 992 28 10000 1.32 224 18:28 15.02.2022
5294 Clouds 2 992 21 10000 1.32 224 17:57 15.02.2022
5295 Clouds 2 992 19 10000 1.32 224 17:38 15.02.2022
5296 Clouds 3 992 6 10000 1.41 218 15:44 15.02.2022
5297 Clouds 4 991 1 10000 1.39 224 14:35 15.02.2022
5298 Clouds 3 991 1 10000 1.41 215 13:26 15.02.2022
5299 Clouds 2 968 46 10000 0.45 223 11:43 15.02.2022
5300 Clouds 1 991 1 10000 1.23 233 10:32 15.02.2022
5301 Clouds 1 966 48 10000 0.89 270 08:56 15.02.2022
5302 Snow 2 964 49 1996 0.45 223 06:47 15.02.2022
5303 Snow 2 991 99 116 0.95 338 00:26 15.02.2022
5304 Rain 2 967 50 88 0.45 223 21:59 14.02.2022
5305 Rain 2 978 62 85 0.89 270 20:57 14.02.2022
5306 Rain 2 978 61 75 0.89 270 19:52 14.02.2022
5307 Snow 2 978 61 75 0.45 225 19:30 14.02.2022
5308 Rain 2 978 61 40 0.45 270 18:24 14.02.2022
5309 Snow 2 978 61 40 0.45 269 17:37 14.02.2022
5310 Snow 2 978 61 33 0.89 231 17:18 14.02.2022
5311 Rain 2 979 65 32 0.45 273 15:52 14.02.2022
5312 Rain 2 979 65 23 0.45 270 13:37 14.02.2022
5313 Rain 2 970 49 22 0.45 270 12:59 14.02.2022
5314 Clouds 2 969 49 22 1.48 47 12:32 14.02.2022
5315 Clouds 2 970 49 22 1.08 49 11:39 14.02.2022
5316 Clouds 2 993 1 23 0.89 92 10:22 14.02.2022
5317 Clouds 2 969 50 25 0.45 90 08:32 14.02.2022
5318 Snow 2 969 50 23 0.45 227 07:26 14.02.2022
5319 Rain 5 973 50 10000 0.45 291 23:19 13.02.2022
5320 Rain 5 973 50 10000 0.45 266 22:41 13.02.2022
5321 Rain 5 973 49 10000 0.89 283 22:22 13.02.2022
5322 Rain 6 973 49 10000 0.89 270 21:24 13.02.2022
5323 Clouds 5 984 62 10000 1.79 93 20:30 13.02.2022
5324 Clouds 5 995 46 10000 4.36 198 19:23 13.02.2022
5325 Clouds 5 995 46 10000 4.43 198 18:41 13.02.2022
5326 Clouds 6 995 46 10000 4.48 201 17:41 13.02.2022
5327 Clouds 7 984 58 10000 2.24 157 15:53 13.02.2022
5328 Clouds 7 984 57 10000 2.68 267 14:52 13.02.2022
5329 Clouds 7 984 57 10000 1.34 223 13:42 13.02.2022
5330 Clouds 6 984 57 10000 2.24 180 12:49 13.02.2022
5331 Clouds 6 984 57 10000 1.34 91 10:50 13.02.2022
5332 Clouds 6 984 59 10000 0.89 135 10:27 13.02.2022
5333 Clouds 5 984 59 10000 1.34 158 09:36 13.02.2022
5334 Clouds 5 974 53 10000 0.89 225 06:21 13.02.2022
5335 Clouds 4 979 49 64 1.79 139 00:35 13.02.2022
5336 Clouds 5 980 51 57 1.34 135 22:59 12.02.2022
5337 Clouds 5 980 51 58 1.34 270 22:33 12.02.2022
5338 Clouds 5 981 51 85 1.79 223 21:19 12.02.2022
5339 Rain 4 992 62 115 2.24 135 20:25 12.02.2022
5340 Clouds 4 995 62 102 1.34 180 19:21 12.02.2022
5341 Clouds 4 995 62 102 2.24 90 18:50 12.02.2022
5342 Clouds 4 995 61 89 1.34 199 18:32 12.02.2022
5343 Clouds 4 996 58 66 1.34 225 16:55 12.02.2022
5344 Rain 4 996 57 278 2.24 137 16:25 12.02.2022
5345 Clouds 4 996 56 278 2.24 138 15:49 12.02.2022
5346 Clouds 4 998 58 10000 2.24 224 14:30 12.02.2022
5347 Clouds 4 989 59 10000 0.89 45 12:55 12.02.2022
5348 Clouds 3 990 62 10000 0.89 180 10:36 12.02.2022
5349 Clouds 3 990 60 10000 0.89 90 09:39 12.02.2022
5350 Clouds 3 991 62 10000 0.89 269 08:48 12.02.2022
5351 Clouds 2 991 60 10000 0.89 264 07:53 12.02.2022
5352 Clouds 2 992 61 10000 0.89 221 05:33 12.02.2022
5353 Clouds 1 992 61 10000 0.45 270 04:27 12.02.2022
5354 Clouds 1 993 63 10000 0.45 135 02:18 12.02.2022
5355 Clouds -1 994 56 10000 0.45 248 22:28 11.02.2022
5356 Clouds 0 995 53 10000 0.45 180 21:51 11.02.2022
5357 Clouds 0 994 46 10000 0.45 289 20:40 11.02.2022
5358 Clouds 0 1018 49 10000 1.86 233 19:40 11.02.2022
5359 Clouds 0 1018 48 10000 1.59 221 19:20 11.02.2022
5360 Clouds 1 1018 48 10000 1.54 226 17:48 11.02.2022
5361 Clouds 1 1019 48 10000 1.39 225 17:23 11.02.2022
5362 Clouds 1 1018 45 10000 1.55 238 16:22 11.02.2022
5363 Clear 3 1019 40 10000 1.73 256 14:43 11.02.2022
5364 Clear 3 1018 43 10000 1.85 266 14:21 11.02.2022
5365 Clear 3 1018 42 10000 1.85 266 13:57 11.02.2022
5366 Clear 2 1018 43 10000 1.85 266 13:39 11.02.2022
5367 Clear 1 1017 51 10000 2.04 297 11:41 11.02.2022
5368 Clear -2 1016 58 10000 1.95 309 09:57 11.02.2022
5369 Clear -3 991 56 10000 1.93 314 08:42 11.02.2022
5370 Clear -3 991 56 10000 1.93 314 08:42 11.02.2022
5371 Clear -2 991 56 10000 1.86 312 08:22 11.02.2022
5372 Clouds -3 989 58 10000 0.45 225 07:18 11.02.2022
5373 Clouds -1 985 57 10000 1.83 315 02:26 11.02.2022
5374 Clouds -1 985 58 10000 0.45 225 00:51 11.02.2022
5375 Clouds -1 983 57 10000 1.71 299 22:51 10.02.2022
5376 Clear 0 983 58 10000 1.62 298 21:46 10.02.2022
5377 Clear 1 982 57 10000 1.89 303 20:59 10.02.2022
5378 Clear 1 982 56 10000 2.11 306 20:35 10.02.2022
5379 Clouds 1 981 62 10000 1.99 298 19:26 10.02.2022
5380 Clouds 1 980 61 10000 1.98 298 18:46 10.02.2022
5381 Clouds 3 1001 63 10000 1.26 258 17:26 10.02.2022
5382 Clouds 3 1001 60 10000 1.26 258 16:50 10.02.2022
5383 Clouds 4 978 56 10000 0.45 270 15:51 10.02.2022
5384 Clouds 4 978 57 10000 0.45 225 15:30 10.02.2022
5385 Clouds 5 989 55 10000 1.79 210 14:48 10.02.2022
5386 Clear 5 1000 57 10000 1.79 210 14:24 10.02.2022
5387 Clear 5 978 52 10000 0.45 270 13:29 10.02.2022
5388 Clear 5 1001 54 10000 3.56 228 12:50 10.02.2022
5389 Clear 4 1001 58 10000 3.28 226 11:34 10.02.2022
5390 Clear 3 1002 61 10000 2.93 225 10:55 10.02.2022
5391 Clear 2 1002 62 10000 2.51 217 09:59 10.02.2022
5392 Clear 2 1001 63 10000 1.99 209 09:24 10.02.2022
5393 Clear 1 978 62 10000 0.89 225 07:36 10.02.2022
5394 Clear 2 978 62 10000 0.45 136 04:58 10.02.2022
5395 Clear 2 979 63 10000 0.89 270 01:51 10.02.2022
5396 Clear 3 979 62 10000 0.89 270 00:49 10.02.2022
5397 Clear 3 979 62 10000 0.45 269 00:28 10.02.2022
5398 Clear 2 979 62 10000 1.34 313 23:23 09.02.2022
5399 Clear 2 978 62 10000 2.68 270 22:35 09.02.2022
5400 Clear 2 988 63 10000 0.45 269 21:51 09.02.2022
5401 Clear 2 988 63 10000 1.34 248 21:29 09.02.2022
5402 Clear 2 988 62 10000 0.45 225 20:47 09.02.2022
5403 Clear 2 988 62 10000 0.45 225 20:27 09.02.2022
5404 Clear 2 988 63 10000 2.24 270 19:54 09.02.2022
5405 Clear 3 988 61 10000 1.34 225 19:31 09.02.2022
5406 Clear 4 987 49 10000 1.34 180 17:37 09.02.2022
5407 Clear 5 988 49 10000 1.34 270 16:48 09.02.2022
5408 Clear 5 1000 53 10000 5.76 250 15:50 09.02.2022
5409 Clear 7 997 46 10000 6.07 247 14:35 09.02.2022
5410 Clouds 7 998 59 10000 5.49 243 12:28 09.02.2022
5411 Clouds 5 998 53 10000 5.24 245 10:54 09.02.2022
5412 Clouds 4 998 40 10000 5.01 234 10:26 09.02.2022
5413 Clouds 4 976 43 10000 0.45 272 09:40 09.02.2022
5414 Clouds 3 976 44 10000 0.45 227 09:19 09.02.2022
5415 Clouds 3 976 45 10000 1.34 315 07:53 09.02.2022
5416 Clouds 2 978 49 10000 0.89 270 05:30 09.02.2022
5417 Clouds 2 978 49 10000 0.89 270 05:30 09.02.2022
5418 Clouds 2 980 59 10000 0.45 266 03:50 09.02.2022
5419 Clouds 2 980 59 10000 0.45 266 03:50 09.02.2022
5420 Clouds 2 982 64 10000 1.34 267 00:39 09.02.2022
5421 Clouds 2 982 61 10000 0.45 201 23:32 08.02.2022
5422 Clouds 2 982 61 10000 0.45 201 23:32 08.02.2022
5423 Clouds 2 982 61 10000 0.45 201 23:32 08.02.2022
5424 Clouds 2 982 61 10000 0.45 201 23:32 08.02.2022
5425 Clouds 3 1005 63 10000 2.62 207 22:46 08.02.2022
5426 Clouds 3 1005 61 10000 2.17 210 22:21 08.02.2022
5427 Clouds 3 1005 61 10000 2.19 211 21:39 08.02.2022
5428 Clouds 3 1005 62 10000 1.96 215 21:20 08.02.2022
5429 Clouds 3 1005 60 10000 1.96 215 20:43 08.02.2022
5430 Clouds 3 1005 59 10000 1.83 219 19:46 08.02.2022
5431 Clear 4 1004 56 10000 1.94 219 18:38 08.02.2022
5432 Clear 5 1004 52 10000 2.06 223 17:40 08.02.2022
5433 Clear 7 1002 49 10000 2.22 223 16:29 08.02.2022
5434 Clear 8 997 42 10000 2.98 241 15:29 08.02.2022
5435 Clear 8 997 42 10000 2.98 241 14:31 08.02.2022
5436 Clouds 8 1001 54 10000 2.62 240 13:20 08.02.2022
5437 Clouds 6 1000 61 10000 2.54 253 11:33 08.02.2022
5438 Clouds 3 999 77 10000 1.95 232 10:23 08.02.2022
5439 Clouds 4 999 35 10000 1.95 232 10:23 08.02.2022
5440 Clouds 4 999 34 10000 1.96 233 09:44 08.02.2022
5441 Clouds 3 998 1 10000 1.54 238 07:51 08.02.2022
5442 Clouds 4 974 46 9065 1.34 182 05:40 08.02.2022
5443 Clouds 3 975 47 10000 0.89 226 04:39 08.02.2022
5444 Clouds 3 975 51 10000 1.34 138 04:21 08.02.2022
5445 Clouds 4 976 57 10000 1.34 313 03:36 08.02.2022
5446 Clouds 4 976 58 10000 1.79 179 03:18 08.02.2022
5447 Clouds 3 976 59 10000 1.34 225 02:58 08.02.2022
5448 Clouds 4 977 59 10000 1.34 267 02:36 08.02.2022
5449 Clouds 3 1000 45 10000 3.19 204 02:18 08.02.2022
5450 Clouds 3 1000 57 10000 3.19 204 01:43 08.02.2022
5451 Clouds 3 1001 60 10000 3.01 198 01:24 08.02.2022
5452 Clouds 3 1001 60 10000 3.01 198 00:53 08.02.2022
5453 Clouds 2 1001 63 10000 1.62 185 23:54 07.02.2022
5454 Clouds 2 1001 63 10000 1.62 185 23:36 07.02.2022
5455 Snow 1 1003 93 5132 1.49 182 23:18 07.02.2022
5456 Clouds 1 1004 92 10000 1.01 194 22:19 07.02.2022
5457 Clouds 1 1004 93 10000 0.99 193 21:53 07.02.2022
5458 Clouds 1 1005 93 10000 1.11 202 21:29 07.02.2022
5459 Clouds 1 1005 93 10000 1.11 202 20:56 07.02.2022
5460 Clouds 1 1005 93 10000 1.11 202 20:38 07.02.2022
5461 Clouds 1 1006 94 10000 0.66 205 19:49 07.02.2022
5462 Clouds 1 1006 94 10000 0.66 205 19:31 07.02.2022
5463 Clouds 2 1008 93 10000 0.64 295 17:52 07.02.2022
5464 Clear 5 1007 92 10000 0.52 280 16:52 07.02.2022
5465 Clear 6 1006 90 10000 0.4 279 15:49 07.02.2022
5466 Clear 6 1005 81 10000 0.95 263 14:48 07.02.2022
5467 Clouds 6 1002 64 10000 1.57 294 13:28 07.02.2022
5468 Clouds 5 1002 64 10000 1.57 294 12:38 07.02.2022
5469 Clouds 5 1001 65 10000 1.92 294 11:57 07.02.2022
5470 Clouds 3 999 68 10000 1.75 301 11:34 07.02.2022
5471 Clouds 3 999 68 10000 1.75 301 10:49 07.02.2022
5472 Clouds 1 998 75 10000 1.86 302 10:29 07.02.2022
5473 Clouds -1 998 75 10000 1.87 302 09:53 07.02.2022
5474 Clouds -1 996 80 10000 1.75 300 09:18 07.02.2022
5475 Clear -2 994 84 10000 1.46 306 08:24 07.02.2022
5476 Clouds -2 993 80 10000 1.53 303 06:54 07.02.2022
5477 Clouds -3 993 80 10000 1.53 303 06:33 07.02.2022
5478 Clouds -3 989 59 10000 1.9 297 02:58 07.02.2022
5479 Clouds -3 986 86 10000 1.9 312 00:44 07.02.2022
5480 Clouds -2 985 63 10000 1.91 307 23:42 06.02.2022
5481 Clouds -2 983 88 10000 1.63 302 22:47 06.02.2022
5482 Clouds -2 982 87 10000 1.2 304 21:54 06.02.2022
5483 Clouds -2 982 87 10000 1.2 304 21:35 06.02.2022
5484 Clouds -2 981 91 10000 1.13 291 20:53 06.02.2022
5485 Clouds -2 981 91 10000 1.13 291 20:31 06.02.2022
5486 Clouds 0 979 91 10000 1.47 242 19:37 06.02.2022
5487 Clouds 0 979 91 10000 1.5 229 18:38 06.02.2022
5488 Clouds 0 979 90 10000 1.52 215 17:55 06.02.2022
5489 Clouds 1 978 90 10000 1.79 201 17:18 06.02.2022
5490 Clouds 2 978 90 10000 1.79 201 16:38 06.02.2022
5491 Clouds 2 978 63 10000 2.25 191 15:48 06.02.2022
5492 Clouds 3 977 64 10000 3.01 208 15:26 06.02.2022
5493 Clouds 3 978 61 10000 3.34 212 14:36 06.02.2022
5494 Clouds 3 978 63 10000 3.4 218 13:25 06.02.2022
5495 Clouds 3 955 59 10000 0.45 140 12:51 06.02.2022
5496 Clouds 2 979 62 10000 3.26 210 11:32 06.02.2022
5497 Clouds 1 979 55 10000 2.7 201 10:30 06.02.2022
5498 Clouds 0 957 59 10000 0.45 249 08:53 06.02.2022
5499 Clouds 0 957 58 10000 0.45 270 08:30 06.02.2022
5500 Clear 1 957 62 10000 0.45 181 05:31 06.02.2022
5501 Clear 1 957 62 10000 0.45 181 05:31 06.02.2022
5502 Clear 3 958 62 10000 0.45 225 02:49 06.02.2022
5503 Clear 3 958 58 10000 0.45 268 02:24 06.02.2022
5504 Clouds 4 958 45 10000 0.45 269 00:27 06.02.2022
5505 Clouds 4 959 47 9659 1.34 93 22:31 05.02.2022
5506 Clouds 4 960 47 9656 2.24 183 21:32 05.02.2022
5507 Clouds 4 962 44 9069 2.68 180 20:24 05.02.2022
5508 Clouds 3 964 45 9069 1.34 227 19:46 05.02.2022
5509 Clouds 3 966 54 10000 1.79 183 18:58 05.02.2022
5510 Clouds 3 967 51 10000 1.34 116 17:45 05.02.2022
5511 Clouds 3 968 55 10000 1.79 267 17:25 05.02.2022
5512 Clouds 3 991 62 10000 3.11 197 15:40 05.02.2022
5513 Clouds 3 992 63 10000 2.62 202 15:21 05.02.2022
5514 Clouds 3 993 62 10000 2.19 198 12:47 05.02.2022
5515 Clouds 3 993 62 10000 1.89 204 12:27 05.02.2022
5516 Clouds 2 993 61 10000 1.11 203 10:48 05.02.2022
5517 Clouds 0 993 83 10000 1.12 235 10:22 05.02.2022
5518 Clouds 0 993 83 10000 1.12 235 09:44 05.02.2022
5519 Clouds -2 992 90 10000 1.15 261 07:51 05.02.2022
5520 Clouds -2 992 93 10000 1.36 254 06:57 05.02.2022
5521 Clouds -1 990 95 10000 1.2 245 04:30 05.02.2022
5522 Clouds -1 989 11 10000 1.59 210 01:19 05.02.2022
5523 Clouds -1 989 11 10000 1.42 223 00:53 05.02.2022
5524 Clouds -1 989 1 10000 1.69 210 23:46 04.02.2022
5525 Clouds -1 989 1 10000 1.94 201 23:28 04.02.2022
5526 Clouds 0 989 3 10000 1.88 192 21:54 04.02.2022
5527 Clouds 0 989 1 10000 1.88 192 21:36 04.02.2022
5528 Clouds 0 989 1 10000 1.8 203 21:18 04.02.2022
5529 Clouds 1 989 49 10000 2.06 211 19:59 04.02.2022
5530 Clouds 2 966 42 10000 0.45 225 17:43 04.02.2022
5531 Clouds 3 966 55 10000 0.89 267 15:39 04.02.2022
5532 Clouds 4 966 49 10000 3.79 217 14:55 04.02.2022
5533 Clouds 4 966 40 10000 0.45 222 13:33 04.02.2022
5534 Clouds 4 967 49 10000 0.45 355 12:43 04.02.2022
5535 Clouds 4 966 51 10000 0.45 225 11:42 04.02.2022
5536 Clouds 4 966 51 10000 0.45 250 10:36 04.02.2022
5537 Clouds 4 966 52 6318 0.89 224 08:36 04.02.2022
5538 Rain 5 966 51 152 2.68 161 06:47 04.02.2022
5539 Clouds -1 971 47 88 3 182 02:44 04.02.2022
5540 Clouds -2 973 46 335 1.26 171 01:52 04.02.2022
5541 Clouds -3 975 43 1101 0.45 114 23:29 03.02.2022
5542 Clouds -3 976 43 588 0.89 221 22:33 03.02.2022
5543 Clouds -3 977 41 585 0.82 58 21:49 03.02.2022
5544 Snow -4 978 40 797 1.04 34 20:38 03.02.2022
5545 Snow -4 979 40 234 1.18 17 20:18 03.02.2022
5546 Snow -4 979 39 155 1.27 22 19:30 03.02.2022
5547 Snow -4 980 39 176 1.56 17 18:35 03.02.2022
5548 Snow -4 981 39 134 1.42 33 17:32 03.02.2022
5549 Snow -4 981 39 129 1.24 38 16:26 03.02.2022
5550 Snow -4 982 39 133 0.45 267 14:45 03.02.2022
5551 Clouds -4 984 39 117 1.6 46 12:52 03.02.2022
5552 Snow -5 985 38 158 1.28 50 10:58 03.02.2022
5553 Clouds -6 985 38 10000 0.45 228 08:37 03.02.2022
5554 Clouds -8 1010 94 10000 1.53 19 05:26 03.02.2022
5555 Clouds -9 1009 1 10000 1.53 348 00:32 03.02.2022
5556 Clouds -9 1009 1 10000 1.21 325 23:39 02.02.2022
5557 Clouds -8 1008 1 10000 1.05 326 22:19 02.02.2022
5558 Clouds -8 1008 1 10000 1.05 326 21:34 02.02.2022
5559 Clouds -8 1008 1 10000 1.19 350 20:49 02.02.2022
5560 Clouds -7 1008 1 8518 0.93 322 19:58 02.02.2022
5561 Clouds -7 1008 1 7523 0.68 327 19:27 02.02.2022
5562 Clouds -7 1008 1 6825 0.69 355 18:45 02.02.2022
5563 Clouds -6 1008 1 7354 0.77 313 17:56 02.02.2022
5564 Clouds -5 1008 1 10000 0.51 266 17:19 02.02.2022
5565 Clouds -5 1008 2 10000 0.51 266 16:42 02.02.2022
5566 Clouds -3 982 42 10000 0.45 270 13:28 02.02.2022
5567 Clouds -5 1006 1 10000 1.07 218 12:20 02.02.2022
5568 Clouds -5 1005 1 10000 0.68 219 11:33 02.02.2022
5569 Clouds -6 981 39 10000 0.45 270 10:22 02.02.2022
5570 Clouds -8 979 39 8879 0.8 343 07:35 02.02.2022
5571 Clouds -4 969 41 204 0.89 137 22:52 01.02.2022
5572 Snow -4 969 41 170 0.45 226 21:50 01.02.2022
5573 Snow -4 968 40 127 0.89 90 20:35 01.02.2022
5574 Snow -4 968 39 153 0.45 268 17:44 01.02.2022
5575 Snow -4 968 38 123 0.45 270 16:39 01.02.2022
5576 Snow -4 968 38 123 0.45 226 16:39 01.02.2022
5577 Snow -4 969 38 123 1.24 24 14:24 01.02.2022
5578 Snow -5 970 37 124 1.22 22 12:43 01.02.2022
5579 Snow -5 971 36 1695 0.73 59 11:30 01.02.2022
5580 Clouds -6 979 38 10000 1.22 356 04:53 01.02.2022
5581 Clouds -5 981 38 10000 1.2 357 23:41 31.01.2022
5582 Clouds -5 981 38 10000 1.58 337 22:58 31.01.2022
5583 Clouds -5 982 37 10000 1.18 13 21:40 31.01.2022
5584 Clouds -5 982 40 10000 1.33 1 21:19 31.01.2022
5585 Clouds -6 1007 21 10000 1.19 353 20:32 31.01.2022
5586 Clouds -5 1007 28 10000 1.19 353 19:35 31.01.2022
5587 Clouds -3 982 54 10000 0.66 336 18:26 31.01.2022
5588 Clouds -3 983 57 10000 0.34 335 17:41 31.01.2022
5589 Clouds -2 983 61 10000 0.45 267 16:38 31.01.2022
5590 Clouds -2 983 60 10000 0.45 270 15:41 31.01.2022
5591 Clouds -2 983 56 10000 0.45 270 14:22 31.01.2022
5592 Clouds -3 1007 46 10000 0.55 217 12:39 31.01.2022
5593 Clouds -3 1007 45 10000 0.47 253 11:56 31.01.2022
5594 Clouds -5 1007 31 10000 0.09 312 10:50 31.01.2022
5595 Clouds -4 984 49 10000 0.66 337 10:30 31.01.2022
5596 Clouds -4 984 55 10000 1.05 332 09:26 31.01.2022
5597 Clouds -5 983 55 10000 1.05 332 08:50 31.01.2022
5598 Clouds -5 983 54 10000 1.3 332 08:20 31.01.2022
5599 Clouds -6 1007 31 10000 1.2 333 06:18 31.01.2022
5600 Clouds -3 985 56 10000 1.24 319 02:18 31.01.2022
5601 Clouds -4 1012 66 10000 0.52 330 23:18 30.01.2022
5602 Clouds -2 988 56 10000 0.45 292 22:29 30.01.2022
5603 Clouds -2 988 56 10000 0.22 174 21:42 30.01.2022
5604 Clouds -1 988 54 10000 0.48 57 21:19 30.01.2022
5605 Clouds -1 989 53 10000 0.48 56 20:47 30.01.2022
5606 Clouds -1 989 53 10000 0.75 358 20:28 30.01.2022
5607 Clouds -1 1014 83 10000 0.76 359 19:52 30.01.2022
5608 Clouds 0 1014 82 10000 0.92 322 18:43 30.01.2022
5609 Clear 1 1014 80 10000 1.14 321 18:20 30.01.2022
5610 Clear 2 1013 74 10000 1.47 355 17:22 30.01.2022
5611 Clear 3 1013 74 10000 1.49 356 16:40 30.01.2022
5612 Clear 3 1013 44 10000 1.9 354 16:22 30.01.2022
5613 Clear 4 1013 66 10000 1.9 354 15:50 30.01.2022
5614 Clear 4 988 39 10000 0.89 226 15:32 30.01.2022
5615 Clear 5 982 29 10000 1.79 21 14:46 30.01.2022
5616 Clear 5 1011 39 10000 5.53 345 12:47 30.01.2022
5617 Clear 5 1010 38 10000 6.57 340 12:25 30.01.2022
5618 Clear 5 1008 46 10000 6.6 338 10:36 30.01.2022
5619 Clear 5 983 43 10000 0.89 288 09:56 30.01.2022
5620 Clouds 5 981 43 10000 1.34 269 08:58 30.01.2022
5621 Clouds 5 978 48 10000 0.89 226 07:55 30.01.2022
5622 Clear 5 965 50 10000 0.89 268 02:29 30.01.2022
5623 Clouds 4 961 52 5108 0.45 90 00:41 30.01.2022
5624 Clouds 4 960 48 10000 0.45 180 23:21 29.01.2022
5625 Clouds 4 957 45 10000 0.89 314 21:59 29.01.2022
5626 Clouds 5 957 48 10000 0.45 225 21:26 29.01.2022
5627 Clouds 6 955 49 10000 1.34 232 20:36 29.01.2022
5628 Clouds 7 953 48 10000 2.24 228 19:36 29.01.2022
5629 Clouds 8 953 51 10000 0.45 270 18:58 29.01.2022
5630 Clouds 8 952 52 10000 0.89 225 18:30 29.01.2022
5631 Clouds 8 949 64 10000 0.89 270 17:41 29.01.2022
5632 Clouds 7 948 60 10000 0.89 270 16:38 29.01.2022
5633 Clouds 7 952 54 4623 1.34 180 14:24 29.01.2022
5634 Clouds 7 955 45 4603 0.45 230 13:45 29.01.2022
5635 Clouds 7 956 44 4455 1.79 139 13:24 29.01.2022
5636 Clouds 6 979 1 4455 2.51 207 12:35 29.01.2022
5637 Clouds 6 961 50 398 0.89 244 11:38 29.01.2022
5638 Clouds 5 965 50 3106 0.45 187 09:49 29.01.2022
5639 Clouds 5 971 49 758 0.45 181 06:55 29.01.2022
5640 Clouds 3 982 49 10000 1.34 221 00:49 29.01.2022
5641 Clouds 2 982 49 10000 1.34 122 00:31 29.01.2022
5642 Snow 0 986 53 10000 0.89 227 22:52 28.01.2022
5643 Snow 1 987 62 10000 1.34 226 22:27 28.01.2022
5644 Snow 1 1011 60 10000 2.21 183 21:52 28.01.2022
5645 Snow 1 1014 63 10000 1.05 193 20:30 28.01.2022
5646 Snow 1 1014 63 10000 1.04 193 20:30 28.01.2022
5647 Snow 1 1016 93 10000 0.71 280 19:33 28.01.2022
5648 Clouds 1 1016 61 10000 0.71 280 18:46 28.01.2022
5649 Clouds 1 1018 93 10000 0.71 212 17:31 28.01.2022
5650 Clouds 2 1019 84 10000 0.69 240 15:21 28.01.2022
5651 Clouds 3 1020 78 10000 0.97 256 13:57 28.01.2022
5652 Clouds 2 1021 74 10000 1.08 260 12:31 28.01.2022
5653 Clouds 2 1021 74 10000 1.08 260 11:36 28.01.2022
5654 Clear -1 1020 82 10000 1.35 290 09:52 28.01.2022
5655 Clear -1 1019 86 10000 1.61 310 08:26 28.01.2022
5656 Clouds 1 1018 77 10000 1.95 320 07:34 28.01.2022
5657 Clouds 2 1016 77 10000 2.68 327 05:23 28.01.2022
5658 Clouds 3 1014 91 10000 2.03 316 03:44 28.01.2022
5659 Clouds 4 1011 85 10000 2.45 322 02:22 28.01.2022
5660 Clouds 4 1011 85 10000 2.45 322 01:33 28.01.2022
5661 Clouds 5 1005 81 10000 2.5 327 23:25 27.01.2022
5662 Clouds 5 1003 80 10000 2.47 318 21:49 27.01.2022
5663 Clouds 5 1001 79 10000 2.52 318 21:29 27.01.2022
5664 Clouds 5 1001 79 10000 2.52 318 20:44 27.01.2022
5665 Clouds 5 998 80 10000 2.66 321 18:55 27.01.2022
5666 Clouds 5 996 69 10000 3.6 336 17:56 27.01.2022
5667 Clouds 5 992 51 10000 4.26 338 14:42 27.01.2022
5668 Clouds 4 989 86 10000 3.69 348 13:35 27.01.2022
5669 Clouds 5 989 87 10000 3.77 353 12:40 27.01.2022
5670 Clouds 4 987 98 778 1.4 284 10:23 27.01.2022
5671 Clouds 4 988 99 771 0.99 258 08:56 27.01.2022
5672 Clouds 4 988 98 4018 0.59 248 08:31 27.01.2022
5673 Clouds 5 967 48 10000 0.45 202 05:59 27.01.2022
5674 Clouds 4 973 52 10000 0.45 270 02:43 27.01.2022
5675 Clouds 5 1001 59 10000 2.1 222 23:32 26.01.2022
5676 Clouds 5 1003 63 10000 2.4 224 21:59 26.01.2022
5677 Clouds 5 1003 63 10000 2.4 224 21:35 26.01.2022
5678 Clouds 6 1004 79 10000 1.74 233 20:36 26.01.2022
5679 Clouds 6 1004 79 10000 1.74 233 20:36 26.01.2022
5680 Clouds 5 1004 79 10000 1.74 233 19:59 26.01.2022
5681 Clouds 5 1005 79 10000 1.95 241 19:20 26.01.2022
5682 Clouds 5 1005 79 10000 1.95 241 18:45 26.01.2022
5683 Clouds 4 1007 87 10000 1.89 239 17:50 26.01.2022
5684 Clouds 4 1007 89 10000 1.46 221 17:22 26.01.2022
5685 Clouds 5 1007 89 10000 1.46 221 16:31 26.01.2022
5686 Clouds 6 1007 86 10000 1.56 215 15:49 26.01.2022
5687 Clouds 6 1007 86 10000 1.56 215 15:49 26.01.2022
5688 Clouds 6 1007 76 10000 1.83 225 13:58 26.01.2022
5689 Clouds 5 1008 59 10000 2.35 266 11:48 26.01.2022
5690 Clouds 4 1008 32 10000 4.43 270 10:27 26.01.2022
5691 Clouds 3 985 45 10000 4.43 270 09:45 26.01.2022
5692 Clouds 1 1009 98 6548 1.4 272 07:44 26.01.2022
5693 Clouds 1 1014 96 10000 1.08 200 01:54 26.01.2022
5694 Clouds -2 1018 98 10000 0.41 255 23:56 25.01.2022
5695 Clouds -2 1019 97 10000 0.51 330 22:56 25.01.2022
5696 Clouds -3 1020 97 10000 0.46 321 22:21 25.01.2022
5697 Clouds -3 1020 97 10000 0.46 321 21:52 25.01.2022
5698 Clouds -3 1021 97 10000 0.56 343 20:46 25.01.2022
5699 Clouds -3 1021 97 10000 0.56 343 20:46 25.01.2022
5700 Clouds -4 1021 97 10000 0.74 338 20:22 25.01.2022
5701 Clouds -4 1021 97 10000 0.74 338 19:46 25.01.2022
5702 Clouds -3 1023 96 10000 1 11 18:32 25.01.2022
5703 Clouds -3 1023 96 10000 1 11 17:43 25.01.2022
5704 Clouds -2 1023 96 10000 1.08 5 16:35 25.01.2022
5705 Clouds -1 1024 95 10000 0.99 20 15:49 25.01.2022
5706 Clouds -1 1024 95 10000 0.99 20 15:31 25.01.2022
5707 Clouds -1 1024 93 10000 0.8 27 14:57 25.01.2022
5708 Clouds -2 1025 87 10000 0.31 42 13:40 25.01.2022
5709 Clouds -1 1026 1 10000 1.24 14 10:39 25.01.2022
5710 Clouds -3 1025 92 10000 1.21 13 08:34 25.01.2022
5711 Clouds -2 1025 91 10000 1.53 356 07:29 25.01.2022
5712 Clouds -2 1025 92 10000 1.37 23 06:47 25.01.2022
5713 Clouds -2 1023 92 10000 1.17 339 04:22 25.01.2022
5714 Clouds -1 1022 91 10000 1.95 303 23:37 24.01.2022
5715 Clouds -1 1021 92 10000 1.82 310 23:18 24.01.2022
5716 Clouds -1 1021 92 10000 1.82 310 22:59 24.01.2022
5717 Clouds -1 1021 92 10000 1.82 310 22:41 24.01.2022
5718 Clouds -3 1020 93 10000 1.72 312 21:52 24.01.2022
5719 Clouds -2 1020 95 10000 1.62 316 21:28 24.01.2022
5720 Clouds -1 1019 1 10000 1.31 315 20:29 24.01.2022
5721 Clouds 0 1019 1 10000 1.31 315 19:39 24.01.2022
5722 Clouds 0 1019 1 10000 0.79 296 19:20 24.01.2022
5723 Clouds 2 1018 1 10000 0.94 245 17:45 24.01.2022
5724 Clouds 1 1018 1 10000 1.25 214 17:23 24.01.2022
5725 Clouds 2 1018 1 10000 1.26 214 17:23 24.01.2022
5726 Clouds 1 1018 1 10000 1.26 214 16:40 24.01.2022
5727 Clouds 2 1018 1 10000 1.05 199 16:18 24.01.2022
5728 Clouds 2 992 55 10000 1.58 179 14:28 24.01.2022
5729 Clouds 2 993 55 10000 1.98 194 12:40 24.01.2022
5730 Clouds 1 993 55 10000 0.45 227 12:22 24.01.2022
5731 Clouds 1 1018 1 5778 1.07 207 10:25 24.01.2022
5732 Clouds 0 995 48 5778 1.07 207 09:47 24.01.2022
5733 Clouds -1 1018 1 1372 0.97 215 08:24 24.01.2022
5734 Clouds -1 1019 1 283 0.95 221 04:50 24.01.2022
5735 Clouds -1 1020 1 214 0.64 246 01:30 24.01.2022
5736 Clouds 0 997 90 180 0.73 224 00:35 24.01.2022
5737 Clouds -1 998 48 127 0.45 270 23:49 23.01.2022
5738 Clouds 0 998 89 119 0.45 270 22:28 23.01.2022
5739 Clouds -1 999 89 119 0.45 270 21:46 23.01.2022
5740 Clouds -1 1022 100 171 0.78 206 21:24 23.01.2022
5741 Clouds -1 1022 99 222 0.73 212 20:30 23.01.2022
5742 Clouds -1 995 92 222 0.73 212 19:43 23.01.2022
5743 Clouds -1 1023 99 2562 0.66 237 18:50 23.01.2022
5744 Clouds -1 1023 99 10000 0.42 286 17:34 23.01.2022
5745 Clouds -1 1023 99 10000 0.42 286 16:45 23.01.2022
5746 Clouds 0 999 61 10000 0.37 228 14:59 23.01.2022
5747 Clouds 1 999 61 10000 0.5 214 14:21 23.01.2022
5748 Clouds 0 999 60 10000 0.48 229 12:54 23.01.2022
5749 Clouds 1 999 60 10000 0.11 239 12:22 23.01.2022
5750 Clouds 0 1000 60 10000 0.11 239 11:52 23.01.2022
5751 Clouds 0 1000 60 10000 0.18 323 11:18 23.01.2022
5752 Clouds -1 1025 97 10000 0.47 344 10:27 23.01.2022
5753 Clouds -1 1025 97 10000 0.45 345 09:51 23.01.2022
5754 Clouds -3 1024 97 10000 1.04 341 08:52 23.01.2022
5755 Clouds -2 1025 98 10000 0.73 332 05:56 23.01.2022
5756 Clouds -2 1024 97 10000 0.45 20 01:49 23.01.2022
5757 Clouds -2 1024 96 10000 0.35 10 01:26 23.01.2022
5758 Clouds -2 1025 96 10000 0.37 334 00:23 23.01.2022
5759 Clouds -3 1025 96 10000 0.37 334 23:44 22.01.2022
5760 Clouds -3 1025 96 10000 0.21 314 22:40 22.01.2022
5761 Clouds -3 1025 96 10000 0.44 322 21:36 22.01.2022
5762 Clouds -3 1025 96 10000 1.02 4 19:51 22.01.2022
5763 Clouds -3 1024 96 10000 1.14 348 18:49 22.01.2022
5764 Clouds -3 1025 96 10000 0.94 8 18:18 22.01.2022
5765 Clouds -2 1025 96 10000 0.94 9 17:40 22.01.2022
5766 Clouds -1 1025 96 10000 1.33 354 16:56 22.01.2022
5767 Clouds 0 1024 96 10000 0.87 330 15:50 22.01.2022
5768 Clouds 0 1024 94 10000 0.31 335 14:58 22.01.2022
5769 Clouds 0 1024 88 10000 0.64 346 13:46 22.01.2022
5770 Clouds 1 993 52 10000 0.3 273 12:52 22.01.2022
5771 Clouds 0 1024 86 10000 0.12 227 12:29 22.01.2022
5772 Clouds -1 1024 88 10000 0.39 265 11:31 22.01.2022
5773 Clouds -2 1025 94 10000 0.51 335 10:29 22.01.2022
5774 Clouds -2 1025 94 10000 0.51 335 09:59 22.01.2022
5775 Clouds -3 1025 96 10000 0.67 341 08:52 22.01.2022
5776 Clouds -2 1025 96 10000 0.68 349 07:38 22.01.2022
5777 Clouds -1 1025 95 10000 0.5 330 04:53 22.01.2022
5778 Clouds -1 1025 94 10000 0.3 317 01:35 22.01.2022
5779 Clouds -2 1025 91 10000 0.46 292 23:45 21.01.2022
5780 Clouds -1 1025 91 10000 0.7 22 22:28 21.01.2022
5781 Clouds -1 1024 86 10000 1.13 358 20:28 21.01.2022
5782 Clouds -2 1023 85 10000 1.18 351 18:40 21.01.2022
5783 Clouds -1 1022 89 10000 1.3 357 17:41 21.01.2022
5784 Clouds 1 1021 91 10000 1.52 357 15:44 21.01.2022
5785 Clouds 1 1019 78 10000 1.67 323 13:51 21.01.2022
5786 Clouds 1 1019 78 10000 1.67 323 13:51 21.01.2022
5787 Clouds -1 1019 74 10000 1.94 308 12:38 21.01.2022
5788 Clouds -2 1020 77 10000 1.92 326 11:28 21.01.2022
5789 Clouds -2 1020 82 10000 1.96 322 10:20 21.01.2022
5790 Clouds -4 1020 84 10000 1.93 300 08:25 21.01.2022
5791 Clouds -4 1020 78 10000 1.93 293 07:19 21.01.2022
5792 Clouds -2 1020 71 10000 2.09 292 23:54 20.01.2022
5793 Clouds -2 1020 61 10000 2.2 291 22:44 20.01.2022
5794 Clouds -1 995 48 10000 0.45 270 21:47 20.01.2022
5795 Clouds -1 995 47 10000 0.45 270 20:56 20.01.2022
5796 Clear 0 994 41 10000 0.89 270 19:21 20.01.2022
5797 Clear 1 994 41 10000 0.45 246 18:51 20.01.2022
5798 Clear 0 992 41 10000 0.45 269 17:31 20.01.2022
5799 Clear 1 987 36 10000 0.89 227 15:45 20.01.2022
5800 Clear 1 987 37 10000 0.89 225 15:24 20.01.2022
5801 Clear 1 990 38 10000 0.89 270 13:42 20.01.2022
5802 Clear 0 980 42 10000 5.87 339 12:38 20.01.2022
5803 Clear 0 980 43 10000 5.82 338 11:57 20.01.2022
5804 Clear -1 980 45 10000 5.44 338 10:47 20.01.2022
5805 Clear -1 987 47 10000 0.45 270 09:43 20.01.2022
5806 Clear -1 983 56 10000 0.89 269 08:35 20.01.2022
5807 Clear -1 983 56 10000 1.34 225 08:35 20.01.2022
5808 Clouds 0 981 57 10000 0.89 180 05:38 20.01.2022
5809 Clouds -1 976 46 10000 3.67 304 23:52 19.01.2022
5810 Clouds 0 976 48 10000 0.45 270 22:37 19.01.2022
5811 Clouds 1 975 49 10000 0.89 267 21:24 19.01.2022
5812 Clouds 1 974 47 10000 1.34 270 20:53 19.01.2022
5813 Clouds 2 974 48 10000 1.34 270 20:22 19.01.2022
5814 Clouds 3 972 74 10000 0.45 270 18:49 19.01.2022
5815 Clouds 3 972 73 10000 0.45 270 18:49 19.01.2022
5816 Rain 3 970 59 10000 1.34 269 17:50 19.01.2022
5817 Rain 5 969 62 10000 5.57 338 16:59 19.01.2022
5818 Clouds 6 970 44 10000 1.34 174 14:43 19.01.2022
5819 Clouds 5 973 60 10000 2.24 138 12:53 19.01.2022
5820 Clouds 5 974 60 10000 0.89 224 11:43 19.01.2022
5821 Clouds 5 978 44 10000 1.34 252 10:52 19.01.2022
5822 Clouds 4 980 44 10000 0.89 139 09:35 19.01.2022
5823 Clouds 4 1005 1 10000 2.97 209 07:34 19.01.2022
5824 Clouds 3 1008 29 8939 2.45 208 05:19 19.01.2022
5825 Clouds 2 1015 1 10000 0.97 212 23:53 18.01.2022
5826 Clouds 1 1016 1 10000 0.82 256 23:18 18.01.2022
5827 Clouds 0 1017 1 10000 1.02 263 21:43 18.01.2022
5828 Clouds -2 1019 1 10000 0.96 255 20:21 18.01.2022
5829 Clouds -2 1019 1 10000 1.15 256 19:39 18.01.2022
5830 Clouds -2 1020 1 10000 1.04 255 19:21 18.01.2022
5831 Clouds -2 1021 1 10000 0.98 249 18:18 18.01.2022
5832 Clouds -1 993 35 10000 0.87 264 17:29 18.01.2022
5833 Clouds -2 993 35 10000 0.92 244 15:56 18.01.2022
5834 Clouds -1 993 35 10000 0.73 232 15:24 18.01.2022
5835 Clouds -2 995 26 10000 1.1 231 14:18 18.01.2022
5836 Clouds -3 1025 1 10000 0.67 256 11:20 18.01.2022
5837 Clouds -5 1025 1 10000 0.9 294 09:58 18.01.2022
5838 Clouds -6 1027 9 10000 0.81 320 08:19 18.01.2022
5839 Clouds -5 1027 31 10000 0.81 320 07:31 18.01.2022
5840 Clouds -3 1026 67 10000 1.36 331 00:22 18.01.2022
5841 Clouds -3 1026 86 10000 1.46 318 22:39 17.01.2022
5842 Clouds -3 1025 87 10000 1.35 320 21:41 17.01.2022
5843 Clouds -2 1025 66 10000 1.31 314 20:39 17.01.2022
5844 Clouds 0 1023 86 10000 1.21 298 18:46 17.01.2022
5845 Clouds 1 1023 85 10000 1.23 297 18:23 17.01.2022
5846 Clouds 1 1022 83 10000 1.22 298 17:19 17.01.2022
5847 Clouds 2 1021 81 10000 1.39 287 15:47 17.01.2022
5848 Clouds 3 1020 70 10000 1.37 286 14:58 17.01.2022
5849 Clouds 4 1019 52 10000 2.52 310 14:22 17.01.2022
5850 Clear 4 1017 42 10000 4.4 327 12:58 17.01.2022
5851 Clear 3 1016 50 10000 4.88 327 11:51 17.01.2022
5852 Clear 2 1014 46 10000 5.04 333 10:47 17.01.2022
5853 Clear 2 987 44 10000 0.45 158 09:35 17.01.2022
5854 Clear 1 986 45 10000 0.45 138 08:43 17.01.2022
5855 Clear 1 984 46 10000 0.89 227 07:19 17.01.2022
5856 Clouds 2 976 51 10000 0.89 225 00:58 17.01.2022
5857 Clouds 5 972 46 10000 1.34 313 23:27 16.01.2022
5858 Clouds 5 971 64 10000 1.34 226 20:50 16.01.2022
5859 Clouds 4 972 62 10000 1.34 227 19:55 16.01.2022
5860 Clouds 4 973 61 10000 1.79 268 18:45 16.01.2022
5861 Clouds 5 976 49 10000 1.34 248 17:46 16.01.2022
5862 Clouds 3 975 70 10000 0.45 175 16:50 16.01.2022
5863 Clouds 3 972 62 10000 1.75 282 15:34 16.01.2022
5864 Clouds 3 972 44 10000 1.08 300 14:29 16.01.2022
5865 Clouds 3 1000 1 10000 1.01 311 12:51 16.01.2022
5866 Clouds 2 975 51 10000 0.45 270 11:49 16.01.2022
5867 Clouds 2 977 45 10000 1.73 234 10:58 16.01.2022
5868 Clouds 0 975 51 8969 0.45 53 10:26 16.01.2022
5869 Clouds 2 978 84 8969 0.45 134 09:56 16.01.2022
5870 Clouds 1 979 45 8649 0.45 45 09:22 16.01.2022
5871 Clouds 1 979 45 8649 1.84 232 08:47 16.01.2022
5872 Clouds -3 1006 1 10000 0.78 219 03:58 16.01.2022
5873 Clouds -4 1012 1 10000 0.53 351 23:50 15.01.2022
5874 Clouds -4 1014 1 10000 0.51 299 22:35 15.01.2022
5875 Clouds -3 1015 10 10000 0.46 313 21:20 15.01.2022
5876 Clouds -3 1015 14 10000 0.45 312 20:40 15.01.2022
5877 Clouds -3 1016 14 10000 0.54 283 19:30 15.01.2022
5878 Clouds -3 1017 6 10000 0.55 264 18:47 15.01.2022
5879 Clouds -2 990 46 10000 0.59 291 17:30 15.01.2022
5880 Clouds -2 990 53 10000 0.81 302 16:37 15.01.2022
5881 Clouds -1 1020 62 10000 0.52 275 13:56 15.01.2022
5882 Clouds -1 1022 61 10000 0.52 298 12:18 15.01.2022
5883 Clouds -2 1023 63 10000 0.31 290 10:38 15.01.2022
5884 Clouds -2 1023 67 10000 0.63 347 08:31 15.01.2022
5885 Clouds -1 1025 67 10000 1.22 305 00:35 15.01.2022
5886 Clouds -1 1025 83 10000 1.45 289 21:52 14.01.2022
5887 Clouds -1 1025 83 10000 1.45 289 21:52 14.01.2022
5888 Clouds 0 1025 67 10000 1.33 292 20:41 14.01.2022
5889 Clouds 1 1025 63 10000 1.3 281 20:21 14.01.2022
5890 Clear 3 1024 83 10000 1.23 277 18:49 14.01.2022
5891 Clear 2 1024 81 10000 1.32 277 18:20 14.01.2022
5892 Clear 4 1023 80 10000 1.36 280 16:50 14.01.2022
5893 Clear 4 1022 54 10000 1.78 280 15:39 14.01.2022
5894 Clear 5 1022 63 10000 1.78 280 14:42 14.01.2022
5895 Clear 5 1021 46 10000 3.76 304 13:36 14.01.2022
5896 Clear 5 1020 47 10000 4.14 315 12:28 14.01.2022
5897 Clear 4 1019 52 10000 4.33 315 10:56 14.01.2022
5898 Clear 4 993 48 10000 0.89 270 09:44 14.01.2022
5899 Clear 4 992 48 10000 0.45 359 08:44 14.01.2022
5900 Clear 5 1014 51 10000 5.76 304 06:45 14.01.2022
5901 Clear 10 982 56 10000 2.68 95 01:20 14.01.2022
5902 Clear 11 982 51 10000 1.34 290 22:52 13.01.2022
5903 Clear 10 983 55 10000 0.45 136 21:31 13.01.2022
5904 Clear 8 983 52 10000 1.34 226 20:57 13.01.2022
5905 Clear 9 984 56 10000 0.89 269 19:40 13.01.2022
5906 Clouds 7 996 66 10000 0.45 91 19:22 13.01.2022
5907 Clouds 7 996 66 10000 0.89 90 17:52 13.01.2022
5908 Clouds 7 997 56 10000 0.45 92 16:21 13.01.2022
5909 Clouds 7 998 51 10000 0.89 135 15:37 13.01.2022
5910 Clouds 8 999 66 10000 0.89 182 14:40 13.01.2022
5911 Clouds 7 1000 53 10000 0.45 218 12:44 13.01.2022
5912 Clouds 6 1013 88 10000 2.21 220 10:25 13.01.2022
5913 Clouds 6 1013 90 10000 1.66 224 08:58 13.01.2022
5914 Clouds 5 990 56 10000 0.89 139 08:26 13.01.2022
5915 Clouds 5 990 81 10000 1.34 265 07:23 13.01.2022
5916 Clouds 5 991 83 10000 0.89 314 05:59 13.01.2022
5917 Clouds 5 990 82 10000 0.89 270 05:19 13.01.2022
5918 Clouds 4 1014 1 10000 2.18 207 01:56 13.01.2022
5919 Clouds 5 991 46 10000 0.89 137 00:54 13.01.2022
5920 Clouds 5 991 47 10000 0.45 222 23:49 12.01.2022
5921 Clouds 5 992 47 10000 2.89 210 23:19 12.01.2022
5922 Clouds 4 992 47 10000 2.81 208 21:57 12.01.2022
5923 Clouds 4 993 47 10000 2.72 200 21:22 12.01.2022
5924 Clouds 4 1004 59 10000 0.45 90 20:56 12.01.2022
5925 Clouds 4 1004 59 8704 0.45 90 19:43 12.01.2022
5926 Clouds 4 995 47 7821 0.89 202 18:30 12.01.2022
5927 Clouds 4 1018 1 8669 1.77 207 17:21 12.01.2022
5928 Clouds 4 1019 1 9950 1.31 226 16:32 12.01.2022
5929 Clouds 4 996 45 10000 0.45 133 14:48 12.01.2022
5930 Clouds 3 1008 58 10000 1.34 92 13:19 12.01.2022
5931 Clouds 2 998 48 10000 1.34 156 10:56 12.01.2022
5932 Clouds 2 1021 95 10000 1.68 201 08:43 12.01.2022
5933 Clouds 1 1022 1 9749 1.5 204 07:50 12.01.2022
5934 Clouds 1 1022 1 9749 1.5 204 07:31 12.01.2022
5935 Clouds 1 1002 48 2503 0.45 272 23:53 11.01.2022
5936 Clouds 1 1001 48 1109 0.89 275 22:56 11.01.2022
5937 Clouds 2 1001 48 1892 0.45 5 22:23 11.01.2022
5938 Clouds 3 1011 63 330 0.79 281 20:56 11.01.2022
5939 Clouds 3 1011 63 57 0.52 272 20:20 11.01.2022
5940 Clouds 3 1011 63 48 0.68 227 18:32 11.01.2022
5941 Clouds 3 1000 48 72 2.48 196 17:35 11.01.2022
5942 Clouds 3 1001 48 72 0.89 87 16:38 11.01.2022
5943 Clouds 3 1011 62 62 0.45 269 15:47 11.01.2022
5944 Rain 3 1010 62 41 0.89 178 14:42 11.01.2022
5945 Rain 3 1010 62 32 1.34 226 13:56 11.01.2022
5946 Rain 3 1010 62 32 1.79 90 13:36 11.01.2022
5947 Rain 2 1001 46 30 0.89 45 12:51 11.01.2022
5948 Rain 3 1001 46 53 1.34 315 12:20 11.01.2022
5949 Clouds 2 1002 45 6094 1.79 227 09:58 11.01.2022
5950 Clouds 2 1002 44 6292 0.45 132 07:18 11.01.2022
5951 Clouds 0 1005 43 1568 0.45 88 00:43 11.01.2022
5952 Clouds 0 1005 42 1583 0.89 91 00:21 11.01.2022
5953 Clouds 0 1005 42 318 1.34 313 23:28 10.01.2022
5954 Clouds 0 1006 42 448 1.34 311 22:19 10.01.2022
5955 Clouds 0 1006 42 448 1.34 267 21:54 10.01.2022
5956 Clouds -1 1006 42 598 1.34 183 21:31 10.01.2022
5957 Clouds -1 1016 58 604 0.89 270 20:58 10.01.2022
5958 Clouds -1 1016 58 825 1.34 270 20:29 10.01.2022
5959 Clouds -1 1016 58 908 0.45 135 19:45 10.01.2022
5960 Snow -1 1016 58 1971 0.45 186 19:21 10.01.2022
5961 Clouds -1 1016 58 1344 0.89 270 18:50 10.01.2022
5962 Clouds -1 1016 57 2118 0.45 273 18:31 10.01.2022
5963 Clouds -1 1025 47 1438 0.49 103 16:42 10.01.2022
5964 Clouds -1 1025 47 950 0.32 85 15:50 10.01.2022
5965 Clouds -1 1014 56 1117 0.45 43 14:34 10.01.2022
5966 Clouds -1 1029 1 1020 0.63 75 12:31 10.01.2022
5967 Clouds -1 1028 1 874 0.84 70 11:25 10.01.2022
5968 Clouds -1 1028 97 485 0.96 37 10:21 10.01.2022
5969 Clouds -1 1026 97 648 1.14 31 08:22 10.01.2022
5970 Snow -1 1024 97 491 1.39 25 05:50 10.01.2022
5971 Clouds -1 994 40 7122 0.45 270 01:33 10.01.2022
5972 Snow -1 1018 1 2928 2.41 35 00:33 10.01.2022
5973 Snow -1 1018 1 2928 2.42 35 23:43 09.01.2022
5974 Snow -1 1017 1 2303 2.57 39 22:43 09.01.2022
5975 Clouds -1 990 40 1937 0.89 270 21:47 09.01.2022
5976 Clouds -1 998 56 2124 0.45 272 21:25 09.01.2022
5977 Clouds -1 997 56 2109 1.34 272 20:55 09.01.2022
5978 Clouds -1 997 56 2124 0.89 313 20:37 09.01.2022
5979 Clouds -1 997 56 2008 0.45 315 20:18 09.01.2022
5980 Clouds -1 997 56 1972 0.45 270 19:37 09.01.2022
5981 Clouds -1 996 54 1961 0.45 312 19:18 09.01.2022
5982 Clouds -1 1006 44 1077 2.96 30 18:37 09.01.2022
5983 Clouds -1 995 54 1004 0.45 355 17:48 09.01.2022
5984 Clouds -1 995 54 3231 0.45 320 17:26 09.01.2022
5985 Clouds -1 995 54 3231 0.89 315 16:38 09.01.2022
5986 Clouds -1 983 40 6012 0.45 271 15:38 09.01.2022
5987 Clouds -1 982 40 5555 0.45 0 14:50 09.01.2022
5988 Clouds -1 982 40 2595 0.45 315 14:23 09.01.2022
5989 Clouds -1 982 40 2595 0.45 0 13:48 09.01.2022
5990 Clouds -1 980 41 1503 0.45 270 11:56 09.01.2022
5991 Clouds -1 980 42 2188 0.45 315 11:25 09.01.2022
5992 Clouds -2 980 43 2931 0.45 270 09:55 09.01.2022
5993 Clouds -2 978 43 1532 0.45 270 08:59 09.01.2022
5994 Snow -2 1002 1 771 1.94 19 06:56 09.01.2022
5995 Snow -2 1000 97 273 1.56 359 01:29 09.01.2022
5996 Clouds -3 1000 1 897 1.57 359 00:37 09.01.2022
5997 Clouds -3 1000 1 1392 1.58 350 23:31 08.01.2022
5998 Clouds -3 1000 1 1392 1.58 350 22:48 08.01.2022
5999 Clouds -3 975 40 1656 0.45 315 21:28 08.01.2022
6000 Clouds -3 975 40 1656 0.45 45 20:43 08.01.2022
6001 Clouds -3 999 1 2050 1.52 350 20:22 08.01.2022
6002 Clouds -3 975 40 808 0.45 90 19:22 08.01.2022
6003 Clouds -3 1000 97 990 1.67 339 17:31 08.01.2022
6004 Clouds -3 1000 97 990 1.67 339 16:42 08.01.2022
6005 Clouds -3 1000 1 2371 1.9 346 15:28 08.01.2022
6006 Clouds -2 976 39 1116 1.8 342 13:57 08.01.2022
6007 Clouds -3 1001 95 8758 1.72 342 11:31 08.01.2022
6008 Clouds -4 1001 97 5255 1.63 342 10:33 08.01.2022
6009 Clouds -4 1001 97 5255 1.63 342 09:57 08.01.2022
6010 Clouds -4 1001 97 5255 1.63 342 09:33 08.01.2022
6011 Snow -3 977 40 103 0.45 42 05:51 08.01.2022
6012 Snow -3 978 40 102 0.45 353 01:24 08.01.2022
6013 Clouds -3 978 40 430 0.45 230 23:30 07.01.2022
6014 Clouds -3 988 58 2041 0.89 315 21:47 07.01.2022
6015 Snow -3 988 58 976 0.89 317 20:32 07.01.2022
6016 Clouds -3 988 58 246 0.45 0 19:27 07.01.2022
6017 Clouds -3 988 58 407 0.45 310 18:49 07.01.2022
6018 Clouds -3 988 58 386 0.45 315 18:21 07.01.2022
6019 Clouds -3 987 58 244 0.45 317 17:23 07.01.2022
6020 Snow -3 988 58 92 0.89 315 14:55 07.01.2022
6021 Clouds -3 978 40 118 0.45 225 13:52 07.01.2022
6022 Snow -3 978 39 130 0.45 316 12:51 07.01.2022
6023 Snow -5 979 38 110 1.34 92 11:22 07.01.2022
6024 Clouds -7 983 34 502 0.45 315 04:25 07.01.2022
6025 Clouds -7 983 37 10000 1.04 29 02:46 07.01.2022
6026 Clouds -7 984 37 9744 1.11 17 01:48 07.01.2022
6027 Clouds -7 984 37 9701 1.11 17 01:48 07.01.2022
6028 Clouds -8 984 37 8746 1.15 10 01:25 07.01.2022
6029 Clouds -9 1008 1 5559 1.13 12 00:30 07.01.2022
6030 Clouds -9 1009 1 4446 1.22 11 00:30 07.01.2022
6031 Clouds -9 1010 1 1703 1.33 10 22:33 06.01.2022
6032 Clouds -7 1009 43 10000 1.28 7 20:51 06.01.2022
6033 Clouds -11 1011 93 10000 1.21 0 20:18 06.01.2022
6034 Clear -10 1011 94 10000 1.06 360 19:36 06.01.2022
6035 Clear -9 1011 94 10000 1.17 358 17:51 06.01.2022
6036 Clear -9 1012 94 10000 1.14 339 17:23 06.01.2022
6037 Clear -8 1012 94 10000 1.14 339 16:32 06.01.2022
6038 Clear -7 1012 94 10000 1 328 15:44 06.01.2022
6039 Clear -6 1012 47 10000 1.04 316 15:21 06.01.2022
6040 Clear -5 1009 58 10000 0.83 298 14:20 06.01.2022
6041 Clear -5 1009 52 10000 0.83 298 13:33 06.01.2022
6042 Clouds -5 1012 53 10000 0.98 299 12:20 06.01.2022
6043 Clouds -6 1012 81 10000 1.32 325 11:29 06.01.2022
6044 Clouds -7 1012 81 10000 1.32 325 10:50 06.01.2022
6045 Clouds -7 1009 87 10000 1.58 321 06:38 06.01.2022
6046 Clear -4 1005 90 10000 1.95 307 00:34 06.01.2022
6047 Clear -3 1004 89 10000 1.95 309 23:22 05.01.2022
6048 Clear -2 1004 89 10000 1.94 309 22:48 05.01.2022
6049 Clear -2 1003 84 10000 2.2 314 22:26 05.01.2022
6050 Clouds -1 978 56 10000 0.45 314 21:28 05.01.2022
6051 Clouds -1 977 56 10000 0.45 311 20:30 05.01.2022
6052 Clouds -1 976 57 10000 0.45 315 19:42 05.01.2022
6053 Clouds -1 998 89 10000 2.06 311 18:22 05.01.2022
6054 Clouds -2 997 83 10000 2.13 313 16:57 05.01.2022
6055 Clouds -2 996 79 10000 2.58 333 16:19 05.01.2022
6056 Clouds -1 994 81 10000 2.19 324 15:19 05.01.2022
6057 Snow -2 992 44 10000 1.78 314 13:34 05.01.2022
6058 Clouds -2 991 30 10000 1.54 314 12:30 05.01.2022
6059 Clouds -4 988 1 10000 1.62 343 08:46 05.01.2022
6060 Clouds -4 986 1 10000 1.96 337 06:46 05.01.2022
6061 Clouds -2 982 94 10000 1.68 330 01:49 05.01.2022
6062 Clouds -2 957 43 10000 1.8 352 23:44 04.01.2022
6063 Clouds -3 981 1 10000 1.82 355 23:25 04.01.2022
6064 Clouds -3 981 1 10000 2.03 357 21:50 04.01.2022
6065 Clouds -3 877 48 10000 1.43 348 20:45 04.01.2022
6066 Clouds -3 877 90 10000 1.18 312 18:41 04.01.2022
6067 Clouds -3 877 90 10000 0.55 286 17:33 04.01.2022
6068 Clouds -2 980 97 10000 0.55 287 16:38 04.01.2022
6069 Clouds -1 980 1 10000 0.85 228 15:25 04.01.2022
6070 Clouds -1 879 34 10000 0.85 228 14:38 04.01.2022
6071 Clouds -1 918 54 10000 0.45 90 13:57 04.01.2022
6072 Clouds -1 879 44 10000 1.47 191 12:24 04.01.2022
6073 Clouds -1 919 57 10000 0.45 135 10:24 04.01.2022
6074 Clouds -1 958 40 10000 0.45 359 08:57 04.01.2022
6075 Clouds -1 959 38 10000 1.34 222 06:28 04.01.2022
6076 Clouds 0 962 36 10000 0.45 85 00:43 04.01.2022
6077 Clouds 0 962 48 10000 0.45 225 23:56 03.01.2022
6078 Clouds 2 922 66 10000 0.45 135 22:28 03.01.2022
6079 Clouds 2 922 66 10000 0.45 322 21:41 03.01.2022
6080 Clouds 2 922 66 10000 0.45 322 21:40 03.01.2022
6081 Clouds 3 960 50 9454 1.38 253 20:41 03.01.2022
6082 Clouds 4 921 65 10000 0.45 308 19:43 03.01.2022
6083 Clouds 4 921 65 8852 0.45 135 18:31 03.01.2022
6084 Clouds 4 921 65 8805 1.34 273 17:23 03.01.2022
6085 Clouds 4 921 65 8805 1.34 135 16:56 03.01.2022
6086 Clouds 4 911 72 2272 0.89 89 14:33 03.01.2022
6087 Clouds 3 924 64 230 1.34 178 13:25 03.01.2022
6088 Clouds 3 924 64 486 1.34 358 12:22 03.01.2022
6089 Clouds 2 965 49 203 0.45 178 11:30 03.01.2022
6090 Clouds 1 966 49 96 1.17 163 09:41 03.01.2022
6091 Clouds 1 966 49 143 0.72 155 08:18 03.01.2022
6092 Clouds 0 968 48 315 0.45 225 05:21 03.01.2022
6093 Clouds 0 970 48 7681 0.49 275 23:44 02.01.2022
6094 Clouds 1 971 48 7608 0.45 251 22:57 02.01.2022
6095 Clouds 1 970 48 910 0.45 138 22:22 02.01.2022
6096 Clouds 0 982 64 727 0.55 256 21:26 02.01.2022
6097 Clouds 1 982 64 463 0.51 300 20:30 02.01.2022
6098 Clouds 1 982 64 463 0.51 300 20:30 02.01.2022
6099 Clouds 1 982 64 463 0.51 300 19:49 02.01.2022
6100 Clouds 1 982 64 373 0.66 303 19:25 02.01.2022
6101 Clouds 1 982 64 955 0.83 327 18:31 02.01.2022
6102 Clouds 1 982 63 955 0.83 327 17:43 02.01.2022
6103 Clouds 1 982 63 215 0.46 2 17:21 02.01.2022
6104 Clouds 1 982 63 144 0.55 7 16:33 02.01.2022
6105 Clouds 1 985 63 144 0.56 7 15:49 02.01.2022
6106 Clouds 1 985 63 145 0.55 7 15:49 02.01.2022
6107 Clouds 1 985 63 166 0.82 200 13:57 02.01.2022
6108 Clouds 2 986 63 178 0.38 262 12:33 02.01.2022
6109 Clouds 1 986 63 178 0.38 262 11:56 02.01.2022
6110 Clouds 1 986 63 148 0.45 225 10:56 02.01.2022
6111 Clouds 1 986 63 118 0.88 306 10:22 02.01.2022
6112 Clouds 1 976 47 117 0.92 214 07:45 02.01.2022
6113 Clouds 0 981 46 8472 0.22 22 02:58 02.01.2022
6114 Clouds -1 1008 1 10000 0.85 31 23:55 01.01.2022
6115 Clouds -1 1008 1 10000 0.85 31 23:36 01.01.2022
6116 Snow -1 986 45 1228 0.78 25 22:41 01.01.2022
6117 Snow -1 986 45 120 1.18 58 22:18 01.01.2022
6118 Snow -1 986 45 120 0.45 270 21:42 01.01.2022
6119 Snow -1 987 45 123 0.89 183 20:50 01.01.2022
6120 Snow -1 1000 61 714 0.45 135 19:55 01.01.2022
6121 Clouds -1 1000 60 7030 0.45 320 18:53 01.01.2022
6122 Snow -2 1014 49 10000 1 98 17:46 01.01.2022
6123 Snow -2 1004 56 10000 0.45 315 16:35 01.01.2022
6124 Snow -3 1015 43 10000 0.44 153 15:50 01.01.2022
6125 Clouds -2 1005 56 10000 0.74 79 14:56 01.01.2022
6126 Clouds -3 1017 43 10000 0.93 86 13:42 01.01.2022
6127 Clouds -4 1017 43 10000 0.91 128 12:26 01.01.2022
6128 Clouds -4 1020 1 10000 0.91 128 11:47 01.01.2022
6129 Clouds -5 1020 1 10000 0.92 41 11:19 01.01.2022
6130 Clouds -5 1019 1 10000 0.98 360 09:49 01.01.2022
6131 Clouds -7 1018 97 10000 1.35 12 09:20 01.01.2022
6132 Clouds -6 1017 1 10000 1.53 9 08:22 01.01.2022
6133 Clouds -6 1017 1 10000 1.53 9 07:41 01.01.2022
6134 Clouds -5 1016 1 10000 1.5 358 06:45 01.01.2022
6135 Clouds -4 1014 1 10000 1.66 344 05:25 01.01.2022
6136 Clouds -4 1014 96 10000 1.66 344 04:37 01.01.2022
6137 Clouds -3 1010 94 10000 1.8 337 00:37 01.01.2022
6138 Clouds -3 1007 1 10000 1.75 14 22:40 31.12.2021
6139 Clouds -4 1006 1 10000 1.9 14 21:49 31.12.2021
6140 Clouds -4 1003 1 10000 1.65 8 20:28 31.12.2021
6141 Clouds -3 997 50 10000 1.63 353 19:28 31.12.2021
6142 Clouds -5 1001 97 10000 1.13 343 18:30 31.12.2021
6143 Clouds -3 997 94 10000 1.13 343 17:37 31.12.2021
6144 Clouds -3 997 94 10000 1.06 328 17:18 31.12.2021
6145 Clouds -2 997 94 10000 1.13 327 16:19 31.12.2021
6146 Clouds -2 997 94 10000 1.13 327 15:51 31.12.2021
6147 Clouds -3 1000 1 10000 0.9 310 15:28 31.12.2021
6148 Clouds -3 1000 1 10000 0.91 309 14:41 31.12.2021
6149 Clouds -1 986 61 10000 0.72 292 13:58 31.12.2021
6150 Clouds -1 986 62 10000 0.72 292 13:35 31.12.2021
6151 Clouds -1 986 63 10000 0.58 312 12:44 31.12.2021
6152 Clouds -2 976 48 10000 0.82 287 11:43 31.12.2021
6153 Clouds -2 999 1 10000 1.02 318 11:20 31.12.2021
6154 Clouds -2 999 1 10000 0.98 341 10:30 31.12.2021
6155 Clouds -2 999 1 10000 0.97 342 09:35 31.12.2021
6156 Clouds -2 999 97 10000 1.43 338 08:56 31.12.2021
6157 Clouds -1 998 1 10000 1.14 347 08:25 31.12.2021
6158 Clouds -1 999 97 10000 1.04 351 07:30 31.12.2021
6159 Clouds -1 998 98 10000 1.3 21 23:23 30.12.2021
6160 Clouds 0 997 1 10000 1.27 18 22:33 30.12.2021
6161 Clouds 0 997 1 10000 1.27 18 21:51 30.12.2021
6162 Clouds 1 996 1 2042 1.54 8 21:33 30.12.2021
6163 Clouds 0 991 51 2029 1.53 9 20:44 30.12.2021
6164 Clouds 0 991 51 290 1.46 21 20:24 30.12.2021
6165 Clouds 1 991 51 295 1.45 21 19:43 30.12.2021
6166 Clouds 1 981 65 3084 0.99 282 18:29 30.12.2021
6167 Clouds 1 981 65 3080 0.99 282 17:45 30.12.2021
6168 Clouds 1 980 64 4977 0.45 177 15:58 30.12.2021
6169 Clouds 1 981 64 4986 0.45 315 15:39 30.12.2021
6170 Clouds 1 980 64 5405 0.45 85 14:37 30.12.2021
6171 Clouds 1 980 64 491 1.42 186 13:33 30.12.2021
6172 Clouds 0 980 63 3165 0.45 225 12:29 30.12.2021
6173 Clouds -1 971 45 2846 1.4 217 10:50 30.12.2021
6174 Clouds -1 970 45 2398 1.1 267 09:55 30.12.2021
6175 Clouds -1 970 45 3845 0.98 282 08:49 30.12.2021
6176 Snow -2 972 44 1055 1.34 135 06:51 30.12.2021
6177 Snow -3 975 43 99 0.89 45 03:41 30.12.2021
6178 Snow -4 1000 1 101 1.25 40 02:42 30.12.2021
6179 Clouds -5 1003 49 508 0.34 47 23:42 29.12.2021
6180 Clouds -5 1003 49 1159 0.46 52 23:22 29.12.2021
6181 Clouds -5 1003 49 948 0.39 68 22:19 29.12.2021
6182 Clouds -5 1003 92 7468 0.82 42 21:27 29.12.2021
6183 Clouds -5 1005 90 7468 0.82 42 20:34 29.12.2021
6184 Clouds -5 1006 96 10000 0.5 27 19:48 29.12.2021
6185 Clouds -6 1006 97 10000 0.79 31 18:47 29.12.2021
6186 Clouds -6 1006 96 10000 0.51 18 17:56 29.12.2021
6187 Clouds -6 1006 96 10000 1.14 15 17:27 29.12.2021
6188 Clouds -6 1006 96 10000 1.04 0 16:24 29.12.2021
6189 Clouds -6 1006 96 10000 1.04 0 15:48 29.12.2021
6190 Clouds -6 1003 39 10000 0.7 359 14:24 29.12.2021
6191 Clouds -5 981 38 10000 0.45 315 12:39 29.12.2021
6192 Clouds -7 981 38 10000 0.88 32 11:43 29.12.2021
6193 Clouds -8 1005 1 10000 1.09 8 09:59 29.12.2021
6194 Clouds -8 1004 1 10000 1.12 354 07:52 29.12.2021
6195 Clouds -8 1004 1 10000 1.12 354 07:52 29.12.2021
6196 Clouds -7 1004 1 10000 1.2 2 06:40 29.12.2021
6197 Clouds -7 1004 1 10000 1.25 0 06:22 29.12.2021
6198 Clouds -7 1004 1 10000 1.25 0 05:39 29.12.2021
6199 Clouds -6 1003 1 10000 1.28 356 02:48 29.12.2021
6200 Clouds -7 1003 1 10000 1.53 346 00:23 29.12.2021
6201 Clouds -7 1003 1 10000 1.53 345 23:35 28.12.2021
6202 Clouds -6 1003 1 10000 1.58 344 22:42 28.12.2021
6203 Clouds -6 1003 1 10000 1.71 347 22:24 28.12.2021
6204 Clouds -6 1003 1 10000 1.72 346 21:38 28.12.2021
6205 Clouds -6 1002 1 10000 1.76 347 20:40 28.12.2021
6206 Clouds -4 1002 96 10000 1.69 347 19:31 28.12.2021
6207 Clouds -5 1003 96 10000 1.7 349 18:41 28.12.2021
6208 Clouds -4 1003 96 9589 1.74 352 17:59 28.12.2021
6209 Clouds -4 1003 96 6416 1.73 353 16:35 28.12.2021
6210 Clouds -4 1003 97 8021 1.55 351 15:50 28.12.2021
6211 Clouds -4 1002 1 10000 1.49 359 15:23 28.12.2021
6212 Clouds -4 1002 1 10000 1.49 359 14:50 28.12.2021
6213 Clouds -4 1002 1 10000 1.19 4 14:21 28.12.2021
6214 Clouds -4 1004 42 10000 1.19 4 13:42 28.12.2021
6215 Clouds -4 1004 43 10000 1.39 5 13:24 28.12.2021
6216 Clouds -4 1004 43 10000 1.15 6 12:49 28.12.2021
6217 Snow -4 978 39 2039 0.45 315 11:46 28.12.2021
6218 Snow -5 979 39 222 0.45 270 08:53 28.12.2021
6219 Snow -5 979 38 177 0.45 315 06:58 28.12.2021
6220 Clouds -6 983 38 6874 0.45 315 00:59 28.12.2021
6221 Clouds -7 1010 1 5643 1.31 20 23:26 27.12.2021
6222 Clouds -6 996 76 6662 1.39 20 21:46 27.12.2021
6223 Clouds -6 996 53 7374 1.21 24 21:24 27.12.2021
6224 Clouds -6 996 53 10000 0.45 315 20:24 27.12.2021
6225 Clouds -6 996 53 10000 0.98 36 19:43 27.12.2021
6226 Clouds -6 996 53 9897 0.45 45 18:54 27.12.2021
6227 Clouds -7 998 49 2693 0.8 3 17:50 27.12.2021
6228 Clouds -7 998 48 10000 0.81 356 16:57 27.12.2021
6229 Clouds -7 998 42 10000 1.06 357 15:53 27.12.2021
6230 Clouds -7 999 42 10000 1.16 1 14:34 27.12.2021
6231 Clouds -7 999 40 10000 0.81 352 13:40 27.12.2021
6232 Clouds -7 999 39 10000 0.55 352 12:47 27.12.2021
6233 Clouds -10 1010 28 10000 0.83 8 10:36 27.12.2021
6234 Clouds -11 1010 52 10000 1.06 15 10:18 27.12.2021
6235 Clouds -11 988 68 10000 1.17 9 08:39 27.12.2021
6236 Clouds -13 1012 95 10000 1.13 10 07:32 27.12.2021
6237 Clouds -12 1012 94 10000 1.2 348 02:26 27.12.2021
6238 Clouds -12 1012 94 10000 1.17 357 00:23 27.12.2021
6239 Clouds -11 1012 94 10000 1.17 357 23:41 26.12.2021
6240 Clouds -10 1012 1 10000 1.19 355 22:49 26.12.2021
6241 Clouds -11 1012 94 10000 1.27 355 21:30 26.12.2021
6242 Clouds -9 1012 94 10000 1.16 350 19:52 26.12.2021
6243 Clouds -8 1011 94 10000 0.88 352 18:29 26.12.2021
6244 Clouds -8 1011 94 10000 0.88 352 17:51 26.12.2021
6245 Clouds -7 1011 93 10000 0.66 322 15:31 26.12.2021
6246 Clouds -5 1012 90 10000 0.56 290 13:43 26.12.2021
6247 Clouds -4 1009 52 10000 0.61 280 13:21 26.12.2021
6248 Clouds -7 1012 82 10000 0.55 292 12:35 26.12.2021
6249 Clouds -7 1009 59 10000 0.99 333 11:18 26.12.2021
6250 Clouds -8 1012 91 10000 1.18 326 09:30 26.12.2021
6251 Clouds -9 1012 91 10000 1.18 334 08:45 26.12.2021
6252 Clouds -9 1012 92 10000 1.29 329 08:23 26.12.2021
6253 Clouds -8 1010 87 10000 1.54 324 01:45 26.12.2021
6254 Clouds -7 1010 85 10000 1.67 308 00:28 26.12.2021
6255 Clouds -8 1010 85 10000 1.67 308 23:35 25.12.2021
6256 Clouds -10 1009 86 10000 1.73 310 22:29 25.12.2021
6257 Clouds -8 1009 86 10000 1.71 308 21:30 25.12.2021
6258 Clouds -9 1009 86 10000 1.7 308 20:18 25.12.2021
6259 Clouds -6 1009 85 10000 1.74 306 19:18 25.12.2021
6260 Clouds -5 1009 83 10000 1.64 307 18:29 25.12.2021
6261 Clouds -5 1009 83 10000 1.79 310 16:50 25.12.2021
6262 Clouds -6 1009 84 10000 1.72 302 15:34 25.12.2021
6263 Clouds -6 1009 77 10000 1.69 300 14:23 25.12.2021
6264 Clear -5 1009 70 10000 1.83 298 12:21 25.12.2021
6265 Clear -6 1009 72 10000 1.92 302 10:46 25.12.2021
6266 Clear -10 1009 75 10000 1.9 303 09:49 25.12.2021
6267 Clouds -9 1008 74 10000 1.9 302 07:27 25.12.2021
6268 Clear -9 1007 67 10000 1.77 305 01:43 25.12.2021
6269 Clouds -11 1007 75 10000 1.87 305 00:22 25.12.2021
6270 Clouds -8 1007 58 10000 1.68 316 21:59 24.12.2021
6271 Clouds -7 992 50 10000 1.44 301 19:27 24.12.2021
6272 Clouds -7 992 50 10000 1.44 301 18:56 24.12.2021
6273 Clear -8 1006 64 10000 1.61 301 16:49 24.12.2021
6274 Clear -7 1006 60 10000 1.47 306 15:52 24.12.2021
6275 Clear -7 1006 61 10000 1.79 301 15:32 24.12.2021
6276 Clear -6 1006 60 10000 1.8 301 14:35 24.12.2021
6277 Clear -6 1006 61 10000 2.07 304 13:59 24.12.2021
6278 Clear -6 1006 59 10000 2.07 304 13:32 24.12.2021
6279 Clear -6 1003 42 10000 2.27 312 12:47 24.12.2021
6280 Clear -7 1003 44 10000 2.29 312 11:46 24.12.2021
6281 Clear -7 1006 58 10000 2.2 317 11:24 24.12.2021
6282 Clear -8 1006 64 10000 2.19 317 10:36 24.12.2021
6283 Clear -8 981 59 10000 2.24 324 09:22 24.12.2021
6284 Clear -8 981 59 10000 2.53 343 08:19 24.12.2021
6285 Clear -8 981 58 10000 2.53 343 07:42 24.12.2021
6286 Snow -3 977 34 10000 0.89 270 00:47 24.12.2021
6287 Clouds -4 976 39 10000 4.79 29 23:54 23.12.2021
6288 Clouds -5 976 41 10000 3.15 12 22:54 23.12.2021
6289 Clouds -6 997 47 10000 1.98 20 22:26 23.12.2021
6290 Clouds -6 997 47 10000 1.98 20 21:50 23.12.2021
6291 Clouds -7 997 89 10000 0.88 350 20:54 23.12.2021
6292 Clouds -7 1000 94 10000 1.2 280 19:31 23.12.2021
6293 Clouds -7 1000 94 10000 1.16 290 18:32 23.12.2021
6294 Clear -6 1001 94 10000 1.24 308 17:47 23.12.2021
6295 Clear -5 1002 1 10000 1.18 312 16:40 23.12.2021
6296 Clear -5 1003 1 10000 1.02 303 16:20 23.12.2021
6297 Clear -4 1004 1 10000 1.07 312 15:31 23.12.2021
6298 Clear -4 1004 94 10000 1.07 312 14:42 23.12.2021
6299 Clear -4 1004 94 10000 1.07 312 14:42 23.12.2021
6300 Clear -4 1005 1 10000 0.88 320 14:19 23.12.2021
6301 Clouds -3 1006 1 10000 1.01 322 12:48 23.12.2021
6302 Clouds -4 1008 85 10000 1.26 341 10:41 23.12.2021
6303 Clouds -3 1009 92 10000 1.24 337 09:34 23.12.2021
6304 Clouds -3 1010 93 10000 1.27 339 08:59 23.12.2021
6305 Clouds -2 1011 94 10000 1.29 327 06:48 23.12.2021
6306 Clouds -2 1014 95 10000 1.34 325 03:41 23.12.2021
6307 Clouds -2 1006 59 3656 0.47 265 22:55 22.12.2021
6308 Clouds -2 1006 59 3932 0.45 90 22:32 22.12.2021
6309 Clouds -2 1007 59 3925 0.29 247 21:53 22.12.2021
6310 Clouds -2 1007 59 3234 0.31 222 21:28 22.12.2021
6311 Clouds -2 1007 58 3234 0.31 222 20:41 22.12.2021
6312 Clouds -2 1007 58 3394 0.43 210 20:20 22.12.2021
6313 Clouds -2 1007 58 3175 0.45 45 19:19 22.12.2021
6314 Clouds -2 1007 55 1898 0.33 195 17:39 22.12.2021
6315 Clouds -2 1022 1 1242 0.07 322 16:36 22.12.2021
6316 Clouds -2 1022 1 1246 0.08 323 15:36 22.12.2021
6317 Clouds -1 1008 57 1675 0.36 128 13:23 22.12.2021
6318 Clouds -1 1009 57 1542 0.45 225 12:19 22.12.2021
6319 Snow -1 999 43 568 0.52 67 09:53 22.12.2021
6320 Clouds -2 1024 1 416 0.56 52 09:31 22.12.2021
6321 Clouds -2 999 43 601 0.45 272 07:22 22.12.2021
6322 Clouds -2 1023 1 572 0.69 45 05:40 22.12.2021
6323 Clouds -2 1024 1 836 0.79 43 05:21 22.12.2021
6324 Clouds -2 1024 1 835 0.79 43 04:45 22.12.2021
6325 Clouds -2 1000 40 815 0.59 68 04:19 22.12.2021
6326 Clouds -2 1000 39 815 0.59 68 03:32 22.12.2021
6327 Snow -2 1000 41 633 0.75 94 23:57 21.12.2021
6328 Clouds -2 1000 42 1284 0.45 312 22:49 21.12.2021
6329 Snow -2 1000 42 1245 0.45 0 22:27 21.12.2021
6330 Snow -2 1000 42 1282 0.45 359 21:43 21.12.2021
6331 Snow -2 1011 57 551 0.54 61 20:53 21.12.2021
6332 Snow -2 1011 57 173 0.4 58 20:20 21.12.2021
6333 Snow -2 1010 57 171 0.4 58 19:41 21.12.2021
6334 Snow -2 1011 57 199 0.58 31 18:38 21.12.2021
6335 Snow -2 1011 56 252 1.07 28 17:59 21.12.2021
6336 Snow -2 1011 46 252 1.07 28 17:40 21.12.2021
6337 Snow -2 1011 46 897 0.9 32 15:46 21.12.2021
6338 Clouds -2 1011 46 10000 0.78 36 14:59 21.12.2021
6339 Clouds -2 1011 47 10000 0.69 39 13:47 21.12.2021
6340 Clouds -2 1011 47 10000 0.51 20 13:29 21.12.2021
6341 Clouds -4 1011 58 10000 0.6 345 10:55 21.12.2021
6342 Clouds -4 1011 58 10000 0.59 23 09:57 21.12.2021
6343 Clouds -4 1011 57 10000 0.61 352 09:18 21.12.2021
6344 Clouds -5 1025 1 10000 0.65 322 07:50 21.12.2021
6345 Clouds -4 1001 38 10000 0.46 328 07:25 21.12.2021
6346 Clouds -4 1001 39 10000 0.44 284 04:48 21.12.2021
6347 Clouds -5 1026 1 10000 0.57 285 02:39 21.12.2021
6348 Clouds -4 1028 14 10000 0.72 283 23:58 20.12.2021
6349 Clouds -4 1028 31 10000 0.8 277 22:49 20.12.2021
6350 Clouds -4 1029 31 10000 0.69 286 22:28 20.12.2021
6351 Clouds -4 1029 25 10000 0.69 286 21:41 20.12.2021
6352 Clouds -4 1029 32 10000 0.82 285 21:22 20.12.2021
6353 Clouds -3 1029 38 10000 0.82 285 20:41 20.12.2021
6354 Clouds -3 1029 46 10000 0.88 286 19:40 20.12.2021
6355 Clouds -3 1029 44 10000 0.97 290 19:20 20.12.2021
6356 Clouds -3 1029 47 10000 0.9 295 18:35 20.12.2021
6357 Clouds -3 1029 90 10000 1.04 299 17:52 20.12.2021
6358 Clouds -2 1028 89 10000 1.05 339 16:53 20.12.2021
6359 Clouds -1 1028 89 10000 1.05 339 16:35 20.12.2021
6360 Clouds -2 1029 89 10000 1.24 339 15:43 20.12.2021
6361 Clouds 0 1029 89 10000 1.29 322 14:41 20.12.2021
6362 Clouds 2 1028 76 10000 1.4 328 12:44 20.12.2021
6363 Clouds 2 1028 71 10000 2.09 326 10:55 20.12.2021
6364 Clouds 0 1028 64 10000 2.23 326 09:47 20.12.2021
6365 Clouds 1 1027 72 10000 2.37 330 08:56 20.12.2021
6366 Clouds 1 1027 72 10000 2.37 330 08:38 20.12.2021
6367 Clouds 1 1027 74 10000 2.29 326 07:46 20.12.2021
6368 Clouds 1 1027 75 10000 2.08 323 06:40 20.12.2021
6369 Clear 3 1027 76 10000 2.07 314 02:32 20.12.2021
6370 Clear 3 1027 76 10000 2.14 315 23:37 19.12.2021
6371 Clear 3 1027 75 10000 2.25 316 22:44 19.12.2021
6372 Clear 3 1026 74 10000 2.35 317 21:49 19.12.2021
6373 Clear 3 1025 75 10000 2.53 314 21:25 19.12.2021
6374 Clear 3 1025 76 10000 2.32 309 20:29 19.12.2021
6375 Clear 2 1025 76 10000 2.32 309 19:45 19.12.2021
6376 Clear 2 1025 74 10000 2.4 304 18:54 19.12.2021
6377 Clear 3 1024 63 10000 2.99 317 18:20 19.12.2021
6378 Clear 3 1024 63 10000 2.99 317 17:45 19.12.2021
6379 Clear 3 1024 62 10000 3.18 318 16:46 19.12.2021
6380 Clear 3 1023 63 10000 2.68 313 15:58 19.12.2021
6381 Clear 4 1023 54 10000 3.13 328 15:25 19.12.2021
6382 Clear 4 1023 54 10000 3.13 328 14:49 19.12.2021
6383 Clear 5 999 46 10000 0.89 90 13:41 19.12.2021
6384 Clouds 4 1023 51 10000 4.44 343 13:20 19.12.2021
6385 Clouds 5 1023 50 10000 4.44 342 12:33 19.12.2021
6386 Clouds 4 1023 50 10000 4.44 342 11:40 19.12.2021
6387 Clouds 4 1023 51 10000 4.77 356 10:52 19.12.2021
6388 Clouds 4 1022 50 10000 6.16 2 10:23 19.12.2021
6389 Clouds 4 998 46 10000 0.89 225 09:20 19.12.2021
6390 Clouds 3 1020 1 10000 3.09 13 07:35 19.12.2021
6391 Clear 0 1018 94 10000 1.55 5 02:35 19.12.2021
6392 Clouds 2 1019 91 10000 1.91 314 00:55 19.12.2021
6393 Clouds 2 1019 90 10000 1.96 302 23:31 18.12.2021
6394 Clouds 3 1019 90 10000 1.91 305 22:30 18.12.2021
6395 Clouds 2 1019 90 10000 1.91 305 21:51 18.12.2021
6396 Clouds 3 1019 90 10000 1.93 302 21:30 18.12.2021
6397 Clouds 1 1019 90 10000 1.93 302 20:43 18.12.2021
6398 Clouds 2 1020 90 10000 1.79 305 19:50 18.12.2021
6399 Clouds 2 1020 90 10000 1.76 291 19:18 18.12.2021
6400 Clouds 3 1021 92 10000 1.71 307 18:18 18.12.2021
6401 Clouds 3 1021 92 10000 1.71 307 17:46 18.12.2021
6402 Clouds 3 1022 94 10000 1.52 292 16:22 18.12.2021
6403 Clouds 4 1023 94 10000 1.32 293 15:25 18.12.2021
6404 Clouds 4 1024 95 10000 1.29 281 14:19 18.12.2021
6405 Clouds 3 1025 95 10000 1.12 283 12:38 18.12.2021
6406 Clouds 1 1027 96 10000 1.27 309 10:43 18.12.2021
6407 Clouds 1 1028 1 10000 1.45 319 09:32 18.12.2021
6408 Clouds 1 1028 1 10000 1.27 313 08:37 18.12.2021
6409 Clouds 1 1028 1 10000 1.27 313 08:18 18.12.2021
6410 Snow 0 1032 1 10000 1.13 308 01:48 18.12.2021
6411 Snow 0 1032 1 10000 1.13 308 01:48 18.12.2021
6412 Snow -1 1033 1 10000 0.99 310 00:23 18.12.2021
6413 Clouds -1 1033 1 10000 0.99 310 23:37 17.12.2021
6414 Clouds -1 1034 1 10000 0.76 298 21:54 17.12.2021
6415 Clouds -1 1034 1 10000 0.94 333 20:50 17.12.2021
6416 Clouds -1 1034 1 10000 0.92 328 20:21 17.12.2021
6417 Clouds 0 1034 1 10000 0.91 310 18:50 17.12.2021
6418 Clouds 0 1034 1 10000 0.88 296 18:19 17.12.2021
6419 Clouds -1 1034 1 10000 1.15 301 17:25 17.12.2021
6420 Clouds 0 1034 1 10000 1.12 294 16:29 17.12.2021
6421 Clouds 0 1034 1 10000 1.12 294 15:51 17.12.2021
6422 Clouds 1 1034 1 10000 1.05 305 14:43 17.12.2021
6423 Clouds 2 1030 35 10000 0.89 300 13:56 17.12.2021
6424 Clouds 2 1030 33 10000 1.05 331 12:38 17.12.2021
6425 Clouds 0 1033 1 10000 1.89 339 10:49 17.12.2021
6426 Clouds -1 1033 1 10000 1.64 313 09:51 17.12.2021
6427 Clouds -1 1034 1 10000 1.82 327 08:58 17.12.2021
6428 Clouds -1 1033 1 10000 1.59 332 08:19 17.12.2021
6429 Clouds -1 1033 1 10000 1.51 352 04:58 17.12.2021
6430 Clouds -1 1032 1 10000 1.38 336 02:51 17.12.2021
6431 Clear 0 1031 33 10000 1.29 323 22:50 16.12.2021
6432 Clear 1 1031 93 10000 1.06 321 22:22 16.12.2021
6433 Clear 1 1031 93 10000 1.06 321 21:44 16.12.2021
6434 Clear 2 1030 93 10000 1.21 310 20:48 16.12.2021
6435 Clear 2 1028 92 10000 1.15 290 20:21 16.12.2021
6436 Clear 3 1028 92 10000 1.15 290 19:31 16.12.2021
6437 Clouds 4 1028 89 10000 1.08 287 18:33 16.12.2021
6438 Clouds 5 1028 89 10000 1.08 287 17:47 16.12.2021
6439 Clouds 5 1027 88 10000 1.27 284 16:26 16.12.2021
6440 Rain 6 1027 88 10000 1.27 284 15:50 16.12.2021
6441 Rain 7 1025 80 10000 1.51 296 13:46 16.12.2021
6442 Clear 7 1021 61 10000 3.06 290 12:27 16.12.2021
6443 Clear 6 1023 54 10000 3.52 287 11:19 16.12.2021
6444 Clear 6 1023 52 10000 3.52 287 10:39 16.12.2021
6445 Clear 6 1022 36 10000 4.29 279 09:43 16.12.2021
6446 Clear 6 996 34 10000 0.45 45 06:51 16.12.2021
6447 Clear 6 996 71 10000 0.45 227 06:18 16.12.2021
6448 Clouds 4 992 50 10000 0.45 90 23:58 15.12.2021
6449 Clouds 4 991 50 10000 0.45 315 22:50 15.12.2021
6450 Clouds 4 991 50 10000 0.45 267 22:21 15.12.2021
6451 Clouds 4 990 50 186 2.09 228 21:31 15.12.2021
6452 Clouds 4 990 50 245 0.45 315 20:51 15.12.2021
6453 Clouds 4 989 93 163 1.81 225 19:53 15.12.2021
6454 Clouds 4 988 50 101 0.45 86 19:18 15.12.2021
6455 Clouds 3 988 50 80 0.89 136 18:20 15.12.2021
6456 Clouds 4 988 94 80 0.89 182 17:45 15.12.2021
6457 Clouds 4 998 92 91 0.45 289 17:21 15.12.2021
6458 Rain 4 988 50 119 0.94 234 15:49 15.12.2021
6459 Clouds 4 998 64 343 0.45 180 15:30 15.12.2021
6460 Clouds 4 1009 47 373 1.05 197 14:48 15.12.2021
6461 Clouds 4 1009 47 241 1.04 193 13:34 15.12.2021
6462 Clouds 4 1010 1 137 0.51 231 11:52 15.12.2021
6463 Clouds 4 1009 1 145 0.94 244 10:20 15.12.2021
6464 Clouds 5 986 51 128 0.45 270 08:25 15.12.2021
6465 Rain 4 986 51 3014 0.89 270 05:53 15.12.2021
6466 Clouds 5 987 52 904 0.45 96 00:37 15.12.2021
6467 Clouds 5 987 52 2613 1.34 43 23:27 14.12.2021
6468 Clouds 4 987 51 2511 1.34 137 22:44 14.12.2021
6469 Clouds 4 988 51 5144 1.34 228 21:43 14.12.2021
6470 Clouds 2 988 51 10000 0.89 46 20:22 14.12.2021
6471 Clouds 2 989 51 10000 0.45 159 19:34 14.12.2021
6472 Clouds 1 989 50 10000 0.45 133 18:38 14.12.2021
6473 Clouds 1 1000 61 10000 0.45 274 17:56 14.12.2021
6474 Clouds 1 1012 43 10000 0.7 184 16:47 14.12.2021
6475 Snow 1 1012 43 10000 0.4 230 16:28 14.12.2021
6476 Clouds 1 1012 43 10000 0.23 154 14:32 14.12.2021
6477 Clouds 0 991 50 10000 0.71 259 12:58 14.12.2021
6478 Clouds 0 992 50 10000 0.51 266 11:44 14.12.2021
6479 Clouds -1 1015 1 10000 0.8 318 11:20 14.12.2021
6480 Clouds -1 1014 1 10000 0.7 322 09:55 14.12.2021
6481 Clouds -1 1014 1 10000 0.86 299 08:58 14.12.2021
6482 Clouds 0 1014 97 10000 0.88 263 08:21 14.12.2021
6483 Clouds 0 1014 97 10000 0.88 263 07:39 14.12.2021
6484 Clouds 3 991 51 100 0.45 135 23:59 13.12.2021
6485 Clouds 3 1003 66 64 0.64 254 22:26 13.12.2021
6486 Clouds 3 1003 66 64 0.64 254 21:44 13.12.2021
6487 Clouds 3 1003 66 58 0.75 272 20:54 13.12.2021
6488 Clouds 3 1003 66 53 0.88 271 20:26 13.12.2021
6489 Clouds 3 1003 66 53 0.88 271 19:49 13.12.2021
6490 Clouds 3 1015 51 47 0.77 230 17:39 13.12.2021
6491 Clouds 3 1015 51 55 1.33 175 17:18 13.12.2021
6492 Clouds 3 1003 66 70 0.45 110 15:47 13.12.2021
6493 Clouds 3 1015 51 86 3.02 183 14:43 13.12.2021
6494 Clouds 3 1016 1 102 3.42 183 13:37 13.12.2021
6495 Clouds 3 1016 1 131 1.9 187 12:40 13.12.2021
6496 Clouds 3 1017 1 362 1.07 182 11:53 13.12.2021
6497 Clouds 3 1018 1 467 0.9 240 11:34 13.12.2021
6498 Clouds 2 1018 1 468 0.9 240 10:41 13.12.2021
6499 Clouds 2 1018 1 10000 0.73 202 08:45 13.12.2021
6500 Clouds 2 995 49 5344 0.45 180 06:55 13.12.2021
6501 Clouds 2 995 49 4611 0.64 355 05:19 13.12.2021
6502 Clouds 2 995 49 2245 0.45 310 00:41 13.12.2021
6503 Clouds 2 1004 63 107 0.51 276 21:59 12.12.2021
6504 Clouds 1 1004 63 107 0.45 135 21:29 12.12.2021
6505 Clouds 1 1004 63 107 0.94 167 19:36 12.12.2021
6506 Clouds 1 993 48 82 0.45 318 18:23 12.12.2021
6507 Rain 1 993 47 78 0.45 270 16:40 12.12.2021
6508 Snow 2 1003 63 66 0.45 90 15:58 12.12.2021
6509 Rain 2 1003 63 51 1.9 167 15:28 12.12.2021
6510 Snow 1 993 47 51 0.89 201 14:54 12.12.2021
6511 Snow 1 1003 61 58 2.07 167 14:19 12.12.2021
6512 Snow 1 1003 61 43 0.45 39 12:48 12.12.2021
6513 Snow 1 1003 60 76 0.89 177 12:23 12.12.2021
6514 Snow 1 992 46 77 0.45 184 11:43 12.12.2021
6515 Snow 1 992 47 108 0.89 273 10:44 12.12.2021
6516 Snow 0 1015 1 146 1.62 150 10:21 12.12.2021
6517 Snow 1 992 47 101 0.45 225 08:48 12.12.2021
6518 Snow 1 1015 1 129 1.38 142 07:28 12.12.2021
6519 Snow 1 992 47 925 0.45 183 05:29 12.12.2021
6520 Rain 1 992 47 925 0.45 308 04:51 12.12.2021
6521 Clouds 1 1016 1 6711 1.03 157 00:57 12.12.2021
6522 Snow 1 1015 1 1050 0.24 173 22:56 11.12.2021
6523 Snow 1 1015 1 595 0.43 217 22:20 11.12.2021
6524 Snow 1 1015 1 595 0.43 217 21:35 11.12.2021
6525 Snow 1 1014 1 371 0.29 276 20:19 11.12.2021
6526 Rain 1 990 46 281 0.46 295 19:21 11.12.2021
6527 Clouds 1 1014 1 4410 0.52 346 18:45 11.12.2021
6528 Clouds 1 1014 1 10000 0.89 324 17:54 11.12.2021
6529 Clouds 1 1014 1 10000 1.04 331 16:37 11.12.2021
6530 Clouds 1 1013 1 10000 0.96 334 15:41 11.12.2021
6531 Clouds 2 988 45 10000 1.12 332 14:36 11.12.2021
6532 Clouds 1 1012 1 10000 1.4 339 12:41 11.12.2021
6533 Rain 1 1012 1 657 1.81 345 10:58 11.12.2021
6534 Clouds 1 1011 1 368 1.92 348 09:44 11.12.2021
6535 Snow 1 1009 1 318 2.44 358 03:58 11.12.2021
6536 Snow 1 983 44 220 0.45 314 00:49 11.12.2021
6537 Snow 0 1007 1 256 2.69 6 23:44 10.12.2021
6538 Snow 0 1007 1 157 2.82 6 22:50 10.12.2021
6539 Snow 0 1007 1 156 2.91 1 21:51 10.12.2021
6540 Snow 0 1002 46 152 2.89 359 20:32 10.12.2021
6541 Snow 0 1002 46 173 2.76 358 19:19 10.12.2021
6542 Snow 0 1006 1 279 2.84 355 17:50 10.12.2021
6543 Clouds -1 1006 96 296 2.56 355 16:39 10.12.2021
6544 Clouds -1 1002 37 1278 2.43 355 15:45 10.12.2021
6545 Clouds -1 1002 37 872 2.51 1 15:27 10.12.2021
6546 Clouds -1 1002 37 872 2.51 1 14:49 10.12.2021
6547 Clouds -1 1002 37 1598 2.12 4 13:50 10.12.2021
6548 Clouds -1 1002 41 7418 2.08 5 12:56 10.12.2021
6549 Clouds -1 1006 1 1589 2.26 3 11:43 10.12.2021
6550 Clouds -1 1006 1 1667 2.17 3 11:19 10.12.2021
6551 Snow -1 1006 1 585 2.15 5 09:53 10.12.2021
6552 Snow -1 1005 1 440 2.13 7 08:23 10.12.2021
6553 Snow -1 981 43 204 0.45 313 04:58 10.12.2021
6554 Snow -1 982 43 201 0.45 316 02:44 10.12.2021
6555 Snow -1 983 43 141 0.45 337 23:43 09.12.2021
6556 Snow -1 983 44 131 0.45 274 22:44 09.12.2021
6557 Snow -1 983 44 138 2.44 54 22:23 09.12.2021
6558 Snow 0 995 60 137 0.45 38 21:40 09.12.2021
6559 Snow 0 995 60 132 0.45 273 20:38 09.12.2021
6560 Snow 0 995 60 132 0.45 90 19:46 09.12.2021
6561 Snow 0 995 60 114 0.45 315 19:21 09.12.2021
6562 Snow 0 997 60 175 2.15 69 18:24 09.12.2021
6563 Snow 0 997 60 176 0.45 2 17:51 09.12.2021
6564 Snow 0 997 60 181 0.45 270 17:24 09.12.2021
6565 Snow 0 997 60 181 0.45 315 16:43 09.12.2021
6566 Snow 0 1009 48 214 2 50 15:31 09.12.2021
6567 Snow 0 1009 48 212 1.99 49 14:43 09.12.2021
6568 Snow 0 1009 48 226 1.75 34 13:18 09.12.2021
6569 Snow -1 1013 1 182 1.61 40 12:31 09.12.2021
6570 Snow -1 1013 1 157 1.76 42 10:47 09.12.2021
6571 Snow -1 1013 1 155 1.86 38 08:20 09.12.2021
6572 Snow -1 1013 1 130 1.92 24 05:54 09.12.2021
6573 Snow -2 1012 1 119 1.92 29 01:52 09.12.2021
6574 Snow -2 1013 1 157 2.03 32 23:40 08.12.2021
6575 Snow -2 1013 1 130 2.16 24 23:20 08.12.2021
6576 Snow -3 1013 1 130 2.16 25 22:43 08.12.2021
6577 Snow -3 1013 1 162 2.36 28 21:39 08.12.2021
6578 Snow -3 1013 1 137 2.54 31 20:58 08.12.2021
6579 Snow -3 1018 44 137 0.89 164 19:57 08.12.2021
6580 Snow -2 1003 56 155 0.45 310 19:29 08.12.2021
6581 Snow -3 987 42 166 2.92 39 18:30 08.12.2021
6582 Snow -3 987 42 380 0.45 270 17:24 08.12.2021
6583 Snow -3 986 41 553 0.89 90 15:46 08.12.2021
6584 Snow -3 986 41 535 1.34 202 15:23 08.12.2021
6585 Snow -3 1002 55 1788 0.89 270 14:26 08.12.2021
6586 Snow -4 988 39 1917 0.45 273 10:53 08.12.2021
6587 Snow -5 988 39 330 0.45 223 10:24 08.12.2021
6588 Snow -5 988 39 456 0.89 357 08:54 08.12.2021
6589 Snow -6 987 38 426 0.89 316 07:21 08.12.2021
6590 Snow -7 989 37 140 0.89 270 01:21 08.12.2021
6591 Snow -7 990 36 180 0.45 359 23:31 07.12.2021
6592 Snow -8 990 36 205 0.45 313 21:26 07.12.2021
6593 Snow -7 1002 52 205 0.45 315 20:54 07.12.2021
6594 Snow -8 1002 51 276 0.45 315 19:50 07.12.2021
6595 Snow -8 1002 51 263 0.45 270 18:39 07.12.2021
6596 Clouds -8 1002 51 303 1.34 36 17:27 07.12.2021
6597 Clouds -8 1002 51 303 0.45 273 17:27 07.12.2021
6598 Clouds -8 1014 44 303 1.34 36 16:57 07.12.2021
6599 Snow -8 1014 44 292 1.39 28 16:28 07.12.2021
6600 Clouds -8 1002 39 500 0.45 315 14:57 07.12.2021
6601 Clouds -8 1003 39 621 1.26 45 13:49 07.12.2021
6602 Snow -8 1003 40 644 1.47 47 12:46 07.12.2021
6603 Snow -8 1003 40 296 0.45 273 11:25 07.12.2021
6604 Snow -9 992 35 209 1.33 45 09:44 07.12.2021
6605 Snow -9 992 33 294 0.45 315 07:55 07.12.2021
6606 Snow -9 992 34 449 0.45 315 05:55 07.12.2021
6607 Snow -9 992 34 449 0.45 315 05:30 07.12.2021
6608 Snow -9 993 33 378 0.45 270 23:45 06.12.2021
6609 Snow -9 993 33 404 0.45 318 22:44 06.12.2021
6610 Clouds -9 994 33 350 0.45 90 22:18 06.12.2021
6611 Clouds -10 994 33 349 0.45 309 21:42 06.12.2021
6612 Clouds -10 994 33 430 1.25 49 20:33 06.12.2021
6613 Snow -10 995 33 655 1.12 50 19:27 06.12.2021
6614 Clouds -10 995 33 658 1.13 50 18:57 06.12.2021
6615 Clouds -10 1005 50 1846 0.45 270 17:56 06.12.2021
6616 Clouds -10 1005 50 5480 0.95 53 17:36 06.12.2021
6617 Clouds -10 1009 57 10000 0.45 271 16:21 06.12.2021
6618 Clouds -9 1007 55 1738 1.04 69 14:54 06.12.2021
6619 Clouds -9 997 35 4973 0.91 64 13:45 06.12.2021
6620 Clouds -9 1022 6 10000 1.09 67 12:39 06.12.2021
6621 Clouds -10 999 34 10000 0.45 357 10:31 06.12.2021
6622 Clouds -10 999 34 10000 1.01 25 07:59 06.12.2021
6623 Clouds -9 1000 34 10000 0.45 310 04:28 06.12.2021
6624 Clouds -8 1027 22 10000 1.56 19 22:30 05.12.2021
6625 Clouds -8 1001 47 10000 1.81 15 21:26 05.12.2021
6626 Clouds -8 1001 48 10000 0.45 315 20:59 05.12.2021
6627 Clouds -8 1001 48 10000 0.45 315 20:18 05.12.2021
6628 Clouds -8 1000 49 10000 1.93 21 19:33 05.12.2021
6629 Clouds -7 1011 57 10000 1.76 19 18:39 05.12.2021
6630 Clouds -7 1011 57 10000 0.45 315 18:19 05.12.2021
6631 Clouds -7 1011 59 10000 0.45 320 17:45 05.12.2021
6632 Clouds -7 1000 54 10000 0.45 315 16:41 05.12.2021
6633 Clouds -7 1000 53 10000 0.45 315 16:22 05.12.2021
6634 Clouds -6 999 47 10000 0.45 294 14:48 05.12.2021
6635 Clouds -6 999 47 10000 0.45 315 14:30 05.12.2021
6636 Clouds -5 1009 56 10000 0.45 314 13:43 05.12.2021
6637 Clouds -5 1009 54 10000 0.45 317 12:55 05.12.2021
6638 Clouds -5 1009 54 10000 0.45 227 12:29 05.12.2021
6639 Snow -5 1009 60 10000 0.45 312 11:49 05.12.2021
6640 Clouds -5 1008 59 10000 0.45 135 10:51 05.12.2021
6641 Clouds -5 1023 33 10000 2.32 20 09:53 05.12.2021
6642 Clouds -5 1021 90 10000 2.39 21 07:33 05.12.2021
6643 Clouds -5 1017 1 8898 2.51 25 02:25 05.12.2021
6644 Clouds -6 1015 1 10000 2.22 10 23:28 04.12.2021
6645 Clouds -6 989 37 10000 0.45 227 21:53 04.12.2021
6646 Clouds -6 1007 40 10000 2.36 18 20:47 04.12.2021
6647 Clouds -6 1007 40 10000 2.31 18 19:54 04.12.2021
6648 Clouds -6 1007 40 10000 2.31 18 19:31 04.12.2021
6649 Clouds -6 1007 40 10000 2.28 23 17:58 04.12.2021
6650 Clouds -6 1007 40 10000 2.28 23 17:37 04.12.2021
6651 Clouds -6 1007 40 10000 2.27 22 16:48 04.12.2021
6652 Clouds -5 1004 33 10000 2.22 22 16:30 04.12.2021
6653 Clouds -5 1004 33 10000 2.27 22 16:30 04.12.2021
6654 Clouds -5 1004 33 10000 2.26 26 14:39 04.12.2021
6655 Clouds -5 993 45 10000 0.45 270 11:47 04.12.2021
6656 Clouds -5 993 45 10000 0.45 315 11:29 04.12.2021
6657 Clouds -6 982 37 10000 0.45 270 10:43 04.12.2021
6658 Clouds -6 981 38 9515 0.45 318 08:45 04.12.2021
6659 Snow -6 979 38 7104 2.06 32 06:24 04.12.2021
6660 Snow -6 979 38 7874 0.45 232 04:41 04.12.2021
6661 Clouds -7 977 37 492 0.89 228 23:49 03.12.2021
6662 Snow -7 977 37 494 0.45 271 23:49 03.12.2021
6663 Clouds -7 977 37 494 0.45 271 23:49 03.12.2021
6664 Snow -7 977 37 289 0.45 90 22:57 03.12.2021
6665 Clouds -7 987 54 289 0.45 315 22:38 03.12.2021
6666 Snow -7 987 54 243 0.89 359 21:25 03.12.2021
6667 Snow -8 987 53 241 0.45 352 20:46 03.12.2021
6668 Snow -8 987 53 196 0.45 44 19:40 03.12.2021
6669 Snow -8 987 41 181 0.89 315 18:28 03.12.2021
6670 Snow -8 987 41 181 0.45 225 17:58 03.12.2021
6671 Clouds -8 998 30 10000 1.74 47 14:23 03.12.2021
6672 Clouds -7 998 30 10000 1.52 50 12:54 03.12.2021
6673 Clouds -9 1000 62 10000 1.67 53 11:38 03.12.2021
6674 Clouds -9 1000 62 10000 1.79 50 10:32 03.12.2021
6675 Clouds -9 1001 1 10000